<?xml version="1.0" encoding="UTF-8" standalone="no" ?>
<gpx xmlns="http://www.topografix.com/GPX/1/1" xmlns:xsi="http://www.w3.org/2001/XMLSchema-instance" xsi:schemaLocation="http://www.topografix.com/GPX/1/1 http://www.topografix.com/GPX/1/1/gpx.xsd" version="1.1" creator="VisuGPX - https://www.visugpx.com">
  <metadata>
    <name>Rando Trois Plateaux 2015</name>
    <desc><![CDATA[Rando VTT 3 plateaux 2015]]></desc>
  </metadata>
  <trk>
    <name><![CDATA[2015-03-08-01]]></name>
    <trkseg>
      <trkpt lat="44.35048" lon="4.77924">
        <ele>90.8</ele>
        <time>2015-03-08T06:38:55Z</time>
      </trkpt>
      <trkpt lat="44.35048" lon="4.77924">
        <ele>90.8</ele>
        <time>2015-03-08T06:38:56Z</time>
      </trkpt>
      <trkpt lat="44.3504" lon="4.7793">
        <ele>90.1</ele>
        <time>2015-03-08T06:44:09Z</time>
      </trkpt>
      <trkpt lat="44.35033" lon="4.77922">
        <ele>90</ele>
        <time>2015-03-08T06:44:13Z</time>
      </trkpt>
      <trkpt lat="44.35024" lon="4.77916">
        <ele>90</ele>
        <time>2015-03-08T06:44:17Z</time>
      </trkpt>
      <trkpt lat="44.35014" lon="4.77917">
        <ele>90</ele>
        <time>2015-03-08T06:44:22Z</time>
      </trkpt>
      <trkpt lat="44.3501" lon="4.77929">
        <ele>89.9</ele>
        <time>2015-03-08T06:44:26Z</time>
      </trkpt>
      <trkpt lat="44.3501" lon="4.77946">
        <ele>89.9</ele>
        <time>2015-03-08T06:44:30Z</time>
      </trkpt>
      <trkpt lat="44.3501" lon="4.77959">
        <ele>90</ele>
        <time>2015-03-08T06:44:33Z</time>
      </trkpt>
      <trkpt lat="44.35009" lon="4.77973">
        <ele>90.2</ele>
        <time>2015-03-08T06:44:36Z</time>
      </trkpt>
      <trkpt lat="44.35008" lon="4.77988">
        <ele>90.5</ele>
        <time>2015-03-08T06:44:39Z</time>
      </trkpt>
      <trkpt lat="44.35009" lon="4.78003">
        <ele>90.8</ele>
        <time>2015-03-08T06:44:42Z</time>
      </trkpt>
      <trkpt lat="44.35009" lon="4.78018">
        <ele>91</ele>
        <time>2015-03-08T06:44:45Z</time>
      </trkpt>
      <trkpt lat="44.35009" lon="4.78032">
        <ele>91.1</ele>
        <time>2015-03-08T06:44:48Z</time>
      </trkpt>
      <trkpt lat="44.35011" lon="4.78047">
        <ele>91.5</ele>
        <time>2015-03-08T06:44:55Z</time>
      </trkpt>
      <trkpt lat="44.35012" lon="4.7806">
        <ele>91.6</ele>
        <time>2015-03-08T06:44:58Z</time>
      </trkpt>
      <trkpt lat="44.35013" lon="4.78074">
        <ele>91.7</ele>
        <time>2015-03-08T06:45:01Z</time>
      </trkpt>
      <trkpt lat="44.35015" lon="4.78088">
        <ele>91.8</ele>
        <time>2015-03-08T06:45:04Z</time>
      </trkpt>
      <trkpt lat="44.35016" lon="4.78102">
        <ele>91.9</ele>
        <time>2015-03-08T06:45:07Z</time>
      </trkpt>
      <trkpt lat="44.35018" lon="4.78116">
        <ele>92.2</ele>
        <time>2015-03-08T06:45:10Z</time>
      </trkpt>
      <trkpt lat="44.3502" lon="4.78131">
        <ele>92.7</ele>
        <time>2015-03-08T06:45:13Z</time>
      </trkpt>
      <trkpt lat="44.35021" lon="4.78146">
        <ele>93</ele>
        <time>2015-03-08T06:45:16Z</time>
      </trkpt>
      <trkpt lat="44.35023" lon="4.78161">
        <ele>93.2</ele>
        <time>2015-03-08T06:45:19Z</time>
      </trkpt>
      <trkpt lat="44.35025" lon="4.78176">
        <ele>93.4</ele>
        <time>2015-03-08T06:45:22Z</time>
      </trkpt>
      <trkpt lat="44.35026" lon="4.78191">
        <ele>93.5</ele>
        <time>2015-03-08T06:45:25Z</time>
      </trkpt>
      <trkpt lat="44.35028" lon="4.78206">
        <ele>93.7</ele>
        <time>2015-03-08T06:45:28Z</time>
      </trkpt>
      <trkpt lat="44.3503" lon="4.78221">
        <ele>93.8</ele>
        <time>2015-03-08T06:45:31Z</time>
      </trkpt>
      <trkpt lat="44.35031" lon="4.78236">
        <ele>94</ele>
        <time>2015-03-08T06:45:34Z</time>
      </trkpt>
      <trkpt lat="44.35033" lon="4.78251">
        <ele>94.2</ele>
        <time>2015-03-08T06:45:37Z</time>
      </trkpt>
      <trkpt lat="44.35043" lon="4.78258">
        <ele>94.3</ele>
        <time>2015-03-08T06:45:40Z</time>
      </trkpt>
      <trkpt lat="44.35053" lon="4.7825">
        <ele>94.5</ele>
        <time>2015-03-08T06:45:43Z</time>
      </trkpt>
      <trkpt lat="44.35061" lon="4.78241">
        <ele>94.6</ele>
        <time>2015-03-08T06:45:46Z</time>
      </trkpt>
      <trkpt lat="44.35069" lon="4.78232">
        <ele>95</ele>
        <time>2015-03-08T06:45:49Z</time>
      </trkpt>
      <trkpt lat="44.35079" lon="4.78222">
        <ele>95.5</ele>
        <time>2015-03-08T06:45:53Z</time>
      </trkpt>
      <trkpt lat="44.35087" lon="4.78214">
        <ele>95.8</ele>
        <time>2015-03-08T06:45:56Z</time>
      </trkpt>
      <trkpt lat="44.35096" lon="4.78207">
        <ele>96.1</ele>
        <time>2015-03-08T06:45:59Z</time>
      </trkpt>
      <trkpt lat="44.35105" lon="4.782">
        <ele>96.4</ele>
        <time>2015-03-08T06:46:02Z</time>
      </trkpt>
      <trkpt lat="44.35114" lon="4.78192">
        <ele>96.6</ele>
        <time>2015-03-08T06:46:05Z</time>
      </trkpt>
      <trkpt lat="44.35123" lon="4.78185">
        <ele>96.9</ele>
        <time>2015-03-08T06:46:08Z</time>
      </trkpt>
      <trkpt lat="44.35131" lon="4.78178">
        <ele>97.2</ele>
        <time>2015-03-08T06:46:11Z</time>
      </trkpt>
      <trkpt lat="44.35141" lon="4.7817">
        <ele>97.5</ele>
        <time>2015-03-08T06:46:14Z</time>
      </trkpt>
      <trkpt lat="44.3515" lon="4.78161">
        <ele>97.9</ele>
        <time>2015-03-08T06:46:17Z</time>
      </trkpt>
      <trkpt lat="44.35162" lon="4.78151">
        <ele>98.2</ele>
        <time>2015-03-08T06:46:20Z</time>
      </trkpt>
      <trkpt lat="44.3517" lon="4.78144">
        <ele>98.3</ele>
        <time>2015-03-08T06:46:22Z</time>
      </trkpt>
      <trkpt lat="44.35178" lon="4.78136">
        <ele>98.4</ele>
        <time>2015-03-08T06:46:24Z</time>
      </trkpt>
      <trkpt lat="44.35187" lon="4.78128">
        <ele>98.5</ele>
        <time>2015-03-08T06:46:26Z</time>
      </trkpt>
      <trkpt lat="44.35196" lon="4.7812">
        <ele>98.5</ele>
        <time>2015-03-08T06:46:28Z</time>
      </trkpt>
      <trkpt lat="44.35205" lon="4.78112">
        <ele>98.3</ele>
        <time>2015-03-08T06:46:30Z</time>
      </trkpt>
      <trkpt lat="44.35215" lon="4.78105">
        <ele>98.2</ele>
        <time>2015-03-08T06:46:32Z</time>
      </trkpt>
      <trkpt lat="44.35224" lon="4.78098">
        <ele>98</ele>
        <time>2015-03-08T06:46:34Z</time>
      </trkpt>
      <trkpt lat="44.35234" lon="4.78092">
        <ele>97.9</ele>
        <time>2015-03-08T06:46:36Z</time>
      </trkpt>
      <trkpt lat="44.35243" lon="4.78086">
        <ele>97.8</ele>
        <time>2015-03-08T06:46:38Z</time>
      </trkpt>
      <trkpt lat="44.35252" lon="4.7808">
        <ele>97.7</ele>
        <time>2015-03-08T06:46:40Z</time>
      </trkpt>
      <trkpt lat="44.35261" lon="4.78075">
        <ele>97.6</ele>
        <time>2015-03-08T06:46:42Z</time>
      </trkpt>
      <trkpt lat="44.35269" lon="4.7807">
        <ele>97.4</ele>
        <time>2015-03-08T06:46:44Z</time>
      </trkpt>
      <trkpt lat="44.35281" lon="4.78063">
        <ele>97.1</ele>
        <time>2015-03-08T06:46:47Z</time>
      </trkpt>
      <trkpt lat="44.35292" lon="4.78054">
        <ele>97.1</ele>
        <time>2015-03-08T06:46:50Z</time>
      </trkpt>
      <trkpt lat="44.35302" lon="4.78043">
        <ele>96.9</ele>
        <time>2015-03-08T06:46:53Z</time>
      </trkpt>
      <trkpt lat="44.35312" lon="4.7803">
        <ele>96.8</ele>
        <time>2015-03-08T06:46:56Z</time>
      </trkpt>
      <trkpt lat="44.35322" lon="4.78018">
        <ele>96.7</ele>
        <time>2015-03-08T06:46:59Z</time>
      </trkpt>
      <trkpt lat="44.35329" lon="4.78009">
        <ele>96.6</ele>
        <time>2015-03-08T06:47:01Z</time>
      </trkpt>
      <trkpt lat="44.35336" lon="4.78001">
        <ele>96.4</ele>
        <time>2015-03-08T06:47:03Z</time>
      </trkpt>
      <trkpt lat="44.35343" lon="4.77993">
        <ele>96.3</ele>
        <time>2015-03-08T06:47:05Z</time>
      </trkpt>
      <trkpt lat="44.35351" lon="4.77985">
        <ele>96.1</ele>
        <time>2015-03-08T06:47:07Z</time>
      </trkpt>
      <trkpt lat="44.35359" lon="4.77977">
        <ele>95.9</ele>
        <time>2015-03-08T06:47:09Z</time>
      </trkpt>
      <trkpt lat="44.35367" lon="4.77969">
        <ele>95.8</ele>
        <time>2015-03-08T06:47:11Z</time>
      </trkpt>
      <trkpt lat="44.35375" lon="4.77962">
        <ele>95.7</ele>
        <time>2015-03-08T06:47:13Z</time>
      </trkpt>
      <trkpt lat="44.35383" lon="4.77953">
        <ele>95.6</ele>
        <time>2015-03-08T06:47:15Z</time>
      </trkpt>
      <trkpt lat="44.35391" lon="4.77945">
        <ele>95.3</ele>
        <time>2015-03-08T06:47:17Z</time>
      </trkpt>
      <trkpt lat="44.354" lon="4.77937">
        <ele>95.1</ele>
        <time>2015-03-08T06:47:19Z</time>
      </trkpt>
      <trkpt lat="44.35409" lon="4.77928">
        <ele>94.8</ele>
        <time>2015-03-08T06:47:21Z</time>
      </trkpt>
      <trkpt lat="44.35418" lon="4.7792">
        <ele>94.6</ele>
        <time>2015-03-08T06:47:23Z</time>
      </trkpt>
      <trkpt lat="44.35428" lon="4.77912">
        <ele>94.3</ele>
        <time>2015-03-08T06:47:25Z</time>
      </trkpt>
      <trkpt lat="44.35438" lon="4.77905">
        <ele>94</ele>
        <time>2015-03-08T06:47:27Z</time>
      </trkpt>
      <trkpt lat="44.35447" lon="4.77897">
        <ele>93.7</ele>
        <time>2015-03-08T06:47:29Z</time>
      </trkpt>
      <trkpt lat="44.35457" lon="4.7789">
        <ele>93.3</ele>
        <time>2015-03-08T06:47:31Z</time>
      </trkpt>
      <trkpt lat="44.35465" lon="4.77883">
        <ele>92.9</ele>
        <time>2015-03-08T06:47:33Z</time>
      </trkpt>
      <trkpt lat="44.35474" lon="4.77876">
        <ele>92.6</ele>
        <time>2015-03-08T06:47:35Z</time>
      </trkpt>
      <trkpt lat="44.35483" lon="4.7787">
        <ele>92.3</ele>
        <time>2015-03-08T06:47:37Z</time>
      </trkpt>
      <trkpt lat="44.35491" lon="4.77863">
        <ele>92</ele>
        <time>2015-03-08T06:47:39Z</time>
      </trkpt>
      <trkpt lat="44.35499" lon="4.77856">
        <ele>91.8</ele>
        <time>2015-03-08T06:47:41Z</time>
      </trkpt>
      <trkpt lat="44.35507" lon="4.77847">
        <ele>91.6</ele>
        <time>2015-03-08T06:47:43Z</time>
      </trkpt>
      <trkpt lat="44.35514" lon="4.77839">
        <ele>91.4</ele>
        <time>2015-03-08T06:47:45Z</time>
      </trkpt>
      <trkpt lat="44.35521" lon="4.7783">
        <ele>91.3</ele>
        <time>2015-03-08T06:47:47Z</time>
      </trkpt>
      <trkpt lat="44.35528" lon="4.77821">
        <ele>91.2</ele>
        <time>2015-03-08T06:47:49Z</time>
      </trkpt>
      <trkpt lat="44.35536" lon="4.77807">
        <ele>91</ele>
        <time>2015-03-08T06:47:52Z</time>
      </trkpt>
      <trkpt lat="44.35545" lon="4.77796">
        <ele>90.8</ele>
        <time>2015-03-08T06:47:55Z</time>
      </trkpt>
      <trkpt lat="44.35556" lon="4.77797">
        <ele>90.6</ele>
        <time>2015-03-08T06:47:58Z</time>
      </trkpt>
      <trkpt lat="44.35566" lon="4.77797">
        <ele>90.5</ele>
        <time>2015-03-08T06:48:00Z</time>
      </trkpt>
      <trkpt lat="44.35576" lon="4.77793">
        <ele>90.4</ele>
        <time>2015-03-08T06:48:02Z</time>
      </trkpt>
      <trkpt lat="44.35585" lon="4.77786">
        <ele>90.1</ele>
        <time>2015-03-08T06:48:04Z</time>
      </trkpt>
      <trkpt lat="44.35595" lon="4.7778">
        <ele>89.9</ele>
        <time>2015-03-08T06:48:06Z</time>
      </trkpt>
      <trkpt lat="44.35604" lon="4.77774">
        <ele>89.7</ele>
        <time>2015-03-08T06:48:08Z</time>
      </trkpt>
      <trkpt lat="44.35613" lon="4.77768">
        <ele>89.5</ele>
        <time>2015-03-08T06:48:10Z</time>
      </trkpt>
      <trkpt lat="44.35623" lon="4.77762">
        <ele>89.3</ele>
        <time>2015-03-08T06:48:12Z</time>
      </trkpt>
      <trkpt lat="44.35633" lon="4.77758">
        <ele>89.2</ele>
        <time>2015-03-08T06:48:14Z</time>
      </trkpt>
      <trkpt lat="44.35643" lon="4.77754">
        <ele>89</ele>
        <time>2015-03-08T06:48:16Z</time>
      </trkpt>
      <trkpt lat="44.35654" lon="4.7775">
        <ele>88.9</ele>
        <time>2015-03-08T06:48:18Z</time>
      </trkpt>
      <trkpt lat="44.35664" lon="4.77748">
        <ele>88.8</ele>
        <time>2015-03-08T06:48:20Z</time>
      </trkpt>
      <trkpt lat="44.35674" lon="4.77745">
        <ele>88.7</ele>
        <time>2015-03-08T06:48:22Z</time>
      </trkpt>
      <trkpt lat="44.35685" lon="4.77742">
        <ele>88.5</ele>
        <time>2015-03-08T06:48:24Z</time>
      </trkpt>
      <trkpt lat="44.35695" lon="4.77739">
        <ele>88.4</ele>
        <time>2015-03-08T06:48:26Z</time>
      </trkpt>
      <trkpt lat="44.35706" lon="4.77735">
        <ele>88.3</ele>
        <time>2015-03-08T06:48:28Z</time>
      </trkpt>
      <trkpt lat="44.35716" lon="4.77732">
        <ele>88.1</ele>
        <time>2015-03-08T06:48:30Z</time>
      </trkpt>
      <trkpt lat="44.35726" lon="4.77728">
        <ele>88</ele>
        <time>2015-03-08T06:48:32Z</time>
      </trkpt>
      <trkpt lat="44.35736" lon="4.77725">
        <ele>87.9</ele>
        <time>2015-03-08T06:48:34Z</time>
      </trkpt>
      <trkpt lat="44.35747" lon="4.77722">
        <ele>87.8</ele>
        <time>2015-03-08T06:48:36Z</time>
      </trkpt>
      <trkpt lat="44.35757" lon="4.77718">
        <ele>87.7</ele>
        <time>2015-03-08T06:48:38Z</time>
      </trkpt>
      <trkpt lat="44.35767" lon="4.77714">
        <ele>87.6</ele>
        <time>2015-03-08T06:48:39Z</time>
      </trkpt>
      <trkpt lat="44.35777" lon="4.77711">
        <ele>87.4</ele>
        <time>2015-03-08T06:48:41Z</time>
      </trkpt>
      <trkpt lat="44.35787" lon="4.77707">
        <ele>87.3</ele>
        <time>2015-03-08T06:48:43Z</time>
      </trkpt>
      <trkpt lat="44.35797" lon="4.77703">
        <ele>87.2</ele>
        <time>2015-03-08T06:48:45Z</time>
      </trkpt>
      <trkpt lat="44.35807" lon="4.77699">
        <ele>87.1</ele>
        <time>2015-03-08T06:48:47Z</time>
      </trkpt>
      <trkpt lat="44.35817" lon="4.77695">
        <ele>87</ele>
        <time>2015-03-08T06:48:49Z</time>
      </trkpt>
      <trkpt lat="44.35827" lon="4.77691">
        <ele>86.9</ele>
        <time>2015-03-08T06:48:51Z</time>
      </trkpt>
      <trkpt lat="44.35838" lon="4.77687">
        <ele>86.9</ele>
        <time>2015-03-08T06:48:53Z</time>
      </trkpt>
      <trkpt lat="44.35849" lon="4.77683">
        <ele>86.7</ele>
        <time>2015-03-08T06:48:55Z</time>
      </trkpt>
      <trkpt lat="44.3586" lon="4.77679">
        <ele>86.5</ele>
        <time>2015-03-08T06:48:57Z</time>
      </trkpt>
      <trkpt lat="44.35871" lon="4.77675">
        <ele>86.3</ele>
        <time>2015-03-08T06:48:59Z</time>
      </trkpt>
      <trkpt lat="44.35882" lon="4.77671">
        <ele>86.1</ele>
        <time>2015-03-08T06:49:01Z</time>
      </trkpt>
      <trkpt lat="44.35892" lon="4.77667">
        <ele>85.9</ele>
        <time>2015-03-08T06:49:03Z</time>
      </trkpt>
      <trkpt lat="44.35903" lon="4.77663">
        <ele>85.8</ele>
        <time>2015-03-08T06:49:05Z</time>
      </trkpt>
      <trkpt lat="44.35914" lon="4.77659">
        <ele>85.7</ele>
        <time>2015-03-08T06:49:07Z</time>
      </trkpt>
      <trkpt lat="44.35924" lon="4.77656">
        <ele>85.6</ele>
        <time>2015-03-08T06:49:09Z</time>
      </trkpt>
      <trkpt lat="44.35934" lon="4.77652">
        <ele>85.5</ele>
        <time>2015-03-08T06:49:11Z</time>
      </trkpt>
      <trkpt lat="44.35945" lon="4.77648">
        <ele>85.5</ele>
        <time>2015-03-08T06:49:13Z</time>
      </trkpt>
      <trkpt lat="44.35955" lon="4.77645">
        <ele>85.4</ele>
        <time>2015-03-08T06:49:15Z</time>
      </trkpt>
      <trkpt lat="44.35965" lon="4.77641">
        <ele>85.4</ele>
        <time>2015-03-08T06:49:17Z</time>
      </trkpt>
      <trkpt lat="44.35975" lon="4.77638">
        <ele>85.3</ele>
        <time>2015-03-08T06:49:19Z</time>
      </trkpt>
      <trkpt lat="44.35985" lon="4.77634">
        <ele>85.3</ele>
        <time>2015-03-08T06:49:21Z</time>
      </trkpt>
      <trkpt lat="44.35994" lon="4.77632">
        <ele>85.2</ele>
        <time>2015-03-08T06:49:23Z</time>
      </trkpt>
      <trkpt lat="44.36004" lon="4.7763">
        <ele>85.2</ele>
        <time>2015-03-08T06:49:25Z</time>
      </trkpt>
      <trkpt lat="44.36014" lon="4.77628">
        <ele>85.1</ele>
        <time>2015-03-08T06:49:27Z</time>
      </trkpt>
      <trkpt lat="44.36023" lon="4.77626">
        <ele>85</ele>
        <time>2015-03-08T06:49:29Z</time>
      </trkpt>
      <trkpt lat="44.36033" lon="4.77623">
        <ele>84.9</ele>
        <time>2015-03-08T06:49:31Z</time>
      </trkpt>
      <trkpt lat="44.36043" lon="4.77621">
        <ele>84.8</ele>
        <time>2015-03-08T06:49:33Z</time>
      </trkpt>
      <trkpt lat="44.36053" lon="4.77618">
        <ele>84.6</ele>
        <time>2015-03-08T06:49:35Z</time>
      </trkpt>
      <trkpt lat="44.36063" lon="4.77615">
        <ele>84.5</ele>
        <time>2015-03-08T06:49:37Z</time>
      </trkpt>
      <trkpt lat="44.36072" lon="4.77611">
        <ele>84.4</ele>
        <time>2015-03-08T06:49:39Z</time>
      </trkpt>
      <trkpt lat="44.36082" lon="4.77605">
        <ele>84.5</ele>
        <time>2015-03-08T06:49:41Z</time>
      </trkpt>
      <trkpt lat="44.3609" lon="4.77598">
        <ele>84.5</ele>
        <time>2015-03-08T06:49:43Z</time>
      </trkpt>
      <trkpt lat="44.36099" lon="4.7759">
        <ele>84.5</ele>
        <time>2015-03-08T06:49:45Z</time>
      </trkpt>
      <trkpt lat="44.36107" lon="4.77581">
        <ele>84.5</ele>
        <time>2015-03-08T06:49:47Z</time>
      </trkpt>
      <trkpt lat="44.36116" lon="4.77573">
        <ele>84.5</ele>
        <time>2015-03-08T06:49:49Z</time>
      </trkpt>
      <trkpt lat="44.36124" lon="4.77564">
        <ele>84.5</ele>
        <time>2015-03-08T06:49:51Z</time>
      </trkpt>
      <trkpt lat="44.36131" lon="4.77556">
        <ele>84.5</ele>
        <time>2015-03-08T06:49:53Z</time>
      </trkpt>
      <trkpt lat="44.36139" lon="4.77548">
        <ele>84.6</ele>
        <time>2015-03-08T06:49:55Z</time>
      </trkpt>
      <trkpt lat="44.36147" lon="4.77539">
        <ele>84.6</ele>
        <time>2015-03-08T06:49:57Z</time>
      </trkpt>
      <trkpt lat="44.36154" lon="4.77531">
        <ele>84.6</ele>
        <time>2015-03-08T06:49:59Z</time>
      </trkpt>
      <trkpt lat="44.36164" lon="4.77519">
        <ele>84.6</ele>
        <time>2015-03-08T06:50:02Z</time>
      </trkpt>
      <trkpt lat="44.36173" lon="4.77507">
        <ele>84.6</ele>
        <time>2015-03-08T06:50:05Z</time>
      </trkpt>
      <trkpt lat="44.36182" lon="4.77496">
        <ele>84.6</ele>
        <time>2015-03-08T06:50:08Z</time>
      </trkpt>
      <trkpt lat="44.36189" lon="4.77485">
        <ele>84.6</ele>
        <time>2015-03-08T06:50:11Z</time>
      </trkpt>
      <trkpt lat="44.36196" lon="4.77476">
        <ele>84.7</ele>
        <time>2015-03-08T06:50:14Z</time>
      </trkpt>
      <trkpt lat="44.36203" lon="4.77466">
        <ele>84.7</ele>
        <time>2015-03-08T06:50:17Z</time>
      </trkpt>
      <trkpt lat="44.36212" lon="4.77455">
        <ele>84.7</ele>
        <time>2015-03-08T06:50:21Z</time>
      </trkpt>
      <trkpt lat="44.3622" lon="4.77443">
        <ele>84.7</ele>
        <time>2015-03-08T06:50:25Z</time>
      </trkpt>
      <trkpt lat="44.36228" lon="4.77433">
        <ele>84.8</ele>
        <time>2015-03-08T06:50:29Z</time>
      </trkpt>
      <trkpt lat="44.36236" lon="4.77421">
        <ele>84.9</ele>
        <time>2015-03-08T06:50:33Z</time>
      </trkpt>
      <trkpt lat="44.36243" lon="4.77411">
        <ele>84.6</ele>
        <time>2015-03-08T06:50:42Z</time>
      </trkpt>
      <trkpt lat="44.3625" lon="4.77403">
        <ele>84.6</ele>
        <time>2015-03-08T06:50:47Z</time>
      </trkpt>
      <trkpt lat="44.36258" lon="4.77392">
        <ele>84.6</ele>
        <time>2015-03-08T06:50:52Z</time>
      </trkpt>
      <trkpt lat="44.36265" lon="4.77383">
        <ele>84.7</ele>
        <time>2015-03-08T06:50:55Z</time>
      </trkpt>
      <trkpt lat="44.3627" lon="4.77372">
        <ele>84.7</ele>
        <time>2015-03-08T06:50:58Z</time>
      </trkpt>
      <trkpt lat="44.36271" lon="4.77358">
        <ele>84.7</ele>
        <time>2015-03-08T06:51:01Z</time>
      </trkpt>
      <trkpt lat="44.36271" lon="4.77344">
        <ele>84.8</ele>
        <time>2015-03-08T06:51:04Z</time>
      </trkpt>
      <trkpt lat="44.36271" lon="4.7733">
        <ele>84.8</ele>
        <time>2015-03-08T06:51:07Z</time>
      </trkpt>
      <trkpt lat="44.36272" lon="4.77315">
        <ele>84.9</ele>
        <time>2015-03-08T06:51:10Z</time>
      </trkpt>
      <trkpt lat="44.36272" lon="4.77301">
        <ele>85.2</ele>
        <time>2015-03-08T06:51:13Z</time>
      </trkpt>
      <trkpt lat="44.36272" lon="4.77287">
        <ele>85.5</ele>
        <time>2015-03-08T06:51:16Z</time>
      </trkpt>
      <trkpt lat="44.36272" lon="4.77272">
        <ele>85.7</ele>
        <time>2015-03-08T06:51:19Z</time>
      </trkpt>
      <trkpt lat="44.36272" lon="4.77257">
        <ele>85.9</ele>
        <time>2015-03-08T06:51:22Z</time>
      </trkpt>
      <trkpt lat="44.36271" lon="4.77242">
        <ele>86</ele>
        <time>2015-03-08T06:51:25Z</time>
      </trkpt>
      <trkpt lat="44.36272" lon="4.77226">
        <ele>86.3</ele>
        <time>2015-03-08T06:51:28Z</time>
      </trkpt>
      <trkpt lat="44.36271" lon="4.77208">
        <ele>86.7</ele>
        <time>2015-03-08T06:51:31Z</time>
      </trkpt>
      <trkpt lat="44.3627" lon="4.7719">
        <ele>87.1</ele>
        <time>2015-03-08T06:51:34Z</time>
      </trkpt>
      <trkpt lat="44.36269" lon="4.77178">
        <ele>87.3</ele>
        <time>2015-03-08T06:51:36Z</time>
      </trkpt>
      <trkpt lat="44.36266" lon="4.7716">
        <ele>87.5</ele>
        <time>2015-03-08T06:51:39Z</time>
      </trkpt>
      <trkpt lat="44.36263" lon="4.77143">
        <ele>87.7</ele>
        <time>2015-03-08T06:51:42Z</time>
      </trkpt>
      <trkpt lat="44.36261" lon="4.77126">
        <ele>87.9</ele>
        <time>2015-03-08T06:51:45Z</time>
      </trkpt>
      <trkpt lat="44.36257" lon="4.77109">
        <ele>88.1</ele>
        <time>2015-03-08T06:51:48Z</time>
      </trkpt>
      <trkpt lat="44.36253" lon="4.77092">
        <ele>88.2</ele>
        <time>2015-03-08T06:51:51Z</time>
      </trkpt>
      <trkpt lat="44.36249" lon="4.7708">
        <ele>88.3</ele>
        <time>2015-03-08T06:51:53Z</time>
      </trkpt>
      <trkpt lat="44.36246" lon="4.77067">
        <ele>88.4</ele>
        <time>2015-03-08T06:51:56Z</time>
      </trkpt>
      <trkpt lat="44.36257" lon="4.77067">
        <ele>88.5</ele>
        <time>2015-03-08T06:52:02Z</time>
      </trkpt>
      <trkpt lat="44.36268" lon="4.77071">
        <ele>88.5</ele>
        <time>2015-03-08T06:52:06Z</time>
      </trkpt>
      <trkpt lat="44.36277" lon="4.77074">
        <ele>88.6</ele>
        <time>2015-03-08T06:52:09Z</time>
      </trkpt>
      <trkpt lat="44.36286" lon="4.77075">
        <ele>89</ele>
        <time>2015-03-08T06:52:13Z</time>
      </trkpt>
      <trkpt lat="44.36295" lon="4.77072">
        <ele>89.7</ele>
        <time>2015-03-08T06:52:17Z</time>
      </trkpt>
      <trkpt lat="44.36305" lon="4.77072">
        <ele>90.2</ele>
        <time>2015-03-08T06:52:21Z</time>
      </trkpt>
      <trkpt lat="44.36314" lon="4.77071">
        <ele>91.1</ele>
        <time>2015-03-08T06:52:26Z</time>
      </trkpt>
      <trkpt lat="44.36323" lon="4.77071">
        <ele>92.1</ele>
        <time>2015-03-08T06:52:31Z</time>
      </trkpt>
      <trkpt lat="44.36333" lon="4.77066">
        <ele>93.6</ele>
        <time>2015-03-08T06:52:37Z</time>
      </trkpt>
      <trkpt lat="44.36342" lon="4.77061">
        <ele>95</ele>
        <time>2015-03-08T06:52:43Z</time>
      </trkpt>
      <trkpt lat="44.36349" lon="4.77052">
        <ele>96.2</ele>
        <time>2015-03-08T06:52:48Z</time>
      </trkpt>
      <trkpt lat="44.36355" lon="4.77041">
        <ele>98.1</ele>
        <time>2015-03-08T06:52:55Z</time>
      </trkpt>
      <trkpt lat="44.36363" lon="4.77033">
        <ele>100</ele>
        <time>2015-03-08T06:53:02Z</time>
      </trkpt>
      <trkpt lat="44.36372" lon="4.77024">
        <ele>102</ele>
        <time>2015-03-08T06:53:09Z</time>
      </trkpt>
      <trkpt lat="44.36377" lon="4.77013">
        <ele>103.8</ele>
        <time>2015-03-08T06:53:17Z</time>
      </trkpt>
      <trkpt lat="44.36376" lon="4.76999">
        <ele>105.4</ele>
        <time>2015-03-08T06:53:24Z</time>
      </trkpt>
      <trkpt lat="44.36377" lon="4.76987">
        <ele>107.5</ele>
        <time>2015-03-08T06:53:33Z</time>
      </trkpt>
      <trkpt lat="44.36384" lon="4.76978">
        <ele>110.3</ele>
        <time>2015-03-08T06:53:49Z</time>
      </trkpt>
      <trkpt lat="44.3639" lon="4.76967">
        <ele>112.4</ele>
        <time>2015-03-08T06:54:01Z</time>
      </trkpt>
      <trkpt lat="44.36395" lon="4.76955">
        <ele>114.5</ele>
        <time>2015-03-08T06:54:13Z</time>
      </trkpt>
      <trkpt lat="44.36394" lon="4.76942">
        <ele>116.7</ele>
        <time>2015-03-08T06:54:25Z</time>
      </trkpt>
      <trkpt lat="44.3639" lon="4.76929">
        <ele>117.9</ele>
        <time>2015-03-08T06:54:32Z</time>
      </trkpt>
      <trkpt lat="44.36386" lon="4.76917">
        <ele>118.5</ele>
        <time>2015-03-08T06:54:36Z</time>
      </trkpt>
      <trkpt lat="44.36382" lon="4.76904">
        <ele>118.9</ele>
        <time>2015-03-08T06:54:40Z</time>
      </trkpt>
      <trkpt lat="44.36379" lon="4.7689">
        <ele>119.1</ele>
        <time>2015-03-08T06:54:44Z</time>
      </trkpt>
      <trkpt lat="44.36376" lon="4.76875">
        <ele>118.9</ele>
        <time>2015-03-08T06:54:47Z</time>
      </trkpt>
      <trkpt lat="44.36374" lon="4.76862">
        <ele>118.8</ele>
        <time>2015-03-08T06:54:49Z</time>
      </trkpt>
      <trkpt lat="44.36378" lon="4.7685">
        <ele>118.4</ele>
        <time>2015-03-08T06:54:52Z</time>
      </trkpt>
      <trkpt lat="44.36381" lon="4.76837">
        <ele>118</ele>
        <time>2015-03-08T06:54:55Z</time>
      </trkpt>
      <trkpt lat="44.36384" lon="4.76824">
        <ele>117.4</ele>
        <time>2015-03-08T06:54:59Z</time>
      </trkpt>
      <trkpt lat="44.36387" lon="4.76811">
        <ele>116.5</ele>
        <time>2015-03-08T06:55:06Z</time>
      </trkpt>
      <trkpt lat="44.36388" lon="4.76798">
        <ele>116.3</ele>
        <time>2015-03-08T06:55:10Z</time>
      </trkpt>
      <trkpt lat="44.36387" lon="4.76783">
        <ele>116.4</ele>
        <time>2015-03-08T06:55:14Z</time>
      </trkpt>
      <trkpt lat="44.36386" lon="4.76769">
        <ele>116.6</ele>
        <time>2015-03-08T06:55:17Z</time>
      </trkpt>
      <trkpt lat="44.36386" lon="4.76754">
        <ele>116.8</ele>
        <time>2015-03-08T06:55:20Z</time>
      </trkpt>
      <trkpt lat="44.36385" lon="4.7674">
        <ele>116.8</ele>
        <time>2015-03-08T06:55:22Z</time>
      </trkpt>
      <trkpt lat="44.36383" lon="4.76724">
        <ele>116.7</ele>
        <time>2015-03-08T06:55:24Z</time>
      </trkpt>
      <trkpt lat="44.36383" lon="4.76707">
        <ele>116.4</ele>
        <time>2015-03-08T06:55:26Z</time>
      </trkpt>
      <trkpt lat="44.36384" lon="4.76693">
        <ele>116</ele>
        <time>2015-03-08T06:55:28Z</time>
      </trkpt>
      <trkpt lat="44.36383" lon="4.76675">
        <ele>115.5</ele>
        <time>2015-03-08T06:55:31Z</time>
      </trkpt>
      <trkpt lat="44.36382" lon="4.76661">
        <ele>115.1</ele>
        <time>2015-03-08T06:55:34Z</time>
      </trkpt>
      <trkpt lat="44.36385" lon="4.76644">
        <ele>114.6</ele>
        <time>2015-03-08T06:55:38Z</time>
      </trkpt>
      <trkpt lat="44.36389" lon="4.76632">
        <ele>114.4</ele>
        <time>2015-03-08T06:55:42Z</time>
      </trkpt>
      <trkpt lat="44.36394" lon="4.76621">
        <ele>114.2</ele>
        <time>2015-03-08T06:55:46Z</time>
      </trkpt>
      <trkpt lat="44.36397" lon="4.76607">
        <ele>114</ele>
        <time>2015-03-08T06:55:49Z</time>
      </trkpt>
      <trkpt lat="44.364" lon="4.7659">
        <ele>113.9</ele>
        <time>2015-03-08T06:55:52Z</time>
      </trkpt>
      <trkpt lat="44.36402" lon="4.76577">
        <ele>113.8</ele>
        <time>2015-03-08T06:55:54Z</time>
      </trkpt>
      <trkpt lat="44.36403" lon="4.76561">
        <ele>113.4</ele>
        <time>2015-03-08T06:55:56Z</time>
      </trkpt>
      <trkpt lat="44.36406" lon="4.76545">
        <ele>113</ele>
        <time>2015-03-08T06:55:58Z</time>
      </trkpt>
      <trkpt lat="44.36412" lon="4.76531">
        <ele>112.4</ele>
        <time>2015-03-08T06:56:00Z</time>
      </trkpt>
      <trkpt lat="44.36418" lon="4.7652">
        <ele>111.7</ele>
        <time>2015-03-08T06:56:02Z</time>
      </trkpt>
      <trkpt lat="44.36424" lon="4.76509">
        <ele>111.1</ele>
        <time>2015-03-08T06:56:04Z</time>
      </trkpt>
      <trkpt lat="44.36433" lon="4.76495">
        <ele>110.2</ele>
        <time>2015-03-08T06:56:07Z</time>
      </trkpt>
      <trkpt lat="44.36437" lon="4.76481">
        <ele>109.3</ele>
        <time>2015-03-08T06:56:10Z</time>
      </trkpt>
      <trkpt lat="44.36439" lon="4.76466">
        <ele>108.6</ele>
        <time>2015-03-08T06:56:13Z</time>
      </trkpt>
      <trkpt lat="44.36444" lon="4.76452">
        <ele>107.8</ele>
        <time>2015-03-08T06:56:16Z</time>
      </trkpt>
      <trkpt lat="44.36447" lon="4.7644">
        <ele>106.8</ele>
        <time>2015-03-08T06:56:20Z</time>
      </trkpt>
      <trkpt lat="44.3645" lon="4.76427">
        <ele>105.5</ele>
        <time>2015-03-08T06:56:26Z</time>
      </trkpt>
      <trkpt lat="44.36446" lon="4.76413">
        <ele>104.5</ele>
        <time>2015-03-08T06:56:31Z</time>
      </trkpt>
      <trkpt lat="44.36441" lon="4.76402">
        <ele>103.9</ele>
        <time>2015-03-08T06:56:35Z</time>
      </trkpt>
      <trkpt lat="44.36435" lon="4.76393">
        <ele>103.5</ele>
        <time>2015-03-08T06:56:38Z</time>
      </trkpt>
      <trkpt lat="44.3643" lon="4.76378">
        <ele>103.1</ele>
        <time>2015-03-08T06:56:42Z</time>
      </trkpt>
      <trkpt lat="44.36427" lon="4.76366">
        <ele>102.9</ele>
        <time>2015-03-08T06:56:45Z</time>
      </trkpt>
      <trkpt lat="44.36426" lon="4.76351">
        <ele>102.7</ele>
        <time>2015-03-08T06:56:49Z</time>
      </trkpt>
      <trkpt lat="44.36425" lon="4.76338">
        <ele>102.6</ele>
        <time>2015-03-08T06:56:52Z</time>
      </trkpt>
      <trkpt lat="44.36427" lon="4.76324">
        <ele>103</ele>
        <time>2015-03-08T06:56:57Z</time>
      </trkpt>
      <trkpt lat="44.36429" lon="4.76311">
        <ele>103.7</ele>
        <time>2015-03-08T06:57:03Z</time>
      </trkpt>
      <trkpt lat="44.36432" lon="4.76297">
        <ele>105.1</ele>
        <time>2015-03-08T06:57:09Z</time>
      </trkpt>
      <trkpt lat="44.36433" lon="4.76284">
        <ele>106.3</ele>
        <time>2015-03-08T06:57:14Z</time>
      </trkpt>
      <trkpt lat="44.36434" lon="4.7627">
        <ele>107.3</ele>
        <time>2015-03-08T06:57:19Z</time>
      </trkpt>
      <trkpt lat="44.36433" lon="4.76256">
        <ele>108.1</ele>
        <time>2015-03-08T06:57:24Z</time>
      </trkpt>
      <trkpt lat="44.36434" lon="4.76242">
        <ele>108.8</ele>
        <time>2015-03-08T06:57:29Z</time>
      </trkpt>
      <trkpt lat="44.36435" lon="4.76228">
        <ele>109.9</ele>
        <time>2015-03-08T06:57:34Z</time>
      </trkpt>
      <trkpt lat="44.36439" lon="4.76215">
        <ele>111.3</ele>
        <time>2015-03-08T06:57:40Z</time>
      </trkpt>
      <trkpt lat="44.3644" lon="4.76201">
        <ele>112.3</ele>
        <time>2015-03-08T06:57:45Z</time>
      </trkpt>
      <trkpt lat="44.36442" lon="4.76188">
        <ele>113.2</ele>
        <time>2015-03-08T06:57:51Z</time>
      </trkpt>
      <trkpt lat="44.3645" lon="4.7618">
        <ele>117.9</ele>
        <time>2015-03-08T06:58:58Z</time>
      </trkpt>
      <trkpt lat="44.36455" lon="4.76191">
        <ele>118.4</ele>
        <time>2015-03-08T06:59:14Z</time>
      </trkpt>
      <trkpt lat="44.36456" lon="4.76205">
        <ele>119.2</ele>
        <time>2015-03-08T06:59:21Z</time>
      </trkpt>
      <trkpt lat="44.36458" lon="4.76217">
        <ele>120</ele>
        <time>2015-03-08T06:59:27Z</time>
      </trkpt>
      <trkpt lat="44.36462" lon="4.76229">
        <ele>121</ele>
        <time>2015-03-08T06:59:33Z</time>
      </trkpt>
      <trkpt lat="44.36467" lon="4.76239">
        <ele>121.8</ele>
        <time>2015-03-08T06:59:38Z</time>
      </trkpt>
      <trkpt lat="44.36477" lon="4.76247">
        <ele>123</ele>
        <time>2015-03-08T06:59:45Z</time>
      </trkpt>
      <trkpt lat="44.36487" lon="4.76248">
        <ele>124.3</ele>
        <time>2015-03-08T06:59:53Z</time>
      </trkpt>
      <trkpt lat="44.36495" lon="4.76244">
        <ele>125.3</ele>
        <time>2015-03-08T07:00:00Z</time>
      </trkpt>
      <trkpt lat="44.36504" lon="4.7624">
        <ele>126.6</ele>
        <time>2015-03-08T07:00:06Z</time>
      </trkpt>
      <trkpt lat="44.36514" lon="4.76238">
        <ele>127.7</ele>
        <time>2015-03-08T07:00:11Z</time>
      </trkpt>
      <trkpt lat="44.36524" lon="4.76238">
        <ele>128.5</ele>
        <time>2015-03-08T07:00:15Z</time>
      </trkpt>
      <trkpt lat="44.36533" lon="4.76231">
        <ele>129.2</ele>
        <time>2015-03-08T07:00:19Z</time>
      </trkpt>
      <trkpt lat="44.36542" lon="4.76222">
        <ele>129.7</ele>
        <time>2015-03-08T07:00:24Z</time>
      </trkpt>
      <trkpt lat="44.36549" lon="4.76211">
        <ele>129.9</ele>
        <time>2015-03-08T07:00:28Z</time>
      </trkpt>
      <trkpt lat="44.36554" lon="4.76199">
        <ele>130.2</ele>
        <time>2015-03-08T07:00:32Z</time>
      </trkpt>
      <trkpt lat="44.3656" lon="4.76189">
        <ele>130.4</ele>
        <time>2015-03-08T07:00:35Z</time>
      </trkpt>
      <trkpt lat="44.36569" lon="4.76177">
        <ele>130.6</ele>
        <time>2015-03-08T07:00:38Z</time>
      </trkpt>
      <trkpt lat="44.36578" lon="4.76169">
        <ele>130.7</ele>
        <time>2015-03-08T07:00:41Z</time>
      </trkpt>
      <trkpt lat="44.36582" lon="4.76182">
        <ele>130.3</ele>
        <time>2015-03-08T07:00:48Z</time>
      </trkpt>
      <trkpt lat="44.36581" lon="4.76197">
        <ele>129.9</ele>
        <time>2015-03-08T07:00:51Z</time>
      </trkpt>
      <trkpt lat="44.36581" lon="4.76214">
        <ele>129.2</ele>
        <time>2015-03-08T07:00:54Z</time>
      </trkpt>
      <trkpt lat="44.36578" lon="4.76232">
        <ele>128.2</ele>
        <time>2015-03-08T07:00:57Z</time>
      </trkpt>
      <trkpt lat="44.36575" lon="4.76245">
        <ele>127.4</ele>
        <time>2015-03-08T07:00:59Z</time>
      </trkpt>
      <trkpt lat="44.3657" lon="4.76259">
        <ele>126.3</ele>
        <time>2015-03-08T07:01:01Z</time>
      </trkpt>
      <trkpt lat="44.36565" lon="4.76271">
        <ele>125.1</ele>
        <time>2015-03-08T07:01:03Z</time>
      </trkpt>
      <trkpt lat="44.36564" lon="4.76284">
        <ele>122.7</ele>
        <time>2015-03-08T07:01:07Z</time>
      </trkpt>
      <trkpt lat="44.36574" lon="4.76286">
        <ele>119.9</ele>
        <time>2015-03-08T07:01:13Z</time>
      </trkpt>
      <trkpt lat="44.36584" lon="4.7628">
        <ele>118.2</ele>
        <time>2015-03-08T07:01:17Z</time>
      </trkpt>
      <trkpt lat="44.36593" lon="4.76273">
        <ele>116.8</ele>
        <time>2015-03-08T07:01:21Z</time>
      </trkpt>
      <trkpt lat="44.36599" lon="4.76286">
        <ele>114.1</ele>
        <time>2015-03-08T07:01:29Z</time>
      </trkpt>
      <trkpt lat="44.36601" lon="4.763">
        <ele>112.5</ele>
        <time>2015-03-08T07:01:33Z</time>
      </trkpt>
      <trkpt lat="44.36606" lon="4.76311">
        <ele>111.3</ele>
        <time>2015-03-08T07:01:37Z</time>
      </trkpt>
      <trkpt lat="44.36605" lon="4.76329">
        <ele>110</ele>
        <time>2015-03-08T07:01:40Z</time>
      </trkpt>
      <trkpt lat="44.366" lon="4.76343">
        <ele>108.8</ele>
        <time>2015-03-08T07:01:43Z</time>
      </trkpt>
      <trkpt lat="44.36591" lon="4.76354">
        <ele>107.6</ele>
        <time>2015-03-08T07:01:46Z</time>
      </trkpt>
      <trkpt lat="44.3658" lon="4.76363">
        <ele>106.6</ele>
        <time>2015-03-08T07:01:49Z</time>
      </trkpt>
      <trkpt lat="44.36569" lon="4.76371">
        <ele>105.7</ele>
        <time>2015-03-08T07:01:52Z</time>
      </trkpt>
      <trkpt lat="44.36558" lon="4.76379">
        <ele>105.1</ele>
        <time>2015-03-08T07:01:55Z</time>
      </trkpt>
      <trkpt lat="44.36552" lon="4.76389">
        <ele>104.6</ele>
        <time>2015-03-08T07:01:58Z</time>
      </trkpt>
      <trkpt lat="44.36552" lon="4.76403">
        <ele>104.2</ele>
        <time>2015-03-08T07:02:01Z</time>
      </trkpt>
      <trkpt lat="44.36553" lon="4.76418">
        <ele>103.7</ele>
        <time>2015-03-08T07:02:04Z</time>
      </trkpt>
      <trkpt lat="44.36558" lon="4.76432">
        <ele>103.1</ele>
        <time>2015-03-08T07:02:07Z</time>
      </trkpt>
      <trkpt lat="44.36568" lon="4.76441">
        <ele>102.2</ele>
        <time>2015-03-08T07:02:10Z</time>
      </trkpt>
      <trkpt lat="44.36579" lon="4.76445">
        <ele>101</ele>
        <time>2015-03-08T07:02:14Z</time>
      </trkpt>
      <trkpt lat="44.36582" lon="4.76457">
        <ele>100.1</ele>
        <time>2015-03-08T07:02:18Z</time>
      </trkpt>
      <trkpt lat="44.36587" lon="4.76471">
        <ele>98.3</ele>
        <time>2015-03-08T07:02:24Z</time>
      </trkpt>
      <trkpt lat="44.36593" lon="4.76481">
        <ele>97.6</ele>
        <time>2015-03-08T07:02:28Z</time>
      </trkpt>
      <trkpt lat="44.36596" lon="4.76496">
        <ele>97.5</ele>
        <time>2015-03-08T07:02:33Z</time>
      </trkpt>
      <trkpt lat="44.36595" lon="4.76511">
        <ele>97.5</ele>
        <time>2015-03-08T07:02:38Z</time>
      </trkpt>
      <trkpt lat="44.36594" lon="4.76526">
        <ele>97.9</ele>
        <time>2015-03-08T07:02:43Z</time>
      </trkpt>
      <trkpt lat="44.36593" lon="4.76539">
        <ele>98.3</ele>
        <time>2015-03-08T07:02:48Z</time>
      </trkpt>
      <trkpt lat="44.36601" lon="4.76547">
        <ele>98.7</ele>
        <time>2015-03-08T07:02:53Z</time>
      </trkpt>
      <trkpt lat="44.36609" lon="4.76557">
        <ele>99.3</ele>
        <time>2015-03-08T07:02:58Z</time>
      </trkpt>
      <trkpt lat="44.36617" lon="4.76563">
        <ele>99.6</ele>
        <time>2015-03-08T07:03:02Z</time>
      </trkpt>
      <trkpt lat="44.36626" lon="4.76569">
        <ele>99.9</ele>
        <time>2015-03-08T07:03:06Z</time>
      </trkpt>
      <trkpt lat="44.36635" lon="4.76573">
        <ele>100.1</ele>
        <time>2015-03-08T07:03:10Z</time>
      </trkpt>
      <trkpt lat="44.36644" lon="4.76581">
        <ele>100.2</ele>
        <time>2015-03-08T07:03:14Z</time>
      </trkpt>
      <trkpt lat="44.36655" lon="4.76588">
        <ele>100.5</ele>
        <time>2015-03-08T07:03:18Z</time>
      </trkpt>
      <trkpt lat="44.36661" lon="4.76601">
        <ele>100.6</ele>
        <time>2015-03-08T07:03:21Z</time>
      </trkpt>
      <trkpt lat="44.36669" lon="4.76615">
        <ele>100.6</ele>
        <time>2015-03-08T07:03:24Z</time>
      </trkpt>
      <trkpt lat="44.36675" lon="4.76626">
        <ele>100.5</ele>
        <time>2015-03-08T07:03:26Z</time>
      </trkpt>
      <trkpt lat="44.36684" lon="4.76639">
        <ele>100.1</ele>
        <time>2015-03-08T07:03:29Z</time>
      </trkpt>
      <trkpt lat="44.36691" lon="4.76649">
        <ele>99.6</ele>
        <time>2015-03-08T07:03:31Z</time>
      </trkpt>
      <trkpt lat="44.36699" lon="4.76659">
        <ele>99.2</ele>
        <time>2015-03-08T07:03:33Z</time>
      </trkpt>
      <trkpt lat="44.36707" lon="4.76671">
        <ele>98.7</ele>
        <time>2015-03-08T07:03:35Z</time>
      </trkpt>
      <trkpt lat="44.36716" lon="4.76678">
        <ele>98.1</ele>
        <time>2015-03-08T07:03:37Z</time>
      </trkpt>
      <trkpt lat="44.36727" lon="4.76682">
        <ele>97.5</ele>
        <time>2015-03-08T07:03:39Z</time>
      </trkpt>
      <trkpt lat="44.36738" lon="4.76686">
        <ele>96.8</ele>
        <time>2015-03-08T07:03:41Z</time>
      </trkpt>
      <trkpt lat="44.36748" lon="4.76694">
        <ele>96.1</ele>
        <time>2015-03-08T07:03:43Z</time>
      </trkpt>
      <trkpt lat="44.36756" lon="4.76705">
        <ele>95.3</ele>
        <time>2015-03-08T07:03:45Z</time>
      </trkpt>
      <trkpt lat="44.36764" lon="4.76715">
        <ele>94.4</ele>
        <time>2015-03-08T07:03:47Z</time>
      </trkpt>
      <trkpt lat="44.3677" lon="4.76727">
        <ele>93.6</ele>
        <time>2015-03-08T07:03:49Z</time>
      </trkpt>
      <trkpt lat="44.36778" lon="4.76734">
        <ele>92.9</ele>
        <time>2015-03-08T07:03:51Z</time>
      </trkpt>
      <trkpt lat="44.36787" lon="4.76733">
        <ele>92</ele>
        <time>2015-03-08T07:03:53Z</time>
      </trkpt>
      <trkpt lat="44.36796" lon="4.76741">
        <ele>90.7</ele>
        <time>2015-03-08T07:03:56Z</time>
      </trkpt>
      <trkpt lat="44.368" lon="4.76755">
        <ele>89.6</ele>
        <time>2015-03-08T07:03:59Z</time>
      </trkpt>
      <trkpt lat="44.36801" lon="4.76772">
        <ele>88.6</ele>
        <time>2015-03-08T07:04:02Z</time>
      </trkpt>
      <trkpt lat="44.36804" lon="4.76789">
        <ele>87.7</ele>
        <time>2015-03-08T07:04:05Z</time>
      </trkpt>
      <trkpt lat="44.36806" lon="4.76808">
        <ele>86.9</ele>
        <time>2015-03-08T07:04:08Z</time>
      </trkpt>
      <trkpt lat="44.36806" lon="4.76822">
        <ele>86.5</ele>
        <time>2015-03-08T07:04:10Z</time>
      </trkpt>
      <trkpt lat="44.36806" lon="4.76836">
        <ele>86.1</ele>
        <time>2015-03-08T07:04:12Z</time>
      </trkpt>
      <trkpt lat="44.36806" lon="4.76849">
        <ele>85.8</ele>
        <time>2015-03-08T07:04:14Z</time>
      </trkpt>
      <trkpt lat="44.36806" lon="4.76863">
        <ele>85.5</ele>
        <time>2015-03-08T07:04:16Z</time>
      </trkpt>
      <trkpt lat="44.36805" lon="4.76877">
        <ele>85.3</ele>
        <time>2015-03-08T07:04:18Z</time>
      </trkpt>
      <trkpt lat="44.36804" lon="4.7689">
        <ele>85.1</ele>
        <time>2015-03-08T07:04:20Z</time>
      </trkpt>
      <trkpt lat="44.36803" lon="4.76902">
        <ele>85</ele>
        <time>2015-03-08T07:04:22Z</time>
      </trkpt>
      <trkpt lat="44.36802" lon="4.76915">
        <ele>84.8</ele>
        <time>2015-03-08T07:04:24Z</time>
      </trkpt>
      <trkpt lat="44.36797" lon="4.76933">
        <ele>84.7</ele>
        <time>2015-03-08T07:04:27Z</time>
      </trkpt>
      <trkpt lat="44.36793" lon="4.76949">
        <ele>84.5</ele>
        <time>2015-03-08T07:04:30Z</time>
      </trkpt>
      <trkpt lat="44.3679" lon="4.76961">
        <ele>84.4</ele>
        <time>2015-03-08T07:04:32Z</time>
      </trkpt>
      <trkpt lat="44.36787" lon="4.76974">
        <ele>84.4</ele>
        <time>2015-03-08T07:04:34Z</time>
      </trkpt>
      <trkpt lat="44.36785" lon="4.76988">
        <ele>84.3</ele>
        <time>2015-03-08T07:04:36Z</time>
      </trkpt>
      <trkpt lat="44.36784" lon="4.77002">
        <ele>84.3</ele>
        <time>2015-03-08T07:04:38Z</time>
      </trkpt>
      <trkpt lat="44.36784" lon="4.77016">
        <ele>84.2</ele>
        <time>2015-03-08T07:04:40Z</time>
      </trkpt>
      <trkpt lat="44.36788" lon="4.77027">
        <ele>84.2</ele>
        <time>2015-03-08T07:04:42Z</time>
      </trkpt>
      <trkpt lat="44.36799" lon="4.77023">
        <ele>83.7</ele>
        <time>2015-03-08T07:04:45Z</time>
      </trkpt>
      <trkpt lat="44.36807" lon="4.77014">
        <ele>83.4</ele>
        <time>2015-03-08T07:04:47Z</time>
      </trkpt>
      <trkpt lat="44.36816" lon="4.77005">
        <ele>83.2</ele>
        <time>2015-03-08T07:04:49Z</time>
      </trkpt>
      <trkpt lat="44.36825" lon="4.76999">
        <ele>83</ele>
        <time>2015-03-08T07:04:51Z</time>
      </trkpt>
      <trkpt lat="44.36835" lon="4.76994">
        <ele>82.8</ele>
        <time>2015-03-08T07:04:53Z</time>
      </trkpt>
      <trkpt lat="44.36845" lon="4.76991">
        <ele>82.5</ele>
        <time>2015-03-08T07:04:55Z</time>
      </trkpt>
      <trkpt lat="44.36854" lon="4.76989">
        <ele>82.3</ele>
        <time>2015-03-08T07:04:57Z</time>
      </trkpt>
      <trkpt lat="44.36864" lon="4.76988">
        <ele>82.1</ele>
        <time>2015-03-08T07:04:59Z</time>
      </trkpt>
      <trkpt lat="44.36874" lon="4.76987">
        <ele>82</ele>
        <time>2015-03-08T07:05:01Z</time>
      </trkpt>
      <trkpt lat="44.36883" lon="4.76987">
        <ele>81.8</ele>
        <time>2015-03-08T07:05:03Z</time>
      </trkpt>
      <trkpt lat="44.36893" lon="4.76985">
        <ele>81.5</ele>
        <time>2015-03-08T07:05:05Z</time>
      </trkpt>
      <trkpt lat="44.36903" lon="4.76982">
        <ele>81.3</ele>
        <time>2015-03-08T07:05:07Z</time>
      </trkpt>
      <trkpt lat="44.36912" lon="4.7698">
        <ele>81.1</ele>
        <time>2015-03-08T07:05:09Z</time>
      </trkpt>
      <trkpt lat="44.36925" lon="4.76979">
        <ele>81</ele>
        <time>2015-03-08T07:05:12Z</time>
      </trkpt>
      <trkpt lat="44.36935" lon="4.7698">
        <ele>81.3</ele>
        <time>2015-03-08T07:05:16Z</time>
      </trkpt>
      <trkpt lat="44.36945" lon="4.76982">
        <ele>80.9</ele>
        <time>2015-03-08T07:05:28Z</time>
      </trkpt>
      <trkpt lat="44.36957" lon="4.76984">
        <ele>80.8</ele>
        <time>2015-03-08T07:05:31Z</time>
      </trkpt>
      <trkpt lat="44.36969" lon="4.76988">
        <ele>80.7</ele>
        <time>2015-03-08T07:05:34Z</time>
      </trkpt>
      <trkpt lat="44.36981" lon="4.76991">
        <ele>80.6</ele>
        <time>2015-03-08T07:05:37Z</time>
      </trkpt>
      <trkpt lat="44.36992" lon="4.76993">
        <ele>80.5</ele>
        <time>2015-03-08T07:05:40Z</time>
      </trkpt>
      <trkpt lat="44.37004" lon="4.76994">
        <ele>80.5</ele>
        <time>2015-03-08T07:05:43Z</time>
      </trkpt>
      <trkpt lat="44.37015" lon="4.76993">
        <ele>80.4</ele>
        <time>2015-03-08T07:05:46Z</time>
      </trkpt>
      <trkpt lat="44.37026" lon="4.76988">
        <ele>80.4</ele>
        <time>2015-03-08T07:05:49Z</time>
      </trkpt>
      <trkpt lat="44.37037" lon="4.7698">
        <ele>80.3</ele>
        <time>2015-03-08T07:05:52Z</time>
      </trkpt>
      <trkpt lat="44.37047" lon="4.7697">
        <ele>80.3</ele>
        <time>2015-03-08T07:05:55Z</time>
      </trkpt>
      <trkpt lat="44.37057" lon="4.7696">
        <ele>80.4</ele>
        <time>2015-03-08T07:05:58Z</time>
      </trkpt>
      <trkpt lat="44.37067" lon="4.7695">
        <ele>80.4</ele>
        <time>2015-03-08T07:06:01Z</time>
      </trkpt>
      <trkpt lat="44.37078" lon="4.7694">
        <ele>80.4</ele>
        <time>2015-03-08T07:06:04Z</time>
      </trkpt>
      <trkpt lat="44.37089" lon="4.7693">
        <ele>80.4</ele>
        <time>2015-03-08T07:06:07Z</time>
      </trkpt>
      <trkpt lat="44.37099" lon="4.7692">
        <ele>80.4</ele>
        <time>2015-03-08T07:06:10Z</time>
      </trkpt>
      <trkpt lat="44.3711" lon="4.76909">
        <ele>80.5</ele>
        <time>2015-03-08T07:06:13Z</time>
      </trkpt>
      <trkpt lat="44.3712" lon="4.76899">
        <ele>80.5</ele>
        <time>2015-03-08T07:06:16Z</time>
      </trkpt>
      <trkpt lat="44.3713" lon="4.7689">
        <ele>80.5</ele>
        <time>2015-03-08T07:06:19Z</time>
      </trkpt>
      <trkpt lat="44.37141" lon="4.76879">
        <ele>80.6</ele>
        <time>2015-03-08T07:06:22Z</time>
      </trkpt>
      <trkpt lat="44.37149" lon="4.76871">
        <ele>80.8</ele>
        <time>2015-03-08T07:06:24Z</time>
      </trkpt>
      <trkpt lat="44.37157" lon="4.76863">
        <ele>81</ele>
        <time>2015-03-08T07:06:26Z</time>
      </trkpt>
      <trkpt lat="44.37165" lon="4.76855">
        <ele>81.2</ele>
        <time>2015-03-08T07:06:28Z</time>
      </trkpt>
      <trkpt lat="44.37175" lon="4.76847">
        <ele>81.4</ele>
        <time>2015-03-08T07:06:30Z</time>
      </trkpt>
      <trkpt lat="44.37185" lon="4.76839">
        <ele>81.5</ele>
        <time>2015-03-08T07:06:32Z</time>
      </trkpt>
      <trkpt lat="44.37194" lon="4.76832">
        <ele>81.5</ele>
        <time>2015-03-08T07:06:34Z</time>
      </trkpt>
      <trkpt lat="44.37204" lon="4.76825">
        <ele>81.5</ele>
        <time>2015-03-08T07:06:36Z</time>
      </trkpt>
      <trkpt lat="44.37212" lon="4.76819">
        <ele>81.5</ele>
        <time>2015-03-08T07:06:38Z</time>
      </trkpt>
      <trkpt lat="44.37221" lon="4.76813">
        <ele>81.5</ele>
        <time>2015-03-08T07:06:40Z</time>
      </trkpt>
      <trkpt lat="44.37229" lon="4.76806">
        <ele>81.5</ele>
        <time>2015-03-08T07:06:42Z</time>
      </trkpt>
      <trkpt lat="44.37238" lon="4.768">
        <ele>81.4</ele>
        <time>2015-03-08T07:06:44Z</time>
      </trkpt>
      <trkpt lat="44.37247" lon="4.76794">
        <ele>81.4</ele>
        <time>2015-03-08T07:06:46Z</time>
      </trkpt>
      <trkpt lat="44.37256" lon="4.76789">
        <ele>81.3</ele>
        <time>2015-03-08T07:06:48Z</time>
      </trkpt>
      <trkpt lat="44.37266" lon="4.76783">
        <ele>81.3</ele>
        <time>2015-03-08T07:06:50Z</time>
      </trkpt>
      <trkpt lat="44.37275" lon="4.76778">
        <ele>81.3</ele>
        <time>2015-03-08T07:06:52Z</time>
      </trkpt>
      <trkpt lat="44.37285" lon="4.76772">
        <ele>81.1</ele>
        <time>2015-03-08T07:06:54Z</time>
      </trkpt>
      <trkpt lat="44.37294" lon="4.76768">
        <ele>80.8</ele>
        <time>2015-03-08T07:06:56Z</time>
      </trkpt>
      <trkpt lat="44.37305" lon="4.76775">
        <ele>80.3</ele>
        <time>2015-03-08T07:06:59Z</time>
      </trkpt>
      <trkpt lat="44.37305" lon="4.76793">
        <ele>80</ele>
        <time>2015-03-08T07:07:02Z</time>
      </trkpt>
      <trkpt lat="44.37302" lon="4.76809">
        <ele>79.7</ele>
        <time>2015-03-08T07:07:05Z</time>
      </trkpt>
      <trkpt lat="44.37301" lon="4.76825">
        <ele>79.5</ele>
        <time>2015-03-08T07:07:08Z</time>
      </trkpt>
      <trkpt lat="44.37304" lon="4.76842">
        <ele>79.4</ele>
        <time>2015-03-08T07:07:11Z</time>
      </trkpt>
      <trkpt lat="44.3731" lon="4.76857">
        <ele>79.6</ele>
        <time>2015-03-08T07:07:14Z</time>
      </trkpt>
      <trkpt lat="44.37315" lon="4.76872">
        <ele>79.8</ele>
        <time>2015-03-08T07:07:17Z</time>
      </trkpt>
      <trkpt lat="44.37321" lon="4.76887">
        <ele>80.1</ele>
        <time>2015-03-08T07:07:20Z</time>
      </trkpt>
      <trkpt lat="44.37327" lon="4.76902">
        <ele>80.5</ele>
        <time>2015-03-08T07:07:23Z</time>
      </trkpt>
      <trkpt lat="44.37332" lon="4.76918">
        <ele>80.7</ele>
        <time>2015-03-08T07:07:26Z</time>
      </trkpt>
      <trkpt lat="44.37337" lon="4.76933">
        <ele>80.9</ele>
        <time>2015-03-08T07:07:29Z</time>
      </trkpt>
      <trkpt lat="44.37343" lon="4.76948">
        <ele>81.1</ele>
        <time>2015-03-08T07:07:32Z</time>
      </trkpt>
      <trkpt lat="44.37349" lon="4.76964">
        <ele>81.3</ele>
        <time>2015-03-08T07:07:35Z</time>
      </trkpt>
      <trkpt lat="44.37354" lon="4.76981">
        <ele>81.3</ele>
        <time>2015-03-08T07:07:38Z</time>
      </trkpt>
      <trkpt lat="44.37357" lon="4.76993">
        <ele>81.3</ele>
        <time>2015-03-08T07:07:40Z</time>
      </trkpt>
      <trkpt lat="44.37361" lon="4.77004">
        <ele>81.4</ele>
        <time>2015-03-08T07:07:42Z</time>
      </trkpt>
      <trkpt lat="44.37366" lon="4.77015">
        <ele>81.4</ele>
        <time>2015-03-08T07:07:44Z</time>
      </trkpt>
      <trkpt lat="44.37371" lon="4.77026">
        <ele>81.4</ele>
        <time>2015-03-08T07:07:46Z</time>
      </trkpt>
      <trkpt lat="44.37376" lon="4.77036">
        <ele>81.4</ele>
        <time>2015-03-08T07:07:48Z</time>
      </trkpt>
      <trkpt lat="44.37381" lon="4.77047">
        <ele>81.4</ele>
        <time>2015-03-08T07:07:50Z</time>
      </trkpt>
      <trkpt lat="44.37386" lon="4.77057">
        <ele>81.4</ele>
        <time>2015-03-08T07:07:52Z</time>
      </trkpt>
      <trkpt lat="44.37393" lon="4.77071">
        <ele>81.4</ele>
        <time>2015-03-08T07:07:55Z</time>
      </trkpt>
      <trkpt lat="44.37399" lon="4.77087">
        <ele>81.3</ele>
        <time>2015-03-08T07:07:58Z</time>
      </trkpt>
      <trkpt lat="44.37403" lon="4.77098">
        <ele>81.3</ele>
        <time>2015-03-08T07:08:00Z</time>
      </trkpt>
      <trkpt lat="44.37408" lon="4.7711">
        <ele>81.2</ele>
        <time>2015-03-08T07:08:02Z</time>
      </trkpt>
      <trkpt lat="44.37415" lon="4.77124">
        <ele>81.2</ele>
        <time>2015-03-08T07:08:05Z</time>
      </trkpt>
      <trkpt lat="44.37423" lon="4.77136">
        <ele>81.2</ele>
        <time>2015-03-08T07:08:08Z</time>
      </trkpt>
      <trkpt lat="44.37433" lon="4.77133">
        <ele>81.3</ele>
        <time>2015-03-08T07:08:11Z</time>
      </trkpt>
      <trkpt lat="44.37443" lon="4.77133">
        <ele>81.6</ele>
        <time>2015-03-08T07:08:14Z</time>
      </trkpt>
      <trkpt lat="44.37452" lon="4.77135">
        <ele>81.9</ele>
        <time>2015-03-08T07:08:17Z</time>
      </trkpt>
      <trkpt lat="44.37462" lon="4.77139">
        <ele>82.2</ele>
        <time>2015-03-08T07:08:20Z</time>
      </trkpt>
      <trkpt lat="44.37471" lon="4.77145">
        <ele>82.7</ele>
        <time>2015-03-08T07:08:23Z</time>
      </trkpt>
      <trkpt lat="44.3748" lon="4.77152">
        <ele>83</ele>
        <time>2015-03-08T07:08:26Z</time>
      </trkpt>
      <trkpt lat="44.37489" lon="4.77157">
        <ele>83.3</ele>
        <time>2015-03-08T07:08:29Z</time>
      </trkpt>
      <trkpt lat="44.37499" lon="4.7716">
        <ele>83.7</ele>
        <time>2015-03-08T07:08:32Z</time>
      </trkpt>
      <trkpt lat="44.37509" lon="4.7716">
        <ele>84.1</ele>
        <time>2015-03-08T07:08:35Z</time>
      </trkpt>
      <trkpt lat="44.37518" lon="4.77157">
        <ele>84.3</ele>
        <time>2015-03-08T07:08:38Z</time>
      </trkpt>
      <trkpt lat="44.37528" lon="4.77151">
        <ele>84.6</ele>
        <time>2015-03-08T07:08:42Z</time>
      </trkpt>
      <trkpt lat="44.3754" lon="4.77149">
        <ele>85.2</ele>
        <time>2015-03-08T07:08:46Z</time>
      </trkpt>
      <trkpt lat="44.37551" lon="4.77146">
        <ele>85.8</ele>
        <time>2015-03-08T07:08:50Z</time>
      </trkpt>
      <trkpt lat="44.37562" lon="4.77142">
        <ele>86.3</ele>
        <time>2015-03-08T07:08:54Z</time>
      </trkpt>
      <trkpt lat="44.37571" lon="4.77139">
        <ele>86.6</ele>
        <time>2015-03-08T07:08:57Z</time>
      </trkpt>
      <trkpt lat="44.37583" lon="4.77136">
        <ele>87.1</ele>
        <time>2015-03-08T07:09:01Z</time>
      </trkpt>
      <trkpt lat="44.37594" lon="4.77134">
        <ele>87.7</ele>
        <time>2015-03-08T07:09:05Z</time>
      </trkpt>
      <trkpt lat="44.37605" lon="4.77131">
        <ele>88.2</ele>
        <time>2015-03-08T07:09:09Z</time>
      </trkpt>
      <trkpt lat="44.37614" lon="4.77128">
        <ele>88.6</ele>
        <time>2015-03-08T07:09:12Z</time>
      </trkpt>
      <trkpt lat="44.37625" lon="4.77128">
        <ele>89.2</ele>
        <time>2015-03-08T07:09:16Z</time>
      </trkpt>
      <trkpt lat="44.37633" lon="4.77122">
        <ele>89.7</ele>
        <time>2015-03-08T07:09:19Z</time>
      </trkpt>
      <trkpt lat="44.37642" lon="4.77118">
        <ele>90.1</ele>
        <time>2015-03-08T07:09:22Z</time>
      </trkpt>
      <trkpt lat="44.37652" lon="4.77118">
        <ele>90.4</ele>
        <time>2015-03-08T07:09:25Z</time>
      </trkpt>
      <trkpt lat="44.37661" lon="4.77118">
        <ele>90.6</ele>
        <time>2015-03-08T07:09:28Z</time>
      </trkpt>
      <trkpt lat="44.37672" lon="4.77114">
        <ele>91.1</ele>
        <time>2015-03-08T07:09:32Z</time>
      </trkpt>
      <trkpt lat="44.37683" lon="4.77112">
        <ele>91.8</ele>
        <time>2015-03-08T07:09:36Z</time>
      </trkpt>
      <trkpt lat="44.37694" lon="4.77105">
        <ele>92.4</ele>
        <time>2015-03-08T07:09:40Z</time>
      </trkpt>
      <trkpt lat="44.37703" lon="4.77098">
        <ele>92.9</ele>
        <time>2015-03-08T07:09:44Z</time>
      </trkpt>
      <trkpt lat="44.37713" lon="4.771">
        <ele>93.3</ele>
        <time>2015-03-08T07:09:48Z</time>
      </trkpt>
      <trkpt lat="44.37724" lon="4.77102">
        <ele>93.7</ele>
        <time>2015-03-08T07:09:52Z</time>
      </trkpt>
      <trkpt lat="44.37736" lon="4.77107">
        <ele>94.3</ele>
        <time>2015-03-08T07:09:56Z</time>
      </trkpt>
      <trkpt lat="44.37746" lon="4.77106">
        <ele>94.8</ele>
        <time>2015-03-08T07:10:00Z</time>
      </trkpt>
      <trkpt lat="44.37757" lon="4.77108">
        <ele>95.2</ele>
        <time>2015-03-08T07:10:04Z</time>
      </trkpt>
      <trkpt lat="44.37769" lon="4.77109">
        <ele>95.6</ele>
        <time>2015-03-08T07:10:08Z</time>
      </trkpt>
      <trkpt lat="44.3778" lon="4.77109">
        <ele>96</ele>
        <time>2015-03-08T07:10:12Z</time>
      </trkpt>
      <trkpt lat="44.37791" lon="4.77109">
        <ele>96.6</ele>
        <time>2015-03-08T07:10:16Z</time>
      </trkpt>
      <trkpt lat="44.37802" lon="4.77108">
        <ele>97.2</ele>
        <time>2015-03-08T07:10:20Z</time>
      </trkpt>
      <trkpt lat="44.37813" lon="4.77111">
        <ele>97.9</ele>
        <time>2015-03-08T07:10:24Z</time>
      </trkpt>
      <trkpt lat="44.37824" lon="4.77117">
        <ele>98.3</ele>
        <time>2015-03-08T07:10:28Z</time>
      </trkpt>
      <trkpt lat="44.37832" lon="4.77123">
        <ele>98.6</ele>
        <time>2015-03-08T07:10:31Z</time>
      </trkpt>
      <trkpt lat="44.37841" lon="4.77127">
        <ele>98.9</ele>
        <time>2015-03-08T07:10:34Z</time>
      </trkpt>
      <trkpt lat="44.37849" lon="4.77132">
        <ele>99.1</ele>
        <time>2015-03-08T07:10:37Z</time>
      </trkpt>
      <trkpt lat="44.37861" lon="4.77135">
        <ele>99.3</ele>
        <time>2015-03-08T07:10:41Z</time>
      </trkpt>
      <trkpt lat="44.3787" lon="4.77139">
        <ele>99.4</ele>
        <time>2015-03-08T07:10:44Z</time>
      </trkpt>
      <trkpt lat="44.37878" lon="4.77145">
        <ele>99.6</ele>
        <time>2015-03-08T07:10:47Z</time>
      </trkpt>
      <trkpt lat="44.37886" lon="4.77152">
        <ele>99.8</ele>
        <time>2015-03-08T07:10:50Z</time>
      </trkpt>
      <trkpt lat="44.37895" lon="4.77156">
        <ele>99.9</ele>
        <time>2015-03-08T07:10:53Z</time>
      </trkpt>
      <trkpt lat="44.37905" lon="4.77158">
        <ele>100.3</ele>
        <time>2015-03-08T07:10:56Z</time>
      </trkpt>
      <trkpt lat="44.37915" lon="4.7716">
        <ele>100.7</ele>
        <time>2015-03-08T07:10:59Z</time>
      </trkpt>
      <trkpt lat="44.37925" lon="4.77164">
        <ele>100.9</ele>
        <time>2015-03-08T07:11:02Z</time>
      </trkpt>
      <trkpt lat="44.37935" lon="4.77167">
        <ele>101.2</ele>
        <time>2015-03-08T07:11:05Z</time>
      </trkpt>
      <trkpt lat="44.37945" lon="4.77171">
        <ele>101.3</ele>
        <time>2015-03-08T07:11:08Z</time>
      </trkpt>
      <trkpt lat="44.37956" lon="4.77173">
        <ele>101.5</ele>
        <time>2015-03-08T07:11:11Z</time>
      </trkpt>
      <trkpt lat="44.37967" lon="4.77169">
        <ele>101.6</ele>
        <time>2015-03-08T07:11:14Z</time>
      </trkpt>
      <trkpt lat="44.37978" lon="4.77167">
        <ele>101.7</ele>
        <time>2015-03-08T07:11:17Z</time>
      </trkpt>
      <trkpt lat="44.3799" lon="4.77165">
        <ele>101.8</ele>
        <time>2015-03-08T07:11:20Z</time>
      </trkpt>
      <trkpt lat="44.38001" lon="4.77164">
        <ele>101.9</ele>
        <time>2015-03-08T07:11:23Z</time>
      </trkpt>
      <trkpt lat="44.38013" lon="4.77164">
        <ele>102.1</ele>
        <time>2015-03-08T07:11:26Z</time>
      </trkpt>
      <trkpt lat="44.38024" lon="4.77163">
        <ele>102.4</ele>
        <time>2015-03-08T07:11:29Z</time>
      </trkpt>
      <trkpt lat="44.38035" lon="4.77161">
        <ele>102.4</ele>
        <time>2015-03-08T07:11:32Z</time>
      </trkpt>
      <trkpt lat="44.38046" lon="4.77158">
        <ele>102.4</ele>
        <time>2015-03-08T07:11:35Z</time>
      </trkpt>
      <trkpt lat="44.38056" lon="4.77154">
        <ele>102.4</ele>
        <time>2015-03-08T07:11:38Z</time>
      </trkpt>
      <trkpt lat="44.38068" lon="4.77156">
        <ele>102.4</ele>
        <time>2015-03-08T07:11:41Z</time>
      </trkpt>
      <trkpt lat="44.3808" lon="4.77155">
        <ele>102.4</ele>
        <time>2015-03-08T07:11:44Z</time>
      </trkpt>
      <trkpt lat="44.38091" lon="4.7715">
        <ele>102.4</ele>
        <time>2015-03-08T07:11:47Z</time>
      </trkpt>
      <trkpt lat="44.38101" lon="4.77144">
        <ele>102.4</ele>
        <time>2015-03-08T07:11:50Z</time>
      </trkpt>
      <trkpt lat="44.38112" lon="4.77139">
        <ele>102.4</ele>
        <time>2015-03-08T07:11:53Z</time>
      </trkpt>
      <trkpt lat="44.38123" lon="4.7714">
        <ele>102.5</ele>
        <time>2015-03-08T07:11:56Z</time>
      </trkpt>
      <trkpt lat="44.38133" lon="4.77146">
        <ele>102.5</ele>
        <time>2015-03-08T07:11:59Z</time>
      </trkpt>
      <trkpt lat="44.38144" lon="4.77154">
        <ele>102.5</ele>
        <time>2015-03-08T07:12:02Z</time>
      </trkpt>
      <trkpt lat="44.38155" lon="4.77159">
        <ele>102.6</ele>
        <time>2015-03-08T07:12:05Z</time>
      </trkpt>
      <trkpt lat="44.38163" lon="4.77149">
        <ele>102.6</ele>
        <time>2015-03-08T07:12:08Z</time>
      </trkpt>
      <trkpt lat="44.38167" lon="4.77134">
        <ele>102.6</ele>
        <time>2015-03-08T07:12:11Z</time>
      </trkpt>
      <trkpt lat="44.38175" lon="4.7712">
        <ele>102.8</ele>
        <time>2015-03-08T07:12:14Z</time>
      </trkpt>
      <trkpt lat="44.3818" lon="4.77107">
        <ele>102.9</ele>
        <time>2015-03-08T07:12:17Z</time>
      </trkpt>
      <trkpt lat="44.38185" lon="4.77092">
        <ele>103</ele>
        <time>2015-03-08T07:12:20Z</time>
      </trkpt>
      <trkpt lat="44.38189" lon="4.77077">
        <ele>103.3</ele>
        <time>2015-03-08T07:12:23Z</time>
      </trkpt>
      <trkpt lat="44.38192" lon="4.77061">
        <ele>103.9</ele>
        <time>2015-03-08T07:12:26Z</time>
      </trkpt>
      <trkpt lat="44.38191" lon="4.77044">
        <ele>104.3</ele>
        <time>2015-03-08T07:12:29Z</time>
      </trkpt>
      <trkpt lat="44.38192" lon="4.77027">
        <ele>104.7</ele>
        <time>2015-03-08T07:12:32Z</time>
      </trkpt>
      <trkpt lat="44.38195" lon="4.77008">
        <ele>105</ele>
        <time>2015-03-08T07:12:35Z</time>
      </trkpt>
      <trkpt lat="44.38197" lon="4.76991">
        <ele>105.2</ele>
        <time>2015-03-08T07:12:38Z</time>
      </trkpt>
      <trkpt lat="44.382" lon="4.76974">
        <ele>105.5</ele>
        <time>2015-03-08T07:12:41Z</time>
      </trkpt>
      <trkpt lat="44.38201" lon="4.76957">
        <ele>105.8</ele>
        <time>2015-03-08T07:12:44Z</time>
      </trkpt>
      <trkpt lat="44.38203" lon="4.7694">
        <ele>106</ele>
        <time>2015-03-08T07:12:47Z</time>
      </trkpt>
      <trkpt lat="44.38205" lon="4.76925">
        <ele>106.1</ele>
        <time>2015-03-08T07:12:50Z</time>
      </trkpt>
      <trkpt lat="44.38208" lon="4.7691">
        <ele>106.3</ele>
        <time>2015-03-08T07:12:53Z</time>
      </trkpt>
      <trkpt lat="44.38212" lon="4.76895">
        <ele>106.4</ele>
        <time>2015-03-08T07:12:56Z</time>
      </trkpt>
      <trkpt lat="44.38215" lon="4.76881">
        <ele>106.5</ele>
        <time>2015-03-08T07:12:59Z</time>
      </trkpt>
      <trkpt lat="44.38218" lon="4.76866">
        <ele>106.6</ele>
        <time>2015-03-08T07:13:02Z</time>
      </trkpt>
      <trkpt lat="44.3822" lon="4.76851">
        <ele>106.9</ele>
        <time>2015-03-08T07:13:05Z</time>
      </trkpt>
      <trkpt lat="44.38222" lon="4.76835">
        <ele>107.2</ele>
        <time>2015-03-08T07:13:08Z</time>
      </trkpt>
      <trkpt lat="44.38225" lon="4.76822">
        <ele>107.7</ele>
        <time>2015-03-08T07:13:11Z</time>
      </trkpt>
      <trkpt lat="44.38234" lon="4.76815">
        <ele>108.1</ele>
        <time>2015-03-08T07:13:15Z</time>
      </trkpt>
      <trkpt lat="44.38245" lon="4.76814">
        <ele>108.5</ele>
        <time>2015-03-08T07:13:19Z</time>
      </trkpt>
      <trkpt lat="44.38254" lon="4.76816">
        <ele>108.7</ele>
        <time>2015-03-08T07:13:22Z</time>
      </trkpt>
      <trkpt lat="44.38265" lon="4.76819">
        <ele>108.9</ele>
        <time>2015-03-08T07:13:25Z</time>
      </trkpt>
      <trkpt lat="44.38276" lon="4.76821">
        <ele>108.9</ele>
        <time>2015-03-08T07:13:28Z</time>
      </trkpt>
      <trkpt lat="44.38287" lon="4.76824">
        <ele>108.9</ele>
        <time>2015-03-08T07:13:31Z</time>
      </trkpt>
      <trkpt lat="44.38298" lon="4.76827">
        <ele>108.9</ele>
        <time>2015-03-08T07:13:34Z</time>
      </trkpt>
      <trkpt lat="44.38309" lon="4.76831">
        <ele>108.9</ele>
        <time>2015-03-08T07:13:37Z</time>
      </trkpt>
      <trkpt lat="44.38319" lon="4.76834">
        <ele>108.9</ele>
        <time>2015-03-08T07:13:40Z</time>
      </trkpt>
      <trkpt lat="44.3833" lon="4.76837">
        <ele>109</ele>
        <time>2015-03-08T07:13:43Z</time>
      </trkpt>
      <trkpt lat="44.3834" lon="4.7684">
        <ele>109</ele>
        <time>2015-03-08T07:13:46Z</time>
      </trkpt>
      <trkpt lat="44.38351" lon="4.76844">
        <ele>109.1</ele>
        <time>2015-03-08T07:13:49Z</time>
      </trkpt>
      <trkpt lat="44.3836" lon="4.76847">
        <ele>109.3</ele>
        <time>2015-03-08T07:13:52Z</time>
      </trkpt>
      <trkpt lat="44.3837" lon="4.76851">
        <ele>109.7</ele>
        <time>2015-03-08T07:13:55Z</time>
      </trkpt>
      <trkpt lat="44.38378" lon="4.76855">
        <ele>110</ele>
        <time>2015-03-08T07:13:58Z</time>
      </trkpt>
      <trkpt lat="44.38386" lon="4.76862">
        <ele>110.5</ele>
        <time>2015-03-08T07:14:01Z</time>
      </trkpt>
      <trkpt lat="44.38394" lon="4.76871">
        <ele>111</ele>
        <time>2015-03-08T07:14:04Z</time>
      </trkpt>
      <trkpt lat="44.38402" lon="4.76881">
        <ele>111.5</ele>
        <time>2015-03-08T07:14:07Z</time>
      </trkpt>
      <trkpt lat="44.3841" lon="4.76894">
        <ele>111.9</ele>
        <time>2015-03-08T07:14:10Z</time>
      </trkpt>
      <trkpt lat="44.38418" lon="4.76906">
        <ele>112.2</ele>
        <time>2015-03-08T07:14:13Z</time>
      </trkpt>
      <trkpt lat="44.38423" lon="4.76919">
        <ele>112.5</ele>
        <time>2015-03-08T07:14:16Z</time>
      </trkpt>
      <trkpt lat="44.38429" lon="4.76932">
        <ele>112.7</ele>
        <time>2015-03-08T07:14:19Z</time>
      </trkpt>
      <trkpt lat="44.38435" lon="4.76944">
        <ele>112.9</ele>
        <time>2015-03-08T07:14:22Z</time>
      </trkpt>
      <trkpt lat="44.38441" lon="4.76954">
        <ele>113.2</ele>
        <time>2015-03-08T07:14:25Z</time>
      </trkpt>
      <trkpt lat="44.38447" lon="4.76964">
        <ele>113.5</ele>
        <time>2015-03-08T07:14:28Z</time>
      </trkpt>
      <trkpt lat="44.38454" lon="4.76977">
        <ele>114</ele>
        <time>2015-03-08T07:14:32Z</time>
      </trkpt>
      <trkpt lat="44.3846" lon="4.76989">
        <ele>114.6</ele>
        <time>2015-03-08T07:14:36Z</time>
      </trkpt>
      <trkpt lat="44.38466" lon="4.77002">
        <ele>115.5</ele>
        <time>2015-03-08T07:14:40Z</time>
      </trkpt>
      <trkpt lat="44.38472" lon="4.77015">
        <ele>116.3</ele>
        <time>2015-03-08T07:14:44Z</time>
      </trkpt>
      <trkpt lat="44.38478" lon="4.77025">
        <ele>116.9</ele>
        <time>2015-03-08T07:14:47Z</time>
      </trkpt>
      <trkpt lat="44.38484" lon="4.77035">
        <ele>117.4</ele>
        <time>2015-03-08T07:14:50Z</time>
      </trkpt>
      <trkpt lat="44.3849" lon="4.77044">
        <ele>118</ele>
        <time>2015-03-08T07:14:53Z</time>
      </trkpt>
      <trkpt lat="44.385" lon="4.77052">
        <ele>118.7</ele>
        <time>2015-03-08T07:14:57Z</time>
      </trkpt>
      <trkpt lat="44.38509" lon="4.7706">
        <ele>119.4</ele>
        <time>2015-03-08T07:15:01Z</time>
      </trkpt>
      <trkpt lat="44.38518" lon="4.77067">
        <ele>120.2</ele>
        <time>2015-03-08T07:15:05Z</time>
      </trkpt>
      <trkpt lat="44.38528" lon="4.77076">
        <ele>120.8</ele>
        <time>2015-03-08T07:15:09Z</time>
      </trkpt>
      <trkpt lat="44.38536" lon="4.77085">
        <ele>121.2</ele>
        <time>2015-03-08T07:15:12Z</time>
      </trkpt>
      <trkpt lat="44.38542" lon="4.77093">
        <ele>121.6</ele>
        <time>2015-03-08T07:15:15Z</time>
      </trkpt>
      <trkpt lat="44.38549" lon="4.77107">
        <ele>122.1</ele>
        <time>2015-03-08T07:15:19Z</time>
      </trkpt>
      <trkpt lat="44.38551" lon="4.77122">
        <ele>122.7</ele>
        <time>2015-03-08T07:15:23Z</time>
      </trkpt>
      <trkpt lat="44.38549" lon="4.77136">
        <ele>123.2</ele>
        <time>2015-03-08T07:15:27Z</time>
      </trkpt>
      <trkpt lat="44.38549" lon="4.7715">
        <ele>123.6</ele>
        <time>2015-03-08T07:15:31Z</time>
      </trkpt>
      <trkpt lat="44.38553" lon="4.77163">
        <ele>124.4</ele>
        <time>2015-03-08T07:15:35Z</time>
      </trkpt>
      <trkpt lat="44.38562" lon="4.7717">
        <ele>125.1</ele>
        <time>2015-03-08T07:15:39Z</time>
      </trkpt>
      <trkpt lat="44.38572" lon="4.77173">
        <ele>125.9</ele>
        <time>2015-03-08T07:15:43Z</time>
      </trkpt>
      <trkpt lat="44.38583" lon="4.77174">
        <ele>126.5</ele>
        <time>2015-03-08T07:15:47Z</time>
      </trkpt>
      <trkpt lat="44.38593" lon="4.77176">
        <ele>127.2</ele>
        <time>2015-03-08T07:15:51Z</time>
      </trkpt>
      <trkpt lat="44.38601" lon="4.77187">
        <ele>127.8</ele>
        <time>2015-03-08T07:15:56Z</time>
      </trkpt>
      <trkpt lat="44.38608" lon="4.77197">
        <ele>128.5</ele>
        <time>2015-03-08T07:16:00Z</time>
      </trkpt>
      <trkpt lat="44.38615" lon="4.77208">
        <ele>129.1</ele>
        <time>2015-03-08T07:16:04Z</time>
      </trkpt>
      <trkpt lat="44.38621" lon="4.77219">
        <ele>129.7</ele>
        <time>2015-03-08T07:16:09Z</time>
      </trkpt>
      <trkpt lat="44.38628" lon="4.77228">
        <ele>130.9</ele>
        <time>2015-03-08T07:16:15Z</time>
      </trkpt>
      <trkpt lat="44.38634" lon="4.77237">
        <ele>132.3</ele>
        <time>2015-03-08T07:16:28Z</time>
      </trkpt>
      <trkpt lat="44.38642" lon="4.77245">
        <ele>133.1</ele>
        <time>2015-03-08T07:16:36Z</time>
      </trkpt>
      <trkpt lat="44.38651" lon="4.77252">
        <ele>134.3</ele>
        <time>2015-03-08T07:16:45Z</time>
      </trkpt>
      <trkpt lat="44.38659" lon="4.77262">
        <ele>135.1</ele>
        <time>2015-03-08T07:16:50Z</time>
      </trkpt>
      <trkpt lat="44.38666" lon="4.7727">
        <ele>136</ele>
        <time>2015-03-08T07:16:54Z</time>
      </trkpt>
      <trkpt lat="44.38677" lon="4.77273">
        <ele>136.8</ele>
        <time>2015-03-08T07:16:59Z</time>
      </trkpt>
      <trkpt lat="44.38687" lon="4.77274">
        <ele>137.3</ele>
        <time>2015-03-08T07:17:03Z</time>
      </trkpt>
      <trkpt lat="44.38696" lon="4.7728">
        <ele>137.8</ele>
        <time>2015-03-08T07:17:07Z</time>
      </trkpt>
      <trkpt lat="44.38706" lon="4.77285">
        <ele>138.4</ele>
        <time>2015-03-08T07:17:11Z</time>
      </trkpt>
      <trkpt lat="44.38716" lon="4.7729">
        <ele>139.2</ele>
        <time>2015-03-08T07:17:15Z</time>
      </trkpt>
      <trkpt lat="44.38726" lon="4.77295">
        <ele>139.8</ele>
        <time>2015-03-08T07:17:19Z</time>
      </trkpt>
      <trkpt lat="44.38734" lon="4.77303">
        <ele>140.6</ele>
        <time>2015-03-08T07:17:23Z</time>
      </trkpt>
      <trkpt lat="44.38744" lon="4.77308">
        <ele>141.2</ele>
        <time>2015-03-08T07:17:27Z</time>
      </trkpt>
      <trkpt lat="44.38754" lon="4.77311">
        <ele>142.2</ele>
        <time>2015-03-08T07:17:32Z</time>
      </trkpt>
      <trkpt lat="44.38764" lon="4.77314">
        <ele>143</ele>
        <time>2015-03-08T07:17:37Z</time>
      </trkpt>
      <trkpt lat="44.38775" lon="4.77316">
        <ele>143.8</ele>
        <time>2015-03-08T07:17:42Z</time>
      </trkpt>
      <trkpt lat="44.38783" lon="4.77324">
        <ele>144.7</ele>
        <time>2015-03-08T07:17:47Z</time>
      </trkpt>
      <trkpt lat="44.38792" lon="4.77327">
        <ele>145.6</ele>
        <time>2015-03-08T07:17:53Z</time>
      </trkpt>
      <trkpt lat="44.38801" lon="4.77334">
        <ele>146.3</ele>
        <time>2015-03-08T07:17:58Z</time>
      </trkpt>
      <trkpt lat="44.3881" lon="4.7734">
        <ele>147</ele>
        <time>2015-03-08T07:18:03Z</time>
      </trkpt>
      <trkpt lat="44.38818" lon="4.77348">
        <ele>148.3</ele>
        <time>2015-03-08T07:18:08Z</time>
      </trkpt>
      <trkpt lat="44.38826" lon="4.77355">
        <ele>149.5</ele>
        <time>2015-03-08T07:18:13Z</time>
      </trkpt>
      <trkpt lat="44.38836" lon="4.7736">
        <ele>150.6</ele>
        <time>2015-03-08T07:18:19Z</time>
      </trkpt>
      <trkpt lat="44.38845" lon="4.77366">
        <ele>151.5</ele>
        <time>2015-03-08T07:18:25Z</time>
      </trkpt>
      <trkpt lat="44.38855" lon="4.77372">
        <ele>152.7</ele>
        <time>2015-03-08T07:18:31Z</time>
      </trkpt>
      <trkpt lat="44.38864" lon="4.77377">
        <ele>153.4</ele>
        <time>2015-03-08T07:18:36Z</time>
      </trkpt>
      <trkpt lat="44.38873" lon="4.77382">
        <ele>154.3</ele>
        <time>2015-03-08T07:18:40Z</time>
      </trkpt>
      <trkpt lat="44.38882" lon="4.77391">
        <ele>155.2</ele>
        <time>2015-03-08T07:18:45Z</time>
      </trkpt>
      <trkpt lat="44.38891" lon="4.77399">
        <ele>156</ele>
        <time>2015-03-08T07:18:50Z</time>
      </trkpt>
      <trkpt lat="44.389" lon="4.77408">
        <ele>156.8</ele>
        <time>2015-03-08T07:18:54Z</time>
      </trkpt>
      <trkpt lat="44.38908" lon="4.77414">
        <ele>157.2</ele>
        <time>2015-03-08T07:18:57Z</time>
      </trkpt>
      <trkpt lat="44.38919" lon="4.77421">
        <ele>157.7</ele>
        <time>2015-03-08T07:19:01Z</time>
      </trkpt>
      <trkpt lat="44.38929" lon="4.77432">
        <ele>158</ele>
        <time>2015-03-08T07:19:04Z</time>
      </trkpt>
      <trkpt lat="44.38937" lon="4.77443">
        <ele>158.2</ele>
        <time>2015-03-08T07:19:07Z</time>
      </trkpt>
      <trkpt lat="44.38946" lon="4.77452">
        <ele>158.4</ele>
        <time>2015-03-08T07:19:10Z</time>
      </trkpt>
      <trkpt lat="44.38953" lon="4.7746">
        <ele>158.6</ele>
        <time>2015-03-08T07:19:13Z</time>
      </trkpt>
      <trkpt lat="44.3896" lon="4.77469">
        <ele>158.7</ele>
        <time>2015-03-08T07:19:16Z</time>
      </trkpt>
      <trkpt lat="44.38969" lon="4.77474">
        <ele>158.9</ele>
        <time>2015-03-08T07:19:23Z</time>
      </trkpt>
      <trkpt lat="44.38979" lon="4.77479">
        <ele>159.6</ele>
        <time>2015-03-08T07:19:31Z</time>
      </trkpt>
      <trkpt lat="44.3899" lon="4.7748">
        <ele>160.1</ele>
        <time>2015-03-08T07:19:36Z</time>
      </trkpt>
      <trkpt lat="44.38999" lon="4.77486">
        <ele>160.6</ele>
        <time>2015-03-08T07:19:40Z</time>
      </trkpt>
      <trkpt lat="44.39009" lon="4.77491">
        <ele>161</ele>
        <time>2015-03-08T07:19:44Z</time>
      </trkpt>
      <trkpt lat="44.39009" lon="4.77477">
        <ele>161.7</ele>
        <time>2015-03-08T07:19:51Z</time>
      </trkpt>
      <trkpt lat="44.39006" lon="4.77462">
        <ele>162</ele>
        <time>2015-03-08T07:19:55Z</time>
      </trkpt>
      <trkpt lat="44.39003" lon="4.77448">
        <ele>162.4</ele>
        <time>2015-03-08T07:19:59Z</time>
      </trkpt>
      <trkpt lat="44.38999" lon="4.77434">
        <ele>162.7</ele>
        <time>2015-03-08T07:20:03Z</time>
      </trkpt>
      <trkpt lat="44.38996" lon="4.7742">
        <ele>163.1</ele>
        <time>2015-03-08T07:20:07Z</time>
      </trkpt>
      <trkpt lat="44.38991" lon="4.77405">
        <ele>163.7</ele>
        <time>2015-03-08T07:20:11Z</time>
      </trkpt>
      <trkpt lat="44.38983" lon="4.77394">
        <ele>164.3</ele>
        <time>2015-03-08T07:20:15Z</time>
      </trkpt>
      <trkpt lat="44.38974" lon="4.77384">
        <ele>164.8</ele>
        <time>2015-03-08T07:20:19Z</time>
      </trkpt>
      <trkpt lat="44.38965" lon="4.77377">
        <ele>165.1</ele>
        <time>2015-03-08T07:20:23Z</time>
      </trkpt>
      <trkpt lat="44.38955" lon="4.77371">
        <ele>165.6</ele>
        <time>2015-03-08T07:20:27Z</time>
      </trkpt>
      <trkpt lat="44.38946" lon="4.77365">
        <ele>166.2</ele>
        <time>2015-03-08T07:20:31Z</time>
      </trkpt>
      <trkpt lat="44.38937" lon="4.77357">
        <ele>166.7</ele>
        <time>2015-03-08T07:20:35Z</time>
      </trkpt>
      <trkpt lat="44.38928" lon="4.77348">
        <ele>167.1</ele>
        <time>2015-03-08T07:20:39Z</time>
      </trkpt>
      <trkpt lat="44.38919" lon="4.77339">
        <ele>167.4</ele>
        <time>2015-03-08T07:20:43Z</time>
      </trkpt>
      <trkpt lat="44.38911" lon="4.77331">
        <ele>167.6</ele>
        <time>2015-03-08T07:20:46Z</time>
      </trkpt>
      <trkpt lat="44.38902" lon="4.77321">
        <ele>168</ele>
        <time>2015-03-08T07:20:50Z</time>
      </trkpt>
      <trkpt lat="44.38893" lon="4.77311">
        <ele>168.4</ele>
        <time>2015-03-08T07:20:54Z</time>
      </trkpt>
      <trkpt lat="44.38884" lon="4.77302">
        <ele>168.6</ele>
        <time>2015-03-08T07:20:57Z</time>
      </trkpt>
      <trkpt lat="44.38876" lon="4.77293">
        <ele>168.8</ele>
        <time>2015-03-08T07:21:00Z</time>
      </trkpt>
      <trkpt lat="44.38868" lon="4.77283">
        <ele>169</ele>
        <time>2015-03-08T07:21:03Z</time>
      </trkpt>
      <trkpt lat="44.38858" lon="4.77272">
        <ele>169.1</ele>
        <time>2015-03-08T07:21:06Z</time>
      </trkpt>
      <trkpt lat="44.38849" lon="4.77264">
        <ele>169.2</ele>
        <time>2015-03-08T07:21:09Z</time>
      </trkpt>
      <trkpt lat="44.38844" lon="4.77253">
        <ele>169.5</ele>
        <time>2015-03-08T07:21:12Z</time>
      </trkpt>
      <trkpt lat="44.3884" lon="4.7724">
        <ele>169.6</ele>
        <time>2015-03-08T07:21:14Z</time>
      </trkpt>
      <trkpt lat="44.38838" lon="4.77225">
        <ele>169.7</ele>
        <time>2015-03-08T07:21:16Z</time>
      </trkpt>
      <trkpt lat="44.38835" lon="4.7721">
        <ele>169.8</ele>
        <time>2015-03-08T07:21:18Z</time>
      </trkpt>
      <trkpt lat="44.38831" lon="4.77198">
        <ele>169.9</ele>
        <time>2015-03-08T07:21:20Z</time>
      </trkpt>
      <trkpt lat="44.38827" lon="4.77185">
        <ele>169.9</ele>
        <time>2015-03-08T07:21:22Z</time>
      </trkpt>
      <trkpt lat="44.38824" lon="4.77172">
        <ele>170</ele>
        <time>2015-03-08T07:21:24Z</time>
      </trkpt>
      <trkpt lat="44.38819" lon="4.77155">
        <ele>170.1</ele>
        <time>2015-03-08T07:21:27Z</time>
      </trkpt>
      <trkpt lat="44.38813" lon="4.77139">
        <ele>170.1</ele>
        <time>2015-03-08T07:21:30Z</time>
      </trkpt>
      <trkpt lat="44.3881" lon="4.77121">
        <ele>170.2</ele>
        <time>2015-03-08T07:21:33Z</time>
      </trkpt>
      <trkpt lat="44.3881" lon="4.77108">
        <ele>170.2</ele>
        <time>2015-03-08T07:21:35Z</time>
      </trkpt>
      <trkpt lat="44.38814" lon="4.77097">
        <ele>170.3</ele>
        <time>2015-03-08T07:21:37Z</time>
      </trkpt>
      <trkpt lat="44.38821" lon="4.77087">
        <ele>170.3</ele>
        <time>2015-03-08T07:21:39Z</time>
      </trkpt>
      <trkpt lat="44.38829" lon="4.77078">
        <ele>170.3</ele>
        <time>2015-03-08T07:21:41Z</time>
      </trkpt>
      <trkpt lat="44.38835" lon="4.77068">
        <ele>170.3</ele>
        <time>2015-03-08T07:21:43Z</time>
      </trkpt>
      <trkpt lat="44.38838" lon="4.77056">
        <ele>170.2</ele>
        <time>2015-03-08T07:21:45Z</time>
      </trkpt>
      <trkpt lat="44.38843" lon="4.77044">
        <ele>170.1</ele>
        <time>2015-03-08T07:21:47Z</time>
      </trkpt>
      <trkpt lat="44.38849" lon="4.77032">
        <ele>169.9</ele>
        <time>2015-03-08T07:21:49Z</time>
      </trkpt>
      <trkpt lat="44.38852" lon="4.77017">
        <ele>169.8</ele>
        <time>2015-03-08T07:21:51Z</time>
      </trkpt>
      <trkpt lat="44.38861" lon="4.77004">
        <ele>169.4</ele>
        <time>2015-03-08T07:21:54Z</time>
      </trkpt>
      <trkpt lat="44.38867" lon="4.76992">
        <ele>169.2</ele>
        <time>2015-03-08T07:21:56Z</time>
      </trkpt>
      <trkpt lat="44.38874" lon="4.76981">
        <ele>169</ele>
        <time>2015-03-08T07:21:58Z</time>
      </trkpt>
      <trkpt lat="44.3888" lon="4.7697">
        <ele>168.8</ele>
        <time>2015-03-08T07:22:00Z</time>
      </trkpt>
      <trkpt lat="44.38886" lon="4.76957">
        <ele>168.6</ele>
        <time>2015-03-08T07:22:02Z</time>
      </trkpt>
      <trkpt lat="44.38891" lon="4.76944">
        <ele>168.5</ele>
        <time>2015-03-08T07:22:04Z</time>
      </trkpt>
      <trkpt lat="44.38895" lon="4.76931">
        <ele>168.4</ele>
        <time>2015-03-08T07:22:06Z</time>
      </trkpt>
      <trkpt lat="44.389" lon="4.76919">
        <ele>168.3</ele>
        <time>2015-03-08T07:22:08Z</time>
      </trkpt>
      <trkpt lat="44.38899" lon="4.76904">
        <ele>168.1</ele>
        <time>2015-03-08T07:22:11Z</time>
      </trkpt>
      <trkpt lat="44.38889" lon="4.76893">
        <ele>168</ele>
        <time>2015-03-08T07:22:14Z</time>
      </trkpt>
      <trkpt lat="44.38877" lon="4.76889">
        <ele>167.9</ele>
        <time>2015-03-08T07:22:17Z</time>
      </trkpt>
      <trkpt lat="44.38867" lon="4.76882">
        <ele>167.8</ele>
        <time>2015-03-08T07:22:20Z</time>
      </trkpt>
      <trkpt lat="44.38857" lon="4.76876">
        <ele>167.7</ele>
        <time>2015-03-08T07:22:23Z</time>
      </trkpt>
      <trkpt lat="44.38847" lon="4.76864">
        <ele>167.9</ele>
        <time>2015-03-08T07:22:26Z</time>
      </trkpt>
      <trkpt lat="44.38841" lon="4.76848">
        <ele>167.9</ele>
        <time>2015-03-08T07:22:29Z</time>
      </trkpt>
      <trkpt lat="44.3884" lon="4.7683">
        <ele>167.9</ele>
        <time>2015-03-08T07:22:32Z</time>
      </trkpt>
      <trkpt lat="44.38834" lon="4.76814">
        <ele>168.3</ele>
        <time>2015-03-08T07:22:35Z</time>
      </trkpt>
      <trkpt lat="44.38827" lon="4.76805">
        <ele>168.5</ele>
        <time>2015-03-08T07:22:37Z</time>
      </trkpt>
      <trkpt lat="44.38823" lon="4.76791">
        <ele>168.9</ele>
        <time>2015-03-08T07:22:41Z</time>
      </trkpt>
      <trkpt lat="44.38822" lon="4.76775">
        <ele>169.1</ele>
        <time>2015-03-08T07:22:46Z</time>
      </trkpt>
      <trkpt lat="44.38818" lon="4.7676">
        <ele>169.2</ele>
        <time>2015-03-08T07:22:50Z</time>
      </trkpt>
      <trkpt lat="44.3882" lon="4.76747">
        <ele>169.2</ele>
        <time>2015-03-08T07:22:53Z</time>
      </trkpt>
      <trkpt lat="44.38825" lon="4.76734">
        <ele>169.1</ele>
        <time>2015-03-08T07:22:56Z</time>
      </trkpt>
      <trkpt lat="44.38828" lon="4.7672">
        <ele>169</ele>
        <time>2015-03-08T07:22:59Z</time>
      </trkpt>
      <trkpt lat="44.38835" lon="4.76713">
        <ele>168.7</ele>
        <time>2015-03-08T07:23:02Z</time>
      </trkpt>
      <trkpt lat="44.3884" lon="4.767">
        <ele>168.6</ele>
        <time>2015-03-08T07:23:05Z</time>
      </trkpt>
      <trkpt lat="44.38838" lon="4.76688">
        <ele>168.5</ele>
        <time>2015-03-08T07:23:08Z</time>
      </trkpt>
      <trkpt lat="44.38832" lon="4.76677">
        <ele>167.9</ele>
        <time>2015-03-08T07:23:18Z</time>
      </trkpt>
      <trkpt lat="44.38825" lon="4.7669">
        <ele>166.7</ele>
        <time>2015-03-08T07:23:24Z</time>
      </trkpt>
      <trkpt lat="44.38816" lon="4.76702">
        <ele>166</ele>
        <time>2015-03-08T07:23:27Z</time>
      </trkpt>
      <trkpt lat="44.38809" lon="4.76714">
        <ele>165.3</ele>
        <time>2015-03-08T07:23:29Z</time>
      </trkpt>
      <trkpt lat="44.38805" lon="4.76725">
        <ele>164.3</ele>
        <time>2015-03-08T07:23:32Z</time>
      </trkpt>
      <trkpt lat="44.38797" lon="4.76739">
        <ele>163.3</ele>
        <time>2015-03-08T07:23:35Z</time>
      </trkpt>
      <trkpt lat="44.38794" lon="4.76726">
        <ele>160.4</ele>
        <time>2015-03-08T07:23:42Z</time>
      </trkpt>
      <trkpt lat="44.38791" lon="4.76711">
        <ele>159.2</ele>
        <time>2015-03-08T07:23:45Z</time>
      </trkpt>
      <trkpt lat="44.3879" lon="4.76697">
        <ele>156.2</ele>
        <time>2015-03-08T07:23:52Z</time>
      </trkpt>
      <trkpt lat="44.38786" lon="4.76685">
        <ele>149.3</ele>
        <time>2015-03-08T07:24:59Z</time>
      </trkpt>
      <trkpt lat="44.38785" lon="4.76672">
        <ele>148.9</ele>
        <time>2015-03-08T07:25:09Z</time>
      </trkpt>
      <trkpt lat="44.38777" lon="4.76662">
        <ele>148.7</ele>
        <time>2015-03-08T07:25:14Z</time>
      </trkpt>
      <trkpt lat="44.38777" lon="4.76648">
        <ele>148.5</ele>
        <time>2015-03-08T07:25:17Z</time>
      </trkpt>
      <trkpt lat="44.3877" lon="4.76634">
        <ele>148</ele>
        <time>2015-03-08T07:25:20Z</time>
      </trkpt>
      <trkpt lat="44.38765" lon="4.7662">
        <ele>147.6</ele>
        <time>2015-03-08T07:25:23Z</time>
      </trkpt>
      <trkpt lat="44.38761" lon="4.76604">
        <ele>147.1</ele>
        <time>2015-03-08T07:25:26Z</time>
      </trkpt>
      <trkpt lat="44.38757" lon="4.76587">
        <ele>146.6</ele>
        <time>2015-03-08T07:25:29Z</time>
      </trkpt>
      <trkpt lat="44.38752" lon="4.76575">
        <ele>146.3</ele>
        <time>2015-03-08T07:25:31Z</time>
      </trkpt>
      <trkpt lat="44.38747" lon="4.76562">
        <ele>145.9</ele>
        <time>2015-03-08T07:25:33Z</time>
      </trkpt>
      <trkpt lat="44.38743" lon="4.76548">
        <ele>145.5</ele>
        <time>2015-03-08T07:25:35Z</time>
      </trkpt>
      <trkpt lat="44.38741" lon="4.76534">
        <ele>145</ele>
        <time>2015-03-08T07:25:37Z</time>
      </trkpt>
      <trkpt lat="44.38739" lon="4.7652">
        <ele>144.7</ele>
        <time>2015-03-08T07:25:39Z</time>
      </trkpt>
      <trkpt lat="44.38736" lon="4.76503">
        <ele>144.2</ele>
        <time>2015-03-08T07:25:42Z</time>
      </trkpt>
      <trkpt lat="44.38732" lon="4.76489">
        <ele>143.8</ele>
        <time>2015-03-08T07:25:45Z</time>
      </trkpt>
      <trkpt lat="44.38729" lon="4.76476">
        <ele>143.5</ele>
        <time>2015-03-08T07:25:48Z</time>
      </trkpt>
      <trkpt lat="44.38726" lon="4.7646">
        <ele>143.5</ele>
        <time>2015-03-08T07:25:52Z</time>
      </trkpt>
      <trkpt lat="44.38724" lon="4.76447">
        <ele>143.6</ele>
        <time>2015-03-08T07:25:55Z</time>
      </trkpt>
      <trkpt lat="44.38721" lon="4.76433">
        <ele>143.7</ele>
        <time>2015-03-08T07:25:58Z</time>
      </trkpt>
      <trkpt lat="44.38719" lon="4.76421">
        <ele>143.7</ele>
        <time>2015-03-08T07:26:01Z</time>
      </trkpt>
      <trkpt lat="44.38716" lon="4.76408">
        <ele>143.8</ele>
        <time>2015-03-08T07:26:04Z</time>
      </trkpt>
      <trkpt lat="44.38714" lon="4.76394">
        <ele>143.9</ele>
        <time>2015-03-08T07:26:07Z</time>
      </trkpt>
      <trkpt lat="44.38714" lon="4.76379">
        <ele>143.9</ele>
        <time>2015-03-08T07:26:10Z</time>
      </trkpt>
      <trkpt lat="44.38712" lon="4.76362">
        <ele>144.2</ele>
        <time>2015-03-08T07:26:13Z</time>
      </trkpt>
      <trkpt lat="44.38711" lon="4.76345">
        <ele>144.6</ele>
        <time>2015-03-08T07:26:16Z</time>
      </trkpt>
      <trkpt lat="44.38708" lon="4.76329">
        <ele>145</ele>
        <time>2015-03-08T07:26:19Z</time>
      </trkpt>
      <trkpt lat="44.38706" lon="4.76314">
        <ele>145.3</ele>
        <time>2015-03-08T07:26:22Z</time>
      </trkpt>
      <trkpt lat="44.38705" lon="4.763">
        <ele>145.5</ele>
        <time>2015-03-08T07:26:25Z</time>
      </trkpt>
      <trkpt lat="44.38704" lon="4.76286">
        <ele>145.9</ele>
        <time>2015-03-08T07:26:28Z</time>
      </trkpt>
      <trkpt lat="44.38707" lon="4.76272">
        <ele>146.3</ele>
        <time>2015-03-08T07:26:32Z</time>
      </trkpt>
      <trkpt lat="44.38715" lon="4.76265">
        <ele>147.1</ele>
        <time>2015-03-08T07:26:38Z</time>
      </trkpt>
      <trkpt lat="44.38724" lon="4.76259">
        <ele>148.1</ele>
        <time>2015-03-08T07:26:43Z</time>
      </trkpt>
      <trkpt lat="44.38732" lon="4.76268">
        <ele>149.2</ele>
        <time>2015-03-08T07:26:50Z</time>
      </trkpt>
      <trkpt lat="44.38737" lon="4.76281">
        <ele>150.4</ele>
        <time>2015-03-08T07:26:56Z</time>
      </trkpt>
      <trkpt lat="44.38741" lon="4.76294">
        <ele>151.3</ele>
        <time>2015-03-08T07:27:01Z</time>
      </trkpt>
      <trkpt lat="44.38747" lon="4.76308">
        <ele>152</ele>
        <time>2015-03-08T07:27:05Z</time>
      </trkpt>
      <trkpt lat="44.38753" lon="4.76322">
        <ele>152.6</ele>
        <time>2015-03-08T07:27:09Z</time>
      </trkpt>
      <trkpt lat="44.38759" lon="4.76333">
        <ele>152.9</ele>
        <time>2015-03-08T07:27:12Z</time>
      </trkpt>
      <trkpt lat="44.38766" lon="4.76344">
        <ele>153.2</ele>
        <time>2015-03-08T07:27:15Z</time>
      </trkpt>
      <trkpt lat="44.38773" lon="4.76358">
        <ele>153.3</ele>
        <time>2015-03-08T07:27:18Z</time>
      </trkpt>
      <trkpt lat="44.38778" lon="4.76371">
        <ele>152.9</ele>
        <time>2015-03-08T07:27:21Z</time>
      </trkpt>
      <trkpt lat="44.38784" lon="4.76381">
        <ele>152.7</ele>
        <time>2015-03-08T07:27:24Z</time>
      </trkpt>
      <trkpt lat="44.3879" lon="4.76392">
        <ele>152.4</ele>
        <time>2015-03-08T07:27:27Z</time>
      </trkpt>
      <trkpt lat="44.38798" lon="4.76404">
        <ele>152.2</ele>
        <time>2015-03-08T07:27:30Z</time>
      </trkpt>
      <trkpt lat="44.38806" lon="4.76416">
        <ele>152</ele>
        <time>2015-03-08T07:27:33Z</time>
      </trkpt>
      <trkpt lat="44.38813" lon="4.76427">
        <ele>152</ele>
        <time>2015-03-08T07:27:36Z</time>
      </trkpt>
      <trkpt lat="44.3882" lon="4.76438">
        <ele>152</ele>
        <time>2015-03-08T07:27:39Z</time>
      </trkpt>
      <trkpt lat="44.38828" lon="4.76453">
        <ele>151.9</ele>
        <time>2015-03-08T07:27:42Z</time>
      </trkpt>
      <trkpt lat="44.38834" lon="4.76465">
        <ele>151.7</ele>
        <time>2015-03-08T07:27:44Z</time>
      </trkpt>
      <trkpt lat="44.3884" lon="4.76476">
        <ele>151.6</ele>
        <time>2015-03-08T07:27:46Z</time>
      </trkpt>
      <trkpt lat="44.38848" lon="4.76489">
        <ele>151.4</ele>
        <time>2015-03-08T07:27:49Z</time>
      </trkpt>
      <trkpt lat="44.38854" lon="4.76501">
        <ele>150.7</ele>
        <time>2015-03-08T07:27:52Z</time>
      </trkpt>
      <trkpt lat="44.38861" lon="4.76513">
        <ele>150.1</ele>
        <time>2015-03-08T07:27:55Z</time>
      </trkpt>
      <trkpt lat="44.38867" lon="4.76524">
        <ele>149.7</ele>
        <time>2015-03-08T07:27:58Z</time>
      </trkpt>
      <trkpt lat="44.38874" lon="4.76538">
        <ele>149.4</ele>
        <time>2015-03-08T07:28:01Z</time>
      </trkpt>
      <trkpt lat="44.38879" lon="4.76549">
        <ele>149.2</ele>
        <time>2015-03-08T07:28:03Z</time>
      </trkpt>
      <trkpt lat="44.38883" lon="4.76562">
        <ele>149</ele>
        <time>2015-03-08T07:28:05Z</time>
      </trkpt>
      <trkpt lat="44.38889" lon="4.76573">
        <ele>148.9</ele>
        <time>2015-03-08T07:28:07Z</time>
      </trkpt>
      <trkpt lat="44.38895" lon="4.76585">
        <ele>148.7</ele>
        <time>2015-03-08T07:28:09Z</time>
      </trkpt>
      <trkpt lat="44.38904" lon="4.76596">
        <ele>148.6</ele>
        <time>2015-03-08T07:28:11Z</time>
      </trkpt>
      <trkpt lat="44.38913" lon="4.76602">
        <ele>148.5</ele>
        <time>2015-03-08T07:28:13Z</time>
      </trkpt>
      <trkpt lat="44.38923" lon="4.76609">
        <ele>148.1</ele>
        <time>2015-03-08T07:28:15Z</time>
      </trkpt>
      <trkpt lat="44.38932" lon="4.76619">
        <ele>147.6</ele>
        <time>2015-03-08T07:28:17Z</time>
      </trkpt>
      <trkpt lat="44.38938" lon="4.76631">
        <ele>147.2</ele>
        <time>2015-03-08T07:28:19Z</time>
      </trkpt>
      <trkpt lat="44.38943" lon="4.76643">
        <ele>146.8</ele>
        <time>2015-03-08T07:28:21Z</time>
      </trkpt>
      <trkpt lat="44.38952" lon="4.76653">
        <ele>145.9</ele>
        <time>2015-03-08T07:28:24Z</time>
      </trkpt>
      <trkpt lat="44.38962" lon="4.76653">
        <ele>145.1</ele>
        <time>2015-03-08T07:28:26Z</time>
      </trkpt>
      <trkpt lat="44.38972" lon="4.76651">
        <ele>144.3</ele>
        <time>2015-03-08T07:28:28Z</time>
      </trkpt>
      <trkpt lat="44.38981" lon="4.76647">
        <ele>143.5</ele>
        <time>2015-03-08T07:28:30Z</time>
      </trkpt>
      <trkpt lat="44.38992" lon="4.76641">
        <ele>142.6</ele>
        <time>2015-03-08T07:28:32Z</time>
      </trkpt>
      <trkpt lat="44.39002" lon="4.76642">
        <ele>141.8</ele>
        <time>2015-03-08T07:28:34Z</time>
      </trkpt>
      <trkpt lat="44.39011" lon="4.76647">
        <ele>141.2</ele>
        <time>2015-03-08T07:28:36Z</time>
      </trkpt>
      <trkpt lat="44.3902" lon="4.76653">
        <ele>140.3</ele>
        <time>2015-03-08T07:28:39Z</time>
      </trkpt>
      <trkpt lat="44.39021" lon="4.76639">
        <ele>138.6</ele>
        <time>2015-03-08T07:28:44Z</time>
      </trkpt>
      <trkpt lat="44.39011" lon="4.76631">
        <ele>137.8</ele>
        <time>2015-03-08T07:28:47Z</time>
      </trkpt>
      <trkpt lat="44.39004" lon="4.76623">
        <ele>137.3</ele>
        <time>2015-03-08T07:28:49Z</time>
      </trkpt>
      <trkpt lat="44.38993" lon="4.76612">
        <ele>136.3</ele>
        <time>2015-03-08T07:28:52Z</time>
      </trkpt>
      <trkpt lat="44.38985" lon="4.76601">
        <ele>135.4</ele>
        <time>2015-03-08T07:28:55Z</time>
      </trkpt>
      <trkpt lat="44.38978" lon="4.76584">
        <ele>134.6</ele>
        <time>2015-03-08T07:28:58Z</time>
      </trkpt>
      <trkpt lat="44.38975" lon="4.76572">
        <ele>134.1</ele>
        <time>2015-03-08T07:29:00Z</time>
      </trkpt>
      <trkpt lat="44.38971" lon="4.76559">
        <ele>133.6</ele>
        <time>2015-03-08T07:29:02Z</time>
      </trkpt>
      <trkpt lat="44.3897" lon="4.76546">
        <ele>133.1</ele>
        <time>2015-03-08T07:29:04Z</time>
      </trkpt>
      <trkpt lat="44.38976" lon="4.76535">
        <ele>132.3</ele>
        <time>2015-03-08T07:29:07Z</time>
      </trkpt>
      <trkpt lat="44.3899" lon="4.76538">
        <ele>131.5</ele>
        <time>2015-03-08T07:29:10Z</time>
      </trkpt>
      <trkpt lat="44.39001" lon="4.76541">
        <ele>131</ele>
        <time>2015-03-08T07:29:12Z</time>
      </trkpt>
      <trkpt lat="44.3901" lon="4.76543">
        <ele>130.6</ele>
        <time>2015-03-08T07:29:14Z</time>
      </trkpt>
      <trkpt lat="44.39021" lon="4.76536">
        <ele>130</ele>
        <time>2015-03-08T07:29:17Z</time>
      </trkpt>
      <trkpt lat="44.3902" lon="4.76521">
        <ele>129.3</ele>
        <time>2015-03-08T07:29:20Z</time>
      </trkpt>
      <trkpt lat="44.39015" lon="4.76509">
        <ele>128.8</ele>
        <time>2015-03-08T07:29:22Z</time>
      </trkpt>
      <trkpt lat="44.3901" lon="4.76496">
        <ele>128.3</ele>
        <time>2015-03-08T07:29:24Z</time>
      </trkpt>
      <trkpt lat="44.39016" lon="4.76484">
        <ele>127.2</ele>
        <time>2015-03-08T07:29:28Z</time>
      </trkpt>
      <trkpt lat="44.39027" lon="4.76491">
        <ele>126.2</ele>
        <time>2015-03-08T07:29:31Z</time>
      </trkpt>
      <trkpt lat="44.39035" lon="4.76498">
        <ele>125.5</ele>
        <time>2015-03-08T07:29:33Z</time>
      </trkpt>
      <trkpt lat="44.39046" lon="4.76501">
        <ele>124.8</ele>
        <time>2015-03-08T07:29:35Z</time>
      </trkpt>
      <trkpt lat="44.39055" lon="4.76497">
        <ele>123.7</ele>
        <time>2015-03-08T07:29:38Z</time>
      </trkpt>
      <trkpt lat="44.39064" lon="4.76503">
        <ele>121</ele>
        <time>2015-03-08T07:29:44Z</time>
      </trkpt>
      <trkpt lat="44.39076" lon="4.76505">
        <ele>119.1</ele>
        <time>2015-03-08T07:29:49Z</time>
      </trkpt>
      <trkpt lat="44.39085" lon="4.76511">
        <ele>117.7</ele>
        <time>2015-03-08T07:29:53Z</time>
      </trkpt>
      <trkpt lat="44.39095" lon="4.76508">
        <ele>116.5</ele>
        <time>2015-03-08T07:29:57Z</time>
      </trkpt>
      <trkpt lat="44.39104" lon="4.76498">
        <ele>115.6</ele>
        <time>2015-03-08T07:30:01Z</time>
      </trkpt>
      <trkpt lat="44.39113" lon="4.76494">
        <ele>114.4</ele>
        <time>2015-03-08T07:30:05Z</time>
      </trkpt>
      <trkpt lat="44.39122" lon="4.76488">
        <ele>113</ele>
        <time>2015-03-08T07:30:10Z</time>
      </trkpt>
      <trkpt lat="44.39132" lon="4.76483">
        <ele>112.1</ele>
        <time>2015-03-08T07:30:15Z</time>
      </trkpt>
      <trkpt lat="44.39143" lon="4.76484">
        <ele>112.1</ele>
        <time>2015-03-08T07:30:20Z</time>
      </trkpt>
      <trkpt lat="44.39153" lon="4.76485">
        <ele>112.3</ele>
        <time>2015-03-08T07:30:25Z</time>
      </trkpt>
      <trkpt lat="44.39163" lon="4.76481">
        <ele>112.7</ele>
        <time>2015-03-08T07:30:30Z</time>
      </trkpt>
      <trkpt lat="44.39172" lon="4.76475">
        <ele>113.4</ele>
        <time>2015-03-08T07:30:36Z</time>
      </trkpt>
      <trkpt lat="44.3918" lon="4.76467">
        <ele>114.4</ele>
        <time>2015-03-08T07:30:42Z</time>
      </trkpt>
      <trkpt lat="44.39189" lon="4.7646">
        <ele>115.4</ele>
        <time>2015-03-08T07:30:48Z</time>
      </trkpt>
      <trkpt lat="44.39198" lon="4.76453">
        <ele>116.7</ele>
        <time>2015-03-08T07:30:55Z</time>
      </trkpt>
      <trkpt lat="44.39207" lon="4.76454">
        <ele>117.9</ele>
        <time>2015-03-08T07:31:01Z</time>
      </trkpt>
      <trkpt lat="44.39217" lon="4.76455">
        <ele>118.9</ele>
        <time>2015-03-08T07:31:06Z</time>
      </trkpt>
      <trkpt lat="44.39226" lon="4.76462">
        <ele>120.1</ele>
        <time>2015-03-08T07:31:12Z</time>
      </trkpt>
      <trkpt lat="44.39232" lon="4.76476">
        <ele>120.8</ele>
        <time>2015-03-08T07:31:17Z</time>
      </trkpt>
      <trkpt lat="44.39238" lon="4.76487">
        <ele>121.5</ele>
        <time>2015-03-08T07:31:21Z</time>
      </trkpt>
      <trkpt lat="44.39244" lon="4.76498">
        <ele>122</ele>
        <time>2015-03-08T07:31:25Z</time>
      </trkpt>
      <trkpt lat="44.39249" lon="4.76509">
        <ele>122.4</ele>
        <time>2015-03-08T07:31:28Z</time>
      </trkpt>
      <trkpt lat="44.39255" lon="4.76521">
        <ele>122.9</ele>
        <time>2015-03-08T07:31:32Z</time>
      </trkpt>
      <trkpt lat="44.3926" lon="4.76533">
        <ele>123.2</ele>
        <time>2015-03-08T07:31:35Z</time>
      </trkpt>
      <trkpt lat="44.39265" lon="4.76544">
        <ele>123.4</ele>
        <time>2015-03-08T07:31:38Z</time>
      </trkpt>
      <trkpt lat="44.3927" lon="4.76556">
        <ele>123.7</ele>
        <time>2015-03-08T07:31:41Z</time>
      </trkpt>
      <trkpt lat="44.39274" lon="4.76568">
        <ele>124</ele>
        <time>2015-03-08T07:31:44Z</time>
      </trkpt>
      <trkpt lat="44.3928" lon="4.76578">
        <ele>124.3</ele>
        <time>2015-03-08T07:31:47Z</time>
      </trkpt>
      <trkpt lat="44.39287" lon="4.76586">
        <ele>124.5</ele>
        <time>2015-03-08T07:31:50Z</time>
      </trkpt>
      <trkpt lat="44.39296" lon="4.76595">
        <ele>124.8</ele>
        <time>2015-03-08T07:31:54Z</time>
      </trkpt>
      <trkpt lat="44.39304" lon="4.76604">
        <ele>125.1</ele>
        <time>2015-03-08T07:31:58Z</time>
      </trkpt>
      <trkpt lat="44.39314" lon="4.76611">
        <ele>125.9</ele>
        <time>2015-03-08T07:32:03Z</time>
      </trkpt>
      <trkpt lat="44.39322" lon="4.76615">
        <ele>126.8</ele>
        <time>2015-03-08T07:32:08Z</time>
      </trkpt>
      <trkpt lat="44.39331" lon="4.76621">
        <ele>127.9</ele>
        <time>2015-03-08T07:32:14Z</time>
      </trkpt>
      <trkpt lat="44.3934" lon="4.76629">
        <ele>129.1</ele>
        <time>2015-03-08T07:32:20Z</time>
      </trkpt>
      <trkpt lat="44.39346" lon="4.76638">
        <ele>130.3</ele>
        <time>2015-03-08T07:32:27Z</time>
      </trkpt>
      <trkpt lat="44.39354" lon="4.76647">
        <ele>131.8</ele>
        <time>2015-03-08T07:32:34Z</time>
      </trkpt>
      <trkpt lat="44.39361" lon="4.76656">
        <ele>133.8</ele>
        <time>2015-03-08T07:32:42Z</time>
      </trkpt>
      <trkpt lat="44.39369" lon="4.76665">
        <ele>136.3</ele>
        <time>2015-03-08T07:32:50Z</time>
      </trkpt>
      <trkpt lat="44.39373" lon="4.76677">
        <ele>138</ele>
        <time>2015-03-08T07:32:57Z</time>
      </trkpt>
      <trkpt lat="44.39376" lon="4.7669">
        <ele>139.8</ele>
        <time>2015-03-08T07:33:04Z</time>
      </trkpt>
      <trkpt lat="44.39377" lon="4.76704">
        <ele>140.7</ele>
        <time>2015-03-08T07:33:09Z</time>
      </trkpt>
      <trkpt lat="44.3938" lon="4.76717">
        <ele>141.7</ele>
        <time>2015-03-08T07:33:14Z</time>
      </trkpt>
      <trkpt lat="44.39383" lon="4.76731">
        <ele>142.7</ele>
        <time>2015-03-08T07:33:20Z</time>
      </trkpt>
      <trkpt lat="44.3939" lon="4.7674">
        <ele>143.7</ele>
        <time>2015-03-08T07:33:25Z</time>
      </trkpt>
      <trkpt lat="44.39394" lon="4.76728">
        <ele>145.1</ele>
        <time>2015-03-08T07:33:32Z</time>
      </trkpt>
      <trkpt lat="44.39396" lon="4.76715">
        <ele>146.1</ele>
        <time>2015-03-08T07:33:38Z</time>
      </trkpt>
      <trkpt lat="44.39398" lon="4.76701">
        <ele>147.2</ele>
        <time>2015-03-08T07:33:44Z</time>
      </trkpt>
      <trkpt lat="44.39401" lon="4.76687">
        <ele>147.8</ele>
        <time>2015-03-08T07:33:49Z</time>
      </trkpt>
      <trkpt lat="44.39404" lon="4.76672">
        <ele>148.4</ele>
        <time>2015-03-08T07:33:54Z</time>
      </trkpt>
      <trkpt lat="44.39405" lon="4.76659">
        <ele>148.8</ele>
        <time>2015-03-08T07:33:58Z</time>
      </trkpt>
      <trkpt lat="44.39407" lon="4.76644">
        <ele>149.3</ele>
        <time>2015-03-08T07:34:03Z</time>
      </trkpt>
      <trkpt lat="44.39407" lon="4.76631">
        <ele>149.6</ele>
        <time>2015-03-08T07:34:07Z</time>
      </trkpt>
      <trkpt lat="44.39405" lon="4.76618">
        <ele>149.8</ele>
        <time>2015-03-08T07:34:11Z</time>
      </trkpt>
      <trkpt lat="44.39403" lon="4.76606">
        <ele>150.1</ele>
        <time>2015-03-08T07:34:15Z</time>
      </trkpt>
      <trkpt lat="44.39401" lon="4.76593">
        <ele>150.4</ele>
        <time>2015-03-08T07:34:19Z</time>
      </trkpt>
      <trkpt lat="44.39398" lon="4.7658">
        <ele>150.7</ele>
        <time>2015-03-08T07:34:23Z</time>
      </trkpt>
      <trkpt lat="44.39394" lon="4.76567">
        <ele>151</ele>
        <time>2015-03-08T07:34:27Z</time>
      </trkpt>
      <trkpt lat="44.39392" lon="4.76555">
        <ele>151.5</ele>
        <time>2015-03-08T07:34:31Z</time>
      </trkpt>
      <trkpt lat="44.39388" lon="4.76543">
        <ele>151.9</ele>
        <time>2015-03-08T07:34:35Z</time>
      </trkpt>
      <trkpt lat="44.39385" lon="4.76531">
        <ele>152.5</ele>
        <time>2015-03-08T07:34:39Z</time>
      </trkpt>
      <trkpt lat="44.39381" lon="4.76519">
        <ele>153.1</ele>
        <time>2015-03-08T07:34:43Z</time>
      </trkpt>
      <trkpt lat="44.3939" lon="4.76525">
        <ele>156</ele>
        <time>2015-03-08T07:34:59Z</time>
      </trkpt>
      <trkpt lat="44.39395" lon="4.76536">
        <ele>156.8</ele>
        <time>2015-03-08T07:35:04Z</time>
      </trkpt>
      <trkpt lat="44.394" lon="4.76547">
        <ele>157.4</ele>
        <time>2015-03-08T07:35:09Z</time>
      </trkpt>
      <trkpt lat="44.39405" lon="4.7656">
        <ele>158.5</ele>
        <time>2015-03-08T07:35:14Z</time>
      </trkpt>
      <trkpt lat="44.39411" lon="4.76571">
        <ele>159.2</ele>
        <time>2015-03-08T07:35:19Z</time>
      </trkpt>
      <trkpt lat="44.39418" lon="4.76579">
        <ele>159.8</ele>
        <time>2015-03-08T07:35:24Z</time>
      </trkpt>
      <trkpt lat="44.39427" lon="4.76584">
        <ele>160.9</ele>
        <time>2015-03-08T07:35:30Z</time>
      </trkpt>
      <trkpt lat="44.3943" lon="4.76598">
        <ele>162</ele>
        <time>2015-03-08T07:35:40Z</time>
      </trkpt>
      <trkpt lat="44.39431" lon="4.76613">
        <ele>162.2</ele>
        <time>2015-03-08T07:35:44Z</time>
      </trkpt>
      <trkpt lat="44.39433" lon="4.76629">
        <ele>162.4</ele>
        <time>2015-03-08T07:35:48Z</time>
      </trkpt>
      <trkpt lat="44.39434" lon="4.76642">
        <ele>162.6</ele>
        <time>2015-03-08T07:35:51Z</time>
      </trkpt>
      <trkpt lat="44.39433" lon="4.76657">
        <ele>162.8</ele>
        <time>2015-03-08T07:35:54Z</time>
      </trkpt>
      <trkpt lat="44.39429" lon="4.76671">
        <ele>163</ele>
        <time>2015-03-08T07:35:57Z</time>
      </trkpt>
      <trkpt lat="44.39428" lon="4.76687">
        <ele>163.1</ele>
        <time>2015-03-08T07:36:00Z</time>
      </trkpt>
      <trkpt lat="44.39421" lon="4.76698">
        <ele>163.3</ele>
        <time>2015-03-08T07:36:04Z</time>
      </trkpt>
      <trkpt lat="44.39417" lon="4.76711">
        <ele>163.3</ele>
        <time>2015-03-08T07:36:09Z</time>
      </trkpt>
      <trkpt lat="44.39418" lon="4.76725">
        <ele>163.2</ele>
        <time>2015-03-08T07:36:12Z</time>
      </trkpt>
      <trkpt lat="44.39422" lon="4.76738">
        <ele>163.1</ele>
        <time>2015-03-08T07:36:16Z</time>
      </trkpt>
      <trkpt lat="44.39419" lon="4.76751">
        <ele>162.9</ele>
        <time>2015-03-08T07:36:21Z</time>
      </trkpt>
      <trkpt lat="44.39421" lon="4.76766">
        <ele>162.4</ele>
        <time>2015-03-08T07:36:25Z</time>
      </trkpt>
      <trkpt lat="44.39426" lon="4.76776">
        <ele>161.9</ele>
        <time>2015-03-08T07:36:30Z</time>
      </trkpt>
      <trkpt lat="44.39427" lon="4.76791">
        <ele>161.8</ele>
        <time>2015-03-08T07:36:34Z</time>
      </trkpt>
      <trkpt lat="44.39429" lon="4.76803">
        <ele>161.9</ele>
        <time>2015-03-08T07:36:37Z</time>
      </trkpt>
      <trkpt lat="44.39427" lon="4.76818">
        <ele>161.7</ele>
        <time>2015-03-08T07:36:41Z</time>
      </trkpt>
      <trkpt lat="44.39435" lon="4.76829">
        <ele>160.8</ele>
        <time>2015-03-08T07:36:47Z</time>
      </trkpt>
      <trkpt lat="44.39445" lon="4.76829">
        <ele>160.4</ele>
        <time>2015-03-08T07:36:51Z</time>
      </trkpt>
      <trkpt lat="44.39456" lon="4.76828">
        <ele>160</ele>
        <time>2015-03-08T07:36:55Z</time>
      </trkpt>
      <trkpt lat="44.39466" lon="4.76822">
        <ele>160</ele>
        <time>2015-03-08T07:36:59Z</time>
      </trkpt>
      <trkpt lat="44.3947" lon="4.7681">
        <ele>160.1</ele>
        <time>2015-03-08T07:37:03Z</time>
      </trkpt>
      <trkpt lat="44.39474" lon="4.76797">
        <ele>160.4</ele>
        <time>2015-03-08T07:37:07Z</time>
      </trkpt>
      <trkpt lat="44.39483" lon="4.7679">
        <ele>160.8</ele>
        <time>2015-03-08T07:37:11Z</time>
      </trkpt>
      <trkpt lat="44.39494" lon="4.76793">
        <ele>161.2</ele>
        <time>2015-03-08T07:37:16Z</time>
      </trkpt>
      <trkpt lat="44.39503" lon="4.76801">
        <ele>161.4</ele>
        <time>2015-03-08T07:37:20Z</time>
      </trkpt>
      <trkpt lat="44.39512" lon="4.76805">
        <ele>161.6</ele>
        <time>2015-03-08T07:37:23Z</time>
      </trkpt>
      <trkpt lat="44.39522" lon="4.76808">
        <ele>161.7</ele>
        <time>2015-03-08T07:37:26Z</time>
      </trkpt>
      <trkpt lat="44.39532" lon="4.76809">
        <ele>161.8</ele>
        <time>2015-03-08T07:37:29Z</time>
      </trkpt>
      <trkpt lat="44.39542" lon="4.76812">
        <ele>161.9</ele>
        <time>2015-03-08T07:37:32Z</time>
      </trkpt>
      <trkpt lat="44.39552" lon="4.76814">
        <ele>162.3</ele>
        <time>2015-03-08T07:37:35Z</time>
      </trkpt>
      <trkpt lat="44.39562" lon="4.76817">
        <ele>162.7</ele>
        <time>2015-03-08T07:37:38Z</time>
      </trkpt>
      <trkpt lat="44.39572" lon="4.76819">
        <ele>163.1</ele>
        <time>2015-03-08T07:37:41Z</time>
      </trkpt>
      <trkpt lat="44.39582" lon="4.76821">
        <ele>163.4</ele>
        <time>2015-03-08T07:37:44Z</time>
      </trkpt>
      <trkpt lat="44.39592" lon="4.76823">
        <ele>163.6</ele>
        <time>2015-03-08T07:37:47Z</time>
      </trkpt>
      <trkpt lat="44.39602" lon="4.76824">
        <ele>163.8</ele>
        <time>2015-03-08T07:37:50Z</time>
      </trkpt>
      <trkpt lat="44.39611" lon="4.76826">
        <ele>164</ele>
        <time>2015-03-08T07:37:53Z</time>
      </trkpt>
      <trkpt lat="44.39623" lon="4.76829">
        <ele>164.3</ele>
        <time>2015-03-08T07:37:57Z</time>
      </trkpt>
      <trkpt lat="44.39632" lon="4.76831">
        <ele>164.5</ele>
        <time>2015-03-08T07:38:00Z</time>
      </trkpt>
      <trkpt lat="44.39641" lon="4.76834">
        <ele>164.7</ele>
        <time>2015-03-08T07:38:03Z</time>
      </trkpt>
      <trkpt lat="44.39651" lon="4.76836">
        <ele>164.9</ele>
        <time>2015-03-08T07:38:07Z</time>
      </trkpt>
      <trkpt lat="44.39662" lon="4.7684">
        <ele>165.1</ele>
        <time>2015-03-08T07:38:11Z</time>
      </trkpt>
      <trkpt lat="44.39673" lon="4.76843">
        <ele>165.7</ele>
        <time>2015-03-08T07:38:15Z</time>
      </trkpt>
      <trkpt lat="44.39684" lon="4.76847">
        <ele>166.2</ele>
        <time>2015-03-08T07:38:19Z</time>
      </trkpt>
      <trkpt lat="44.39694" lon="4.76851">
        <ele>166.8</ele>
        <time>2015-03-08T07:38:23Z</time>
      </trkpt>
      <trkpt lat="44.39704" lon="4.76858">
        <ele>167.4</ele>
        <time>2015-03-08T07:38:27Z</time>
      </trkpt>
      <trkpt lat="44.39711" lon="4.7687">
        <ele>167.8</ele>
        <time>2015-03-08T07:38:31Z</time>
      </trkpt>
      <trkpt lat="44.39717" lon="4.76881">
        <ele>168</ele>
        <time>2015-03-08T07:38:34Z</time>
      </trkpt>
      <trkpt lat="44.39723" lon="4.76891">
        <ele>168.3</ele>
        <time>2015-03-08T07:38:37Z</time>
      </trkpt>
      <trkpt lat="44.39729" lon="4.76901">
        <ele>168.5</ele>
        <time>2015-03-08T07:38:40Z</time>
      </trkpt>
      <trkpt lat="44.39734" lon="4.76912">
        <ele>168.8</ele>
        <time>2015-03-08T07:38:43Z</time>
      </trkpt>
      <trkpt lat="44.3974" lon="4.76923">
        <ele>169.1</ele>
        <time>2015-03-08T07:38:46Z</time>
      </trkpt>
      <trkpt lat="44.39747" lon="4.76933">
        <ele>169.2</ele>
        <time>2015-03-08T07:38:49Z</time>
      </trkpt>
      <trkpt lat="44.39754" lon="4.76942">
        <ele>169.4</ele>
        <time>2015-03-08T07:38:52Z</time>
      </trkpt>
      <trkpt lat="44.39765" lon="4.76946">
        <ele>169.7</ele>
        <time>2015-03-08T07:38:56Z</time>
      </trkpt>
      <trkpt lat="44.39776" lon="4.76954">
        <ele>170</ele>
        <time>2015-03-08T07:39:00Z</time>
      </trkpt>
      <trkpt lat="44.39782" lon="4.76965">
        <ele>170.3</ele>
        <time>2015-03-08T07:39:03Z</time>
      </trkpt>
      <trkpt lat="44.39789" lon="4.76975">
        <ele>170.5</ele>
        <time>2015-03-08T07:39:06Z</time>
      </trkpt>
      <trkpt lat="44.39798" lon="4.76985">
        <ele>171.1</ele>
        <time>2015-03-08T07:39:09Z</time>
      </trkpt>
      <trkpt lat="44.39806" lon="4.76997">
        <ele>171.7</ele>
        <time>2015-03-08T07:39:12Z</time>
      </trkpt>
      <trkpt lat="44.39814" lon="4.77009">
        <ele>172.1</ele>
        <time>2015-03-08T07:39:15Z</time>
      </trkpt>
      <trkpt lat="44.39822" lon="4.77022">
        <ele>172.4</ele>
        <time>2015-03-08T07:39:18Z</time>
      </trkpt>
      <trkpt lat="44.3983" lon="4.77033">
        <ele>172.7</ele>
        <time>2015-03-08T07:39:21Z</time>
      </trkpt>
      <trkpt lat="44.39839" lon="4.77044">
        <ele>172.8</ele>
        <time>2015-03-08T07:39:24Z</time>
      </trkpt>
      <trkpt lat="44.39847" lon="4.77057">
        <ele>173</ele>
        <time>2015-03-08T07:39:27Z</time>
      </trkpt>
      <trkpt lat="44.39856" lon="4.77066">
        <ele>173.1</ele>
        <time>2015-03-08T07:39:30Z</time>
      </trkpt>
      <trkpt lat="44.39866" lon="4.77074">
        <ele>173.1</ele>
        <time>2015-03-08T07:39:33Z</time>
      </trkpt>
      <trkpt lat="44.39876" lon="4.77081">
        <ele>173.2</ele>
        <time>2015-03-08T07:39:36Z</time>
      </trkpt>
      <trkpt lat="44.39885" lon="4.7709">
        <ele>173.4</ele>
        <time>2015-03-08T07:39:39Z</time>
      </trkpt>
      <trkpt lat="44.39894" lon="4.77099">
        <ele>173.5</ele>
        <time>2015-03-08T07:39:42Z</time>
      </trkpt>
      <trkpt lat="44.39905" lon="4.77107">
        <ele>173.6</ele>
        <time>2015-03-08T07:39:45Z</time>
      </trkpt>
      <trkpt lat="44.39916" lon="4.77115">
        <ele>173.8</ele>
        <time>2015-03-08T07:39:48Z</time>
      </trkpt>
      <trkpt lat="44.39927" lon="4.77122">
        <ele>174.1</ele>
        <time>2015-03-08T07:39:51Z</time>
      </trkpt>
      <trkpt lat="44.39937" lon="4.77128">
        <ele>174.4</ele>
        <time>2015-03-08T07:39:54Z</time>
      </trkpt>
      <trkpt lat="44.39946" lon="4.77136">
        <ele>174.6</ele>
        <time>2015-03-08T07:39:57Z</time>
      </trkpt>
      <trkpt lat="44.39955" lon="4.77145">
        <ele>174.8</ele>
        <time>2015-03-08T07:40:00Z</time>
      </trkpt>
      <trkpt lat="44.39965" lon="4.77153">
        <ele>175.1</ele>
        <time>2015-03-08T07:40:03Z</time>
      </trkpt>
      <trkpt lat="44.39975" lon="4.7716">
        <ele>175.6</ele>
        <time>2015-03-08T07:40:06Z</time>
      </trkpt>
      <trkpt lat="44.39985" lon="4.77167">
        <ele>176</ele>
        <time>2015-03-08T07:40:09Z</time>
      </trkpt>
      <trkpt lat="44.39995" lon="4.77174">
        <ele>176.3</ele>
        <time>2015-03-08T07:40:12Z</time>
      </trkpt>
      <trkpt lat="44.40004" lon="4.77181">
        <ele>176.6</ele>
        <time>2015-03-08T07:40:15Z</time>
      </trkpt>
      <trkpt lat="44.40013" lon="4.77188">
        <ele>176.8</ele>
        <time>2015-03-08T07:40:18Z</time>
      </trkpt>
      <trkpt lat="44.40023" lon="4.77194">
        <ele>177.1</ele>
        <time>2015-03-08T07:40:21Z</time>
      </trkpt>
      <trkpt lat="44.40031" lon="4.77202">
        <ele>177.7</ele>
        <time>2015-03-08T07:40:24Z</time>
      </trkpt>
      <trkpt lat="44.40039" lon="4.77212">
        <ele>178.2</ele>
        <time>2015-03-08T07:40:27Z</time>
      </trkpt>
      <trkpt lat="44.40047" lon="4.77222">
        <ele>178.7</ele>
        <time>2015-03-08T07:40:30Z</time>
      </trkpt>
      <trkpt lat="44.40055" lon="4.77232">
        <ele>179</ele>
        <time>2015-03-08T07:40:33Z</time>
      </trkpt>
      <trkpt lat="44.40064" lon="4.7724">
        <ele>179.3</ele>
        <time>2015-03-08T07:40:36Z</time>
      </trkpt>
      <trkpt lat="44.40072" lon="4.7725">
        <ele>179.7</ele>
        <time>2015-03-08T07:40:39Z</time>
      </trkpt>
      <trkpt lat="44.4008" lon="4.77262">
        <ele>179.9</ele>
        <time>2015-03-08T07:40:42Z</time>
      </trkpt>
      <trkpt lat="44.40087" lon="4.77276">
        <ele>180.1</ele>
        <time>2015-03-08T07:40:45Z</time>
      </trkpt>
      <trkpt lat="44.40095" lon="4.7729">
        <ele>180.3</ele>
        <time>2015-03-08T07:40:48Z</time>
      </trkpt>
      <trkpt lat="44.40104" lon="4.77304">
        <ele>180.8</ele>
        <time>2015-03-08T07:40:51Z</time>
      </trkpt>
      <trkpt lat="44.40112" lon="4.77318">
        <ele>181</ele>
        <time>2015-03-08T07:40:54Z</time>
      </trkpt>
      <trkpt lat="44.40121" lon="4.77331">
        <ele>181.2</ele>
        <time>2015-03-08T07:40:57Z</time>
      </trkpt>
      <trkpt lat="44.4013" lon="4.77343">
        <ele>181.4</ele>
        <time>2015-03-08T07:41:00Z</time>
      </trkpt>
      <trkpt lat="44.40139" lon="4.77354">
        <ele>181.5</ele>
        <time>2015-03-08T07:41:03Z</time>
      </trkpt>
      <trkpt lat="44.40147" lon="4.77362">
        <ele>181.6</ele>
        <time>2015-03-08T07:41:06Z</time>
      </trkpt>
      <trkpt lat="44.40154" lon="4.77369">
        <ele>181.7</ele>
        <time>2015-03-08T07:41:09Z</time>
      </trkpt>
      <trkpt lat="44.40163" lon="4.77378">
        <ele>181.8</ele>
        <time>2015-03-08T07:41:12Z</time>
      </trkpt>
      <trkpt lat="44.40172" lon="4.77389">
        <ele>182.1</ele>
        <time>2015-03-08T07:41:15Z</time>
      </trkpt>
      <trkpt lat="44.4018" lon="4.77402">
        <ele>182.3</ele>
        <time>2015-03-08T07:41:18Z</time>
      </trkpt>
      <trkpt lat="44.40189" lon="4.77415">
        <ele>182.3</ele>
        <time>2015-03-08T07:41:21Z</time>
      </trkpt>
      <trkpt lat="44.40202" lon="4.77417">
        <ele>182.3</ele>
        <time>2015-03-08T07:41:24Z</time>
      </trkpt>
      <trkpt lat="44.40214" lon="4.77412">
        <ele>182.3</ele>
        <time>2015-03-08T07:41:27Z</time>
      </trkpt>
      <trkpt lat="44.40223" lon="4.77409">
        <ele>182.4</ele>
        <time>2015-03-08T07:41:29Z</time>
      </trkpt>
      <trkpt lat="44.40232" lon="4.77404">
        <ele>182.4</ele>
        <time>2015-03-08T07:41:31Z</time>
      </trkpt>
      <trkpt lat="44.40241" lon="4.77401">
        <ele>182.4</ele>
        <time>2015-03-08T07:41:33Z</time>
      </trkpt>
      <trkpt lat="44.40251" lon="4.77403">
        <ele>182.2</ele>
        <time>2015-03-08T07:41:40Z</time>
      </trkpt>
      <trkpt lat="44.40248" lon="4.77415">
        <ele>182</ele>
        <time>2015-03-08T07:41:45Z</time>
      </trkpt>
      <trkpt lat="44.40243" lon="4.77431">
        <ele>181.5</ele>
        <time>2015-03-08T07:41:48Z</time>
      </trkpt>
      <trkpt lat="44.40242" lon="4.77447">
        <ele>181.1</ele>
        <time>2015-03-08T07:41:51Z</time>
      </trkpt>
      <trkpt lat="44.40232" lon="4.77454">
        <ele>180.6</ele>
        <time>2015-03-08T07:41:54Z</time>
      </trkpt>
      <trkpt lat="44.40224" lon="4.77463">
        <ele>180.2</ele>
        <time>2015-03-08T07:41:56Z</time>
      </trkpt>
      <trkpt lat="44.40216" lon="4.77473">
        <ele>179.8</ele>
        <time>2015-03-08T07:41:58Z</time>
      </trkpt>
      <trkpt lat="44.40207" lon="4.77483">
        <ele>179.4</ele>
        <time>2015-03-08T07:42:00Z</time>
      </trkpt>
      <trkpt lat="44.40199" lon="4.77496">
        <ele>178.7</ele>
        <time>2015-03-08T07:42:02Z</time>
      </trkpt>
      <trkpt lat="44.40193" lon="4.77508">
        <ele>178</ele>
        <time>2015-03-08T07:42:04Z</time>
      </trkpt>
      <trkpt lat="44.4019" lon="4.77521">
        <ele>176.9</ele>
        <time>2015-03-08T07:42:07Z</time>
      </trkpt>
      <trkpt lat="44.40188" lon="4.77535">
        <ele>176.1</ele>
        <time>2015-03-08T07:42:09Z</time>
      </trkpt>
      <trkpt lat="44.40184" lon="4.77547">
        <ele>175.3</ele>
        <time>2015-03-08T07:42:11Z</time>
      </trkpt>
      <trkpt lat="44.40189" lon="4.7756">
        <ele>173.5</ele>
        <time>2015-03-08T07:42:16Z</time>
      </trkpt>
      <trkpt lat="44.40199" lon="4.77566">
        <ele>172.7</ele>
        <time>2015-03-08T07:42:19Z</time>
      </trkpt>
      <trkpt lat="44.4021" lon="4.7757">
        <ele>172.1</ele>
        <time>2015-03-08T07:42:22Z</time>
      </trkpt>
      <trkpt lat="44.40222" lon="4.77571">
        <ele>171.5</ele>
        <time>2015-03-08T07:42:25Z</time>
      </trkpt>
      <trkpt lat="44.40231" lon="4.77562">
        <ele>170.9</ele>
        <time>2015-03-08T07:42:29Z</time>
      </trkpt>
      <trkpt lat="44.4024" lon="4.77554">
        <ele>170.4</ele>
        <time>2015-03-08T07:42:33Z</time>
      </trkpt>
      <trkpt lat="44.40248" lon="4.77544">
        <ele>170.2</ele>
        <time>2015-03-08T07:42:37Z</time>
      </trkpt>
      <trkpt lat="44.40255" lon="4.77532">
        <ele>170.2</ele>
        <time>2015-03-08T07:42:41Z</time>
      </trkpt>
      <trkpt lat="44.40261" lon="4.7752">
        <ele>170.3</ele>
        <time>2015-03-08T07:42:45Z</time>
      </trkpt>
      <trkpt lat="44.40267" lon="4.7751">
        <ele>170.4</ele>
        <time>2015-03-08T07:42:49Z</time>
      </trkpt>
      <trkpt lat="44.40274" lon="4.775">
        <ele>171.1</ele>
        <time>2015-03-08T07:42:53Z</time>
      </trkpt>
      <trkpt lat="44.4028" lon="4.7749">
        <ele>171.6</ele>
        <time>2015-03-08T07:42:57Z</time>
      </trkpt>
      <trkpt lat="44.40284" lon="4.77477">
        <ele>172.3</ele>
        <time>2015-03-08T07:43:02Z</time>
      </trkpt>
      <trkpt lat="44.40289" lon="4.77463">
        <ele>173.3</ele>
        <time>2015-03-08T07:43:07Z</time>
      </trkpt>
      <trkpt lat="44.40289" lon="4.7745">
        <ele>173.9</ele>
        <time>2015-03-08T07:43:12Z</time>
      </trkpt>
      <trkpt lat="44.40289" lon="4.77436">
        <ele>175.2</ele>
        <time>2015-03-08T07:43:17Z</time>
      </trkpt>
      <trkpt lat="44.40288" lon="4.77422">
        <ele>176.2</ele>
        <time>2015-03-08T07:43:22Z</time>
      </trkpt>
      <trkpt lat="44.40286" lon="4.77409">
        <ele>177.5</ele>
        <time>2015-03-08T07:43:27Z</time>
      </trkpt>
      <trkpt lat="44.40296" lon="4.77413">
        <ele>178.9</ele>
        <time>2015-03-08T07:43:33Z</time>
      </trkpt>
      <trkpt lat="44.40305" lon="4.77423">
        <ele>179.4</ele>
        <time>2015-03-08T07:43:38Z</time>
      </trkpt>
      <trkpt lat="44.40315" lon="4.77429">
        <ele>179.5</ele>
        <time>2015-03-08T07:43:42Z</time>
      </trkpt>
      <trkpt lat="44.40322" lon="4.77442">
        <ele>179.5</ele>
        <time>2015-03-08T07:43:46Z</time>
      </trkpt>
      <trkpt lat="44.40329" lon="4.77451">
        <ele>179.6</ele>
        <time>2015-03-08T07:43:49Z</time>
      </trkpt>
      <trkpt lat="44.40336" lon="4.77463">
        <ele>179.8</ele>
        <time>2015-03-08T07:43:52Z</time>
      </trkpt>
      <trkpt lat="44.40344" lon="4.77476">
        <ele>179.9</ele>
        <time>2015-03-08T07:43:55Z</time>
      </trkpt>
      <trkpt lat="44.40354" lon="4.77488">
        <ele>179.9</ele>
        <time>2015-03-08T07:43:58Z</time>
      </trkpt>
      <trkpt lat="44.40362" lon="4.775">
        <ele>180</ele>
        <time>2015-03-08T07:44:01Z</time>
      </trkpt>
      <trkpt lat="44.40368" lon="4.77512">
        <ele>179.9</ele>
        <time>2015-03-08T07:44:04Z</time>
      </trkpt>
      <trkpt lat="44.40375" lon="4.77525">
        <ele>179.7</ele>
        <time>2015-03-08T07:44:07Z</time>
      </trkpt>
      <trkpt lat="44.40383" lon="4.77538">
        <ele>179.6</ele>
        <time>2015-03-08T07:44:10Z</time>
      </trkpt>
      <trkpt lat="44.40391" lon="4.7755">
        <ele>179.5</ele>
        <time>2015-03-08T07:44:13Z</time>
      </trkpt>
      <trkpt lat="44.40397" lon="4.77563">
        <ele>179.3</ele>
        <time>2015-03-08T07:44:16Z</time>
      </trkpt>
      <trkpt lat="44.40404" lon="4.77577">
        <ele>178.9</ele>
        <time>2015-03-08T07:44:19Z</time>
      </trkpt>
      <trkpt lat="44.40411" lon="4.7759">
        <ele>178.9</ele>
        <time>2015-03-08T07:44:22Z</time>
      </trkpt>
      <trkpt lat="44.40418" lon="4.77602">
        <ele>178.8</ele>
        <time>2015-03-08T07:44:25Z</time>
      </trkpt>
      <trkpt lat="44.40424" lon="4.77616">
        <ele>178.8</ele>
        <time>2015-03-08T07:44:28Z</time>
      </trkpt>
      <trkpt lat="44.4043" lon="4.77632">
        <ele>178.9</ele>
        <time>2015-03-08T07:44:31Z</time>
      </trkpt>
      <trkpt lat="44.40434" lon="4.77649">
        <ele>179</ele>
        <time>2015-03-08T07:44:34Z</time>
      </trkpt>
      <trkpt lat="44.40437" lon="4.77667">
        <ele>178.9</ele>
        <time>2015-03-08T07:44:37Z</time>
      </trkpt>
      <trkpt lat="44.40445" lon="4.77681">
        <ele>179</ele>
        <time>2015-03-08T07:44:40Z</time>
      </trkpt>
      <trkpt lat="44.40453" lon="4.77696">
        <ele>179</ele>
        <time>2015-03-08T07:44:43Z</time>
      </trkpt>
      <trkpt lat="44.40458" lon="4.77712">
        <ele>179.1</ele>
        <time>2015-03-08T07:44:46Z</time>
      </trkpt>
      <trkpt lat="44.40458" lon="4.7773">
        <ele>179.1</ele>
        <time>2015-03-08T07:44:49Z</time>
      </trkpt>
      <trkpt lat="44.40457" lon="4.77749">
        <ele>179</ele>
        <time>2015-03-08T07:44:52Z</time>
      </trkpt>
      <trkpt lat="44.40455" lon="4.77768">
        <ele>178.9</ele>
        <time>2015-03-08T07:44:55Z</time>
      </trkpt>
      <trkpt lat="44.40454" lon="4.7778">
        <ele>178.8</ele>
        <time>2015-03-08T07:44:57Z</time>
      </trkpt>
      <trkpt lat="44.40452" lon="4.77798">
        <ele>178.7</ele>
        <time>2015-03-08T07:45:00Z</time>
      </trkpt>
      <trkpt lat="44.40451" lon="4.77816">
        <ele>178.5</ele>
        <time>2015-03-08T07:45:03Z</time>
      </trkpt>
      <trkpt lat="44.40453" lon="4.77833">
        <ele>178.4</ele>
        <time>2015-03-08T07:45:06Z</time>
      </trkpt>
      <trkpt lat="44.40455" lon="4.7785">
        <ele>178.3</ele>
        <time>2015-03-08T07:45:09Z</time>
      </trkpt>
      <trkpt lat="44.40458" lon="4.77867">
        <ele>178</ele>
        <time>2015-03-08T07:45:12Z</time>
      </trkpt>
      <trkpt lat="44.40461" lon="4.77884">
        <ele>177.7</ele>
        <time>2015-03-08T07:45:15Z</time>
      </trkpt>
      <trkpt lat="44.40465" lon="4.77901">
        <ele>177.5</ele>
        <time>2015-03-08T07:45:18Z</time>
      </trkpt>
      <trkpt lat="44.40469" lon="4.77918">
        <ele>177.3</ele>
        <time>2015-03-08T07:45:21Z</time>
      </trkpt>
      <trkpt lat="44.40471" lon="4.77934">
        <ele>177.1</ele>
        <time>2015-03-08T07:45:24Z</time>
      </trkpt>
      <trkpt lat="44.40476" lon="4.77946">
        <ele>177</ele>
        <time>2015-03-08T07:45:27Z</time>
      </trkpt>
      <trkpt lat="44.40481" lon="4.77957">
        <ele>176.8</ele>
        <time>2015-03-08T07:45:30Z</time>
      </trkpt>
      <trkpt lat="44.40485" lon="4.77968">
        <ele>176.7</ele>
        <time>2015-03-08T07:45:33Z</time>
      </trkpt>
      <trkpt lat="44.40493" lon="4.77975">
        <ele>176.4</ele>
        <time>2015-03-08T07:45:56Z</time>
      </trkpt>
      <trkpt lat="44.40498" lon="4.77986">
        <ele>176.4</ele>
        <time>2015-03-08T07:48:39Z</time>
      </trkpt>
      <trkpt lat="44.4049" lon="4.77994">
        <ele>176.5</ele>
        <time>2015-03-08T07:48:44Z</time>
      </trkpt>
      <trkpt lat="44.40483" lon="4.78003">
        <ele>176.5</ele>
        <time>2015-03-08T07:48:48Z</time>
      </trkpt>
      <trkpt lat="44.40477" lon="4.78016">
        <ele>176.6</ele>
        <time>2015-03-08T07:48:52Z</time>
      </trkpt>
      <trkpt lat="44.40473" lon="4.78031">
        <ele>176.6</ele>
        <time>2015-03-08T07:48:56Z</time>
      </trkpt>
      <trkpt lat="44.40466" lon="4.7804">
        <ele>176.7</ele>
        <time>2015-03-08T07:48:59Z</time>
      </trkpt>
      <trkpt lat="44.40456" lon="4.78043">
        <ele>176.7</ele>
        <time>2015-03-08T07:49:02Z</time>
      </trkpt>
      <trkpt lat="44.40445" lon="4.78044">
        <ele>176.7</ele>
        <time>2015-03-08T07:49:05Z</time>
      </trkpt>
      <trkpt lat="44.40434" lon="4.78049">
        <ele>176.5</ele>
        <time>2015-03-08T07:49:08Z</time>
      </trkpt>
      <trkpt lat="44.40424" lon="4.78054">
        <ele>176.2</ele>
        <time>2015-03-08T07:49:11Z</time>
      </trkpt>
      <trkpt lat="44.40414" lon="4.78058">
        <ele>176</ele>
        <time>2015-03-08T07:49:14Z</time>
      </trkpt>
      <trkpt lat="44.40404" lon="4.78065">
        <ele>175.9</ele>
        <time>2015-03-08T07:49:17Z</time>
      </trkpt>
      <trkpt lat="44.40392" lon="4.78073">
        <ele>175.7</ele>
        <time>2015-03-08T07:49:20Z</time>
      </trkpt>
      <trkpt lat="44.40383" lon="4.78078">
        <ele>175.6</ele>
        <time>2015-03-08T07:49:22Z</time>
      </trkpt>
      <trkpt lat="44.40374" lon="4.78082">
        <ele>175.6</ele>
        <time>2015-03-08T07:49:24Z</time>
      </trkpt>
      <trkpt lat="44.40365" lon="4.78086">
        <ele>175.5</ele>
        <time>2015-03-08T07:49:26Z</time>
      </trkpt>
      <trkpt lat="44.40356" lon="4.78089">
        <ele>175.4</ele>
        <time>2015-03-08T07:49:28Z</time>
      </trkpt>
      <trkpt lat="44.40346" lon="4.7809">
        <ele>175.3</ele>
        <time>2015-03-08T07:49:30Z</time>
      </trkpt>
      <trkpt lat="44.40336" lon="4.78091">
        <ele>175.2</ele>
        <time>2015-03-08T07:49:32Z</time>
      </trkpt>
      <trkpt lat="44.40327" lon="4.78092">
        <ele>175.2</ele>
        <time>2015-03-08T07:49:34Z</time>
      </trkpt>
      <trkpt lat="44.40318" lon="4.78094">
        <ele>175.1</ele>
        <time>2015-03-08T07:49:36Z</time>
      </trkpt>
      <trkpt lat="44.40309" lon="4.78096">
        <ele>175.2</ele>
        <time>2015-03-08T07:49:38Z</time>
      </trkpt>
      <trkpt lat="44.40299" lon="4.78103">
        <ele>175.2</ele>
        <time>2015-03-08T07:49:41Z</time>
      </trkpt>
      <trkpt lat="44.40287" lon="4.78108">
        <ele>175.2</ele>
        <time>2015-03-08T07:49:45Z</time>
      </trkpt>
      <trkpt lat="44.40276" lon="4.78107">
        <ele>175.2</ele>
        <time>2015-03-08T07:49:48Z</time>
      </trkpt>
      <trkpt lat="44.40264" lon="4.78109">
        <ele>175.3</ele>
        <time>2015-03-08T07:49:51Z</time>
      </trkpt>
      <trkpt lat="44.40253" lon="4.7811">
        <ele>175.3</ele>
        <time>2015-03-08T07:49:54Z</time>
      </trkpt>
      <trkpt lat="44.40241" lon="4.78102">
        <ele>175.4</ele>
        <time>2015-03-08T07:49:57Z</time>
      </trkpt>
      <trkpt lat="44.40232" lon="4.7809">
        <ele>175.6</ele>
        <time>2015-03-08T07:50:00Z</time>
      </trkpt>
      <trkpt lat="44.40222" lon="4.78086">
        <ele>175.6</ele>
        <time>2015-03-08T07:50:02Z</time>
      </trkpt>
      <trkpt lat="44.40211" lon="4.78085">
        <ele>175.6</ele>
        <time>2015-03-08T07:50:04Z</time>
      </trkpt>
      <trkpt lat="44.402" lon="4.78083">
        <ele>175.6</ele>
        <time>2015-03-08T07:50:06Z</time>
      </trkpt>
      <trkpt lat="44.40189" lon="4.78081">
        <ele>175.6</ele>
        <time>2015-03-08T07:50:08Z</time>
      </trkpt>
      <trkpt lat="44.40179" lon="4.7808">
        <ele>175.6</ele>
        <time>2015-03-08T07:50:10Z</time>
      </trkpt>
      <trkpt lat="44.40169" lon="4.78077">
        <ele>175.3</ele>
        <time>2015-03-08T07:50:13Z</time>
      </trkpt>
      <trkpt lat="44.40159" lon="4.7808">
        <ele>175</ele>
        <time>2015-03-08T07:50:16Z</time>
      </trkpt>
      <trkpt lat="44.40148" lon="4.7808">
        <ele>174.6</ele>
        <time>2015-03-08T07:50:19Z</time>
      </trkpt>
      <trkpt lat="44.40137" lon="4.78079">
        <ele>174</ele>
        <time>2015-03-08T07:50:26Z</time>
      </trkpt>
      <trkpt lat="44.4013" lon="4.78072">
        <ele>173</ele>
        <time>2015-03-08T07:50:34Z</time>
      </trkpt>
      <trkpt lat="44.40122" lon="4.78065">
        <ele>171.8</ele>
        <time>2015-03-08T07:51:09Z</time>
      </trkpt>
      <trkpt lat="44.40113" lon="4.78069">
        <ele>171.1</ele>
        <time>2015-03-08T07:52:12Z</time>
      </trkpt>
      <trkpt lat="44.40103" lon="4.78065">
        <ele>172</ele>
        <time>2015-03-08T07:56:21Z</time>
      </trkpt>
      <trkpt lat="44.40093" lon="4.78068">
        <ele>171.8</ele>
        <time>2015-03-08T07:56:26Z</time>
      </trkpt>
      <trkpt lat="44.40088" lon="4.78081">
        <ele>171.7</ele>
        <time>2015-03-08T07:56:31Z</time>
      </trkpt>
      <trkpt lat="44.40081" lon="4.78092">
        <ele>171.7</ele>
        <time>2015-03-08T07:56:36Z</time>
      </trkpt>
      <trkpt lat="44.40074" lon="4.78102">
        <ele>171.9</ele>
        <time>2015-03-08T07:56:41Z</time>
      </trkpt>
      <trkpt lat="44.40069" lon="4.78112">
        <ele>172.3</ele>
        <time>2015-03-08T07:56:46Z</time>
      </trkpt>
      <trkpt lat="44.4006" lon="4.78116">
        <ele>173</ele>
        <time>2015-03-08T07:56:52Z</time>
      </trkpt>
      <trkpt lat="44.4005" lon="4.78113">
        <ele>173.3</ele>
        <time>2015-03-08T07:56:56Z</time>
      </trkpt>
      <trkpt lat="44.40039" lon="4.78113">
        <ele>173.6</ele>
        <time>2015-03-08T07:57:00Z</time>
      </trkpt>
      <trkpt lat="44.40027" lon="4.78108">
        <ele>173.8</ele>
        <time>2015-03-08T07:57:04Z</time>
      </trkpt>
      <trkpt lat="44.40017" lon="4.78102">
        <ele>173.9</ele>
        <time>2015-03-08T07:57:07Z</time>
      </trkpt>
      <trkpt lat="44.40006" lon="4.78096">
        <ele>174.1</ele>
        <time>2015-03-08T07:57:10Z</time>
      </trkpt>
      <trkpt lat="44.39994" lon="4.78093">
        <ele>174.2</ele>
        <time>2015-03-08T07:57:13Z</time>
      </trkpt>
      <trkpt lat="44.39983" lon="4.78089">
        <ele>174.3</ele>
        <time>2015-03-08T07:57:16Z</time>
      </trkpt>
      <trkpt lat="44.39974" lon="4.78085">
        <ele>174.4</ele>
        <time>2015-03-08T07:57:19Z</time>
      </trkpt>
      <trkpt lat="44.39965" lon="4.7808">
        <ele>174.5</ele>
        <time>2015-03-08T07:57:22Z</time>
      </trkpt>
      <trkpt lat="44.39955" lon="4.78075">
        <ele>174.5</ele>
        <time>2015-03-08T07:57:25Z</time>
      </trkpt>
      <trkpt lat="44.39946" lon="4.78072">
        <ele>174.6</ele>
        <time>2015-03-08T07:57:28Z</time>
      </trkpt>
      <trkpt lat="44.39935" lon="4.7807">
        <ele>174.6</ele>
        <time>2015-03-08T07:57:31Z</time>
      </trkpt>
      <trkpt lat="44.39924" lon="4.78069">
        <ele>174.9</ele>
        <time>2015-03-08T07:57:34Z</time>
      </trkpt>
      <trkpt lat="44.39915" lon="4.78069">
        <ele>175.1</ele>
        <time>2015-03-08T07:57:37Z</time>
      </trkpt>
      <trkpt lat="44.39905" lon="4.78075">
        <ele>175.4</ele>
        <time>2015-03-08T07:57:41Z</time>
      </trkpt>
      <trkpt lat="44.39904" lon="4.78087">
        <ele>175.8</ele>
        <time>2015-03-08T07:57:45Z</time>
      </trkpt>
      <trkpt lat="44.39902" lon="4.78101">
        <ele>176.3</ele>
        <time>2015-03-08T07:57:51Z</time>
      </trkpt>
      <trkpt lat="44.399" lon="4.78115">
        <ele>176.9</ele>
        <time>2015-03-08T07:57:58Z</time>
      </trkpt>
      <trkpt lat="44.39899" lon="4.78128">
        <ele>178.5</ele>
        <time>2015-03-08T07:58:05Z</time>
      </trkpt>
      <trkpt lat="44.39897" lon="4.78141">
        <ele>180.6</ele>
        <time>2015-03-08T07:58:12Z</time>
      </trkpt>
      <trkpt lat="44.39892" lon="4.78152">
        <ele>182.4</ele>
        <time>2015-03-08T07:58:19Z</time>
      </trkpt>
      <trkpt lat="44.39888" lon="4.78163">
        <ele>184.7</ele>
        <time>2015-03-08T07:58:26Z</time>
      </trkpt>
      <trkpt lat="44.39884" lon="4.78176">
        <ele>186.9</ele>
        <time>2015-03-08T07:58:34Z</time>
      </trkpt>
      <trkpt lat="44.39879" lon="4.78187">
        <ele>188.1</ele>
        <time>2015-03-08T07:58:40Z</time>
      </trkpt>
      <trkpt lat="44.39878" lon="4.78201">
        <ele>189.3</ele>
        <time>2015-03-08T07:58:47Z</time>
      </trkpt>
      <trkpt lat="44.39871" lon="4.7821">
        <ele>190.8</ele>
        <time>2015-03-08T07:58:54Z</time>
      </trkpt>
      <trkpt lat="44.39869" lon="4.78223">
        <ele>192.5</ele>
        <time>2015-03-08T07:59:01Z</time>
      </trkpt>
      <trkpt lat="44.39865" lon="4.78235">
        <ele>194.4</ele>
        <time>2015-03-08T07:59:08Z</time>
      </trkpt>
      <trkpt lat="44.39861" lon="4.78247">
        <ele>196.3</ele>
        <time>2015-03-08T07:59:18Z</time>
      </trkpt>
      <trkpt lat="44.39857" lon="4.78258">
        <ele>197.1</ele>
        <time>2015-03-08T07:59:26Z</time>
      </trkpt>
      <trkpt lat="44.39855" lon="4.78272">
        <ele>198</ele>
        <time>2015-03-08T07:59:33Z</time>
      </trkpt>
      <trkpt lat="44.39849" lon="4.78283">
        <ele>198.6</ele>
        <time>2015-03-08T07:59:39Z</time>
      </trkpt>
      <trkpt lat="44.39841" lon="4.78289">
        <ele>199.1</ele>
        <time>2015-03-08T07:59:46Z</time>
      </trkpt>
      <trkpt lat="44.39835" lon="4.78302">
        <ele>199.5</ele>
        <time>2015-03-08T07:59:53Z</time>
      </trkpt>
      <trkpt lat="44.3983" lon="4.78314">
        <ele>199.7</ele>
        <time>2015-03-08T07:59:59Z</time>
      </trkpt>
      <trkpt lat="44.39823" lon="4.78325">
        <ele>200.1</ele>
        <time>2015-03-08T08:00:05Z</time>
      </trkpt>
      <trkpt lat="44.39814" lon="4.78334">
        <ele>200.6</ele>
        <time>2015-03-08T08:00:11Z</time>
      </trkpt>
      <trkpt lat="44.39804" lon="4.78336">
        <ele>200.9</ele>
        <time>2015-03-08T08:00:16Z</time>
      </trkpt>
      <trkpt lat="44.39795" lon="4.78344">
        <ele>201.5</ele>
        <time>2015-03-08T08:00:21Z</time>
      </trkpt>
      <trkpt lat="44.39784" lon="4.78342">
        <ele>202.1</ele>
        <time>2015-03-08T08:00:26Z</time>
      </trkpt>
      <trkpt lat="44.39775" lon="4.78341">
        <ele>202.6</ele>
        <time>2015-03-08T08:00:30Z</time>
      </trkpt>
      <trkpt lat="44.39765" lon="4.78344">
        <ele>203</ele>
        <time>2015-03-08T08:00:35Z</time>
      </trkpt>
      <trkpt lat="44.39756" lon="4.78346">
        <ele>203.3</ele>
        <time>2015-03-08T08:00:39Z</time>
      </trkpt>
      <trkpt lat="44.39747" lon="4.78337">
        <ele>203.6</ele>
        <time>2015-03-08T08:00:44Z</time>
      </trkpt>
      <trkpt lat="44.39736" lon="4.78336">
        <ele>203.8</ele>
        <time>2015-03-08T08:00:48Z</time>
      </trkpt>
      <trkpt lat="44.39727" lon="4.78339">
        <ele>203.9</ele>
        <time>2015-03-08T08:00:55Z</time>
      </trkpt>
      <trkpt lat="44.39716" lon="4.78336">
        <ele>203.9</ele>
        <time>2015-03-08T08:01:00Z</time>
      </trkpt>
      <trkpt lat="44.39707" lon="4.78333">
        <ele>203.9</ele>
        <time>2015-03-08T08:01:04Z</time>
      </trkpt>
      <trkpt lat="44.39697" lon="4.78335">
        <ele>203.8</ele>
        <time>2015-03-08T08:01:08Z</time>
      </trkpt>
      <trkpt lat="44.39688" lon="4.78335">
        <ele>203.8</ele>
        <time>2015-03-08T08:01:12Z</time>
      </trkpt>
      <trkpt lat="44.39677" lon="4.78339">
        <ele>203.7</ele>
        <time>2015-03-08T08:01:17Z</time>
      </trkpt>
      <trkpt lat="44.39669" lon="4.7835">
        <ele>203.8</ele>
        <time>2015-03-08T08:01:21Z</time>
      </trkpt>
      <trkpt lat="44.39663" lon="4.78359">
        <ele>203.9</ele>
        <time>2015-03-08T08:01:25Z</time>
      </trkpt>
      <trkpt lat="44.39654" lon="4.78367">
        <ele>203.9</ele>
        <time>2015-03-08T08:01:29Z</time>
      </trkpt>
      <trkpt lat="44.39646" lon="4.78375">
        <ele>204</ele>
        <time>2015-03-08T08:01:32Z</time>
      </trkpt>
      <trkpt lat="44.39638" lon="4.78383">
        <ele>204</ele>
        <time>2015-03-08T08:01:35Z</time>
      </trkpt>
      <trkpt lat="44.3963" lon="4.78392">
        <ele>204</ele>
        <time>2015-03-08T08:01:38Z</time>
      </trkpt>
      <trkpt lat="44.39625" lon="4.78404">
        <ele>204</ele>
        <time>2015-03-08T08:01:42Z</time>
      </trkpt>
      <trkpt lat="44.3963" lon="4.78415">
        <ele>204</ele>
        <time>2015-03-08T08:01:45Z</time>
      </trkpt>
      <trkpt lat="44.39637" lon="4.78427">
        <ele>204</ele>
        <time>2015-03-08T08:01:48Z</time>
      </trkpt>
      <trkpt lat="44.39644" lon="4.78438">
        <ele>204</ele>
        <time>2015-03-08T08:01:51Z</time>
      </trkpt>
      <trkpt lat="44.39652" lon="4.7845">
        <ele>203.9</ele>
        <time>2015-03-08T08:01:54Z</time>
      </trkpt>
      <trkpt lat="44.39659" lon="4.7846">
        <ele>203.8</ele>
        <time>2015-03-08T08:01:57Z</time>
      </trkpt>
      <trkpt lat="44.39665" lon="4.78469">
        <ele>203.7</ele>
        <time>2015-03-08T08:02:00Z</time>
      </trkpt>
      <trkpt lat="44.39673" lon="4.78481">
        <ele>203.9</ele>
        <time>2015-03-08T08:02:04Z</time>
      </trkpt>
      <trkpt lat="44.39681" lon="4.78489">
        <ele>204</ele>
        <time>2015-03-08T08:02:08Z</time>
      </trkpt>
      <trkpt lat="44.39691" lon="4.78493">
        <ele>204.5</ele>
        <time>2015-03-08T08:02:13Z</time>
      </trkpt>
      <trkpt lat="44.39702" lon="4.78494">
        <ele>204.9</ele>
        <time>2015-03-08T08:02:17Z</time>
      </trkpt>
      <trkpt lat="44.39713" lon="4.78496">
        <ele>205.5</ele>
        <time>2015-03-08T08:02:21Z</time>
      </trkpt>
      <trkpt lat="44.39724" lon="4.785">
        <ele>206</ele>
        <time>2015-03-08T08:02:25Z</time>
      </trkpt>
      <trkpt lat="44.39735" lon="4.78508">
        <ele>206.5</ele>
        <time>2015-03-08T08:02:29Z</time>
      </trkpt>
      <trkpt lat="44.39743" lon="4.78517">
        <ele>207.2</ele>
        <time>2015-03-08T08:02:33Z</time>
      </trkpt>
      <trkpt lat="44.39753" lon="4.78527">
        <ele>207.9</ele>
        <time>2015-03-08T08:02:37Z</time>
      </trkpt>
      <trkpt lat="44.39762" lon="4.78533">
        <ele>208.6</ele>
        <time>2015-03-08T08:02:40Z</time>
      </trkpt>
      <trkpt lat="44.3977" lon="4.7854">
        <ele>209.2</ele>
        <time>2015-03-08T08:02:43Z</time>
      </trkpt>
      <trkpt lat="44.3978" lon="4.78546">
        <ele>209.6</ele>
        <time>2015-03-08T08:02:46Z</time>
      </trkpt>
      <trkpt lat="44.39788" lon="4.7855">
        <ele>209.9</ele>
        <time>2015-03-08T08:02:49Z</time>
      </trkpt>
      <trkpt lat="44.39797" lon="4.78555">
        <ele>210.1</ele>
        <time>2015-03-08T08:02:52Z</time>
      </trkpt>
      <trkpt lat="44.39805" lon="4.78562">
        <ele>210.3</ele>
        <time>2015-03-08T08:02:55Z</time>
      </trkpt>
      <trkpt lat="44.39813" lon="4.78568">
        <ele>210.5</ele>
        <time>2015-03-08T08:02:58Z</time>
      </trkpt>
      <trkpt lat="44.39823" lon="4.78576">
        <ele>210.9</ele>
        <time>2015-03-08T08:03:02Z</time>
      </trkpt>
      <trkpt lat="44.39832" lon="4.78583">
        <ele>211.2</ele>
        <time>2015-03-08T08:03:06Z</time>
      </trkpt>
      <trkpt lat="44.39841" lon="4.7859">
        <ele>211.7</ele>
        <time>2015-03-08T08:03:10Z</time>
      </trkpt>
      <trkpt lat="44.39851" lon="4.78596">
        <ele>212.4</ele>
        <time>2015-03-08T08:03:14Z</time>
      </trkpt>
      <trkpt lat="44.39863" lon="4.78601">
        <ele>213.1</ele>
        <time>2015-03-08T08:03:18Z</time>
      </trkpt>
      <trkpt lat="44.39873" lon="4.78602">
        <ele>213.5</ele>
        <time>2015-03-08T08:03:21Z</time>
      </trkpt>
      <trkpt lat="44.39884" lon="4.78603">
        <ele>213.9</ele>
        <time>2015-03-08T08:03:24Z</time>
      </trkpt>
      <trkpt lat="44.39895" lon="4.78604">
        <ele>214.2</ele>
        <time>2015-03-08T08:03:27Z</time>
      </trkpt>
      <trkpt lat="44.39905" lon="4.78604">
        <ele>214.4</ele>
        <time>2015-03-08T08:03:30Z</time>
      </trkpt>
      <trkpt lat="44.39916" lon="4.78606">
        <ele>214.7</ele>
        <time>2015-03-08T08:03:33Z</time>
      </trkpt>
      <trkpt lat="44.39926" lon="4.78609">
        <ele>214.8</ele>
        <time>2015-03-08T08:03:36Z</time>
      </trkpt>
      <trkpt lat="44.39935" lon="4.78614">
        <ele>214.9</ele>
        <time>2015-03-08T08:03:39Z</time>
      </trkpt>
      <trkpt lat="44.39945" lon="4.78618">
        <ele>215</ele>
        <time>2015-03-08T08:03:42Z</time>
      </trkpt>
      <trkpt lat="44.39955" lon="4.78623">
        <ele>215.1</ele>
        <time>2015-03-08T08:03:45Z</time>
      </trkpt>
      <trkpt lat="44.39965" lon="4.78627">
        <ele>215.3</ele>
        <time>2015-03-08T08:03:48Z</time>
      </trkpt>
      <trkpt lat="44.39975" lon="4.78633">
        <ele>215.5</ele>
        <time>2015-03-08T08:03:51Z</time>
      </trkpt>
      <trkpt lat="44.39985" lon="4.7864">
        <ele>215.8</ele>
        <time>2015-03-08T08:03:54Z</time>
      </trkpt>
      <trkpt lat="44.39995" lon="4.78647">
        <ele>216</ele>
        <time>2015-03-08T08:03:57Z</time>
      </trkpt>
      <trkpt lat="44.40004" lon="4.78655">
        <ele>216.3</ele>
        <time>2015-03-08T08:04:01Z</time>
      </trkpt>
      <trkpt lat="44.40013" lon="4.78662">
        <ele>216.7</ele>
        <time>2015-03-08T08:04:05Z</time>
      </trkpt>
      <trkpt lat="44.40022" lon="4.7867">
        <ele>217.2</ele>
        <time>2015-03-08T08:04:09Z</time>
      </trkpt>
      <trkpt lat="44.40032" lon="4.78678">
        <ele>218.1</ele>
        <time>2015-03-08T08:04:13Z</time>
      </trkpt>
      <trkpt lat="44.40042" lon="4.78686">
        <ele>218.9</ele>
        <time>2015-03-08T08:04:17Z</time>
      </trkpt>
      <trkpt lat="44.40052" lon="4.78693">
        <ele>219.5</ele>
        <time>2015-03-08T08:04:21Z</time>
      </trkpt>
      <trkpt lat="44.40061" lon="4.78701">
        <ele>220</ele>
        <time>2015-03-08T08:04:25Z</time>
      </trkpt>
      <trkpt lat="44.40071" lon="4.78709">
        <ele>220.3</ele>
        <time>2015-03-08T08:04:29Z</time>
      </trkpt>
      <trkpt lat="44.40081" lon="4.78717">
        <ele>221</ele>
        <time>2015-03-08T08:04:33Z</time>
      </trkpt>
      <trkpt lat="44.40091" lon="4.78726">
        <ele>221.5</ele>
        <time>2015-03-08T08:04:37Z</time>
      </trkpt>
      <trkpt lat="44.401" lon="4.78735">
        <ele>222</ele>
        <time>2015-03-08T08:04:41Z</time>
      </trkpt>
      <trkpt lat="44.40111" lon="4.78741">
        <ele>222.5</ele>
        <time>2015-03-08T08:04:45Z</time>
      </trkpt>
      <trkpt lat="44.40121" lon="4.78747">
        <ele>223</ele>
        <time>2015-03-08T08:04:49Z</time>
      </trkpt>
      <trkpt lat="44.40129" lon="4.7874">
        <ele>223.2</ele>
        <time>2015-03-08T08:04:53Z</time>
      </trkpt>
      <trkpt lat="44.40135" lon="4.78729">
        <ele>223.1</ele>
        <time>2015-03-08T08:04:57Z</time>
      </trkpt>
      <trkpt lat="44.40145" lon="4.78731">
        <ele>223.1</ele>
        <time>2015-03-08T08:05:02Z</time>
      </trkpt>
      <trkpt lat="44.40156" lon="4.78727">
        <ele>223.1</ele>
        <time>2015-03-08T08:05:07Z</time>
      </trkpt>
      <trkpt lat="44.40161" lon="4.78713">
        <ele>222.9</ele>
        <time>2015-03-08T08:05:13Z</time>
      </trkpt>
      <trkpt lat="44.40168" lon="4.78705">
        <ele>222.8</ele>
        <time>2015-03-08T08:05:17Z</time>
      </trkpt>
      <trkpt lat="44.40176" lon="4.78694">
        <ele>222.3</ele>
        <time>2015-03-08T08:05:21Z</time>
      </trkpt>
      <trkpt lat="44.40182" lon="4.78684">
        <ele>222.1</ele>
        <time>2015-03-08T08:05:24Z</time>
      </trkpt>
      <trkpt lat="44.40188" lon="4.78671">
        <ele>221.8</ele>
        <time>2015-03-08T08:05:27Z</time>
      </trkpt>
      <trkpt lat="44.40195" lon="4.78659">
        <ele>221</ele>
        <time>2015-03-08T08:05:31Z</time>
      </trkpt>
      <trkpt lat="44.40201" lon="4.78647">
        <ele>220.1</ele>
        <time>2015-03-08T08:05:35Z</time>
      </trkpt>
      <trkpt lat="44.40204" lon="4.78631">
        <ele>219</ele>
        <time>2015-03-08T08:05:39Z</time>
      </trkpt>
      <trkpt lat="44.4021" lon="4.78621">
        <ele>218.3</ele>
        <time>2015-03-08T08:05:42Z</time>
      </trkpt>
      <trkpt lat="44.40214" lon="4.78606">
        <ele>217.6</ele>
        <time>2015-03-08T08:05:46Z</time>
      </trkpt>
      <trkpt lat="44.40221" lon="4.78595">
        <ele>216.6</ele>
        <time>2015-03-08T08:05:50Z</time>
      </trkpt>
      <trkpt lat="44.40227" lon="4.78584">
        <ele>215.8</ele>
        <time>2015-03-08T08:05:53Z</time>
      </trkpt>
      <trkpt lat="44.40233" lon="4.78571">
        <ele>214.9</ele>
        <time>2015-03-08T08:05:56Z</time>
      </trkpt>
      <trkpt lat="44.40242" lon="4.78563">
        <ele>213.7</ele>
        <time>2015-03-08T08:06:00Z</time>
      </trkpt>
      <trkpt lat="44.40247" lon="4.7855">
        <ele>212.7</ele>
        <time>2015-03-08T08:06:03Z</time>
      </trkpt>
      <trkpt lat="44.40255" lon="4.78538">
        <ele>211.9</ele>
        <time>2015-03-08T08:06:06Z</time>
      </trkpt>
      <trkpt lat="44.40263" lon="4.78524">
        <ele>211.1</ele>
        <time>2015-03-08T08:06:09Z</time>
      </trkpt>
      <trkpt lat="44.40269" lon="4.78514">
        <ele>210.6</ele>
        <time>2015-03-08T08:06:11Z</time>
      </trkpt>
      <trkpt lat="44.40274" lon="4.78502">
        <ele>209.8</ele>
        <time>2015-03-08T08:06:13Z</time>
      </trkpt>
      <trkpt lat="44.40277" lon="4.78489">
        <ele>208.9</ele>
        <time>2015-03-08T08:06:15Z</time>
      </trkpt>
      <trkpt lat="44.40279" lon="4.78476">
        <ele>208</ele>
        <time>2015-03-08T08:06:17Z</time>
      </trkpt>
      <trkpt lat="44.40283" lon="4.78463">
        <ele>207.1</ele>
        <time>2015-03-08T08:06:19Z</time>
      </trkpt>
      <trkpt lat="44.40288" lon="4.78452">
        <ele>206.3</ele>
        <time>2015-03-08T08:06:21Z</time>
      </trkpt>
      <trkpt lat="44.40291" lon="4.78439">
        <ele>205.2</ele>
        <time>2015-03-08T08:06:23Z</time>
      </trkpt>
      <trkpt lat="44.40292" lon="4.78423">
        <ele>204.2</ele>
        <time>2015-03-08T08:06:25Z</time>
      </trkpt>
      <trkpt lat="44.4029" lon="4.7841">
        <ele>203.3</ele>
        <time>2015-03-08T08:06:27Z</time>
      </trkpt>
      <trkpt lat="44.40289" lon="4.78396">
        <ele>202.4</ele>
        <time>2015-03-08T08:06:29Z</time>
      </trkpt>
      <trkpt lat="44.40289" lon="4.78383">
        <ele>201.5</ele>
        <time>2015-03-08T08:06:31Z</time>
      </trkpt>
      <trkpt lat="44.40283" lon="4.78366">
        <ele>200.4</ele>
        <time>2015-03-08T08:06:34Z</time>
      </trkpt>
      <trkpt lat="44.4028" lon="4.78353">
        <ele>199.5</ele>
        <time>2015-03-08T08:06:36Z</time>
      </trkpt>
      <trkpt lat="44.40278" lon="4.78338">
        <ele>198.6</ele>
        <time>2015-03-08T08:06:38Z</time>
      </trkpt>
      <trkpt lat="44.40272" lon="4.78323">
        <ele>197.8</ele>
        <time>2015-03-08T08:06:40Z</time>
      </trkpt>
      <trkpt lat="44.40267" lon="4.78305">
        <ele>196.8</ele>
        <time>2015-03-08T08:06:42Z</time>
      </trkpt>
      <trkpt lat="44.40262" lon="4.78288">
        <ele>195.8</ele>
        <time>2015-03-08T08:06:44Z</time>
      </trkpt>
      <trkpt lat="44.40258" lon="4.78273">
        <ele>194.6</ele>
        <time>2015-03-08T08:06:46Z</time>
      </trkpt>
      <trkpt lat="44.40253" lon="4.78259">
        <ele>193.2</ele>
        <time>2015-03-08T08:06:48Z</time>
      </trkpt>
      <trkpt lat="44.40248" lon="4.78246">
        <ele>192</ele>
        <time>2015-03-08T08:06:50Z</time>
      </trkpt>
      <trkpt lat="44.40245" lon="4.7823">
        <ele>190.9</ele>
        <time>2015-03-08T08:06:52Z</time>
      </trkpt>
      <trkpt lat="44.40243" lon="4.78215">
        <ele>189.7</ele>
        <time>2015-03-08T08:06:54Z</time>
      </trkpt>
      <trkpt lat="44.40238" lon="4.78201">
        <ele>188.6</ele>
        <time>2015-03-08T08:06:56Z</time>
      </trkpt>
      <trkpt lat="44.40233" lon="4.78188">
        <ele>187.3</ele>
        <time>2015-03-08T08:06:58Z</time>
      </trkpt>
      <trkpt lat="44.40226" lon="4.78177">
        <ele>186.2</ele>
        <time>2015-03-08T08:07:00Z</time>
      </trkpt>
      <trkpt lat="44.40221" lon="4.78164">
        <ele>185.3</ele>
        <time>2015-03-08T08:07:02Z</time>
      </trkpt>
      <trkpt lat="44.40219" lon="4.78151">
        <ele>183.2</ele>
        <time>2015-03-08T08:07:06Z</time>
      </trkpt>
      <trkpt lat="44.40217" lon="4.78164">
        <ele>178.3</ele>
        <time>2015-03-08T08:07:35Z</time>
      </trkpt>
      <trkpt lat="44.4021" lon="4.78174">
        <ele>178.1</ele>
        <time>2015-03-08T08:07:41Z</time>
      </trkpt>
      <trkpt lat="44.40204" lon="4.78184">
        <ele>178.2</ele>
        <time>2015-03-08T08:07:47Z</time>
      </trkpt>
      <trkpt lat="44.40196" lon="4.78195">
        <ele>178.3</ele>
        <time>2015-03-08T08:07:53Z</time>
      </trkpt>
      <trkpt lat="44.40189" lon="4.78206">
        <ele>178.7</ele>
        <time>2015-03-08T08:07:59Z</time>
      </trkpt>
      <trkpt lat="44.40184" lon="4.78216">
        <ele>179.3</ele>
        <time>2015-03-08T08:08:04Z</time>
      </trkpt>
      <trkpt lat="44.40179" lon="4.78227">
        <ele>180.2</ele>
        <time>2015-03-08T08:08:09Z</time>
      </trkpt>
      <trkpt lat="44.40178" lon="4.7824">
        <ele>181.3</ele>
        <time>2015-03-08T08:08:15Z</time>
      </trkpt>
      <trkpt lat="44.40175" lon="4.78253">
        <ele>182.9</ele>
        <time>2015-03-08T08:08:22Z</time>
      </trkpt>
      <trkpt lat="44.40173" lon="4.78267">
        <ele>184.5</ele>
        <time>2015-03-08T08:08:29Z</time>
      </trkpt>
      <trkpt lat="44.40169" lon="4.7828">
        <ele>186.3</ele>
        <time>2015-03-08T08:08:36Z</time>
      </trkpt>
      <trkpt lat="44.40166" lon="4.78292">
        <ele>188.3</ele>
        <time>2015-03-08T08:08:43Z</time>
      </trkpt>
      <trkpt lat="44.40163" lon="4.78304">
        <ele>189.8</ele>
        <time>2015-03-08T08:08:50Z</time>
      </trkpt>
      <trkpt lat="44.40158" lon="4.78317">
        <ele>190.9</ele>
        <time>2015-03-08T08:08:57Z</time>
      </trkpt>
      <trkpt lat="44.40151" lon="4.78327">
        <ele>191.7</ele>
        <time>2015-03-08T08:09:03Z</time>
      </trkpt>
      <trkpt lat="44.40142" lon="4.78335">
        <ele>192.9</ele>
        <time>2015-03-08T08:09:08Z</time>
      </trkpt>
      <trkpt lat="44.40134" lon="4.78343">
        <ele>193.8</ele>
        <time>2015-03-08T08:09:14Z</time>
      </trkpt>
      <trkpt lat="44.40125" lon="4.78349">
        <ele>194.5</ele>
        <time>2015-03-08T08:09:21Z</time>
      </trkpt>
      <trkpt lat="44.40117" lon="4.78355">
        <ele>195</ele>
        <time>2015-03-08T08:09:29Z</time>
      </trkpt>
      <trkpt lat="44.40108" lon="4.78363">
        <ele>195.6</ele>
        <time>2015-03-08T08:09:36Z</time>
      </trkpt>
      <trkpt lat="44.401" lon="4.78371">
        <ele>196</ele>
        <time>2015-03-08T08:09:42Z</time>
      </trkpt>
      <trkpt lat="44.40092" lon="4.78379">
        <ele>196.5</ele>
        <time>2015-03-08T08:09:47Z</time>
      </trkpt>
      <trkpt lat="44.40084" lon="4.78387">
        <ele>196.9</ele>
        <time>2015-03-08T08:09:52Z</time>
      </trkpt>
      <trkpt lat="44.40075" lon="4.78395">
        <ele>197.2</ele>
        <time>2015-03-08T08:09:57Z</time>
      </trkpt>
      <trkpt lat="44.40067" lon="4.78402">
        <ele>197.8</ele>
        <time>2015-03-08T08:10:02Z</time>
      </trkpt>
      <trkpt lat="44.40059" lon="4.78411">
        <ele>198.2</ele>
        <time>2015-03-08T08:10:07Z</time>
      </trkpt>
      <trkpt lat="44.40054" lon="4.78421">
        <ele>198.6</ele>
        <time>2015-03-08T08:10:12Z</time>
      </trkpt>
      <trkpt lat="44.4005" lon="4.78433">
        <ele>199.1</ele>
        <time>2015-03-08T08:10:17Z</time>
      </trkpt>
      <trkpt lat="44.40049" lon="4.78447">
        <ele>199.6</ele>
        <time>2015-03-08T08:10:23Z</time>
      </trkpt>
      <trkpt lat="44.40049" lon="4.78461">
        <ele>200.3</ele>
        <time>2015-03-08T08:10:29Z</time>
      </trkpt>
      <trkpt lat="44.40049" lon="4.78474">
        <ele>201.5</ele>
        <time>2015-03-08T08:10:35Z</time>
      </trkpt>
      <trkpt lat="44.4005" lon="4.78487">
        <ele>202.6</ele>
        <time>2015-03-08T08:10:41Z</time>
      </trkpt>
      <trkpt lat="44.4005" lon="4.78502">
        <ele>203.9</ele>
        <time>2015-03-08T08:10:48Z</time>
      </trkpt>
      <trkpt lat="44.40048" lon="4.78516">
        <ele>205.2</ele>
        <time>2015-03-08T08:10:55Z</time>
      </trkpt>
      <trkpt lat="44.40043" lon="4.78529">
        <ele>206.8</ele>
        <time>2015-03-08T08:11:02Z</time>
      </trkpt>
      <trkpt lat="44.40037" lon="4.7854">
        <ele>207.7</ele>
        <time>2015-03-08T08:11:07Z</time>
      </trkpt>
      <trkpt lat="44.40032" lon="4.78551">
        <ele>208.7</ele>
        <time>2015-03-08T08:11:13Z</time>
      </trkpt>
      <trkpt lat="44.40025" lon="4.78561">
        <ele>209.7</ele>
        <time>2015-03-08T08:11:19Z</time>
      </trkpt>
      <trkpt lat="44.40019" lon="4.7857">
        <ele>210.4</ele>
        <time>2015-03-08T08:11:24Z</time>
      </trkpt>
      <trkpt lat="44.40012" lon="4.7858">
        <ele>211.1</ele>
        <time>2015-03-08T08:11:29Z</time>
      </trkpt>
      <trkpt lat="44.40007" lon="4.7859">
        <ele>211.7</ele>
        <time>2015-03-08T08:11:34Z</time>
      </trkpt>
      <trkpt lat="44.40001" lon="4.78602">
        <ele>212.4</ele>
        <time>2015-03-08T08:11:40Z</time>
      </trkpt>
      <trkpt lat="44.39997" lon="4.78613">
        <ele>213.1</ele>
        <time>2015-03-08T08:11:46Z</time>
      </trkpt>
      <trkpt lat="44.39992" lon="4.78624">
        <ele>214</ele>
        <time>2015-03-08T08:11:52Z</time>
      </trkpt>
      <trkpt lat="44.39992" lon="4.78637">
        <ele>216.5</ele>
        <time>2015-03-08T08:12:32Z</time>
      </trkpt>
      <trkpt lat="44.39999" lon="4.78648">
        <ele>216.8</ele>
        <time>2015-03-08T08:13:05Z</time>
      </trkpt>
      <trkpt lat="44.40007" lon="4.78657">
        <ele>216.8</ele>
        <time>2015-03-08T08:13:10Z</time>
      </trkpt>
      <trkpt lat="44.40016" lon="4.78666">
        <ele>217.1</ele>
        <time>2015-03-08T08:13:15Z</time>
      </trkpt>
      <trkpt lat="44.40024" lon="4.78674">
        <ele>217.5</ele>
        <time>2015-03-08T08:13:19Z</time>
      </trkpt>
      <trkpt lat="44.40034" lon="4.78681">
        <ele>218</ele>
        <time>2015-03-08T08:13:23Z</time>
      </trkpt>
      <trkpt lat="44.40043" lon="4.78689">
        <ele>218.6</ele>
        <time>2015-03-08T08:13:27Z</time>
      </trkpt>
      <trkpt lat="44.40052" lon="4.78696">
        <ele>219</ele>
        <time>2015-03-08T08:13:31Z</time>
      </trkpt>
      <trkpt lat="44.40061" lon="4.78702">
        <ele>219.4</ele>
        <time>2015-03-08T08:13:35Z</time>
      </trkpt>
      <trkpt lat="44.4007" lon="4.7871">
        <ele>219.7</ele>
        <time>2015-03-08T08:13:39Z</time>
      </trkpt>
      <trkpt lat="44.40078" lon="4.78717">
        <ele>220.3</ele>
        <time>2015-03-08T08:13:43Z</time>
      </trkpt>
      <trkpt lat="44.40086" lon="4.78724">
        <ele>221</ele>
        <time>2015-03-08T08:13:47Z</time>
      </trkpt>
      <trkpt lat="44.40094" lon="4.78732">
        <ele>221.6</ele>
        <time>2015-03-08T08:13:51Z</time>
      </trkpt>
      <trkpt lat="44.40103" lon="4.7874">
        <ele>222.1</ele>
        <time>2015-03-08T08:13:55Z</time>
      </trkpt>
      <trkpt lat="44.40111" lon="4.78748">
        <ele>222.5</ele>
        <time>2015-03-08T08:13:59Z</time>
      </trkpt>
      <trkpt lat="44.40121" lon="4.78756">
        <ele>222.9</ele>
        <time>2015-03-08T08:14:03Z</time>
      </trkpt>
      <trkpt lat="44.4013" lon="4.78762">
        <ele>223.1</ele>
        <time>2015-03-08T08:14:07Z</time>
      </trkpt>
      <trkpt lat="44.40139" lon="4.78768">
        <ele>223.4</ele>
        <time>2015-03-08T08:14:11Z</time>
      </trkpt>
      <trkpt lat="44.40147" lon="4.78776">
        <ele>223.7</ele>
        <time>2015-03-08T08:14:15Z</time>
      </trkpt>
      <trkpt lat="44.40156" lon="4.78784">
        <ele>224</ele>
        <time>2015-03-08T08:14:19Z</time>
      </trkpt>
      <trkpt lat="44.40165" lon="4.78792">
        <ele>224.4</ele>
        <time>2015-03-08T08:14:23Z</time>
      </trkpt>
      <trkpt lat="44.40174" lon="4.78799">
        <ele>224.8</ele>
        <time>2015-03-08T08:14:27Z</time>
      </trkpt>
      <trkpt lat="44.40182" lon="4.78806">
        <ele>225.1</ele>
        <time>2015-03-08T08:14:31Z</time>
      </trkpt>
      <trkpt lat="44.40191" lon="4.78813">
        <ele>225.4</ele>
        <time>2015-03-08T08:14:35Z</time>
      </trkpt>
      <trkpt lat="44.40199" lon="4.7882">
        <ele>225.7</ele>
        <time>2015-03-08T08:14:39Z</time>
      </trkpt>
      <trkpt lat="44.40207" lon="4.78827">
        <ele>226.5</ele>
        <time>2015-03-08T08:14:43Z</time>
      </trkpt>
      <trkpt lat="44.40216" lon="4.78833">
        <ele>227.1</ele>
        <time>2015-03-08T08:14:47Z</time>
      </trkpt>
      <trkpt lat="44.40225" lon="4.78838">
        <ele>227.6</ele>
        <time>2015-03-08T08:14:51Z</time>
      </trkpt>
      <trkpt lat="44.40236" lon="4.7884">
        <ele>228.3</ele>
        <time>2015-03-08T08:14:55Z</time>
      </trkpt>
      <trkpt lat="44.40246" lon="4.7884">
        <ele>228.9</ele>
        <time>2015-03-08T08:14:59Z</time>
      </trkpt>
      <trkpt lat="44.40256" lon="4.78841">
        <ele>229.3</ele>
        <time>2015-03-08T08:15:03Z</time>
      </trkpt>
      <trkpt lat="44.40267" lon="4.7884">
        <ele>229.7</ele>
        <time>2015-03-08T08:15:07Z</time>
      </trkpt>
      <trkpt lat="44.40278" lon="4.78839">
        <ele>230.1</ele>
        <time>2015-03-08T08:15:11Z</time>
      </trkpt>
      <trkpt lat="44.4029" lon="4.78838">
        <ele>230.4</ele>
        <time>2015-03-08T08:15:15Z</time>
      </trkpt>
      <trkpt lat="44.40299" lon="4.78838">
        <ele>230.5</ele>
        <time>2015-03-08T08:15:18Z</time>
      </trkpt>
      <trkpt lat="44.4031" lon="4.78838">
        <ele>230.8</ele>
        <time>2015-03-08T08:15:22Z</time>
      </trkpt>
      <trkpt lat="44.40322" lon="4.78841">
        <ele>231</ele>
        <time>2015-03-08T08:15:26Z</time>
      </trkpt>
      <trkpt lat="44.40333" lon="4.78844">
        <ele>231.2</ele>
        <time>2015-03-08T08:15:30Z</time>
      </trkpt>
      <trkpt lat="44.40345" lon="4.78846">
        <ele>231.5</ele>
        <time>2015-03-08T08:15:34Z</time>
      </trkpt>
      <trkpt lat="44.40357" lon="4.78843">
        <ele>231.7</ele>
        <time>2015-03-08T08:15:38Z</time>
      </trkpt>
      <trkpt lat="44.40366" lon="4.78839">
        <ele>231.8</ele>
        <time>2015-03-08T08:15:41Z</time>
      </trkpt>
      <trkpt lat="44.40375" lon="4.78835">
        <ele>232</ele>
        <time>2015-03-08T08:15:44Z</time>
      </trkpt>
      <trkpt lat="44.40386" lon="4.78828">
        <ele>232.2</ele>
        <time>2015-03-08T08:15:48Z</time>
      </trkpt>
      <trkpt lat="44.40396" lon="4.78821">
        <ele>232.3</ele>
        <time>2015-03-08T08:15:51Z</time>
      </trkpt>
      <trkpt lat="44.40407" lon="4.78815">
        <ele>232.3</ele>
        <time>2015-03-08T08:15:54Z</time>
      </trkpt>
      <trkpt lat="44.40418" lon="4.78808">
        <ele>232.3</ele>
        <time>2015-03-08T08:15:57Z</time>
      </trkpt>
      <trkpt lat="44.4043" lon="4.78801">
        <ele>232.1</ele>
        <time>2015-03-08T08:16:00Z</time>
      </trkpt>
      <trkpt lat="44.40439" lon="4.78797">
        <ele>231.9</ele>
        <time>2015-03-08T08:16:02Z</time>
      </trkpt>
      <trkpt lat="44.40447" lon="4.78792">
        <ele>231.7</ele>
        <time>2015-03-08T08:16:04Z</time>
      </trkpt>
      <trkpt lat="44.40455" lon="4.78787">
        <ele>231.5</ele>
        <time>2015-03-08T08:16:06Z</time>
      </trkpt>
      <trkpt lat="44.40464" lon="4.78783">
        <ele>231.3</ele>
        <time>2015-03-08T08:16:08Z</time>
      </trkpt>
      <trkpt lat="44.40475" lon="4.78777">
        <ele>231.2</ele>
        <time>2015-03-08T08:16:10Z</time>
      </trkpt>
      <trkpt lat="44.40486" lon="4.78771">
        <ele>231.1</ele>
        <time>2015-03-08T08:16:12Z</time>
      </trkpt>
      <trkpt lat="44.40497" lon="4.78765">
        <ele>231</ele>
        <time>2015-03-08T08:16:14Z</time>
      </trkpt>
      <trkpt lat="44.40507" lon="4.78759">
        <ele>230.8</ele>
        <time>2015-03-08T08:16:16Z</time>
      </trkpt>
      <trkpt lat="44.40518" lon="4.78754">
        <ele>230.7</ele>
        <time>2015-03-08T08:16:18Z</time>
      </trkpt>
      <trkpt lat="44.40528" lon="4.78748">
        <ele>230.1</ele>
        <time>2015-03-08T08:16:20Z</time>
      </trkpt>
      <trkpt lat="44.40538" lon="4.78742">
        <ele>229.6</ele>
        <time>2015-03-08T08:16:22Z</time>
      </trkpt>
      <trkpt lat="44.40549" lon="4.78736">
        <ele>229.2</ele>
        <time>2015-03-08T08:16:24Z</time>
      </trkpt>
      <trkpt lat="44.40559" lon="4.7873">
        <ele>228.7</ele>
        <time>2015-03-08T08:16:26Z</time>
      </trkpt>
      <trkpt lat="44.40569" lon="4.78724">
        <ele>228.3</ele>
        <time>2015-03-08T08:16:28Z</time>
      </trkpt>
      <trkpt lat="44.40578" lon="4.78719">
        <ele>227.8</ele>
        <time>2015-03-08T08:16:30Z</time>
      </trkpt>
      <trkpt lat="44.40589" lon="4.78713">
        <ele>227.4</ele>
        <time>2015-03-08T08:16:32Z</time>
      </trkpt>
      <trkpt lat="44.40598" lon="4.78707">
        <ele>227</ele>
        <time>2015-03-08T08:16:34Z</time>
      </trkpt>
      <trkpt lat="44.40608" lon="4.78702">
        <ele>226.6</ele>
        <time>2015-03-08T08:16:36Z</time>
      </trkpt>
      <trkpt lat="44.40618" lon="4.78697">
        <ele>226.3</ele>
        <time>2015-03-08T08:16:38Z</time>
      </trkpt>
      <trkpt lat="44.40628" lon="4.78691">
        <ele>226</ele>
        <time>2015-03-08T08:16:40Z</time>
      </trkpt>
      <trkpt lat="44.40638" lon="4.78686">
        <ele>225.7</ele>
        <time>2015-03-08T08:16:42Z</time>
      </trkpt>
      <trkpt lat="44.40648" lon="4.7868">
        <ele>225.5</ele>
        <time>2015-03-08T08:16:44Z</time>
      </trkpt>
      <trkpt lat="44.40658" lon="4.78675">
        <ele>225.3</ele>
        <time>2015-03-08T08:16:46Z</time>
      </trkpt>
      <trkpt lat="44.40669" lon="4.78669">
        <ele>225</ele>
        <time>2015-03-08T08:16:48Z</time>
      </trkpt>
      <trkpt lat="44.40679" lon="4.78663">
        <ele>224.9</ele>
        <time>2015-03-08T08:16:50Z</time>
      </trkpt>
      <trkpt lat="44.40688" lon="4.78657">
        <ele>224.7</ele>
        <time>2015-03-08T08:16:52Z</time>
      </trkpt>
      <trkpt lat="44.40698" lon="4.78652">
        <ele>224.6</ele>
        <time>2015-03-08T08:16:54Z</time>
      </trkpt>
      <trkpt lat="44.40708" lon="4.78647">
        <ele>224.5</ele>
        <time>2015-03-08T08:16:56Z</time>
      </trkpt>
      <trkpt lat="44.40718" lon="4.78641">
        <ele>224.1</ele>
        <time>2015-03-08T08:16:58Z</time>
      </trkpt>
      <trkpt lat="44.40731" lon="4.78634">
        <ele>223.6</ele>
        <time>2015-03-08T08:17:00Z</time>
      </trkpt>
      <trkpt lat="44.40743" lon="4.78626">
        <ele>223.2</ele>
        <time>2015-03-08T08:17:02Z</time>
      </trkpt>
      <trkpt lat="44.40755" lon="4.78619">
        <ele>222.4</ele>
        <time>2015-03-08T08:17:04Z</time>
      </trkpt>
      <trkpt lat="44.40765" lon="4.78614">
        <ele>221.4</ele>
        <time>2015-03-08T08:17:06Z</time>
      </trkpt>
      <trkpt lat="44.40774" lon="4.78621">
        <ele>219.2</ele>
        <time>2015-03-08T08:17:10Z</time>
      </trkpt>
      <trkpt lat="44.40776" lon="4.78633">
        <ele>217.9</ele>
        <time>2015-03-08T08:17:13Z</time>
      </trkpt>
      <trkpt lat="44.4078" lon="4.78648">
        <ele>216.5</ele>
        <time>2015-03-08T08:17:17Z</time>
      </trkpt>
      <trkpt lat="44.40781" lon="4.78662">
        <ele>215.6</ele>
        <time>2015-03-08T08:17:21Z</time>
      </trkpt>
      <trkpt lat="44.40782" lon="4.78675">
        <ele>215.1</ele>
        <time>2015-03-08T08:17:26Z</time>
      </trkpt>
      <trkpt lat="44.40782" lon="4.78688">
        <ele>215.1</ele>
        <time>2015-03-08T08:17:31Z</time>
      </trkpt>
      <trkpt lat="44.40783" lon="4.78701">
        <ele>215.4</ele>
        <time>2015-03-08T08:17:35Z</time>
      </trkpt>
      <trkpt lat="44.40784" lon="4.78714">
        <ele>215.6</ele>
        <time>2015-03-08T08:17:39Z</time>
      </trkpt>
      <trkpt lat="44.40785" lon="4.78727">
        <ele>215.8</ele>
        <time>2015-03-08T08:17:43Z</time>
      </trkpt>
      <trkpt lat="44.40785" lon="4.78741">
        <ele>216.1</ele>
        <time>2015-03-08T08:17:47Z</time>
      </trkpt>
      <trkpt lat="44.40785" lon="4.78755">
        <ele>216.5</ele>
        <time>2015-03-08T08:17:52Z</time>
      </trkpt>
      <trkpt lat="44.40784" lon="4.78768">
        <ele>217.4</ele>
        <time>2015-03-08T08:17:57Z</time>
      </trkpt>
      <trkpt lat="44.40781" lon="4.78782">
        <ele>218.1</ele>
        <time>2015-03-08T08:18:02Z</time>
      </trkpt>
      <trkpt lat="44.40779" lon="4.78794">
        <ele>219.2</ele>
        <time>2015-03-08T08:18:07Z</time>
      </trkpt>
      <trkpt lat="44.40774" lon="4.78807">
        <ele>220</ele>
        <time>2015-03-08T08:18:12Z</time>
      </trkpt>
      <trkpt lat="44.40769" lon="4.78818">
        <ele>220.7</ele>
        <time>2015-03-08T08:18:17Z</time>
      </trkpt>
      <trkpt lat="44.40764" lon="4.7883">
        <ele>221.3</ele>
        <time>2015-03-08T08:18:22Z</time>
      </trkpt>
      <trkpt lat="44.40757" lon="4.78841">
        <ele>221.9</ele>
        <time>2015-03-08T08:18:27Z</time>
      </trkpt>
      <trkpt lat="44.40751" lon="4.78851">
        <ele>222.4</ele>
        <time>2015-03-08T08:18:31Z</time>
      </trkpt>
      <trkpt lat="44.40745" lon="4.78862">
        <ele>223.1</ele>
        <time>2015-03-08T08:18:35Z</time>
      </trkpt>
      <trkpt lat="44.4074" lon="4.78875">
        <ele>223.8</ele>
        <time>2015-03-08T08:18:40Z</time>
      </trkpt>
      <trkpt lat="44.40736" lon="4.78886">
        <ele>224.3</ele>
        <time>2015-03-08T08:18:44Z</time>
      </trkpt>
      <trkpt lat="44.4073" lon="4.78898">
        <ele>224.5</ele>
        <time>2015-03-08T08:18:48Z</time>
      </trkpt>
      <trkpt lat="44.40726" lon="4.78909">
        <ele>224.7</ele>
        <time>2015-03-08T08:18:52Z</time>
      </trkpt>
      <trkpt lat="44.40722" lon="4.7892">
        <ele>225</ele>
        <time>2015-03-08T08:18:56Z</time>
      </trkpt>
      <trkpt lat="44.40718" lon="4.78933">
        <ele>225.4</ele>
        <time>2015-03-08T08:19:01Z</time>
      </trkpt>
      <trkpt lat="44.40714" lon="4.78944">
        <ele>225.8</ele>
        <time>2015-03-08T08:19:05Z</time>
      </trkpt>
      <trkpt lat="44.40709" lon="4.78955">
        <ele>226.4</ele>
        <time>2015-03-08T08:19:09Z</time>
      </trkpt>
      <trkpt lat="44.40703" lon="4.78967">
        <ele>227.1</ele>
        <time>2015-03-08T08:19:14Z</time>
      </trkpt>
      <trkpt lat="44.40696" lon="4.78977">
        <ele>227.7</ele>
        <time>2015-03-08T08:19:18Z</time>
      </trkpt>
      <trkpt lat="44.40687" lon="4.78986">
        <ele>228.3</ele>
        <time>2015-03-08T08:19:22Z</time>
      </trkpt>
      <trkpt lat="44.4068" lon="4.78994">
        <ele>228.7</ele>
        <time>2015-03-08T08:19:25Z</time>
      </trkpt>
      <trkpt lat="44.40671" lon="4.79001">
        <ele>229.1</ele>
        <time>2015-03-08T08:19:28Z</time>
      </trkpt>
      <trkpt lat="44.40663" lon="4.79008">
        <ele>229.5</ele>
        <time>2015-03-08T08:19:31Z</time>
      </trkpt>
      <trkpt lat="44.40655" lon="4.79015">
        <ele>229.9</ele>
        <time>2015-03-08T08:19:34Z</time>
      </trkpt>
      <trkpt lat="44.40647" lon="4.79022">
        <ele>230.3</ele>
        <time>2015-03-08T08:19:37Z</time>
      </trkpt>
      <trkpt lat="44.40638" lon="4.79028">
        <ele>230.6</ele>
        <time>2015-03-08T08:19:40Z</time>
      </trkpt>
      <trkpt lat="44.4063" lon="4.79034">
        <ele>231</ele>
        <time>2015-03-08T08:19:43Z</time>
      </trkpt>
      <trkpt lat="44.4062" lon="4.79039">
        <ele>231.4</ele>
        <time>2015-03-08T08:19:46Z</time>
      </trkpt>
      <trkpt lat="44.40611" lon="4.7904">
        <ele>231.7</ele>
        <time>2015-03-08T08:19:49Z</time>
      </trkpt>
      <trkpt lat="44.40601" lon="4.7904">
        <ele>232</ele>
        <time>2015-03-08T08:19:52Z</time>
      </trkpt>
      <trkpt lat="44.40591" lon="4.79037">
        <ele>232.3</ele>
        <time>2015-03-08T08:19:55Z</time>
      </trkpt>
      <trkpt lat="44.40581" lon="4.79034">
        <ele>232.6</ele>
        <time>2015-03-08T08:19:58Z</time>
      </trkpt>
      <trkpt lat="44.4057" lon="4.79032">
        <ele>232.9</ele>
        <time>2015-03-08T08:20:01Z</time>
      </trkpt>
      <trkpt lat="44.4056" lon="4.79029">
        <ele>232.8</ele>
        <time>2015-03-08T08:20:04Z</time>
      </trkpt>
      <trkpt lat="44.40549" lon="4.79027">
        <ele>232.9</ele>
        <time>2015-03-08T08:20:07Z</time>
      </trkpt>
      <trkpt lat="44.40538" lon="4.79027">
        <ele>232.9</ele>
        <time>2015-03-08T08:20:10Z</time>
      </trkpt>
      <trkpt lat="44.40529" lon="4.79027">
        <ele>233</ele>
        <time>2015-03-08T08:20:13Z</time>
      </trkpt>
      <trkpt lat="44.40519" lon="4.79027">
        <ele>233.1</ele>
        <time>2015-03-08T08:20:18Z</time>
      </trkpt>
      <trkpt lat="44.4051" lon="4.79029">
        <ele>233.4</ele>
        <time>2015-03-08T08:20:24Z</time>
      </trkpt>
      <trkpt lat="44.4051" lon="4.79042">
        <ele>233.7</ele>
        <time>2015-03-08T08:20:33Z</time>
      </trkpt>
      <trkpt lat="44.40506" lon="4.79054">
        <ele>233.6</ele>
        <time>2015-03-08T08:20:39Z</time>
      </trkpt>
      <trkpt lat="44.40505" lon="4.79067">
        <ele>233</ele>
        <time>2015-03-08T08:20:44Z</time>
      </trkpt>
      <trkpt lat="44.40509" lon="4.79079">
        <ele>231.6</ele>
        <time>2015-03-08T08:20:48Z</time>
      </trkpt>
      <trkpt lat="44.40516" lon="4.79088">
        <ele>230.4</ele>
        <time>2015-03-08T08:20:52Z</time>
      </trkpt>
      <trkpt lat="44.40519" lon="4.79101">
        <ele>229.1</ele>
        <time>2015-03-08T08:20:56Z</time>
      </trkpt>
      <trkpt lat="44.4052" lon="4.79114">
        <ele>227.4</ele>
        <time>2015-03-08T08:21:02Z</time>
      </trkpt>
      <trkpt lat="44.40517" lon="4.79127">
        <ele>225</ele>
        <time>2015-03-08T08:21:11Z</time>
      </trkpt>
      <trkpt lat="44.40508" lon="4.79124">
        <ele>223.9</ele>
        <time>2015-03-08T08:21:16Z</time>
      </trkpt>
      <trkpt lat="44.40499" lon="4.79121">
        <ele>223.1</ele>
        <time>2015-03-08T08:21:21Z</time>
      </trkpt>
      <trkpt lat="44.40489" lon="4.79119">
        <ele>222.5</ele>
        <time>2015-03-08T08:21:26Z</time>
      </trkpt>
      <trkpt lat="44.40479" lon="4.79116">
        <ele>221.8</ele>
        <time>2015-03-08T08:21:31Z</time>
      </trkpt>
      <trkpt lat="44.40467" lon="4.79114">
        <ele>221.2</ele>
        <time>2015-03-08T08:21:36Z</time>
      </trkpt>
      <trkpt lat="44.40457" lon="4.79113">
        <ele>220.9</ele>
        <time>2015-03-08T08:21:39Z</time>
      </trkpt>
      <trkpt lat="44.40445" lon="4.79113">
        <ele>220.7</ele>
        <time>2015-03-08T08:21:42Z</time>
      </trkpt>
      <trkpt lat="44.40434" lon="4.79111">
        <ele>220.3</ele>
        <time>2015-03-08T08:21:46Z</time>
      </trkpt>
      <trkpt lat="44.40425" lon="4.79108">
        <ele>219.9</ele>
        <time>2015-03-08T08:21:49Z</time>
      </trkpt>
      <trkpt lat="44.40413" lon="4.79108">
        <ele>219.5</ele>
        <time>2015-03-08T08:21:52Z</time>
      </trkpt>
      <trkpt lat="44.40403" lon="4.79107">
        <ele>219.1</ele>
        <time>2015-03-08T08:21:55Z</time>
      </trkpt>
      <trkpt lat="44.40393" lon="4.79106">
        <ele>218.5</ele>
        <time>2015-03-08T08:22:00Z</time>
      </trkpt>
      <trkpt lat="44.40382" lon="4.79105">
        <ele>218</ele>
        <time>2015-03-08T08:22:04Z</time>
      </trkpt>
      <trkpt lat="44.40371" lon="4.79107">
        <ele>217.6</ele>
        <time>2015-03-08T08:22:08Z</time>
      </trkpt>
      <trkpt lat="44.40361" lon="4.79105">
        <ele>216.9</ele>
        <time>2015-03-08T08:22:12Z</time>
      </trkpt>
      <trkpt lat="44.40351" lon="4.79111">
        <ele>216.4</ele>
        <time>2015-03-08T08:22:16Z</time>
      </trkpt>
      <trkpt lat="44.40341" lon="4.79112">
        <ele>215.9</ele>
        <time>2015-03-08T08:22:20Z</time>
      </trkpt>
      <trkpt lat="44.40331" lon="4.79108">
        <ele>215.4</ele>
        <time>2015-03-08T08:22:26Z</time>
      </trkpt>
      <trkpt lat="44.40322" lon="4.79103">
        <ele>215</ele>
        <time>2015-03-08T08:22:31Z</time>
      </trkpt>
      <trkpt lat="44.40313" lon="4.79099">
        <ele>214.5</ele>
        <time>2015-03-08T08:22:35Z</time>
      </trkpt>
      <trkpt lat="44.40303" lon="4.79097">
        <ele>213.4</ele>
        <time>2015-03-08T08:22:40Z</time>
      </trkpt>
      <trkpt lat="44.40294" lon="4.79093">
        <ele>212.9</ele>
        <time>2015-03-08T08:22:44Z</time>
      </trkpt>
      <trkpt lat="44.40283" lon="4.7909">
        <ele>212.4</ele>
        <time>2015-03-08T08:22:49Z</time>
      </trkpt>
      <trkpt lat="44.40273" lon="4.79088">
        <ele>212</ele>
        <time>2015-03-08T08:22:54Z</time>
      </trkpt>
      <trkpt lat="44.40263" lon="4.79086">
        <ele>211.3</ele>
        <time>2015-03-08T08:22:59Z</time>
      </trkpt>
      <trkpt lat="44.40253" lon="4.79088">
        <ele>210.8</ele>
        <time>2015-03-08T08:23:04Z</time>
      </trkpt>
      <trkpt lat="44.40244" lon="4.79085">
        <ele>210.4</ele>
        <time>2015-03-08T08:23:08Z</time>
      </trkpt>
      <trkpt lat="44.40232" lon="4.79083">
        <ele>209.9</ele>
        <time>2015-03-08T08:23:13Z</time>
      </trkpt>
      <trkpt lat="44.40222" lon="4.79082">
        <ele>209.6</ele>
        <time>2015-03-08T08:23:17Z</time>
      </trkpt>
      <trkpt lat="44.40212" lon="4.79083">
        <ele>209.1</ele>
        <time>2015-03-08T08:23:22Z</time>
      </trkpt>
      <trkpt lat="44.40201" lon="4.79085">
        <ele>208.6</ele>
        <time>2015-03-08T08:23:27Z</time>
      </trkpt>
      <trkpt lat="44.40193" lon="4.79093">
        <ele>208.3</ele>
        <time>2015-03-08T08:23:31Z</time>
      </trkpt>
      <trkpt lat="44.40183" lon="4.79092">
        <ele>208</ele>
        <time>2015-03-08T08:23:35Z</time>
      </trkpt>
      <trkpt lat="44.40173" lon="4.79089">
        <ele>207.9</ele>
        <time>2015-03-08T08:23:38Z</time>
      </trkpt>
      <trkpt lat="44.40164" lon="4.79088">
        <ele>207.8</ele>
        <time>2015-03-08T08:23:41Z</time>
      </trkpt>
      <trkpt lat="44.40152" lon="4.79086">
        <ele>207.6</ele>
        <time>2015-03-08T08:23:45Z</time>
      </trkpt>
      <trkpt lat="44.40142" lon="4.79084">
        <ele>207.5</ele>
        <time>2015-03-08T08:23:49Z</time>
      </trkpt>
      <trkpt lat="44.40132" lon="4.79089">
        <ele>207.1</ele>
        <time>2015-03-08T08:23:54Z</time>
      </trkpt>
      <trkpt lat="44.40123" lon="4.79084">
        <ele>205.4</ele>
        <time>2015-03-08T08:24:03Z</time>
      </trkpt>
      <trkpt lat="44.40114" lon="4.79086">
        <ele>204.1</ele>
        <time>2015-03-08T08:24:11Z</time>
      </trkpt>
      <trkpt lat="44.40105" lon="4.7908">
        <ele>203.3</ele>
        <time>2015-03-08T08:24:21Z</time>
      </trkpt>
      <trkpt lat="44.40096" lon="4.79082">
        <ele>203.6</ele>
        <time>2015-03-08T08:24:35Z</time>
      </trkpt>
      <trkpt lat="44.40087" lon="4.79093">
        <ele>203.7</ele>
        <time>2015-03-08T08:24:39Z</time>
      </trkpt>
      <trkpt lat="44.40078" lon="4.79104">
        <ele>203.6</ele>
        <time>2015-03-08T08:24:42Z</time>
      </trkpt>
      <trkpt lat="44.40069" lon="4.79108">
        <ele>203.5</ele>
        <time>2015-03-08T08:24:44Z</time>
      </trkpt>
      <trkpt lat="44.4006" lon="4.79112">
        <ele>203.4</ele>
        <time>2015-03-08T08:24:46Z</time>
      </trkpt>
      <trkpt lat="44.40049" lon="4.79114">
        <ele>203</ele>
        <time>2015-03-08T08:24:49Z</time>
      </trkpt>
      <trkpt lat="44.40042" lon="4.79125">
        <ele>202.3</ele>
        <time>2015-03-08T08:24:52Z</time>
      </trkpt>
      <trkpt lat="44.40035" lon="4.79137">
        <ele>201.6</ele>
        <time>2015-03-08T08:24:55Z</time>
      </trkpt>
      <trkpt lat="44.40028" lon="4.79148">
        <ele>200.6</ele>
        <time>2015-03-08T08:24:58Z</time>
      </trkpt>
      <trkpt lat="44.40018" lon="4.79157">
        <ele>199.8</ele>
        <time>2015-03-08T08:25:01Z</time>
      </trkpt>
      <trkpt lat="44.40016" lon="4.7917">
        <ele>199.2</ele>
        <time>2015-03-08T08:25:04Z</time>
      </trkpt>
      <trkpt lat="44.4002" lon="4.79183">
        <ele>198.2</ele>
        <time>2015-03-08T08:25:08Z</time>
      </trkpt>
      <trkpt lat="44.40023" lon="4.79197">
        <ele>197.4</ele>
        <time>2015-03-08T08:25:12Z</time>
      </trkpt>
      <trkpt lat="44.40021" lon="4.79213">
        <ele>197</ele>
        <time>2015-03-08T08:25:16Z</time>
      </trkpt>
      <trkpt lat="44.40021" lon="4.79228">
        <ele>196.6</ele>
        <time>2015-03-08T08:25:20Z</time>
      </trkpt>
      <trkpt lat="44.40019" lon="4.79244">
        <ele>196.4</ele>
        <time>2015-03-08T08:25:24Z</time>
      </trkpt>
      <trkpt lat="44.40018" lon="4.79257">
        <ele>196.4</ele>
        <time>2015-03-08T08:25:27Z</time>
      </trkpt>
      <trkpt lat="44.40016" lon="4.79271">
        <ele>196.5</ele>
        <time>2015-03-08T08:25:30Z</time>
      </trkpt>
      <trkpt lat="44.40012" lon="4.79284">
        <ele>196.5</ele>
        <time>2015-03-08T08:25:33Z</time>
      </trkpt>
      <trkpt lat="44.40008" lon="4.79297">
        <ele>196.6</ele>
        <time>2015-03-08T08:25:37Z</time>
      </trkpt>
      <trkpt lat="44.39998" lon="4.79295">
        <ele>196.7</ele>
        <time>2015-03-08T08:25:41Z</time>
      </trkpt>
      <trkpt lat="44.39989" lon="4.79294">
        <ele>196.8</ele>
        <time>2015-03-08T08:25:44Z</time>
      </trkpt>
      <trkpt lat="44.39979" lon="4.79296">
        <ele>197</ele>
        <time>2015-03-08T08:25:47Z</time>
      </trkpt>
      <trkpt lat="44.3997" lon="4.793">
        <ele>196.9</ele>
        <time>2015-03-08T08:25:50Z</time>
      </trkpt>
      <trkpt lat="44.39961" lon="4.79303">
        <ele>196.9</ele>
        <time>2015-03-08T08:25:53Z</time>
      </trkpt>
      <trkpt lat="44.39951" lon="4.793">
        <ele>196.9</ele>
        <time>2015-03-08T08:25:56Z</time>
      </trkpt>
      <trkpt lat="44.39941" lon="4.79296">
        <ele>196.8</ele>
        <time>2015-03-08T08:25:59Z</time>
      </trkpt>
      <trkpt lat="44.39929" lon="4.79292">
        <ele>196.4</ele>
        <time>2015-03-08T08:26:02Z</time>
      </trkpt>
      <trkpt lat="44.39916" lon="4.79288">
        <ele>196.3</ele>
        <time>2015-03-08T08:26:05Z</time>
      </trkpt>
      <trkpt lat="44.39904" lon="4.7928">
        <ele>196.2</ele>
        <time>2015-03-08T08:26:08Z</time>
      </trkpt>
      <trkpt lat="44.39894" lon="4.79275">
        <ele>196.2</ele>
        <time>2015-03-08T08:26:10Z</time>
      </trkpt>
      <trkpt lat="44.39886" lon="4.79268">
        <ele>196.1</ele>
        <time>2015-03-08T08:26:12Z</time>
      </trkpt>
      <trkpt lat="44.39881" lon="4.79255">
        <ele>195.5</ele>
        <time>2015-03-08T08:26:16Z</time>
      </trkpt>
      <trkpt lat="44.39875" lon="4.79245">
        <ele>195.2</ele>
        <time>2015-03-08T08:26:19Z</time>
      </trkpt>
      <trkpt lat="44.39874" lon="4.79231">
        <ele>194.7</ele>
        <time>2015-03-08T08:26:24Z</time>
      </trkpt>
      <trkpt lat="44.39876" lon="4.79219">
        <ele>194.4</ele>
        <time>2015-03-08T08:26:28Z</time>
      </trkpt>
      <trkpt lat="44.39868" lon="4.79211">
        <ele>194.1</ele>
        <time>2015-03-08T08:26:31Z</time>
      </trkpt>
      <trkpt lat="44.39859" lon="4.79215">
        <ele>193.7</ele>
        <time>2015-03-08T08:26:35Z</time>
      </trkpt>
      <trkpt lat="44.39855" lon="4.79227">
        <ele>193.4</ele>
        <time>2015-03-08T08:26:38Z</time>
      </trkpt>
      <trkpt lat="44.39851" lon="4.7924">
        <ele>193.1</ele>
        <time>2015-03-08T08:26:41Z</time>
      </trkpt>
      <trkpt lat="44.39851" lon="4.79255">
        <ele>192.9</ele>
        <time>2015-03-08T08:26:44Z</time>
      </trkpt>
      <trkpt lat="44.39851" lon="4.79273">
        <ele>192.6</ele>
        <time>2015-03-08T08:26:48Z</time>
      </trkpt>
      <trkpt lat="44.39851" lon="4.79289">
        <ele>192.1</ele>
        <time>2015-03-08T08:26:51Z</time>
      </trkpt>
      <trkpt lat="44.39848" lon="4.79302">
        <ele>191.1</ele>
        <time>2015-03-08T08:26:54Z</time>
      </trkpt>
      <trkpt lat="44.39838" lon="4.79306">
        <ele>189.9</ele>
        <time>2015-03-08T08:26:58Z</time>
      </trkpt>
      <trkpt lat="44.39838" lon="4.79319">
        <ele>188.6</ele>
        <time>2015-03-08T08:27:02Z</time>
      </trkpt>
      <trkpt lat="44.39843" lon="4.79333">
        <ele>187.9</ele>
        <time>2015-03-08T08:27:05Z</time>
      </trkpt>
      <trkpt lat="44.39848" lon="4.79348">
        <ele>187</ele>
        <time>2015-03-08T08:27:08Z</time>
      </trkpt>
      <trkpt lat="44.39851" lon="4.7936">
        <ele>186.1</ele>
        <time>2015-03-08T08:27:11Z</time>
      </trkpt>
      <trkpt lat="44.39858" lon="4.79369">
        <ele>185</ele>
        <time>2015-03-08T08:27:15Z</time>
      </trkpt>
      <trkpt lat="44.3986" lon="4.79382">
        <ele>183.5</ele>
        <time>2015-03-08T08:27:21Z</time>
      </trkpt>
      <trkpt lat="44.39862" lon="4.79395">
        <ele>182.4</ele>
        <time>2015-03-08T08:27:26Z</time>
      </trkpt>
      <trkpt lat="44.39863" lon="4.7941">
        <ele>181.5</ele>
        <time>2015-03-08T08:27:30Z</time>
      </trkpt>
      <trkpt lat="44.39861" lon="4.79425">
        <ele>180.9</ele>
        <time>2015-03-08T08:27:35Z</time>
      </trkpt>
      <trkpt lat="44.39856" lon="4.79439">
        <ele>180.5</ele>
        <time>2015-03-08T08:27:39Z</time>
      </trkpt>
      <trkpt lat="44.39857" lon="4.79453">
        <ele>180.2</ele>
        <time>2015-03-08T08:27:43Z</time>
      </trkpt>
      <trkpt lat="44.39857" lon="4.79469">
        <ele>180</ele>
        <time>2015-03-08T08:27:46Z</time>
      </trkpt>
      <trkpt lat="44.3986" lon="4.79482">
        <ele>179.9</ele>
        <time>2015-03-08T08:27:48Z</time>
      </trkpt>
      <trkpt lat="44.39863" lon="4.79495">
        <ele>179.8</ele>
        <time>2015-03-08T08:27:50Z</time>
      </trkpt>
      <trkpt lat="44.39867" lon="4.79509">
        <ele>179.3</ele>
        <time>2015-03-08T08:27:53Z</time>
      </trkpt>
      <trkpt lat="44.39874" lon="4.79523">
        <ele>178.4</ele>
        <time>2015-03-08T08:27:56Z</time>
      </trkpt>
      <trkpt lat="44.39882" lon="4.79536">
        <ele>176.8</ele>
        <time>2015-03-08T08:28:01Z</time>
      </trkpt>
      <trkpt lat="44.39886" lon="4.7955">
        <ele>176</ele>
        <time>2015-03-08T08:28:04Z</time>
      </trkpt>
      <trkpt lat="44.39895" lon="4.79557">
        <ele>174.8</ele>
        <time>2015-03-08T08:28:08Z</time>
      </trkpt>
      <trkpt lat="44.39903" lon="4.79569">
        <ele>173.7</ele>
        <time>2015-03-08T08:28:13Z</time>
      </trkpt>
      <trkpt lat="44.39907" lon="4.79584">
        <ele>173.2</ele>
        <time>2015-03-08T08:28:16Z</time>
      </trkpt>
      <trkpt lat="44.39913" lon="4.79593">
        <ele>172.6</ele>
        <time>2015-03-08T08:28:18Z</time>
      </trkpt>
      <trkpt lat="44.39923" lon="4.796">
        <ele>172.1</ele>
        <time>2015-03-08T08:28:20Z</time>
      </trkpt>
      <trkpt lat="44.39933" lon="4.79607">
        <ele>171.5</ele>
        <time>2015-03-08T08:28:22Z</time>
      </trkpt>
      <trkpt lat="44.39943" lon="4.79613">
        <ele>170.9</ele>
        <time>2015-03-08T08:28:24Z</time>
      </trkpt>
      <trkpt lat="44.39943" lon="4.7963">
        <ele>169.5</ele>
        <time>2015-03-08T08:28:28Z</time>
      </trkpt>
      <trkpt lat="44.39939" lon="4.79645">
        <ele>168.4</ele>
        <time>2015-03-08T08:28:31Z</time>
      </trkpt>
      <trkpt lat="44.39927" lon="4.79651">
        <ele>166.8</ele>
        <time>2015-03-08T08:28:35Z</time>
      </trkpt>
      <trkpt lat="44.39916" lon="4.79651">
        <ele>165.2</ele>
        <time>2015-03-08T08:28:39Z</time>
      </trkpt>
      <trkpt lat="44.39913" lon="4.79664">
        <ele>163.5</ele>
        <time>2015-03-08T08:28:44Z</time>
      </trkpt>
      <trkpt lat="44.39916" lon="4.79676">
        <ele>162.8</ele>
        <time>2015-03-08T08:28:46Z</time>
      </trkpt>
      <trkpt lat="44.39921" lon="4.79687">
        <ele>162.1</ele>
        <time>2015-03-08T08:28:48Z</time>
      </trkpt>
      <trkpt lat="44.39927" lon="4.79697">
        <ele>161.4</ele>
        <time>2015-03-08T08:28:50Z</time>
      </trkpt>
      <trkpt lat="44.39932" lon="4.79713">
        <ele>160.3</ele>
        <time>2015-03-08T08:28:53Z</time>
      </trkpt>
      <trkpt lat="44.39929" lon="4.79726">
        <ele>159.5</ele>
        <time>2015-03-08T08:28:55Z</time>
      </trkpt>
      <trkpt lat="44.39925" lon="4.79737">
        <ele>158.5</ele>
        <time>2015-03-08T08:28:57Z</time>
      </trkpt>
      <trkpt lat="44.39916" lon="4.79747">
        <ele>157.2</ele>
        <time>2015-03-08T08:29:00Z</time>
      </trkpt>
      <trkpt lat="44.39908" lon="4.79755">
        <ele>155.7</ele>
        <time>2015-03-08T08:29:03Z</time>
      </trkpt>
      <trkpt lat="44.39901" lon="4.79763">
        <ele>154.4</ele>
        <time>2015-03-08T08:29:06Z</time>
      </trkpt>
      <trkpt lat="44.39894" lon="4.79771">
        <ele>153.4</ele>
        <time>2015-03-08T08:29:09Z</time>
      </trkpt>
      <trkpt lat="44.39882" lon="4.79769">
        <ele>152.4</ele>
        <time>2015-03-08T08:29:12Z</time>
      </trkpt>
      <trkpt lat="44.39873" lon="4.79766">
        <ele>151.8</ele>
        <time>2015-03-08T08:29:14Z</time>
      </trkpt>
      <trkpt lat="44.39864" lon="4.79777">
        <ele>151.1</ele>
        <time>2015-03-08T08:29:17Z</time>
      </trkpt>
      <trkpt lat="44.3986" lon="4.79789">
        <ele>150.6</ele>
        <time>2015-03-08T08:29:20Z</time>
      </trkpt>
      <trkpt lat="44.39856" lon="4.79801">
        <ele>150.1</ele>
        <time>2015-03-08T08:29:23Z</time>
      </trkpt>
      <trkpt lat="44.39851" lon="4.79814">
        <ele>149.9</ele>
        <time>2015-03-08T08:29:26Z</time>
      </trkpt>
      <trkpt lat="44.39847" lon="4.79826">
        <ele>149.9</ele>
        <time>2015-03-08T08:29:29Z</time>
      </trkpt>
      <trkpt lat="44.39843" lon="4.79838">
        <ele>149.8</ele>
        <time>2015-03-08T08:29:32Z</time>
      </trkpt>
      <trkpt lat="44.3984" lon="4.7985">
        <ele>150</ele>
        <time>2015-03-08T08:29:35Z</time>
      </trkpt>
      <trkpt lat="44.39837" lon="4.79862">
        <ele>150.2</ele>
        <time>2015-03-08T08:29:38Z</time>
      </trkpt>
      <trkpt lat="44.39834" lon="4.79875">
        <ele>150.3</ele>
        <time>2015-03-08T08:29:41Z</time>
      </trkpt>
      <trkpt lat="44.39832" lon="4.79887">
        <ele>150.5</ele>
        <time>2015-03-08T08:29:44Z</time>
      </trkpt>
      <trkpt lat="44.39833" lon="4.799">
        <ele>150.7</ele>
        <time>2015-03-08T08:29:47Z</time>
      </trkpt>
      <trkpt lat="44.39835" lon="4.79913">
        <ele>151.1</ele>
        <time>2015-03-08T08:29:50Z</time>
      </trkpt>
      <trkpt lat="44.39842" lon="4.79926">
        <ele>151.7</ele>
        <time>2015-03-08T08:29:54Z</time>
      </trkpt>
      <trkpt lat="44.39849" lon="4.79937">
        <ele>152.4</ele>
        <time>2015-03-08T08:29:58Z</time>
      </trkpt>
      <trkpt lat="44.39856" lon="4.79947">
        <ele>152.9</ele>
        <time>2015-03-08T08:30:02Z</time>
      </trkpt>
      <trkpt lat="44.39864" lon="4.79957">
        <ele>153.6</ele>
        <time>2015-03-08T08:30:06Z</time>
      </trkpt>
      <trkpt lat="44.39874" lon="4.79967">
        <ele>154.3</ele>
        <time>2015-03-08T08:30:10Z</time>
      </trkpt>
      <trkpt lat="44.39883" lon="4.79976">
        <ele>154.9</ele>
        <time>2015-03-08T08:30:14Z</time>
      </trkpt>
      <trkpt lat="44.39893" lon="4.79984">
        <ele>155.5</ele>
        <time>2015-03-08T08:30:18Z</time>
      </trkpt>
      <trkpt lat="44.39903" lon="4.79993">
        <ele>156.2</ele>
        <time>2015-03-08T08:30:22Z</time>
      </trkpt>
      <trkpt lat="44.39912" lon="4.80001">
        <ele>157.1</ele>
        <time>2015-03-08T08:30:26Z</time>
      </trkpt>
      <trkpt lat="44.39922" lon="4.8001">
        <ele>157.8</ele>
        <time>2015-03-08T08:30:30Z</time>
      </trkpt>
      <trkpt lat="44.39931" lon="4.80018">
        <ele>158.6</ele>
        <time>2015-03-08T08:30:34Z</time>
      </trkpt>
      <trkpt lat="44.39939" lon="4.80025">
        <ele>159.2</ele>
        <time>2015-03-08T08:30:37Z</time>
      </trkpt>
      <trkpt lat="44.39947" lon="4.80034">
        <ele>159.7</ele>
        <time>2015-03-08T08:30:40Z</time>
      </trkpt>
      <trkpt lat="44.39955" lon="4.80043">
        <ele>160.2</ele>
        <time>2015-03-08T08:30:43Z</time>
      </trkpt>
      <trkpt lat="44.39963" lon="4.80054">
        <ele>160.5</ele>
        <time>2015-03-08T08:30:46Z</time>
      </trkpt>
      <trkpt lat="44.39971" lon="4.80065">
        <ele>160.8</ele>
        <time>2015-03-08T08:30:49Z</time>
      </trkpt>
      <trkpt lat="44.39978" lon="4.80075">
        <ele>161</ele>
        <time>2015-03-08T08:30:52Z</time>
      </trkpt>
      <trkpt lat="44.39986" lon="4.80085">
        <ele>161.1</ele>
        <time>2015-03-08T08:30:55Z</time>
      </trkpt>
      <trkpt lat="44.39993" lon="4.80095">
        <ele>161.4</ele>
        <time>2015-03-08T08:30:58Z</time>
      </trkpt>
      <trkpt lat="44.4" lon="4.80105">
        <ele>161.9</ele>
        <time>2015-03-08T08:31:01Z</time>
      </trkpt>
      <trkpt lat="44.40008" lon="4.80116">
        <ele>162.4</ele>
        <time>2015-03-08T08:31:05Z</time>
      </trkpt>
      <trkpt lat="44.40016" lon="4.80126">
        <ele>162.9</ele>
        <time>2015-03-08T08:31:09Z</time>
      </trkpt>
      <trkpt lat="44.40023" lon="4.80134">
        <ele>163.3</ele>
        <time>2015-03-08T08:31:12Z</time>
      </trkpt>
      <trkpt lat="44.4003" lon="4.80143">
        <ele>163.6</ele>
        <time>2015-03-08T08:31:15Z</time>
      </trkpt>
      <trkpt lat="44.40036" lon="4.80153">
        <ele>163.8</ele>
        <time>2015-03-08T08:31:18Z</time>
      </trkpt>
      <trkpt lat="44.40028" lon="4.8016">
        <ele>164.7</ele>
        <time>2015-03-08T08:31:27Z</time>
      </trkpt>
      <trkpt lat="44.40018" lon="4.80158">
        <ele>165.5</ele>
        <time>2015-03-08T08:31:32Z</time>
      </trkpt>
      <trkpt lat="44.40008" lon="4.80157">
        <ele>166.6</ele>
        <time>2015-03-08T08:31:37Z</time>
      </trkpt>
      <trkpt lat="44.39997" lon="4.80158">
        <ele>167.6</ele>
        <time>2015-03-08T08:31:42Z</time>
      </trkpt>
      <trkpt lat="44.39986" lon="4.8016">
        <ele>168.8</ele>
        <time>2015-03-08T08:31:47Z</time>
      </trkpt>
      <trkpt lat="44.39977" lon="4.8016">
        <ele>169.6</ele>
        <time>2015-03-08T08:31:51Z</time>
      </trkpt>
      <trkpt lat="44.39968" lon="4.80161">
        <ele>170.2</ele>
        <time>2015-03-08T08:31:55Z</time>
      </trkpt>
      <trkpt lat="44.39959" lon="4.80163">
        <ele>170.7</ele>
        <time>2015-03-08T08:31:59Z</time>
      </trkpt>
      <trkpt lat="44.39949" lon="4.80164">
        <ele>171.5</ele>
        <time>2015-03-08T08:32:03Z</time>
      </trkpt>
      <trkpt lat="44.3994" lon="4.80164">
        <ele>172.2</ele>
        <time>2015-03-08T08:32:07Z</time>
      </trkpt>
      <trkpt lat="44.3993" lon="4.80164">
        <ele>172.7</ele>
        <time>2015-03-08T08:32:11Z</time>
      </trkpt>
      <trkpt lat="44.39921" lon="4.80162">
        <ele>173.2</ele>
        <time>2015-03-08T08:32:15Z</time>
      </trkpt>
      <trkpt lat="44.39911" lon="4.80159">
        <ele>174.1</ele>
        <time>2015-03-08T08:32:19Z</time>
      </trkpt>
      <trkpt lat="44.39901" lon="4.80156">
        <ele>175</ele>
        <time>2015-03-08T08:32:24Z</time>
      </trkpt>
      <trkpt lat="44.3989" lon="4.80153">
        <ele>175.8</ele>
        <time>2015-03-08T08:32:29Z</time>
      </trkpt>
      <trkpt lat="44.39881" lon="4.8015">
        <ele>176.3</ele>
        <time>2015-03-08T08:32:33Z</time>
      </trkpt>
      <trkpt lat="44.39871" lon="4.80148">
        <ele>176.9</ele>
        <time>2015-03-08T08:32:37Z</time>
      </trkpt>
      <trkpt lat="44.39862" lon="4.80146">
        <ele>177.7</ele>
        <time>2015-03-08T08:32:41Z</time>
      </trkpt>
      <trkpt lat="44.39852" lon="4.80147">
        <ele>178.6</ele>
        <time>2015-03-08T08:32:45Z</time>
      </trkpt>
      <trkpt lat="44.39844" lon="4.80153">
        <ele>179.6</ele>
        <time>2015-03-08T08:32:49Z</time>
      </trkpt>
      <trkpt lat="44.39836" lon="4.80161">
        <ele>180.4</ele>
        <time>2015-03-08T08:32:53Z</time>
      </trkpt>
      <trkpt lat="44.39828" lon="4.80168">
        <ele>181</ele>
        <time>2015-03-08T08:32:57Z</time>
      </trkpt>
      <trkpt lat="44.3982" lon="4.80176">
        <ele>181.8</ele>
        <time>2015-03-08T08:33:01Z</time>
      </trkpt>
      <trkpt lat="44.39811" lon="4.80183">
        <ele>182.5</ele>
        <time>2015-03-08T08:33:05Z</time>
      </trkpt>
      <trkpt lat="44.39803" lon="4.8019">
        <ele>183.3</ele>
        <time>2015-03-08T08:33:09Z</time>
      </trkpt>
      <trkpt lat="44.39795" lon="4.80197">
        <ele>184.2</ele>
        <time>2015-03-08T08:33:13Z</time>
      </trkpt>
      <trkpt lat="44.39788" lon="4.80203">
        <ele>184.9</ele>
        <time>2015-03-08T08:33:17Z</time>
      </trkpt>
      <trkpt lat="44.3978" lon="4.8021">
        <ele>185.5</ele>
        <time>2015-03-08T08:33:21Z</time>
      </trkpt>
      <trkpt lat="44.39772" lon="4.80217">
        <ele>186.1</ele>
        <time>2015-03-08T08:33:25Z</time>
      </trkpt>
      <trkpt lat="44.39764" lon="4.80225">
        <ele>187</ele>
        <time>2015-03-08T08:33:29Z</time>
      </trkpt>
      <trkpt lat="44.39756" lon="4.80233">
        <ele>187.8</ele>
        <time>2015-03-08T08:33:33Z</time>
      </trkpt>
      <trkpt lat="44.39749" lon="4.80242">
        <ele>188.4</ele>
        <time>2015-03-08T08:33:37Z</time>
      </trkpt>
      <trkpt lat="44.39743" lon="4.80254">
        <ele>188.9</ele>
        <time>2015-03-08T08:33:41Z</time>
      </trkpt>
      <trkpt lat="44.39738" lon="4.80266">
        <ele>189.4</ele>
        <time>2015-03-08T08:33:45Z</time>
      </trkpt>
      <trkpt lat="44.39732" lon="4.80278">
        <ele>190.2</ele>
        <time>2015-03-08T08:33:49Z</time>
      </trkpt>
      <trkpt lat="44.39722" lon="4.80278">
        <ele>190.9</ele>
        <time>2015-03-08T08:33:54Z</time>
      </trkpt>
      <trkpt lat="44.39712" lon="4.80278">
        <ele>191.3</ele>
        <time>2015-03-08T08:33:58Z</time>
      </trkpt>
      <trkpt lat="44.39702" lon="4.80278">
        <ele>191.8</ele>
        <time>2015-03-08T08:34:03Z</time>
      </trkpt>
      <trkpt lat="44.39693" lon="4.80276">
        <ele>192.3</ele>
        <time>2015-03-08T08:34:08Z</time>
      </trkpt>
      <trkpt lat="44.39683" lon="4.80274">
        <ele>192.9</ele>
        <time>2015-03-08T08:34:14Z</time>
      </trkpt>
      <trkpt lat="44.39674" lon="4.80278">
        <ele>194.3</ele>
        <time>2015-03-08T08:34:22Z</time>
      </trkpt>
      <trkpt lat="44.39665" lon="4.80284">
        <ele>196.1</ele>
        <time>2015-03-08T08:34:30Z</time>
      </trkpt>
      <trkpt lat="44.39658" lon="4.80292">
        <ele>197.3</ele>
        <time>2015-03-08T08:34:37Z</time>
      </trkpt>
      <trkpt lat="44.39653" lon="4.80303">
        <ele>198.5</ele>
        <time>2015-03-08T08:34:44Z</time>
      </trkpt>
      <trkpt lat="44.3965" lon="4.80316">
        <ele>199.9</ele>
        <time>2015-03-08T08:34:51Z</time>
      </trkpt>
      <trkpt lat="44.39649" lon="4.80329">
        <ele>201.1</ele>
        <time>2015-03-08T08:34:57Z</time>
      </trkpt>
      <trkpt lat="44.39647" lon="4.80343">
        <ele>201.7</ele>
        <time>2015-03-08T08:35:03Z</time>
      </trkpt>
      <trkpt lat="44.39643" lon="4.80357">
        <ele>202.3</ele>
        <time>2015-03-08T08:35:08Z</time>
      </trkpt>
      <trkpt lat="44.39643" lon="4.80372">
        <ele>202.9</ele>
        <time>2015-03-08T08:35:13Z</time>
      </trkpt>
      <trkpt lat="44.39645" lon="4.80385">
        <ele>203.3</ele>
        <time>2015-03-08T08:35:17Z</time>
      </trkpt>
      <trkpt lat="44.39646" lon="4.804">
        <ele>203.7</ele>
        <time>2015-03-08T08:35:22Z</time>
      </trkpt>
      <trkpt lat="44.39639" lon="4.80412">
        <ele>204.2</ele>
        <time>2015-03-08T08:35:27Z</time>
      </trkpt>
      <trkpt lat="44.39631" lon="4.80422">
        <ele>204.8</ele>
        <time>2015-03-08T08:35:32Z</time>
      </trkpt>
      <trkpt lat="44.39625" lon="4.80434">
        <ele>205.4</ele>
        <time>2015-03-08T08:35:37Z</time>
      </trkpt>
      <trkpt lat="44.39619" lon="4.80444">
        <ele>206</ele>
        <time>2015-03-08T08:35:42Z</time>
      </trkpt>
      <trkpt lat="44.39613" lon="4.80454">
        <ele>206.8</ele>
        <time>2015-03-08T08:35:47Z</time>
      </trkpt>
      <trkpt lat="44.39605" lon="4.80462">
        <ele>207.4</ele>
        <time>2015-03-08T08:35:52Z</time>
      </trkpt>
      <trkpt lat="44.39596" lon="4.80469">
        <ele>208.1</ele>
        <time>2015-03-08T08:35:57Z</time>
      </trkpt>
      <trkpt lat="44.39586" lon="4.80472">
        <ele>208.7</ele>
        <time>2015-03-08T08:36:02Z</time>
      </trkpt>
      <trkpt lat="44.39576" lon="4.80474">
        <ele>209.4</ele>
        <time>2015-03-08T08:36:07Z</time>
      </trkpt>
      <trkpt lat="44.39565" lon="4.80472">
        <ele>210.3</ele>
        <time>2015-03-08T08:36:12Z</time>
      </trkpt>
      <trkpt lat="44.39556" lon="4.8047">
        <ele>211.1</ele>
        <time>2015-03-08T08:36:16Z</time>
      </trkpt>
      <trkpt lat="44.39545" lon="4.8047">
        <ele>211.9</ele>
        <time>2015-03-08T08:36:21Z</time>
      </trkpt>
      <trkpt lat="44.39535" lon="4.80475">
        <ele>212.8</ele>
        <time>2015-03-08T08:36:26Z</time>
      </trkpt>
      <trkpt lat="44.39533" lon="4.80488">
        <ele>213.8</ele>
        <time>2015-03-08T08:36:31Z</time>
      </trkpt>
      <trkpt lat="44.39535" lon="4.80501">
        <ele>215</ele>
        <time>2015-03-08T08:36:36Z</time>
      </trkpt>
      <trkpt lat="44.39537" lon="4.80515">
        <ele>215.9</ele>
        <time>2015-03-08T08:36:41Z</time>
      </trkpt>
      <trkpt lat="44.39535" lon="4.80527">
        <ele>217</ele>
        <time>2015-03-08T08:36:47Z</time>
      </trkpt>
      <trkpt lat="44.39526" lon="4.80522">
        <ele>218.1</ele>
        <time>2015-03-08T08:36:55Z</time>
      </trkpt>
      <trkpt lat="44.39517" lon="4.80516">
        <ele>219.6</ele>
        <time>2015-03-08T08:37:02Z</time>
      </trkpt>
      <trkpt lat="44.39507" lon="4.80514">
        <ele>221.3</ele>
        <time>2015-03-08T08:37:09Z</time>
      </trkpt>
      <trkpt lat="44.39497" lon="4.80514">
        <ele>222.6</ele>
        <time>2015-03-08T08:37:16Z</time>
      </trkpt>
      <trkpt lat="44.39488" lon="4.80515">
        <ele>223.4</ele>
        <time>2015-03-08T08:37:22Z</time>
      </trkpt>
      <trkpt lat="44.39478" lon="4.80517">
        <ele>224.6</ele>
        <time>2015-03-08T08:37:29Z</time>
      </trkpt>
      <trkpt lat="44.39469" lon="4.80521">
        <ele>225.4</ele>
        <time>2015-03-08T08:37:35Z</time>
      </trkpt>
      <trkpt lat="44.39462" lon="4.80529">
        <ele>227.3</ele>
        <time>2015-03-08T08:37:47Z</time>
      </trkpt>
      <trkpt lat="44.39459" lon="4.80542">
        <ele>230</ele>
        <time>2015-03-08T08:37:58Z</time>
      </trkpt>
      <trkpt lat="44.39457" lon="4.80554">
        <ele>232.5</ele>
        <time>2015-03-08T08:38:11Z</time>
      </trkpt>
      <trkpt lat="44.39453" lon="4.80567">
        <ele>235.2</ele>
        <time>2015-03-08T08:38:26Z</time>
      </trkpt>
      <trkpt lat="44.3945" lon="4.8058">
        <ele>237.6</ele>
        <time>2015-03-08T08:38:39Z</time>
      </trkpt>
      <trkpt lat="44.39448" lon="4.80593">
        <ele>239.4</ele>
        <time>2015-03-08T08:38:49Z</time>
      </trkpt>
      <trkpt lat="44.39442" lon="4.80604">
        <ele>241.4</ele>
        <time>2015-03-08T08:38:59Z</time>
      </trkpt>
      <trkpt lat="44.39434" lon="4.80608">
        <ele>242.6</ele>
        <time>2015-03-08T08:39:08Z</time>
      </trkpt>
      <trkpt lat="44.39424" lon="4.80611">
        <ele>243</ele>
        <time>2015-03-08T08:39:14Z</time>
      </trkpt>
      <trkpt lat="44.39415" lon="4.80618">
        <ele>243.4</ele>
        <time>2015-03-08T08:39:20Z</time>
      </trkpt>
      <trkpt lat="44.39409" lon="4.80628">
        <ele>243.7</ele>
        <time>2015-03-08T08:39:26Z</time>
      </trkpt>
      <trkpt lat="44.394" lon="4.80636">
        <ele>244.4</ele>
        <time>2015-03-08T08:39:32Z</time>
      </trkpt>
      <trkpt lat="44.39397" lon="4.80649">
        <ele>244.7</ele>
        <time>2015-03-08T08:39:36Z</time>
      </trkpt>
      <trkpt lat="44.39392" lon="4.80662">
        <ele>245.4</ele>
        <time>2015-03-08T08:39:40Z</time>
      </trkpt>
      <trkpt lat="44.39387" lon="4.80674">
        <ele>246.1</ele>
        <time>2015-03-08T08:39:44Z</time>
      </trkpt>
      <trkpt lat="44.3938" lon="4.80683">
        <ele>247.1</ele>
        <time>2015-03-08T08:39:49Z</time>
      </trkpt>
      <trkpt lat="44.39371" lon="4.80686">
        <ele>248</ele>
        <time>2015-03-08T08:39:54Z</time>
      </trkpt>
      <trkpt lat="44.39361" lon="4.80688">
        <ele>248.9</ele>
        <time>2015-03-08T08:39:59Z</time>
      </trkpt>
      <trkpt lat="44.39351" lon="4.80691">
        <ele>249.6</ele>
        <time>2015-03-08T08:40:04Z</time>
      </trkpt>
      <trkpt lat="44.39341" lon="4.80694">
        <ele>250.2</ele>
        <time>2015-03-08T08:40:09Z</time>
      </trkpt>
      <trkpt lat="44.3933" lon="4.80698">
        <ele>250.9</ele>
        <time>2015-03-08T08:40:14Z</time>
      </trkpt>
      <trkpt lat="44.39321" lon="4.80704">
        <ele>251.6</ele>
        <time>2015-03-08T08:40:17Z</time>
      </trkpt>
      <trkpt lat="44.39311" lon="4.8071">
        <ele>252.6</ele>
        <time>2015-03-08T08:40:22Z</time>
      </trkpt>
      <trkpt lat="44.39302" lon="4.80717">
        <ele>253.2</ele>
        <time>2015-03-08T08:40:26Z</time>
      </trkpt>
      <trkpt lat="44.39295" lon="4.80724">
        <ele>253.7</ele>
        <time>2015-03-08T08:40:30Z</time>
      </trkpt>
      <trkpt lat="44.39287" lon="4.80731">
        <ele>254.2</ele>
        <time>2015-03-08T08:40:34Z</time>
      </trkpt>
      <trkpt lat="44.39278" lon="4.80737">
        <ele>254.7</ele>
        <time>2015-03-08T08:40:38Z</time>
      </trkpt>
      <trkpt lat="44.39269" lon="4.80743">
        <ele>255.3</ele>
        <time>2015-03-08T08:40:42Z</time>
      </trkpt>
      <trkpt lat="44.3926" lon="4.80747">
        <ele>255.8</ele>
        <time>2015-03-08T08:40:46Z</time>
      </trkpt>
      <trkpt lat="44.39251" lon="4.8075">
        <ele>256.4</ele>
        <time>2015-03-08T08:40:50Z</time>
      </trkpt>
      <trkpt lat="44.39242" lon="4.80754">
        <ele>256.8</ele>
        <time>2015-03-08T08:40:54Z</time>
      </trkpt>
      <trkpt lat="44.39231" lon="4.80757">
        <ele>257.7</ele>
        <time>2015-03-08T08:40:59Z</time>
      </trkpt>
      <trkpt lat="44.39222" lon="4.8076">
        <ele>258.4</ele>
        <time>2015-03-08T08:41:03Z</time>
      </trkpt>
      <trkpt lat="44.39213" lon="4.80763">
        <ele>259</ele>
        <time>2015-03-08T08:41:07Z</time>
      </trkpt>
      <trkpt lat="44.39203" lon="4.80763">
        <ele>259.4</ele>
        <time>2015-03-08T08:41:11Z</time>
      </trkpt>
      <trkpt lat="44.39194" lon="4.80763">
        <ele>259.7</ele>
        <time>2015-03-08T08:41:15Z</time>
      </trkpt>
      <trkpt lat="44.39183" lon="4.8076">
        <ele>260.2</ele>
        <time>2015-03-08T08:41:20Z</time>
      </trkpt>
      <trkpt lat="44.39174" lon="4.80757">
        <ele>260.6</ele>
        <time>2015-03-08T08:41:24Z</time>
      </trkpt>
      <trkpt lat="44.39165" lon="4.80754">
        <ele>261.2</ele>
        <time>2015-03-08T08:41:28Z</time>
      </trkpt>
      <trkpt lat="44.39155" lon="4.80752">
        <ele>261.7</ele>
        <time>2015-03-08T08:41:32Z</time>
      </trkpt>
      <trkpt lat="44.39146" lon="4.80753">
        <ele>262.3</ele>
        <time>2015-03-08T08:41:36Z</time>
      </trkpt>
      <trkpt lat="44.39137" lon="4.80753">
        <ele>263</ele>
        <time>2015-03-08T08:41:40Z</time>
      </trkpt>
      <trkpt lat="44.39127" lon="4.80755">
        <ele>263.9</ele>
        <time>2015-03-08T08:41:44Z</time>
      </trkpt>
      <trkpt lat="44.39118" lon="4.80758">
        <ele>264.7</ele>
        <time>2015-03-08T08:41:48Z</time>
      </trkpt>
      <trkpt lat="44.39109" lon="4.80761">
        <ele>265.6</ele>
        <time>2015-03-08T08:41:52Z</time>
      </trkpt>
      <trkpt lat="44.391" lon="4.80765">
        <ele>266.5</ele>
        <time>2015-03-08T08:41:56Z</time>
      </trkpt>
      <trkpt lat="44.39089" lon="4.80768">
        <ele>267.5</ele>
        <time>2015-03-08T08:42:01Z</time>
      </trkpt>
      <trkpt lat="44.3908" lon="4.80773">
        <ele>268.2</ele>
        <time>2015-03-08T08:42:05Z</time>
      </trkpt>
      <trkpt lat="44.39071" lon="4.8078">
        <ele>268.7</ele>
        <time>2015-03-08T08:42:09Z</time>
      </trkpt>
      <trkpt lat="44.39061" lon="4.80789">
        <ele>269.2</ele>
        <time>2015-03-08T08:42:13Z</time>
      </trkpt>
      <trkpt lat="44.39054" lon="4.808">
        <ele>270</ele>
        <time>2015-03-08T08:42:17Z</time>
      </trkpt>
      <trkpt lat="44.39056" lon="4.80814">
        <ele>270.6</ele>
        <time>2015-03-08T08:42:21Z</time>
      </trkpt>
      <trkpt lat="44.39063" lon="4.80824">
        <ele>271.1</ele>
        <time>2015-03-08T08:42:25Z</time>
      </trkpt>
      <trkpt lat="44.3907" lon="4.80832">
        <ele>271.9</ele>
        <time>2015-03-08T08:42:31Z</time>
      </trkpt>
      <trkpt lat="44.39079" lon="4.80835">
        <ele>273.1</ele>
        <time>2015-03-08T08:42:37Z</time>
      </trkpt>
      <trkpt lat="44.39087" lon="4.80829">
        <ele>274.5</ele>
        <time>2015-03-08T08:42:43Z</time>
      </trkpt>
      <trkpt lat="44.39093" lon="4.80817">
        <ele>275.3</ele>
        <time>2015-03-08T08:42:49Z</time>
      </trkpt>
      <trkpt lat="44.39101" lon="4.80809">
        <ele>275.9</ele>
        <time>2015-03-08T08:42:55Z</time>
      </trkpt>
      <trkpt lat="44.39111" lon="4.80813">
        <ele>276.7</ele>
        <time>2015-03-08T08:43:02Z</time>
      </trkpt>
      <trkpt lat="44.39118" lon="4.80822">
        <ele>277.3</ele>
        <time>2015-03-08T08:43:07Z</time>
      </trkpt>
      <trkpt lat="44.39128" lon="4.80825">
        <ele>277.7</ele>
        <time>2015-03-08T08:43:12Z</time>
      </trkpt>
      <trkpt lat="44.39138" lon="4.80824">
        <ele>277.9</ele>
        <time>2015-03-08T08:43:17Z</time>
      </trkpt>
      <trkpt lat="44.39143" lon="4.80836">
        <ele>278.1</ele>
        <time>2015-03-08T08:43:23Z</time>
      </trkpt>
      <trkpt lat="44.39136" lon="4.80844">
        <ele>278.3</ele>
        <time>2015-03-08T08:43:27Z</time>
      </trkpt>
      <trkpt lat="44.39128" lon="4.80854">
        <ele>278.8</ele>
        <time>2015-03-08T08:43:31Z</time>
      </trkpt>
      <trkpt lat="44.3912" lon="4.80863">
        <ele>279.1</ele>
        <time>2015-03-08T08:43:35Z</time>
      </trkpt>
      <trkpt lat="44.39112" lon="4.80869">
        <ele>279.4</ele>
        <time>2015-03-08T08:43:39Z</time>
      </trkpt>
      <trkpt lat="44.39101" lon="4.80872">
        <ele>279.8</ele>
        <time>2015-03-08T08:43:44Z</time>
      </trkpt>
      <trkpt lat="44.3909" lon="4.80876">
        <ele>280.2</ele>
        <time>2015-03-08T08:43:48Z</time>
      </trkpt>
      <trkpt lat="44.3908" lon="4.80881">
        <ele>280.4</ele>
        <time>2015-03-08T08:43:52Z</time>
      </trkpt>
      <trkpt lat="44.3907" lon="4.80885">
        <ele>280.6</ele>
        <time>2015-03-08T08:43:55Z</time>
      </trkpt>
      <trkpt lat="44.3906" lon="4.80888">
        <ele>280.6</ele>
        <time>2015-03-08T08:43:58Z</time>
      </trkpt>
      <trkpt lat="44.39047" lon="4.80891">
        <ele>280.6</ele>
        <time>2015-03-08T08:44:01Z</time>
      </trkpt>
      <trkpt lat="44.39038" lon="4.8089">
        <ele>280.6</ele>
        <time>2015-03-08T08:44:03Z</time>
      </trkpt>
      <trkpt lat="44.39028" lon="4.80888">
        <ele>280.7</ele>
        <time>2015-03-08T08:44:05Z</time>
      </trkpt>
      <trkpt lat="44.39018" lon="4.80887">
        <ele>280.5</ele>
        <time>2015-03-08T08:44:07Z</time>
      </trkpt>
      <trkpt lat="44.39007" lon="4.80889">
        <ele>280.4</ele>
        <time>2015-03-08T08:44:09Z</time>
      </trkpt>
      <trkpt lat="44.38996" lon="4.80894">
        <ele>280.2</ele>
        <time>2015-03-08T08:44:11Z</time>
      </trkpt>
      <trkpt lat="44.38987" lon="4.80902">
        <ele>279.8</ele>
        <time>2015-03-08T08:44:13Z</time>
      </trkpt>
      <trkpt lat="44.38978" lon="4.80909">
        <ele>279.4</ele>
        <time>2015-03-08T08:44:15Z</time>
      </trkpt>
      <trkpt lat="44.3897" lon="4.80917">
        <ele>279</ele>
        <time>2015-03-08T08:44:17Z</time>
      </trkpt>
      <trkpt lat="44.38964" lon="4.80932">
        <ele>278.6</ele>
        <time>2015-03-08T08:44:20Z</time>
      </trkpt>
      <trkpt lat="44.38969" lon="4.80947">
        <ele>278.1</ele>
        <time>2015-03-08T08:44:24Z</time>
      </trkpt>
      <trkpt lat="44.38972" lon="4.80963">
        <ele>277.8</ele>
        <time>2015-03-08T08:44:28Z</time>
      </trkpt>
      <trkpt lat="44.38971" lon="4.8098">
        <ele>277.8</ele>
        <time>2015-03-08T08:44:32Z</time>
      </trkpt>
      <trkpt lat="44.38967" lon="4.80992">
        <ele>278</ele>
        <time>2015-03-08T08:44:35Z</time>
      </trkpt>
      <trkpt lat="44.38963" lon="4.81005">
        <ele>278</ele>
        <time>2015-03-08T08:44:38Z</time>
      </trkpt>
      <trkpt lat="44.38956" lon="4.81016">
        <ele>278.1</ele>
        <time>2015-03-08T08:44:41Z</time>
      </trkpt>
      <trkpt lat="44.38945" lon="4.81022">
        <ele>278</ele>
        <time>2015-03-08T08:44:44Z</time>
      </trkpt>
      <trkpt lat="44.38934" lon="4.81029">
        <ele>277.9</ele>
        <time>2015-03-08T08:44:47Z</time>
      </trkpt>
      <trkpt lat="44.38925" lon="4.81036">
        <ele>278</ele>
        <time>2015-03-08T08:44:50Z</time>
      </trkpt>
      <trkpt lat="44.38919" lon="4.81049">
        <ele>277.6</ele>
        <time>2015-03-08T08:44:53Z</time>
      </trkpt>
      <trkpt lat="44.38919" lon="4.81065">
        <ele>277.3</ele>
        <time>2015-03-08T08:44:56Z</time>
      </trkpt>
      <trkpt lat="44.38921" lon="4.8108">
        <ele>277.1</ele>
        <time>2015-03-08T08:44:59Z</time>
      </trkpt>
      <trkpt lat="44.38926" lon="4.81092">
        <ele>276.9</ele>
        <time>2015-03-08T08:45:02Z</time>
      </trkpt>
      <trkpt lat="44.38925" lon="4.81109">
        <ele>276.7</ele>
        <time>2015-03-08T08:45:06Z</time>
      </trkpt>
      <trkpt lat="44.38922" lon="4.81122">
        <ele>276.7</ele>
        <time>2015-03-08T08:45:08Z</time>
      </trkpt>
      <trkpt lat="44.3892" lon="4.81135">
        <ele>276.6</ele>
        <time>2015-03-08T08:45:10Z</time>
      </trkpt>
      <trkpt lat="44.38919" lon="4.81148">
        <ele>276.5</ele>
        <time>2015-03-08T08:45:12Z</time>
      </trkpt>
      <trkpt lat="44.38921" lon="4.81161">
        <ele>276.5</ele>
        <time>2015-03-08T08:45:14Z</time>
      </trkpt>
      <trkpt lat="44.38923" lon="4.81175">
        <ele>276.4</ele>
        <time>2015-03-08T08:45:16Z</time>
      </trkpt>
      <trkpt lat="44.38925" lon="4.81189">
        <ele>276.4</ele>
        <time>2015-03-08T08:45:18Z</time>
      </trkpt>
      <trkpt lat="44.38929" lon="4.81202">
        <ele>276.3</ele>
        <time>2015-03-08T08:45:20Z</time>
      </trkpt>
      <trkpt lat="44.38935" lon="4.81218">
        <ele>276.1</ele>
        <time>2015-03-08T08:45:23Z</time>
      </trkpt>
      <trkpt lat="44.38942" lon="4.81234">
        <ele>275.8</ele>
        <time>2015-03-08T08:45:26Z</time>
      </trkpt>
      <trkpt lat="44.38947" lon="4.81246">
        <ele>275.5</ele>
        <time>2015-03-08T08:45:28Z</time>
      </trkpt>
      <trkpt lat="44.38952" lon="4.81256">
        <ele>275.2</ele>
        <time>2015-03-08T08:45:30Z</time>
      </trkpt>
      <trkpt lat="44.38959" lon="4.81271">
        <ele>274.8</ele>
        <time>2015-03-08T08:45:33Z</time>
      </trkpt>
      <trkpt lat="44.38969" lon="4.81281">
        <ele>274.5</ele>
        <time>2015-03-08T08:45:36Z</time>
      </trkpt>
      <trkpt lat="44.38974" lon="4.81294">
        <ele>274.3</ele>
        <time>2015-03-08T08:45:39Z</time>
      </trkpt>
      <trkpt lat="44.38979" lon="4.81311">
        <ele>274.1</ele>
        <time>2015-03-08T08:45:42Z</time>
      </trkpt>
      <trkpt lat="44.38982" lon="4.81323">
        <ele>274</ele>
        <time>2015-03-08T08:45:44Z</time>
      </trkpt>
      <trkpt lat="44.38985" lon="4.81335">
        <ele>273.9</ele>
        <time>2015-03-08T08:45:46Z</time>
      </trkpt>
      <trkpt lat="44.38989" lon="4.81353">
        <ele>273.8</ele>
        <time>2015-03-08T08:45:49Z</time>
      </trkpt>
      <trkpt lat="44.38991" lon="4.81369">
        <ele>273.8</ele>
        <time>2015-03-08T08:45:52Z</time>
      </trkpt>
      <trkpt lat="44.38993" lon="4.81386">
        <ele>274</ele>
        <time>2015-03-08T08:45:55Z</time>
      </trkpt>
      <trkpt lat="44.38995" lon="4.81399">
        <ele>274.3</ele>
        <time>2015-03-08T08:45:58Z</time>
      </trkpt>
      <trkpt lat="44.39" lon="4.81414">
        <ele>274.6</ele>
        <time>2015-03-08T08:46:02Z</time>
      </trkpt>
      <trkpt lat="44.39004" lon="4.81428">
        <ele>274.7</ele>
        <time>2015-03-08T08:46:05Z</time>
      </trkpt>
      <trkpt lat="44.39008" lon="4.81444">
        <ele>275.2</ele>
        <time>2015-03-08T08:46:09Z</time>
      </trkpt>
      <trkpt lat="44.3901" lon="4.8146">
        <ele>275.6</ele>
        <time>2015-03-08T08:46:13Z</time>
      </trkpt>
      <trkpt lat="44.39013" lon="4.81473">
        <ele>275.9</ele>
        <time>2015-03-08T08:46:16Z</time>
      </trkpt>
      <trkpt lat="44.39012" lon="4.81487">
        <ele>276.3</ele>
        <time>2015-03-08T08:46:20Z</time>
      </trkpt>
      <trkpt lat="44.39002" lon="4.81496">
        <ele>277</ele>
        <time>2015-03-08T08:46:24Z</time>
      </trkpt>
      <trkpt lat="44.38994" lon="4.81503">
        <ele>277.4</ele>
        <time>2015-03-08T08:46:27Z</time>
      </trkpt>
      <trkpt lat="44.38984" lon="4.81512">
        <ele>277.5</ele>
        <time>2015-03-08T08:46:30Z</time>
      </trkpt>
      <trkpt lat="44.3898" lon="4.81526">
        <ele>277.5</ele>
        <time>2015-03-08T08:46:33Z</time>
      </trkpt>
      <trkpt lat="44.38979" lon="4.8154">
        <ele>277.5</ele>
        <time>2015-03-08T08:46:36Z</time>
      </trkpt>
      <trkpt lat="44.38978" lon="4.81556">
        <ele>277.5</ele>
        <time>2015-03-08T08:46:39Z</time>
      </trkpt>
      <trkpt lat="44.38975" lon="4.81573">
        <ele>277.6</ele>
        <time>2015-03-08T08:46:42Z</time>
      </trkpt>
      <trkpt lat="44.38972" lon="4.81585">
        <ele>277.7</ele>
        <time>2015-03-08T08:46:44Z</time>
      </trkpt>
      <trkpt lat="44.38968" lon="4.81597">
        <ele>277.7</ele>
        <time>2015-03-08T08:46:46Z</time>
      </trkpt>
      <trkpt lat="44.38962" lon="4.81607">
        <ele>277.8</ele>
        <time>2015-03-08T08:46:48Z</time>
      </trkpt>
      <trkpt lat="44.38954" lon="4.81617">
        <ele>277.8</ele>
        <time>2015-03-08T08:46:50Z</time>
      </trkpt>
      <trkpt lat="44.38947" lon="4.81626">
        <ele>277.8</ele>
        <time>2015-03-08T08:46:52Z</time>
      </trkpt>
      <trkpt lat="44.38939" lon="4.81634">
        <ele>277.7</ele>
        <time>2015-03-08T08:46:54Z</time>
      </trkpt>
      <trkpt lat="44.3893" lon="4.81643">
        <ele>277.6</ele>
        <time>2015-03-08T08:46:56Z</time>
      </trkpt>
      <trkpt lat="44.38921" lon="4.81648">
        <ele>277.5</ele>
        <time>2015-03-08T08:46:58Z</time>
      </trkpt>
      <trkpt lat="44.38912" lon="4.81653">
        <ele>277.3</ele>
        <time>2015-03-08T08:47:00Z</time>
      </trkpt>
      <trkpt lat="44.38906" lon="4.81662">
        <ele>277</ele>
        <time>2015-03-08T08:47:02Z</time>
      </trkpt>
      <trkpt lat="44.38903" lon="4.8168">
        <ele>276.4</ele>
        <time>2015-03-08T08:47:05Z</time>
      </trkpt>
      <trkpt lat="44.38903" lon="4.81697">
        <ele>276</ele>
        <time>2015-03-08T08:47:08Z</time>
      </trkpt>
      <trkpt lat="44.38899" lon="4.81711">
        <ele>275.8</ele>
        <time>2015-03-08T08:47:11Z</time>
      </trkpt>
      <trkpt lat="44.38891" lon="4.81719">
        <ele>275.5</ele>
        <time>2015-03-08T08:47:14Z</time>
      </trkpt>
      <trkpt lat="44.38881" lon="4.81727">
        <ele>275.3</ele>
        <time>2015-03-08T08:47:17Z</time>
      </trkpt>
      <trkpt lat="44.38869" lon="4.81731">
        <ele>275.2</ele>
        <time>2015-03-08T08:47:20Z</time>
      </trkpt>
      <trkpt lat="44.38864" lon="4.81742">
        <ele>275.3</ele>
        <time>2015-03-08T08:47:24Z</time>
      </trkpt>
      <trkpt lat="44.38873" lon="4.81749">
        <ele>275.3</ele>
        <time>2015-03-08T08:47:27Z</time>
      </trkpt>
      <trkpt lat="44.38882" lon="4.81752">
        <ele>275.3</ele>
        <time>2015-03-08T08:47:30Z</time>
      </trkpt>
      <trkpt lat="44.38891" lon="4.81756">
        <ele>275.4</ele>
        <time>2015-03-08T08:47:34Z</time>
      </trkpt>
      <trkpt lat="44.38898" lon="4.81764">
        <ele>275.4</ele>
        <time>2015-03-08T08:47:38Z</time>
      </trkpt>
      <trkpt lat="44.38903" lon="4.81777">
        <ele>275.6</ele>
        <time>2015-03-08T08:47:42Z</time>
      </trkpt>
      <trkpt lat="44.38908" lon="4.81793">
        <ele>276.1</ele>
        <time>2015-03-08T08:47:46Z</time>
      </trkpt>
      <trkpt lat="44.38911" lon="4.81805">
        <ele>276.6</ele>
        <time>2015-03-08T08:47:49Z</time>
      </trkpt>
      <trkpt lat="44.38915" lon="4.81817">
        <ele>277.3</ele>
        <time>2015-03-08T08:47:52Z</time>
      </trkpt>
      <trkpt lat="44.38919" lon="4.81829">
        <ele>277.9</ele>
        <time>2015-03-08T08:47:55Z</time>
      </trkpt>
      <trkpt lat="44.38923" lon="4.8184">
        <ele>278.4</ele>
        <time>2015-03-08T08:47:58Z</time>
      </trkpt>
      <trkpt lat="44.38928" lon="4.81851">
        <ele>278.7</ele>
        <time>2015-03-08T08:48:01Z</time>
      </trkpt>
      <trkpt lat="44.38934" lon="4.81866">
        <ele>279.4</ele>
        <time>2015-03-08T08:48:05Z</time>
      </trkpt>
      <trkpt lat="44.38936" lon="4.81878">
        <ele>279.8</ele>
        <time>2015-03-08T08:48:08Z</time>
      </trkpt>
      <trkpt lat="44.38934" lon="4.81893">
        <ele>280.6</ele>
        <time>2015-03-08T08:48:12Z</time>
      </trkpt>
      <trkpt lat="44.38925" lon="4.81902">
        <ele>281.2</ele>
        <time>2015-03-08T08:48:16Z</time>
      </trkpt>
      <trkpt lat="44.38915" lon="4.81911">
        <ele>282.1</ele>
        <time>2015-03-08T08:48:20Z</time>
      </trkpt>
      <trkpt lat="44.38909" lon="4.81923">
        <ele>282.9</ele>
        <time>2015-03-08T08:48:24Z</time>
      </trkpt>
      <trkpt lat="44.38905" lon="4.81937">
        <ele>283.5</ele>
        <time>2015-03-08T08:48:28Z</time>
      </trkpt>
      <trkpt lat="44.38902" lon="4.81952">
        <ele>284</ele>
        <time>2015-03-08T08:48:32Z</time>
      </trkpt>
      <trkpt lat="44.38901" lon="4.81968">
        <ele>284.6</ele>
        <time>2015-03-08T08:48:36Z</time>
      </trkpt>
      <trkpt lat="44.38901" lon="4.81983">
        <ele>285.3</ele>
        <time>2015-03-08T08:48:40Z</time>
      </trkpt>
      <trkpt lat="44.38902" lon="4.81997">
        <ele>285.9</ele>
        <time>2015-03-08T08:48:44Z</time>
      </trkpt>
      <trkpt lat="44.38903" lon="4.82011">
        <ele>286.4</ele>
        <time>2015-03-08T08:48:48Z</time>
      </trkpt>
      <trkpt lat="44.38905" lon="4.82024">
        <ele>286.8</ele>
        <time>2015-03-08T08:48:52Z</time>
      </trkpt>
      <trkpt lat="44.38907" lon="4.82038">
        <ele>287.3</ele>
        <time>2015-03-08T08:48:57Z</time>
      </trkpt>
      <trkpt lat="44.3891" lon="4.82051">
        <ele>288</ele>
        <time>2015-03-08T08:49:02Z</time>
      </trkpt>
      <trkpt lat="44.38913" lon="4.82064">
        <ele>288.8</ele>
        <time>2015-03-08T08:49:07Z</time>
      </trkpt>
      <trkpt lat="44.38916" lon="4.82077">
        <ele>289.7</ele>
        <time>2015-03-08T08:49:12Z</time>
      </trkpt>
      <trkpt lat="44.3892" lon="4.8209">
        <ele>291.3</ele>
        <time>2015-03-08T08:49:18Z</time>
      </trkpt>
      <trkpt lat="44.38925" lon="4.82103">
        <ele>292.5</ele>
        <time>2015-03-08T08:49:24Z</time>
      </trkpt>
      <trkpt lat="44.38932" lon="4.82114">
        <ele>294</ele>
        <time>2015-03-08T08:49:30Z</time>
      </trkpt>
      <trkpt lat="44.38938" lon="4.82124">
        <ele>295.1</ele>
        <time>2015-03-08T08:49:36Z</time>
      </trkpt>
      <trkpt lat="44.38945" lon="4.82133">
        <ele>296.2</ele>
        <time>2015-03-08T08:49:42Z</time>
      </trkpt>
      <trkpt lat="44.38952" lon="4.82142">
        <ele>297.2</ele>
        <time>2015-03-08T08:49:48Z</time>
      </trkpt>
      <trkpt lat="44.3896" lon="4.82151">
        <ele>298.4</ele>
        <time>2015-03-08T08:49:54Z</time>
      </trkpt>
      <trkpt lat="44.38968" lon="4.82159">
        <ele>299.4</ele>
        <time>2015-03-08T08:50:00Z</time>
      </trkpt>
      <trkpt lat="44.38976" lon="4.82168">
        <ele>300.4</ele>
        <time>2015-03-08T08:50:06Z</time>
      </trkpt>
      <trkpt lat="44.38984" lon="4.82177">
        <ele>301.4</ele>
        <time>2015-03-08T08:50:12Z</time>
      </trkpt>
      <trkpt lat="44.38991" lon="4.82187">
        <ele>302.6</ele>
        <time>2015-03-08T08:50:18Z</time>
      </trkpt>
      <trkpt lat="44.38999" lon="4.82195">
        <ele>303.3</ele>
        <time>2015-03-08T08:50:23Z</time>
      </trkpt>
      <trkpt lat="44.39006" lon="4.82203">
        <ele>304</ele>
        <time>2015-03-08T08:50:28Z</time>
      </trkpt>
      <trkpt lat="44.39014" lon="4.82211">
        <ele>305</ele>
        <time>2015-03-08T08:50:33Z</time>
      </trkpt>
      <trkpt lat="44.39022" lon="4.82219">
        <ele>306.1</ele>
        <time>2015-03-08T08:50:38Z</time>
      </trkpt>
      <trkpt lat="44.3903" lon="4.82227">
        <ele>306.8</ele>
        <time>2015-03-08T08:50:43Z</time>
      </trkpt>
      <trkpt lat="44.39039" lon="4.82234">
        <ele>307.5</ele>
        <time>2015-03-08T08:50:49Z</time>
      </trkpt>
      <trkpt lat="44.39047" lon="4.82239">
        <ele>308.4</ele>
        <time>2015-03-08T08:50:54Z</time>
      </trkpt>
      <trkpt lat="44.39056" lon="4.82244">
        <ele>309.2</ele>
        <time>2015-03-08T08:50:59Z</time>
      </trkpt>
      <trkpt lat="44.39065" lon="4.8225">
        <ele>309.8</ele>
        <time>2015-03-08T08:51:04Z</time>
      </trkpt>
      <trkpt lat="44.39073" lon="4.82255">
        <ele>310.3</ele>
        <time>2015-03-08T08:51:09Z</time>
      </trkpt>
      <trkpt lat="44.39082" lon="4.82262">
        <ele>311.1</ele>
        <time>2015-03-08T08:51:15Z</time>
      </trkpt>
      <trkpt lat="44.39091" lon="4.8227">
        <ele>312.1</ele>
        <time>2015-03-08T08:51:21Z</time>
      </trkpt>
      <trkpt lat="44.391" lon="4.82275">
        <ele>312.9</ele>
        <time>2015-03-08T08:51:26Z</time>
      </trkpt>
      <trkpt lat="44.39109" lon="4.82281">
        <ele>313.7</ele>
        <time>2015-03-08T08:51:32Z</time>
      </trkpt>
      <trkpt lat="44.39118" lon="4.82286">
        <ele>314.7</ele>
        <time>2015-03-08T08:51:38Z</time>
      </trkpt>
      <trkpt lat="44.39127" lon="4.82291">
        <ele>315.6</ele>
        <time>2015-03-08T08:51:44Z</time>
      </trkpt>
      <trkpt lat="44.39136" lon="4.82296">
        <ele>316.6</ele>
        <time>2015-03-08T08:51:50Z</time>
      </trkpt>
      <trkpt lat="44.39145" lon="4.82302">
        <ele>317.8</ele>
        <time>2015-03-08T08:51:56Z</time>
      </trkpt>
      <trkpt lat="44.39153" lon="4.82311">
        <ele>318.7</ele>
        <time>2015-03-08T08:52:03Z</time>
      </trkpt>
      <trkpt lat="44.39159" lon="4.82324">
        <ele>319.8</ele>
        <time>2015-03-08T08:52:09Z</time>
      </trkpt>
      <trkpt lat="44.39162" lon="4.82338">
        <ele>321</ele>
        <time>2015-03-08T08:52:14Z</time>
      </trkpt>
      <trkpt lat="44.39166" lon="4.82351">
        <ele>321.8</ele>
        <time>2015-03-08T08:52:18Z</time>
      </trkpt>
      <trkpt lat="44.39173" lon="4.82363">
        <ele>322.4</ele>
        <time>2015-03-08T08:52:22Z</time>
      </trkpt>
      <trkpt lat="44.39181" lon="4.82372">
        <ele>322.7</ele>
        <time>2015-03-08T08:52:26Z</time>
      </trkpt>
      <trkpt lat="44.3919" lon="4.82384">
        <ele>323</ele>
        <time>2015-03-08T08:52:30Z</time>
      </trkpt>
      <trkpt lat="44.39199" lon="4.82392">
        <ele>323.1</ele>
        <time>2015-03-08T08:52:34Z</time>
      </trkpt>
      <trkpt lat="44.3921" lon="4.82396">
        <ele>323.2</ele>
        <time>2015-03-08T08:52:38Z</time>
      </trkpt>
      <trkpt lat="44.39218" lon="4.82402">
        <ele>323.3</ele>
        <time>2015-03-08T08:52:41Z</time>
      </trkpt>
      <trkpt lat="44.39225" lon="4.82411">
        <ele>323.4</ele>
        <time>2015-03-08T08:52:44Z</time>
      </trkpt>
      <trkpt lat="44.39233" lon="4.82422">
        <ele>323.5</ele>
        <time>2015-03-08T08:52:48Z</time>
      </trkpt>
      <trkpt lat="44.39242" lon="4.82431">
        <ele>323.7</ele>
        <time>2015-03-08T08:52:52Z</time>
      </trkpt>
      <trkpt lat="44.39252" lon="4.82441">
        <ele>323.8</ele>
        <time>2015-03-08T08:52:56Z</time>
      </trkpt>
      <trkpt lat="44.3926" lon="4.82448">
        <ele>323.9</ele>
        <time>2015-03-08T08:52:59Z</time>
      </trkpt>
      <trkpt lat="44.39268" lon="4.82454">
        <ele>323.9</ele>
        <time>2015-03-08T08:53:02Z</time>
      </trkpt>
      <trkpt lat="44.39279" lon="4.82458">
        <ele>324</ele>
        <time>2015-03-08T08:53:05Z</time>
      </trkpt>
      <trkpt lat="44.3929" lon="4.82462">
        <ele>324</ele>
        <time>2015-03-08T08:53:08Z</time>
      </trkpt>
      <trkpt lat="44.39302" lon="4.82462">
        <ele>324.1</ele>
        <time>2015-03-08T08:53:11Z</time>
      </trkpt>
      <trkpt lat="44.39312" lon="4.82465">
        <ele>324.1</ele>
        <time>2015-03-08T08:53:14Z</time>
      </trkpt>
      <trkpt lat="44.39321" lon="4.82471">
        <ele>324</ele>
        <time>2015-03-08T08:53:17Z</time>
      </trkpt>
      <trkpt lat="44.39331" lon="4.82478">
        <ele>324</ele>
        <time>2015-03-08T08:53:20Z</time>
      </trkpt>
      <trkpt lat="44.39342" lon="4.82483">
        <ele>324.1</ele>
        <time>2015-03-08T08:53:23Z</time>
      </trkpt>
      <trkpt lat="44.39353" lon="4.82489">
        <ele>324.1</ele>
        <time>2015-03-08T08:53:26Z</time>
      </trkpt>
      <trkpt lat="44.39363" lon="4.82495">
        <ele>324.1</ele>
        <time>2015-03-08T08:53:29Z</time>
      </trkpt>
      <trkpt lat="44.39375" lon="4.82501">
        <ele>324.3</ele>
        <time>2015-03-08T08:53:32Z</time>
      </trkpt>
      <trkpt lat="44.39385" lon="4.82504">
        <ele>324.5</ele>
        <time>2015-03-08T08:53:35Z</time>
      </trkpt>
      <trkpt lat="44.39395" lon="4.82508">
        <ele>324.6</ele>
        <time>2015-03-08T08:53:38Z</time>
      </trkpt>
      <trkpt lat="44.39405" lon="4.82513">
        <ele>324.8</ele>
        <time>2015-03-08T08:53:41Z</time>
      </trkpt>
      <trkpt lat="44.39416" lon="4.8252">
        <ele>324.9</ele>
        <time>2015-03-08T08:53:44Z</time>
      </trkpt>
      <trkpt lat="44.39427" lon="4.82531">
        <ele>325</ele>
        <time>2015-03-08T08:53:47Z</time>
      </trkpt>
      <trkpt lat="44.39437" lon="4.82542">
        <ele>324.9</ele>
        <time>2015-03-08T08:53:50Z</time>
      </trkpt>
      <trkpt lat="44.39446" lon="4.82554">
        <ele>324.9</ele>
        <time>2015-03-08T08:53:53Z</time>
      </trkpt>
      <trkpt lat="44.39452" lon="4.82568">
        <ele>324.8</ele>
        <time>2015-03-08T08:53:56Z</time>
      </trkpt>
      <trkpt lat="44.39459" lon="4.82582">
        <ele>324.8</ele>
        <time>2015-03-08T08:53:59Z</time>
      </trkpt>
      <trkpt lat="44.39466" lon="4.82595">
        <ele>324.8</ele>
        <time>2015-03-08T08:54:02Z</time>
      </trkpt>
      <trkpt lat="44.39477" lon="4.82605">
        <ele>324.7</ele>
        <time>2015-03-08T08:54:05Z</time>
      </trkpt>
      <trkpt lat="44.39487" lon="4.82616">
        <ele>324.6</ele>
        <time>2015-03-08T08:54:08Z</time>
      </trkpt>
      <trkpt lat="44.39493" lon="4.82626">
        <ele>324.5</ele>
        <time>2015-03-08T08:54:10Z</time>
      </trkpt>
      <trkpt lat="44.39499" lon="4.82637">
        <ele>324.5</ele>
        <time>2015-03-08T08:54:12Z</time>
      </trkpt>
      <trkpt lat="44.39504" lon="4.82647">
        <ele>324.5</ele>
        <time>2015-03-08T08:54:14Z</time>
      </trkpt>
      <trkpt lat="44.39511" lon="4.82656">
        <ele>324.5</ele>
        <time>2015-03-08T08:54:16Z</time>
      </trkpt>
      <trkpt lat="44.39519" lon="4.82662">
        <ele>324.5</ele>
        <time>2015-03-08T08:54:18Z</time>
      </trkpt>
      <trkpt lat="44.39529" lon="4.82667">
        <ele>324.4</ele>
        <time>2015-03-08T08:54:20Z</time>
      </trkpt>
      <trkpt lat="44.39538" lon="4.82669">
        <ele>324.3</ele>
        <time>2015-03-08T08:54:22Z</time>
      </trkpt>
      <trkpt lat="44.39547" lon="4.82672">
        <ele>324.3</ele>
        <time>2015-03-08T08:54:24Z</time>
      </trkpt>
      <trkpt lat="44.39559" lon="4.82678">
        <ele>324.1</ele>
        <time>2015-03-08T08:54:27Z</time>
      </trkpt>
      <trkpt lat="44.3957" lon="4.82689">
        <ele>324</ele>
        <time>2015-03-08T08:54:30Z</time>
      </trkpt>
      <trkpt lat="44.3958" lon="4.82701">
        <ele>323.9</ele>
        <time>2015-03-08T08:54:33Z</time>
      </trkpt>
      <trkpt lat="44.3959" lon="4.82708">
        <ele>323.8</ele>
        <time>2015-03-08T08:54:36Z</time>
      </trkpt>
      <trkpt lat="44.39602" lon="4.82713">
        <ele>323.7</ele>
        <time>2015-03-08T08:54:39Z</time>
      </trkpt>
      <trkpt lat="44.39614" lon="4.82718">
        <ele>323.5</ele>
        <time>2015-03-08T08:54:42Z</time>
      </trkpt>
      <trkpt lat="44.39623" lon="4.82722">
        <ele>323.3</ele>
        <time>2015-03-08T08:54:44Z</time>
      </trkpt>
      <trkpt lat="44.39632" lon="4.82726">
        <ele>323.2</ele>
        <time>2015-03-08T08:54:46Z</time>
      </trkpt>
      <trkpt lat="44.39641" lon="4.8273">
        <ele>323.1</ele>
        <time>2015-03-08T08:54:48Z</time>
      </trkpt>
      <trkpt lat="44.39653" lon="4.82736">
        <ele>323</ele>
        <time>2015-03-08T08:54:51Z</time>
      </trkpt>
      <trkpt lat="44.39661" lon="4.82743">
        <ele>322.9</ele>
        <time>2015-03-08T08:54:54Z</time>
      </trkpt>
      <trkpt lat="44.39662" lon="4.82758">
        <ele>322.9</ele>
        <time>2015-03-08T08:54:57Z</time>
      </trkpt>
      <trkpt lat="44.39663" lon="4.82775">
        <ele>322.9</ele>
        <time>2015-03-08T08:55:00Z</time>
      </trkpt>
      <trkpt lat="44.39664" lon="4.82793">
        <ele>322.9</ele>
        <time>2015-03-08T08:55:03Z</time>
      </trkpt>
      <trkpt lat="44.39665" lon="4.82806">
        <ele>322.8</ele>
        <time>2015-03-08T08:55:05Z</time>
      </trkpt>
      <trkpt lat="44.39666" lon="4.82819">
        <ele>322.6</ele>
        <time>2015-03-08T08:55:07Z</time>
      </trkpt>
      <trkpt lat="44.39666" lon="4.82832">
        <ele>322.3</ele>
        <time>2015-03-08T08:55:09Z</time>
      </trkpt>
      <trkpt lat="44.39665" lon="4.82845">
        <ele>322.1</ele>
        <time>2015-03-08T08:55:11Z</time>
      </trkpt>
      <trkpt lat="44.39662" lon="4.82857">
        <ele>321.8</ele>
        <time>2015-03-08T08:55:13Z</time>
      </trkpt>
      <trkpt lat="44.39656" lon="4.82872">
        <ele>321.3</ele>
        <time>2015-03-08T08:55:16Z</time>
      </trkpt>
      <trkpt lat="44.39647" lon="4.82881">
        <ele>321.1</ele>
        <time>2015-03-08T08:55:19Z</time>
      </trkpt>
      <trkpt lat="44.39634" lon="4.82886">
        <ele>321</ele>
        <time>2015-03-08T08:55:22Z</time>
      </trkpt>
      <trkpt lat="44.39625" lon="4.82889">
        <ele>321</ele>
        <time>2015-03-08T08:55:24Z</time>
      </trkpt>
      <trkpt lat="44.39616" lon="4.8289">
        <ele>320.9</ele>
        <time>2015-03-08T08:55:26Z</time>
      </trkpt>
      <trkpt lat="44.39603" lon="4.82892">
        <ele>320.7</ele>
        <time>2015-03-08T08:55:29Z</time>
      </trkpt>
      <trkpt lat="44.39591" lon="4.82898">
        <ele>320.5</ele>
        <time>2015-03-08T08:55:32Z</time>
      </trkpt>
      <trkpt lat="44.39583" lon="4.82906">
        <ele>320.3</ele>
        <time>2015-03-08T08:55:35Z</time>
      </trkpt>
      <trkpt lat="44.39577" lon="4.82916">
        <ele>320.2</ele>
        <time>2015-03-08T08:55:38Z</time>
      </trkpt>
      <trkpt lat="44.39571" lon="4.8293">
        <ele>319.9</ele>
        <time>2015-03-08T08:55:41Z</time>
      </trkpt>
      <trkpt lat="44.39568" lon="4.82946">
        <ele>319.7</ele>
        <time>2015-03-08T08:55:44Z</time>
      </trkpt>
      <trkpt lat="44.39565" lon="4.82961">
        <ele>319.6</ele>
        <time>2015-03-08T08:55:47Z</time>
      </trkpt>
      <trkpt lat="44.39563" lon="4.82975">
        <ele>319.3</ele>
        <time>2015-03-08T08:55:50Z</time>
      </trkpt>
      <trkpt lat="44.39561" lon="4.82991">
        <ele>318.9</ele>
        <time>2015-03-08T08:55:53Z</time>
      </trkpt>
      <trkpt lat="44.3956" lon="4.83006">
        <ele>318.3</ele>
        <time>2015-03-08T08:55:56Z</time>
      </trkpt>
      <trkpt lat="44.39556" lon="4.83023">
        <ele>317.9</ele>
        <time>2015-03-08T08:55:59Z</time>
      </trkpt>
      <trkpt lat="44.39549" lon="4.83035">
        <ele>317.5</ele>
        <time>2015-03-08T08:56:02Z</time>
      </trkpt>
      <trkpt lat="44.39549" lon="4.8305">
        <ele>317</ele>
        <time>2015-03-08T08:56:05Z</time>
      </trkpt>
      <trkpt lat="44.39557" lon="4.83065">
        <ele>316.5</ele>
        <time>2015-03-08T08:56:08Z</time>
      </trkpt>
      <trkpt lat="44.39563" lon="4.83081">
        <ele>316.1</ele>
        <time>2015-03-08T08:56:11Z</time>
      </trkpt>
      <trkpt lat="44.39566" lon="4.83099">
        <ele>315.8</ele>
        <time>2015-03-08T08:56:14Z</time>
      </trkpt>
      <trkpt lat="44.39565" lon="4.83117">
        <ele>315.4</ele>
        <time>2015-03-08T08:56:17Z</time>
      </trkpt>
      <trkpt lat="44.39564" lon="4.8313">
        <ele>315</ele>
        <time>2015-03-08T08:56:19Z</time>
      </trkpt>
      <trkpt lat="44.39564" lon="4.83148">
        <ele>314.4</ele>
        <time>2015-03-08T08:56:22Z</time>
      </trkpt>
      <trkpt lat="44.39562" lon="4.83164">
        <ele>313.7</ele>
        <time>2015-03-08T08:56:25Z</time>
      </trkpt>
      <trkpt lat="44.39559" lon="4.8318">
        <ele>313</ele>
        <time>2015-03-08T08:56:28Z</time>
      </trkpt>
      <trkpt lat="44.39554" lon="4.83195">
        <ele>312.4</ele>
        <time>2015-03-08T08:56:31Z</time>
      </trkpt>
      <trkpt lat="44.39549" lon="4.83206">
        <ele>312</ele>
        <time>2015-03-08T08:56:33Z</time>
      </trkpt>
      <trkpt lat="44.39544" lon="4.83217">
        <ele>311.5</ele>
        <time>2015-03-08T08:56:35Z</time>
      </trkpt>
      <trkpt lat="44.39537" lon="4.83233">
        <ele>310.9</ele>
        <time>2015-03-08T08:56:38Z</time>
      </trkpt>
      <trkpt lat="44.39534" lon="4.83246">
        <ele>310.4</ele>
        <time>2015-03-08T08:56:40Z</time>
      </trkpt>
      <trkpt lat="44.3953" lon="4.83259">
        <ele>310</ele>
        <time>2015-03-08T08:56:42Z</time>
      </trkpt>
      <trkpt lat="44.39526" lon="4.8327">
        <ele>309.6</ele>
        <time>2015-03-08T08:56:44Z</time>
      </trkpt>
      <trkpt lat="44.39527" lon="4.83287">
        <ele>309.2</ele>
        <time>2015-03-08T08:56:47Z</time>
      </trkpt>
      <trkpt lat="44.39531" lon="4.83304">
        <ele>308.8</ele>
        <time>2015-03-08T08:56:50Z</time>
      </trkpt>
      <trkpt lat="44.39533" lon="4.83319">
        <ele>308.4</ele>
        <time>2015-03-08T08:56:53Z</time>
      </trkpt>
      <trkpt lat="44.3954" lon="4.83334">
        <ele>308.2</ele>
        <time>2015-03-08T08:56:56Z</time>
      </trkpt>
      <trkpt lat="44.39546" lon="4.83347">
        <ele>307.9</ele>
        <time>2015-03-08T08:56:59Z</time>
      </trkpt>
      <trkpt lat="44.39549" lon="4.83362">
        <ele>307.7</ele>
        <time>2015-03-08T08:57:02Z</time>
      </trkpt>
      <trkpt lat="44.39556" lon="4.83376">
        <ele>307.4</ele>
        <time>2015-03-08T08:57:05Z</time>
      </trkpt>
      <trkpt lat="44.39565" lon="4.83388">
        <ele>307</ele>
        <time>2015-03-08T08:57:08Z</time>
      </trkpt>
      <trkpt lat="44.39574" lon="4.83401">
        <ele>306.5</ele>
        <time>2015-03-08T08:57:11Z</time>
      </trkpt>
      <trkpt lat="44.39584" lon="4.83412">
        <ele>305.9</ele>
        <time>2015-03-08T08:57:14Z</time>
      </trkpt>
      <trkpt lat="44.39592" lon="4.83422">
        <ele>305.4</ele>
        <time>2015-03-08T08:57:17Z</time>
      </trkpt>
      <trkpt lat="44.39604" lon="4.83428">
        <ele>305</ele>
        <time>2015-03-08T08:57:20Z</time>
      </trkpt>
      <trkpt lat="44.39613" lon="4.83434">
        <ele>304.8</ele>
        <time>2015-03-08T08:57:22Z</time>
      </trkpt>
      <trkpt lat="44.39622" lon="4.83439">
        <ele>304.6</ele>
        <time>2015-03-08T08:57:24Z</time>
      </trkpt>
      <trkpt lat="44.39634" lon="4.83446">
        <ele>304.4</ele>
        <time>2015-03-08T08:57:27Z</time>
      </trkpt>
      <trkpt lat="44.39645" lon="4.83451">
        <ele>304.2</ele>
        <time>2015-03-08T08:57:30Z</time>
      </trkpt>
      <trkpt lat="44.39655" lon="4.83459">
        <ele>304</ele>
        <time>2015-03-08T08:57:33Z</time>
      </trkpt>
      <trkpt lat="44.39665" lon="4.83469">
        <ele>303.9</ele>
        <time>2015-03-08T08:57:36Z</time>
      </trkpt>
      <trkpt lat="44.39676" lon="4.83476">
        <ele>303.6</ele>
        <time>2015-03-08T08:57:39Z</time>
      </trkpt>
      <trkpt lat="44.39688" lon="4.83482">
        <ele>303.6</ele>
        <time>2015-03-08T08:57:42Z</time>
      </trkpt>
      <trkpt lat="44.39701" lon="4.83487">
        <ele>303.6</ele>
        <time>2015-03-08T08:57:45Z</time>
      </trkpt>
      <trkpt lat="44.39712" lon="4.83491">
        <ele>303.6</ele>
        <time>2015-03-08T08:57:48Z</time>
      </trkpt>
      <trkpt lat="44.39723" lon="4.8349">
        <ele>303.6</ele>
        <time>2015-03-08T08:57:51Z</time>
      </trkpt>
      <trkpt lat="44.39734" lon="4.83491">
        <ele>303.6</ele>
        <time>2015-03-08T08:57:54Z</time>
      </trkpt>
      <trkpt lat="44.39744" lon="4.83496">
        <ele>303.5</ele>
        <time>2015-03-08T08:57:57Z</time>
      </trkpt>
      <trkpt lat="44.39754" lon="4.83501">
        <ele>303.4</ele>
        <time>2015-03-08T08:58:00Z</time>
      </trkpt>
      <trkpt lat="44.39763" lon="4.83505">
        <ele>303.3</ele>
        <time>2015-03-08T08:58:03Z</time>
      </trkpt>
      <trkpt lat="44.39772" lon="4.83516">
        <ele>303.3</ele>
        <time>2015-03-08T08:58:07Z</time>
      </trkpt>
      <trkpt lat="44.39779" lon="4.83527">
        <ele>303.1</ele>
        <time>2015-03-08T08:58:10Z</time>
      </trkpt>
      <trkpt lat="44.39788" lon="4.83535">
        <ele>302.9</ele>
        <time>2015-03-08T08:58:13Z</time>
      </trkpt>
      <trkpt lat="44.39794" lon="4.83545">
        <ele>302.8</ele>
        <time>2015-03-08T08:58:16Z</time>
      </trkpt>
      <trkpt lat="44.39799" lon="4.83559">
        <ele>302.5</ele>
        <time>2015-03-08T08:58:20Z</time>
      </trkpt>
      <trkpt lat="44.39807" lon="4.83565">
        <ele>302</ele>
        <time>2015-03-08T08:58:23Z</time>
      </trkpt>
      <trkpt lat="44.39815" lon="4.83573">
        <ele>301.6</ele>
        <time>2015-03-08T08:58:26Z</time>
      </trkpt>
      <trkpt lat="44.39822" lon="4.83586">
        <ele>301.3</ele>
        <time>2015-03-08T08:58:29Z</time>
      </trkpt>
      <trkpt lat="44.39826" lon="4.83598">
        <ele>301.1</ele>
        <time>2015-03-08T08:58:31Z</time>
      </trkpt>
      <trkpt lat="44.39832" lon="4.83615">
        <ele>300.8</ele>
        <time>2015-03-08T08:58:34Z</time>
      </trkpt>
      <trkpt lat="44.39837" lon="4.83629">
        <ele>300.6</ele>
        <time>2015-03-08T08:58:37Z</time>
      </trkpt>
      <trkpt lat="44.39841" lon="4.83641">
        <ele>300.1</ele>
        <time>2015-03-08T08:58:40Z</time>
      </trkpt>
      <trkpt lat="44.39847" lon="4.83653">
        <ele>299.7</ele>
        <time>2015-03-08T08:58:43Z</time>
      </trkpt>
      <trkpt lat="44.39854" lon="4.83666">
        <ele>299.1</ele>
        <time>2015-03-08T08:58:46Z</time>
      </trkpt>
      <trkpt lat="44.39858" lon="4.83682">
        <ele>298.5</ele>
        <time>2015-03-08T08:58:49Z</time>
      </trkpt>
      <trkpt lat="44.39861" lon="4.83697">
        <ele>297.9</ele>
        <time>2015-03-08T08:58:52Z</time>
      </trkpt>
      <trkpt lat="44.39863" lon="4.83712">
        <ele>297.4</ele>
        <time>2015-03-08T08:58:55Z</time>
      </trkpt>
      <trkpt lat="44.39865" lon="4.83728">
        <ele>296.7</ele>
        <time>2015-03-08T08:58:58Z</time>
      </trkpt>
      <trkpt lat="44.39868" lon="4.83744">
        <ele>296</ele>
        <time>2015-03-08T08:59:01Z</time>
      </trkpt>
      <trkpt lat="44.3987" lon="4.83759">
        <ele>295.5</ele>
        <time>2015-03-08T08:59:04Z</time>
      </trkpt>
      <trkpt lat="44.39878" lon="4.8377">
        <ele>294.9</ele>
        <time>2015-03-08T08:59:08Z</time>
      </trkpt>
      <trkpt lat="44.39884" lon="4.83781">
        <ele>293.2</ele>
        <time>2015-03-08T08:59:19Z</time>
      </trkpt>
      <trkpt lat="44.39885" lon="4.83795">
        <ele>292.9</ele>
        <time>2015-03-08T08:59:23Z</time>
      </trkpt>
      <trkpt lat="44.39887" lon="4.83809">
        <ele>292.7</ele>
        <time>2015-03-08T08:59:26Z</time>
      </trkpt>
      <trkpt lat="44.39889" lon="4.83827">
        <ele>292.5</ele>
        <time>2015-03-08T08:59:29Z</time>
      </trkpt>
      <trkpt lat="44.39888" lon="4.8384">
        <ele>292.4</ele>
        <time>2015-03-08T08:59:31Z</time>
      </trkpt>
      <trkpt lat="44.39888" lon="4.83852">
        <ele>292.4</ele>
        <time>2015-03-08T08:59:33Z</time>
      </trkpt>
      <trkpt lat="44.39889" lon="4.83865">
        <ele>292.1</ele>
        <time>2015-03-08T08:59:35Z</time>
      </trkpt>
      <trkpt lat="44.3989" lon="4.83878">
        <ele>291.8</ele>
        <time>2015-03-08T08:59:37Z</time>
      </trkpt>
      <trkpt lat="44.39892" lon="4.8389">
        <ele>291.5</ele>
        <time>2015-03-08T08:59:39Z</time>
      </trkpt>
      <trkpt lat="44.39893" lon="4.83903">
        <ele>291.3</ele>
        <time>2015-03-08T08:59:41Z</time>
      </trkpt>
      <trkpt lat="44.39895" lon="4.83917">
        <ele>291.1</ele>
        <time>2015-03-08T08:59:43Z</time>
      </trkpt>
      <trkpt lat="44.39898" lon="4.8393">
        <ele>290.9</ele>
        <time>2015-03-08T08:59:45Z</time>
      </trkpt>
      <trkpt lat="44.39901" lon="4.83944">
        <ele>290.7</ele>
        <time>2015-03-08T08:59:47Z</time>
      </trkpt>
      <trkpt lat="44.39902" lon="4.83958">
        <ele>290.5</ele>
        <time>2015-03-08T08:59:49Z</time>
      </trkpt>
      <trkpt lat="44.39904" lon="4.83973">
        <ele>290.3</ele>
        <time>2015-03-08T08:59:51Z</time>
      </trkpt>
      <trkpt lat="44.39906" lon="4.83987">
        <ele>290.1</ele>
        <time>2015-03-08T08:59:53Z</time>
      </trkpt>
      <trkpt lat="44.39908" lon="4.84">
        <ele>289.6</ele>
        <time>2015-03-08T08:59:55Z</time>
      </trkpt>
      <trkpt lat="44.3991" lon="4.84014">
        <ele>289.2</ele>
        <time>2015-03-08T08:59:57Z</time>
      </trkpt>
      <trkpt lat="44.39912" lon="4.84028">
        <ele>288.8</ele>
        <time>2015-03-08T08:59:59Z</time>
      </trkpt>
      <trkpt lat="44.39911" lon="4.84043">
        <ele>288.5</ele>
        <time>2015-03-08T09:00:01Z</time>
      </trkpt>
      <trkpt lat="44.39912" lon="4.84058">
        <ele>288.2</ele>
        <time>2015-03-08T09:00:03Z</time>
      </trkpt>
      <trkpt lat="44.39914" lon="4.84072">
        <ele>287.9</ele>
        <time>2015-03-08T09:00:05Z</time>
      </trkpt>
      <trkpt lat="44.39917" lon="4.84087">
        <ele>287.7</ele>
        <time>2015-03-08T09:00:07Z</time>
      </trkpt>
      <trkpt lat="44.39919" lon="4.84101">
        <ele>287.5</ele>
        <time>2015-03-08T09:00:09Z</time>
      </trkpt>
      <trkpt lat="44.39921" lon="4.84115">
        <ele>287.1</ele>
        <time>2015-03-08T09:00:11Z</time>
      </trkpt>
      <trkpt lat="44.39924" lon="4.84128">
        <ele>286.8</ele>
        <time>2015-03-08T09:00:13Z</time>
      </trkpt>
      <trkpt lat="44.39927" lon="4.84141">
        <ele>286.5</ele>
        <time>2015-03-08T09:00:15Z</time>
      </trkpt>
      <trkpt lat="44.3993" lon="4.84156">
        <ele>286.2</ele>
        <time>2015-03-08T09:00:17Z</time>
      </trkpt>
      <trkpt lat="44.39932" lon="4.8417">
        <ele>286</ele>
        <time>2015-03-08T09:00:19Z</time>
      </trkpt>
      <trkpt lat="44.39934" lon="4.84185">
        <ele>285.7</ele>
        <time>2015-03-08T09:00:21Z</time>
      </trkpt>
      <trkpt lat="44.39936" lon="4.842">
        <ele>285.2</ele>
        <time>2015-03-08T09:00:23Z</time>
      </trkpt>
      <trkpt lat="44.39939" lon="4.84215">
        <ele>284.6</ele>
        <time>2015-03-08T09:00:25Z</time>
      </trkpt>
      <trkpt lat="44.39943" lon="4.84231">
        <ele>284.1</ele>
        <time>2015-03-08T09:00:27Z</time>
      </trkpt>
      <trkpt lat="44.39946" lon="4.84247">
        <ele>283.7</ele>
        <time>2015-03-08T09:00:29Z</time>
      </trkpt>
      <trkpt lat="44.3995" lon="4.84264">
        <ele>283.3</ele>
        <time>2015-03-08T09:00:31Z</time>
      </trkpt>
      <trkpt lat="44.39953" lon="4.84281">
        <ele>282.8</ele>
        <time>2015-03-08T09:00:33Z</time>
      </trkpt>
      <trkpt lat="44.39956" lon="4.84299">
        <ele>282.3</ele>
        <time>2015-03-08T09:00:35Z</time>
      </trkpt>
      <trkpt lat="44.39961" lon="4.84314">
        <ele>281.7</ele>
        <time>2015-03-08T09:00:37Z</time>
      </trkpt>
      <trkpt lat="44.39967" lon="4.8433">
        <ele>281</ele>
        <time>2015-03-08T09:00:39Z</time>
      </trkpt>
      <trkpt lat="44.39973" lon="4.84345">
        <ele>280.2</ele>
        <time>2015-03-08T09:00:41Z</time>
      </trkpt>
      <trkpt lat="44.3998" lon="4.84358">
        <ele>279.4</ele>
        <time>2015-03-08T09:00:43Z</time>
      </trkpt>
      <trkpt lat="44.39986" lon="4.84372">
        <ele>278.8</ele>
        <time>2015-03-08T09:00:45Z</time>
      </trkpt>
      <trkpt lat="44.39992" lon="4.84385">
        <ele>278.2</ele>
        <time>2015-03-08T09:00:47Z</time>
      </trkpt>
      <trkpt lat="44.39998" lon="4.84398">
        <ele>277.7</ele>
        <time>2015-03-08T09:00:49Z</time>
      </trkpt>
      <trkpt lat="44.40003" lon="4.84413">
        <ele>277.3</ele>
        <time>2015-03-08T09:00:51Z</time>
      </trkpt>
      <trkpt lat="44.40009" lon="4.84427">
        <ele>276.7</ele>
        <time>2015-03-08T09:00:53Z</time>
      </trkpt>
      <trkpt lat="44.40015" lon="4.8444">
        <ele>276.2</ele>
        <time>2015-03-08T09:00:55Z</time>
      </trkpt>
      <trkpt lat="44.40021" lon="4.84454">
        <ele>275.8</ele>
        <time>2015-03-08T09:00:57Z</time>
      </trkpt>
      <trkpt lat="44.40027" lon="4.84467">
        <ele>275.4</ele>
        <time>2015-03-08T09:00:59Z</time>
      </trkpt>
      <trkpt lat="44.40033" lon="4.84479">
        <ele>275.1</ele>
        <time>2015-03-08T09:01:01Z</time>
      </trkpt>
      <trkpt lat="44.4004" lon="4.8449">
        <ele>274.6</ele>
        <time>2015-03-08T09:01:03Z</time>
      </trkpt>
      <trkpt lat="44.40048" lon="4.84502">
        <ele>274.1</ele>
        <time>2015-03-08T09:01:05Z</time>
      </trkpt>
      <trkpt lat="44.40055" lon="4.84513">
        <ele>273.7</ele>
        <time>2015-03-08T09:01:07Z</time>
      </trkpt>
      <trkpt lat="44.40062" lon="4.84525">
        <ele>273.2</ele>
        <time>2015-03-08T09:01:09Z</time>
      </trkpt>
      <trkpt lat="44.4007" lon="4.84538">
        <ele>272.8</ele>
        <time>2015-03-08T09:01:11Z</time>
      </trkpt>
      <trkpt lat="44.40077" lon="4.84552">
        <ele>272.4</ele>
        <time>2015-03-08T09:01:13Z</time>
      </trkpt>
      <trkpt lat="44.40084" lon="4.84562">
        <ele>271.9</ele>
        <time>2015-03-08T09:01:15Z</time>
      </trkpt>
      <trkpt lat="44.40092" lon="4.84575">
        <ele>271.2</ele>
        <time>2015-03-08T09:01:18Z</time>
      </trkpt>
      <trkpt lat="44.40097" lon="4.84586">
        <ele>270.5</ele>
        <time>2015-03-08T09:01:21Z</time>
      </trkpt>
      <trkpt lat="44.40097" lon="4.84601">
        <ele>269.7</ele>
        <time>2015-03-08T09:01:24Z</time>
      </trkpt>
      <trkpt lat="44.40093" lon="4.84618">
        <ele>269</ele>
        <time>2015-03-08T09:01:27Z</time>
      </trkpt>
      <trkpt lat="44.40087" lon="4.84635">
        <ele>268.5</ele>
        <time>2015-03-08T09:01:30Z</time>
      </trkpt>
      <trkpt lat="44.40087" lon="4.84647">
        <ele>268.2</ele>
        <time>2015-03-08T09:01:32Z</time>
      </trkpt>
      <trkpt lat="44.4009" lon="4.84665">
        <ele>267.7</ele>
        <time>2015-03-08T09:01:35Z</time>
      </trkpt>
      <trkpt lat="44.40096" lon="4.84681">
        <ele>267.3</ele>
        <time>2015-03-08T09:01:38Z</time>
      </trkpt>
      <trkpt lat="44.401" lon="4.84698">
        <ele>266.8</ele>
        <time>2015-03-08T09:01:41Z</time>
      </trkpt>
      <trkpt lat="44.40101" lon="4.84713">
        <ele>266.6</ele>
        <time>2015-03-08T09:01:43Z</time>
      </trkpt>
      <trkpt lat="44.40104" lon="4.84727">
        <ele>266.3</ele>
        <time>2015-03-08T09:01:45Z</time>
      </trkpt>
      <trkpt lat="44.40105" lon="4.84741">
        <ele>266</ele>
        <time>2015-03-08T09:01:47Z</time>
      </trkpt>
      <trkpt lat="44.40107" lon="4.84754">
        <ele>265.7</ele>
        <time>2015-03-08T09:01:49Z</time>
      </trkpt>
      <trkpt lat="44.40109" lon="4.84767">
        <ele>265.4</ele>
        <time>2015-03-08T09:01:51Z</time>
      </trkpt>
      <trkpt lat="44.4011" lon="4.8478">
        <ele>265</ele>
        <time>2015-03-08T09:01:53Z</time>
      </trkpt>
      <trkpt lat="44.40113" lon="4.84797">
        <ele>264.7</ele>
        <time>2015-03-08T09:01:56Z</time>
      </trkpt>
      <trkpt lat="44.40123" lon="4.84805">
        <ele>264.3</ele>
        <time>2015-03-08T09:01:59Z</time>
      </trkpt>
      <trkpt lat="44.40133" lon="4.84805">
        <ele>263.8</ele>
        <time>2015-03-08T09:02:02Z</time>
      </trkpt>
      <trkpt lat="44.40143" lon="4.84808">
        <ele>263.3</ele>
        <time>2015-03-08T09:02:05Z</time>
      </trkpt>
      <trkpt lat="44.40146" lon="4.8482">
        <ele>263</ele>
        <time>2015-03-08T09:02:07Z</time>
      </trkpt>
      <trkpt lat="44.4015" lon="4.84832">
        <ele>262.8</ele>
        <time>2015-03-08T09:02:09Z</time>
      </trkpt>
      <trkpt lat="44.40159" lon="4.84841">
        <ele>262.3</ele>
        <time>2015-03-08T09:02:12Z</time>
      </trkpt>
      <trkpt lat="44.40171" lon="4.84841">
        <ele>261.7</ele>
        <time>2015-03-08T09:02:15Z</time>
      </trkpt>
      <trkpt lat="44.40183" lon="4.84843">
        <ele>261.2</ele>
        <time>2015-03-08T09:02:18Z</time>
      </trkpt>
      <trkpt lat="44.40194" lon="4.84851">
        <ele>260.8</ele>
        <time>2015-03-08T09:02:21Z</time>
      </trkpt>
      <trkpt lat="44.40204" lon="4.84862">
        <ele>260.4</ele>
        <time>2015-03-08T09:02:24Z</time>
      </trkpt>
      <trkpt lat="44.40214" lon="4.84874">
        <ele>260.3</ele>
        <time>2015-03-08T09:02:27Z</time>
      </trkpt>
      <trkpt lat="44.40224" lon="4.84885">
        <ele>260.1</ele>
        <time>2015-03-08T09:02:30Z</time>
      </trkpt>
      <trkpt lat="44.40232" lon="4.84898">
        <ele>260</ele>
        <time>2015-03-08T09:02:33Z</time>
      </trkpt>
      <trkpt lat="44.40236" lon="4.8491">
        <ele>259.9</ele>
        <time>2015-03-08T09:02:36Z</time>
      </trkpt>
      <trkpt lat="44.4024" lon="4.84927">
        <ele>259.8</ele>
        <time>2015-03-08T09:02:39Z</time>
      </trkpt>
      <trkpt lat="44.40244" lon="4.84939">
        <ele>259.7</ele>
        <time>2015-03-08T09:02:41Z</time>
      </trkpt>
      <trkpt lat="44.40249" lon="4.84949">
        <ele>259.6</ele>
        <time>2015-03-08T09:02:43Z</time>
      </trkpt>
      <trkpt lat="44.40252" lon="4.84965">
        <ele>259.3</ele>
        <time>2015-03-08T09:02:46Z</time>
      </trkpt>
      <trkpt lat="44.40254" lon="4.84978">
        <ele>258.8</ele>
        <time>2015-03-08T09:02:48Z</time>
      </trkpt>
      <trkpt lat="44.40257" lon="4.84991">
        <ele>258.4</ele>
        <time>2015-03-08T09:02:50Z</time>
      </trkpt>
      <trkpt lat="44.40262" lon="4.85002">
        <ele>258.1</ele>
        <time>2015-03-08T09:02:52Z</time>
      </trkpt>
      <trkpt lat="44.40265" lon="4.85015">
        <ele>257.6</ele>
        <time>2015-03-08T09:02:54Z</time>
      </trkpt>
      <trkpt lat="44.40269" lon="4.85028">
        <ele>257.1</ele>
        <time>2015-03-08T09:02:56Z</time>
      </trkpt>
      <trkpt lat="44.40272" lon="4.85042">
        <ele>256.8</ele>
        <time>2015-03-08T09:02:58Z</time>
      </trkpt>
      <trkpt lat="44.40276" lon="4.85056">
        <ele>256.4</ele>
        <time>2015-03-08T09:03:00Z</time>
      </trkpt>
      <trkpt lat="44.40281" lon="4.85069">
        <ele>256.1</ele>
        <time>2015-03-08T09:03:02Z</time>
      </trkpt>
      <trkpt lat="44.40286" lon="4.85084">
        <ele>255.3</ele>
        <time>2015-03-08T09:03:04Z</time>
      </trkpt>
      <trkpt lat="44.40291" lon="4.85099">
        <ele>254.6</ele>
        <time>2015-03-08T09:03:06Z</time>
      </trkpt>
      <trkpt lat="44.40295" lon="4.85114">
        <ele>254</ele>
        <time>2015-03-08T09:03:08Z</time>
      </trkpt>
      <trkpt lat="44.40299" lon="4.85129">
        <ele>253.4</ele>
        <time>2015-03-08T09:03:10Z</time>
      </trkpt>
      <trkpt lat="44.40303" lon="4.85143">
        <ele>252.9</ele>
        <time>2015-03-08T09:03:12Z</time>
      </trkpt>
      <trkpt lat="44.40305" lon="4.85159">
        <ele>252.5</ele>
        <time>2015-03-08T09:03:14Z</time>
      </trkpt>
      <trkpt lat="44.40308" lon="4.85175">
        <ele>251.9</ele>
        <time>2015-03-08T09:03:16Z</time>
      </trkpt>
      <trkpt lat="44.40313" lon="4.85188">
        <ele>251.1</ele>
        <time>2015-03-08T09:03:18Z</time>
      </trkpt>
      <trkpt lat="44.40316" lon="4.85205">
        <ele>250.1</ele>
        <time>2015-03-08T09:03:21Z</time>
      </trkpt>
      <trkpt lat="44.40318" lon="4.85223">
        <ele>249.2</ele>
        <time>2015-03-08T09:03:24Z</time>
      </trkpt>
      <trkpt lat="44.40321" lon="4.85241">
        <ele>248.5</ele>
        <time>2015-03-08T09:03:27Z</time>
      </trkpt>
      <trkpt lat="44.40323" lon="4.85254">
        <ele>248</ele>
        <time>2015-03-08T09:03:29Z</time>
      </trkpt>
      <trkpt lat="44.40326" lon="4.85271">
        <ele>247.4</ele>
        <time>2015-03-08T09:03:32Z</time>
      </trkpt>
      <trkpt lat="44.40328" lon="4.85287">
        <ele>246.7</ele>
        <time>2015-03-08T09:03:35Z</time>
      </trkpt>
      <trkpt lat="44.40329" lon="4.853">
        <ele>246.3</ele>
        <time>2015-03-08T09:03:37Z</time>
      </trkpt>
      <trkpt lat="44.40331" lon="4.85313">
        <ele>246</ele>
        <time>2015-03-08T09:03:39Z</time>
      </trkpt>
      <trkpt lat="44.40324" lon="4.85329">
        <ele>245.5</ele>
        <time>2015-03-08T09:03:42Z</time>
      </trkpt>
      <trkpt lat="44.40325" lon="4.85346">
        <ele>244.9</ele>
        <time>2015-03-08T09:03:45Z</time>
      </trkpt>
      <trkpt lat="44.40332" lon="4.85356">
        <ele>244.5</ele>
        <time>2015-03-08T09:03:47Z</time>
      </trkpt>
      <trkpt lat="44.40339" lon="4.85367">
        <ele>244.1</ele>
        <time>2015-03-08T09:03:49Z</time>
      </trkpt>
      <trkpt lat="44.40344" lon="4.85378">
        <ele>243.8</ele>
        <time>2015-03-08T09:03:51Z</time>
      </trkpt>
      <trkpt lat="44.40351" lon="4.85394">
        <ele>243.2</ele>
        <time>2015-03-08T09:03:54Z</time>
      </trkpt>
      <trkpt lat="44.40354" lon="4.85408">
        <ele>242.9</ele>
        <time>2015-03-08T09:03:56Z</time>
      </trkpt>
      <trkpt lat="44.40357" lon="4.85422">
        <ele>242.6</ele>
        <time>2015-03-08T09:03:58Z</time>
      </trkpt>
      <trkpt lat="44.40361" lon="4.85436">
        <ele>242.2</ele>
        <time>2015-03-08T09:04:00Z</time>
      </trkpt>
      <trkpt lat="44.40365" lon="4.85451">
        <ele>241.7</ele>
        <time>2015-03-08T09:04:02Z</time>
      </trkpt>
      <trkpt lat="44.40368" lon="4.85465">
        <ele>241.3</ele>
        <time>2015-03-08T09:04:04Z</time>
      </trkpt>
      <trkpt lat="44.40371" lon="4.8548">
        <ele>240.8</ele>
        <time>2015-03-08T09:04:06Z</time>
      </trkpt>
      <trkpt lat="44.40376" lon="4.85494">
        <ele>240.4</ele>
        <time>2015-03-08T09:04:08Z</time>
      </trkpt>
      <trkpt lat="44.40382" lon="4.85508">
        <ele>239.9</ele>
        <time>2015-03-08T09:04:10Z</time>
      </trkpt>
      <trkpt lat="44.4039" lon="4.85521">
        <ele>239.4</ele>
        <time>2015-03-08T09:04:12Z</time>
      </trkpt>
      <trkpt lat="44.40399" lon="4.85533">
        <ele>239</ele>
        <time>2015-03-08T09:04:14Z</time>
      </trkpt>
      <trkpt lat="44.40408" lon="4.85542">
        <ele>238.6</ele>
        <time>2015-03-08T09:04:16Z</time>
      </trkpt>
      <trkpt lat="44.40413" lon="4.85555">
        <ele>238.2</ele>
        <time>2015-03-08T09:04:18Z</time>
      </trkpt>
      <trkpt lat="44.40417" lon="4.85568">
        <ele>237.9</ele>
        <time>2015-03-08T09:04:20Z</time>
      </trkpt>
      <trkpt lat="44.40422" lon="4.85582">
        <ele>237.6</ele>
        <time>2015-03-08T09:04:22Z</time>
      </trkpt>
      <trkpt lat="44.40425" lon="4.85597">
        <ele>237.4</ele>
        <time>2015-03-08T09:04:24Z</time>
      </trkpt>
      <trkpt lat="44.40428" lon="4.85609">
        <ele>237</ele>
        <time>2015-03-08T09:04:26Z</time>
      </trkpt>
      <trkpt lat="44.4043" lon="4.85628">
        <ele>236.5</ele>
        <time>2015-03-08T09:04:29Z</time>
      </trkpt>
      <trkpt lat="44.40431" lon="4.85641">
        <ele>236.1</ele>
        <time>2015-03-08T09:04:31Z</time>
      </trkpt>
      <trkpt lat="44.40432" lon="4.85654">
        <ele>235.7</ele>
        <time>2015-03-08T09:04:33Z</time>
      </trkpt>
      <trkpt lat="44.40433" lon="4.85667">
        <ele>235.2</ele>
        <time>2015-03-08T09:04:35Z</time>
      </trkpt>
      <trkpt lat="44.40435" lon="4.85682">
        <ele>234.8</ele>
        <time>2015-03-08T09:04:37Z</time>
      </trkpt>
      <trkpt lat="44.40438" lon="4.85695">
        <ele>234.3</ele>
        <time>2015-03-08T09:04:39Z</time>
      </trkpt>
      <trkpt lat="44.40442" lon="4.85711">
        <ele>233.8</ele>
        <time>2015-03-08T09:04:41Z</time>
      </trkpt>
      <trkpt lat="44.40445" lon="4.85727">
        <ele>233.2</ele>
        <time>2015-03-08T09:04:43Z</time>
      </trkpt>
      <trkpt lat="44.40447" lon="4.85743">
        <ele>232.6</ele>
        <time>2015-03-08T09:04:45Z</time>
      </trkpt>
      <trkpt lat="44.40451" lon="4.85758">
        <ele>232</ele>
        <time>2015-03-08T09:04:47Z</time>
      </trkpt>
      <trkpt lat="44.40453" lon="4.85773">
        <ele>231.4</ele>
        <time>2015-03-08T09:04:49Z</time>
      </trkpt>
      <trkpt lat="44.40456" lon="4.85786">
        <ele>230.9</ele>
        <time>2015-03-08T09:04:51Z</time>
      </trkpt>
      <trkpt lat="44.4046" lon="4.85804">
        <ele>230.1</ele>
        <time>2015-03-08T09:04:54Z</time>
      </trkpt>
      <trkpt lat="44.40464" lon="4.85816">
        <ele>229.7</ele>
        <time>2015-03-08T09:04:56Z</time>
      </trkpt>
      <trkpt lat="44.40466" lon="4.85829">
        <ele>229.2</ele>
        <time>2015-03-08T09:04:58Z</time>
      </trkpt>
      <trkpt lat="44.40469" lon="4.85842">
        <ele>228.8</ele>
        <time>2015-03-08T09:05:00Z</time>
      </trkpt>
      <trkpt lat="44.4047" lon="4.85856">
        <ele>228.4</ele>
        <time>2015-03-08T09:05:02Z</time>
      </trkpt>
      <trkpt lat="44.40473" lon="4.85869">
        <ele>227.8</ele>
        <time>2015-03-08T09:05:04Z</time>
      </trkpt>
      <trkpt lat="44.40476" lon="4.85883">
        <ele>227.2</ele>
        <time>2015-03-08T09:05:06Z</time>
      </trkpt>
      <trkpt lat="44.40479" lon="4.85897">
        <ele>226.5</ele>
        <time>2015-03-08T09:05:08Z</time>
      </trkpt>
      <trkpt lat="44.40482" lon="4.8591">
        <ele>225.8</ele>
        <time>2015-03-08T09:05:10Z</time>
      </trkpt>
      <trkpt lat="44.40484" lon="4.85924">
        <ele>225.2</ele>
        <time>2015-03-08T09:05:12Z</time>
      </trkpt>
      <trkpt lat="44.40487" lon="4.85938">
        <ele>224.7</ele>
        <time>2015-03-08T09:05:14Z</time>
      </trkpt>
      <trkpt lat="44.40489" lon="4.85953">
        <ele>224.2</ele>
        <time>2015-03-08T09:05:16Z</time>
      </trkpt>
      <trkpt lat="44.40491" lon="4.85968">
        <ele>223.4</ele>
        <time>2015-03-08T09:05:18Z</time>
      </trkpt>
      <trkpt lat="44.40493" lon="4.85983">
        <ele>222.7</ele>
        <time>2015-03-08T09:05:20Z</time>
      </trkpt>
      <trkpt lat="44.40496" lon="4.85997">
        <ele>222.1</ele>
        <time>2015-03-08T09:05:22Z</time>
      </trkpt>
      <trkpt lat="44.405" lon="4.86011">
        <ele>221.6</ele>
        <time>2015-03-08T09:05:24Z</time>
      </trkpt>
      <trkpt lat="44.40502" lon="4.86026">
        <ele>221.1</ele>
        <time>2015-03-08T09:05:26Z</time>
      </trkpt>
      <trkpt lat="44.40506" lon="4.8604">
        <ele>220.6</ele>
        <time>2015-03-08T09:05:28Z</time>
      </trkpt>
      <trkpt lat="44.40508" lon="4.86056">
        <ele>220.1</ele>
        <time>2015-03-08T09:05:30Z</time>
      </trkpt>
      <trkpt lat="44.4051" lon="4.86072">
        <ele>219.6</ele>
        <time>2015-03-08T09:05:32Z</time>
      </trkpt>
      <trkpt lat="44.40512" lon="4.86088">
        <ele>219.2</ele>
        <time>2015-03-08T09:05:34Z</time>
      </trkpt>
      <trkpt lat="44.40515" lon="4.86103">
        <ele>218.6</ele>
        <time>2015-03-08T09:05:36Z</time>
      </trkpt>
      <trkpt lat="44.40519" lon="4.86117">
        <ele>218</ele>
        <time>2015-03-08T09:05:38Z</time>
      </trkpt>
      <trkpt lat="44.40521" lon="4.86132">
        <ele>217.2</ele>
        <time>2015-03-08T09:05:40Z</time>
      </trkpt>
      <trkpt lat="44.40524" lon="4.86147">
        <ele>216.5</ele>
        <time>2015-03-08T09:05:42Z</time>
      </trkpt>
      <trkpt lat="44.40527" lon="4.86161">
        <ele>215.9</ele>
        <time>2015-03-08T09:05:44Z</time>
      </trkpt>
      <trkpt lat="44.4053" lon="4.86174">
        <ele>215.3</ele>
        <time>2015-03-08T09:05:46Z</time>
      </trkpt>
      <trkpt lat="44.40531" lon="4.8619">
        <ele>214.6</ele>
        <time>2015-03-08T09:05:48Z</time>
      </trkpt>
      <trkpt lat="44.40533" lon="4.86205">
        <ele>213.9</ele>
        <time>2015-03-08T09:05:50Z</time>
      </trkpt>
      <trkpt lat="44.40536" lon="4.8622">
        <ele>213.3</ele>
        <time>2015-03-08T09:05:52Z</time>
      </trkpt>
      <trkpt lat="44.40539" lon="4.86234">
        <ele>212.7</ele>
        <time>2015-03-08T09:05:54Z</time>
      </trkpt>
      <trkpt lat="44.40543" lon="4.86249">
        <ele>212.1</ele>
        <time>2015-03-08T09:05:56Z</time>
      </trkpt>
      <trkpt lat="44.40546" lon="4.86265">
        <ele>211.5</ele>
        <time>2015-03-08T09:05:58Z</time>
      </trkpt>
      <trkpt lat="44.40549" lon="4.8628">
        <ele>211.1</ele>
        <time>2015-03-08T09:06:00Z</time>
      </trkpt>
      <trkpt lat="44.40551" lon="4.86295">
        <ele>210.6</ele>
        <time>2015-03-08T09:06:02Z</time>
      </trkpt>
      <trkpt lat="44.40553" lon="4.8631">
        <ele>210.1</ele>
        <time>2015-03-08T09:06:04Z</time>
      </trkpt>
      <trkpt lat="44.40556" lon="4.86325">
        <ele>209.6</ele>
        <time>2015-03-08T09:06:06Z</time>
      </trkpt>
      <trkpt lat="44.40559" lon="4.8634">
        <ele>209.1</ele>
        <time>2015-03-08T09:06:08Z</time>
      </trkpt>
      <trkpt lat="44.40562" lon="4.86353">
        <ele>208.6</ele>
        <time>2015-03-08T09:06:10Z</time>
      </trkpt>
      <trkpt lat="44.40565" lon="4.86367">
        <ele>208</ele>
        <time>2015-03-08T09:06:12Z</time>
      </trkpt>
      <trkpt lat="44.40566" lon="4.86381">
        <ele>207.6</ele>
        <time>2015-03-08T09:06:14Z</time>
      </trkpt>
      <trkpt lat="44.40566" lon="4.86397">
        <ele>207.1</ele>
        <time>2015-03-08T09:06:16Z</time>
      </trkpt>
      <trkpt lat="44.40565" lon="4.86413">
        <ele>206.7</ele>
        <time>2015-03-08T09:06:18Z</time>
      </trkpt>
      <trkpt lat="44.40565" lon="4.86426">
        <ele>206.2</ele>
        <time>2015-03-08T09:06:20Z</time>
      </trkpt>
      <trkpt lat="44.40561" lon="4.8644">
        <ele>205.6</ele>
        <time>2015-03-08T09:06:23Z</time>
      </trkpt>
      <trkpt lat="44.4055" lon="4.86445">
        <ele>205.1</ele>
        <time>2015-03-08T09:06:26Z</time>
      </trkpt>
      <trkpt lat="44.4054" lon="4.86451">
        <ele>204.5</ele>
        <time>2015-03-08T09:06:29Z</time>
      </trkpt>
      <trkpt lat="44.40529" lon="4.86459">
        <ele>204</ele>
        <time>2015-03-08T09:06:32Z</time>
      </trkpt>
      <trkpt lat="44.40517" lon="4.86465">
        <ele>203.6</ele>
        <time>2015-03-08T09:06:35Z</time>
      </trkpt>
      <trkpt lat="44.40507" lon="4.86471">
        <ele>203</ele>
        <time>2015-03-08T09:06:38Z</time>
      </trkpt>
      <trkpt lat="44.40495" lon="4.86476">
        <ele>202.5</ele>
        <time>2015-03-08T09:06:41Z</time>
      </trkpt>
      <trkpt lat="44.40485" lon="4.8648">
        <ele>202.3</ele>
        <time>2015-03-08T09:06:43Z</time>
      </trkpt>
      <trkpt lat="44.40477" lon="4.86485">
        <ele>202</ele>
        <time>2015-03-08T09:06:45Z</time>
      </trkpt>
      <trkpt lat="44.40468" lon="4.8649">
        <ele>201.9</ele>
        <time>2015-03-08T09:06:47Z</time>
      </trkpt>
      <trkpt lat="44.4046" lon="4.86495">
        <ele>201.7</ele>
        <time>2015-03-08T09:06:49Z</time>
      </trkpt>
      <trkpt lat="44.40449" lon="4.86504">
        <ele>201.5</ele>
        <time>2015-03-08T09:06:52Z</time>
      </trkpt>
      <trkpt lat="44.40438" lon="4.86512">
        <ele>201.1</ele>
        <time>2015-03-08T09:06:55Z</time>
      </trkpt>
      <trkpt lat="44.40428" lon="4.86516">
        <ele>200.8</ele>
        <time>2015-03-08T09:06:58Z</time>
      </trkpt>
      <trkpt lat="44.40416" lon="4.86516">
        <ele>200.5</ele>
        <time>2015-03-08T09:07:01Z</time>
      </trkpt>
      <trkpt lat="44.40406" lon="4.86516">
        <ele>200.3</ele>
        <time>2015-03-08T09:07:04Z</time>
      </trkpt>
      <trkpt lat="44.40397" lon="4.8652">
        <ele>200.1</ele>
        <time>2015-03-08T09:07:07Z</time>
      </trkpt>
      <trkpt lat="44.40387" lon="4.86531">
        <ele>200</ele>
        <time>2015-03-08T09:07:11Z</time>
      </trkpt>
      <trkpt lat="44.40378" lon="4.86543">
        <ele>199.9</ele>
        <time>2015-03-08T09:07:14Z</time>
      </trkpt>
      <trkpt lat="44.40372" lon="4.86552">
        <ele>199.8</ele>
        <time>2015-03-08T09:07:16Z</time>
      </trkpt>
      <trkpt lat="44.40367" lon="4.86563">
        <ele>199.7</ele>
        <time>2015-03-08T09:07:18Z</time>
      </trkpt>
      <trkpt lat="44.40361" lon="4.86574">
        <ele>199.7</ele>
        <time>2015-03-08T09:07:20Z</time>
      </trkpt>
      <trkpt lat="44.40352" lon="4.86581">
        <ele>199.6</ele>
        <time>2015-03-08T09:07:22Z</time>
      </trkpt>
      <trkpt lat="44.40343" lon="4.86588">
        <ele>199.6</ele>
        <time>2015-03-08T09:07:24Z</time>
      </trkpt>
      <trkpt lat="44.40336" lon="4.86597">
        <ele>199.5</ele>
        <time>2015-03-08T09:07:26Z</time>
      </trkpt>
      <trkpt lat="44.40329" lon="4.8661">
        <ele>199.5</ele>
        <time>2015-03-08T09:07:29Z</time>
      </trkpt>
      <trkpt lat="44.40322" lon="4.86618">
        <ele>199.5</ele>
        <time>2015-03-08T09:07:31Z</time>
      </trkpt>
      <trkpt lat="44.40313" lon="4.86623">
        <ele>199.4</ele>
        <time>2015-03-08T09:07:33Z</time>
      </trkpt>
      <trkpt lat="44.40304" lon="4.86624">
        <ele>199.1</ele>
        <time>2015-03-08T09:07:35Z</time>
      </trkpt>
      <trkpt lat="44.40295" lon="4.86622">
        <ele>198.8</ele>
        <time>2015-03-08T09:07:37Z</time>
      </trkpt>
      <trkpt lat="44.40286" lon="4.86621">
        <ele>198.6</ele>
        <time>2015-03-08T09:07:39Z</time>
      </trkpt>
      <trkpt lat="44.40274" lon="4.86627">
        <ele>198.3</ele>
        <time>2015-03-08T09:07:42Z</time>
      </trkpt>
      <trkpt lat="44.40268" lon="4.86637">
        <ele>198.1</ele>
        <time>2015-03-08T09:07:44Z</time>
      </trkpt>
      <trkpt lat="44.40262" lon="4.86646">
        <ele>198</ele>
        <time>2015-03-08T09:07:46Z</time>
      </trkpt>
      <trkpt lat="44.40254" lon="4.86654">
        <ele>198</ele>
        <time>2015-03-08T09:07:48Z</time>
      </trkpt>
      <trkpt lat="44.40247" lon="4.86663">
        <ele>197.8</ele>
        <time>2015-03-08T09:07:50Z</time>
      </trkpt>
      <trkpt lat="44.40241" lon="4.86674">
        <ele>197.7</ele>
        <time>2015-03-08T09:07:52Z</time>
      </trkpt>
      <trkpt lat="44.40238" lon="4.86686">
        <ele>197.5</ele>
        <time>2015-03-08T09:07:54Z</time>
      </trkpt>
      <trkpt lat="44.40237" lon="4.86699">
        <ele>197.4</ele>
        <time>2015-03-08T09:07:56Z</time>
      </trkpt>
      <trkpt lat="44.40238" lon="4.86716">
        <ele>196.9</ele>
        <time>2015-03-08T09:07:59Z</time>
      </trkpt>
      <trkpt lat="44.40237" lon="4.86734">
        <ele>196.6</ele>
        <time>2015-03-08T09:08:02Z</time>
      </trkpt>
      <trkpt lat="44.40235" lon="4.86752">
        <ele>196.2</ele>
        <time>2015-03-08T09:08:05Z</time>
      </trkpt>
      <trkpt lat="44.40232" lon="4.8677">
        <ele>195.6</ele>
        <time>2015-03-08T09:08:08Z</time>
      </trkpt>
      <trkpt lat="44.40231" lon="4.86783">
        <ele>195.1</ele>
        <time>2015-03-08T09:08:10Z</time>
      </trkpt>
      <trkpt lat="44.40227" lon="4.86796">
        <ele>194.7</ele>
        <time>2015-03-08T09:08:12Z</time>
      </trkpt>
      <trkpt lat="44.40218" lon="4.86807">
        <ele>194.2</ele>
        <time>2015-03-08T09:08:14Z</time>
      </trkpt>
      <trkpt lat="44.4021" lon="4.86818">
        <ele>193.6</ele>
        <time>2015-03-08T09:08:16Z</time>
      </trkpt>
      <trkpt lat="44.402" lon="4.86831">
        <ele>193</ele>
        <time>2015-03-08T09:08:18Z</time>
      </trkpt>
      <trkpt lat="44.40191" lon="4.86845">
        <ele>192.5</ele>
        <time>2015-03-08T09:08:20Z</time>
      </trkpt>
      <trkpt lat="44.40185" lon="4.86863">
        <ele>192.1</ele>
        <time>2015-03-08T09:08:22Z</time>
      </trkpt>
      <trkpt lat="44.40184" lon="4.86883">
        <ele>191.7</ele>
        <time>2015-03-08T09:08:24Z</time>
      </trkpt>
      <trkpt lat="44.40185" lon="4.86903">
        <ele>191</ele>
        <time>2015-03-08T09:08:26Z</time>
      </trkpt>
      <trkpt lat="44.40186" lon="4.86923">
        <ele>190.3</ele>
        <time>2015-03-08T09:08:28Z</time>
      </trkpt>
      <trkpt lat="44.40187" lon="4.86942">
        <ele>189.8</ele>
        <time>2015-03-08T09:08:30Z</time>
      </trkpt>
      <trkpt lat="44.40187" lon="4.86961">
        <ele>189.2</ele>
        <time>2015-03-08T09:08:32Z</time>
      </trkpt>
      <trkpt lat="44.40183" lon="4.86977">
        <ele>188.6</ele>
        <time>2015-03-08T09:08:34Z</time>
      </trkpt>
      <trkpt lat="44.40177" lon="4.86992">
        <ele>188</ele>
        <time>2015-03-08T09:08:36Z</time>
      </trkpt>
      <trkpt lat="44.4017" lon="4.87006">
        <ele>187.6</ele>
        <time>2015-03-08T09:08:38Z</time>
      </trkpt>
      <trkpt lat="44.40164" lon="4.87019">
        <ele>187.2</ele>
        <time>2015-03-08T09:08:40Z</time>
      </trkpt>
      <trkpt lat="44.40157" lon="4.87032">
        <ele>186.8</ele>
        <time>2015-03-08T09:08:42Z</time>
      </trkpt>
      <trkpt lat="44.4015" lon="4.87046">
        <ele>186.5</ele>
        <time>2015-03-08T09:08:44Z</time>
      </trkpt>
      <trkpt lat="44.40145" lon="4.8706">
        <ele>186.3</ele>
        <time>2015-03-08T09:08:46Z</time>
      </trkpt>
      <trkpt lat="44.40142" lon="4.87075">
        <ele>186.1</ele>
        <time>2015-03-08T09:08:48Z</time>
      </trkpt>
      <trkpt lat="44.40144" lon="4.87091">
        <ele>185.9</ele>
        <time>2015-03-08T09:08:50Z</time>
      </trkpt>
      <trkpt lat="44.40149" lon="4.87106">
        <ele>185.8</ele>
        <time>2015-03-08T09:08:52Z</time>
      </trkpt>
      <trkpt lat="44.40154" lon="4.87119">
        <ele>185.7</ele>
        <time>2015-03-08T09:08:54Z</time>
      </trkpt>
      <trkpt lat="44.40159" lon="4.87133">
        <ele>185.6</ele>
        <time>2015-03-08T09:08:56Z</time>
      </trkpt>
      <trkpt lat="44.40165" lon="4.87146">
        <ele>185.5</ele>
        <time>2015-03-08T09:08:58Z</time>
      </trkpt>
      <trkpt lat="44.4017" lon="4.8716">
        <ele>185.3</ele>
        <time>2015-03-08T09:09:00Z</time>
      </trkpt>
      <trkpt lat="44.40176" lon="4.87174">
        <ele>185.3</ele>
        <time>2015-03-08T09:09:02Z</time>
      </trkpt>
      <trkpt lat="44.40181" lon="4.87188">
        <ele>185.2</ele>
        <time>2015-03-08T09:09:04Z</time>
      </trkpt>
      <trkpt lat="44.40185" lon="4.87202">
        <ele>185.1</ele>
        <time>2015-03-08T09:09:06Z</time>
      </trkpt>
      <trkpt lat="44.40188" lon="4.87217">
        <ele>185</ele>
        <time>2015-03-08T09:09:08Z</time>
      </trkpt>
      <trkpt lat="44.40188" lon="4.87233">
        <ele>184.9</ele>
        <time>2015-03-08T09:09:10Z</time>
      </trkpt>
      <trkpt lat="44.40186" lon="4.87247">
        <ele>184.8</ele>
        <time>2015-03-08T09:09:12Z</time>
      </trkpt>
      <trkpt lat="44.4018" lon="4.87261">
        <ele>184.7</ele>
        <time>2015-03-08T09:09:14Z</time>
      </trkpt>
      <trkpt lat="44.40174" lon="4.87273">
        <ele>184.6</ele>
        <time>2015-03-08T09:09:16Z</time>
      </trkpt>
      <trkpt lat="44.40167" lon="4.87287">
        <ele>184.5</ele>
        <time>2015-03-08T09:09:18Z</time>
      </trkpt>
      <trkpt lat="44.4016" lon="4.87301">
        <ele>184.4</ele>
        <time>2015-03-08T09:09:20Z</time>
      </trkpt>
      <trkpt lat="44.40154" lon="4.87315">
        <ele>184.3</ele>
        <time>2015-03-08T09:09:22Z</time>
      </trkpt>
      <trkpt lat="44.40149" lon="4.8733">
        <ele>184.1</ele>
        <time>2015-03-08T09:09:24Z</time>
      </trkpt>
      <trkpt lat="44.40145" lon="4.87345">
        <ele>184</ele>
        <time>2015-03-08T09:09:26Z</time>
      </trkpt>
      <trkpt lat="44.40143" lon="4.87361">
        <ele>183.9</ele>
        <time>2015-03-08T09:09:28Z</time>
      </trkpt>
      <trkpt lat="44.40143" lon="4.87376">
        <ele>183.8</ele>
        <time>2015-03-08T09:09:30Z</time>
      </trkpt>
      <trkpt lat="44.40144" lon="4.87391">
        <ele>183.7</ele>
        <time>2015-03-08T09:09:32Z</time>
      </trkpt>
      <trkpt lat="44.40145" lon="4.87406">
        <ele>183.5</ele>
        <time>2015-03-08T09:09:34Z</time>
      </trkpt>
      <trkpt lat="44.40143" lon="4.8742">
        <ele>183.4</ele>
        <time>2015-03-08T09:09:36Z</time>
      </trkpt>
      <trkpt lat="44.40136" lon="4.87428">
        <ele>183.2</ele>
        <time>2015-03-08T09:09:38Z</time>
      </trkpt>
      <trkpt lat="44.40126" lon="4.87431">
        <ele>183.1</ele>
        <time>2015-03-08T09:09:40Z</time>
      </trkpt>
      <trkpt lat="44.40117" lon="4.87435">
        <ele>182.9</ele>
        <time>2015-03-08T09:09:42Z</time>
      </trkpt>
      <trkpt lat="44.40107" lon="4.87439">
        <ele>182.8</ele>
        <time>2015-03-08T09:09:44Z</time>
      </trkpt>
      <trkpt lat="44.40098" lon="4.87441">
        <ele>182.7</ele>
        <time>2015-03-08T09:09:46Z</time>
      </trkpt>
      <trkpt lat="44.40088" lon="4.87441">
        <ele>182.6</ele>
        <time>2015-03-08T09:09:48Z</time>
      </trkpt>
      <trkpt lat="44.40078" lon="4.87443">
        <ele>182.6</ele>
        <time>2015-03-08T09:09:50Z</time>
      </trkpt>
      <trkpt lat="44.40068" lon="4.87443">
        <ele>182.5</ele>
        <time>2015-03-08T09:09:52Z</time>
      </trkpt>
      <trkpt lat="44.40059" lon="4.87442">
        <ele>182.4</ele>
        <time>2015-03-08T09:09:54Z</time>
      </trkpt>
      <trkpt lat="44.40049" lon="4.87439">
        <ele>182.4</ele>
        <time>2015-03-08T09:09:56Z</time>
      </trkpt>
      <trkpt lat="44.40039" lon="4.87436">
        <ele>182.3</ele>
        <time>2015-03-08T09:09:58Z</time>
      </trkpt>
      <trkpt lat="44.40029" lon="4.87434">
        <ele>182.3</ele>
        <time>2015-03-08T09:10:00Z</time>
      </trkpt>
      <trkpt lat="44.40019" lon="4.87431">
        <ele>182.2</ele>
        <time>2015-03-08T09:10:02Z</time>
      </trkpt>
      <trkpt lat="44.4001" lon="4.87427">
        <ele>182.2</ele>
        <time>2015-03-08T09:10:04Z</time>
      </trkpt>
      <trkpt lat="44.4" lon="4.87424">
        <ele>182.2</ele>
        <time>2015-03-08T09:10:06Z</time>
      </trkpt>
      <trkpt lat="44.3999" lon="4.87423">
        <ele>182.2</ele>
        <time>2015-03-08T09:10:08Z</time>
      </trkpt>
      <trkpt lat="44.39979" lon="4.87423">
        <ele>182.1</ele>
        <time>2015-03-08T09:10:10Z</time>
      </trkpt>
      <trkpt lat="44.39969" lon="4.87425">
        <ele>182.1</ele>
        <time>2015-03-08T09:10:12Z</time>
      </trkpt>
      <trkpt lat="44.39958" lon="4.87427">
        <ele>182.1</ele>
        <time>2015-03-08T09:10:14Z</time>
      </trkpt>
      <trkpt lat="44.39949" lon="4.87429">
        <ele>182.1</ele>
        <time>2015-03-08T09:10:16Z</time>
      </trkpt>
      <trkpt lat="44.3994" lon="4.87433">
        <ele>182.1</ele>
        <time>2015-03-08T09:10:18Z</time>
      </trkpt>
      <trkpt lat="44.39931" lon="4.87442">
        <ele>182.1</ele>
        <time>2015-03-08T09:10:20Z</time>
      </trkpt>
      <trkpt lat="44.39924" lon="4.87451">
        <ele>182</ele>
        <time>2015-03-08T09:10:22Z</time>
      </trkpt>
      <trkpt lat="44.39916" lon="4.87462">
        <ele>181.9</ele>
        <time>2015-03-08T09:10:24Z</time>
      </trkpt>
      <trkpt lat="44.39908" lon="4.87473">
        <ele>181.8</ele>
        <time>2015-03-08T09:10:26Z</time>
      </trkpt>
      <trkpt lat="44.39901" lon="4.87485">
        <ele>181.6</ele>
        <time>2015-03-08T09:10:28Z</time>
      </trkpt>
      <trkpt lat="44.39896" lon="4.87499">
        <ele>181.5</ele>
        <time>2015-03-08T09:10:30Z</time>
      </trkpt>
      <trkpt lat="44.39891" lon="4.87515">
        <ele>181.3</ele>
        <time>2015-03-08T09:10:32Z</time>
      </trkpt>
      <trkpt lat="44.39887" lon="4.87531">
        <ele>181.1</ele>
        <time>2015-03-08T09:10:34Z</time>
      </trkpt>
      <trkpt lat="44.39883" lon="4.87544">
        <ele>180.7</ele>
        <time>2015-03-08T09:10:36Z</time>
      </trkpt>
      <trkpt lat="44.3988" lon="4.87556">
        <ele>180.2</ele>
        <time>2015-03-08T09:10:38Z</time>
      </trkpt>
      <trkpt lat="44.39875" lon="4.87572">
        <ele>179.5</ele>
        <time>2015-03-08T09:10:41Z</time>
      </trkpt>
      <trkpt lat="44.39861" lon="4.87575">
        <ele>178.9</ele>
        <time>2015-03-08T09:10:44Z</time>
      </trkpt>
      <trkpt lat="44.39849" lon="4.87573">
        <ele>178.4</ele>
        <time>2015-03-08T09:10:46Z</time>
      </trkpt>
      <trkpt lat="44.39838" lon="4.87572">
        <ele>178</ele>
        <time>2015-03-08T09:10:48Z</time>
      </trkpt>
      <trkpt lat="44.39826" lon="4.8757">
        <ele>177.7</ele>
        <time>2015-03-08T09:10:50Z</time>
      </trkpt>
      <trkpt lat="44.39814" lon="4.87568">
        <ele>177.4</ele>
        <time>2015-03-08T09:10:52Z</time>
      </trkpt>
      <trkpt lat="44.39802" lon="4.87566">
        <ele>177.1</ele>
        <time>2015-03-08T09:10:54Z</time>
      </trkpt>
      <trkpt lat="44.3979" lon="4.87565">
        <ele>176.9</ele>
        <time>2015-03-08T09:10:56Z</time>
      </trkpt>
      <trkpt lat="44.39778" lon="4.87564">
        <ele>176.7</ele>
        <time>2015-03-08T09:10:58Z</time>
      </trkpt>
      <trkpt lat="44.39766" lon="4.87563">
        <ele>176.5</ele>
        <time>2015-03-08T09:11:00Z</time>
      </trkpt>
      <trkpt lat="44.39753" lon="4.87563">
        <ele>176.3</ele>
        <time>2015-03-08T09:11:02Z</time>
      </trkpt>
      <trkpt lat="44.39741" lon="4.87564">
        <ele>176.2</ele>
        <time>2015-03-08T09:11:04Z</time>
      </trkpt>
      <trkpt lat="44.39729" lon="4.87565">
        <ele>176.1</ele>
        <time>2015-03-08T09:11:06Z</time>
      </trkpt>
      <trkpt lat="44.39717" lon="4.87567">
        <ele>176</ele>
        <time>2015-03-08T09:11:08Z</time>
      </trkpt>
      <trkpt lat="44.39705" lon="4.87569">
        <ele>175.9</ele>
        <time>2015-03-08T09:11:10Z</time>
      </trkpt>
      <trkpt lat="44.39694" lon="4.87568">
        <ele>175.7</ele>
        <time>2015-03-08T09:11:12Z</time>
      </trkpt>
      <trkpt lat="44.39685" lon="4.8756">
        <ele>175.5</ele>
        <time>2015-03-08T09:11:14Z</time>
      </trkpt>
      <trkpt lat="44.39677" lon="4.87553">
        <ele>175.4</ele>
        <time>2015-03-08T09:11:16Z</time>
      </trkpt>
      <trkpt lat="44.39669" lon="4.87543">
        <ele>175.2</ele>
        <time>2015-03-08T09:11:18Z</time>
      </trkpt>
      <trkpt lat="44.39666" lon="4.87532">
        <ele>175.2</ele>
        <time>2015-03-08T09:11:20Z</time>
      </trkpt>
      <trkpt lat="44.39669" lon="4.87515">
        <ele>175.1</ele>
        <time>2015-03-08T09:11:23Z</time>
      </trkpt>
      <trkpt lat="44.39674" lon="4.87498">
        <ele>175.2</ele>
        <time>2015-03-08T09:11:26Z</time>
      </trkpt>
      <trkpt lat="44.39679" lon="4.87482">
        <ele>175.4</ele>
        <time>2015-03-08T09:11:29Z</time>
      </trkpt>
      <trkpt lat="44.39681" lon="4.87466">
        <ele>175.7</ele>
        <time>2015-03-08T09:11:32Z</time>
      </trkpt>
      <trkpt lat="44.39682" lon="4.87449">
        <ele>176.3</ele>
        <time>2015-03-08T09:11:35Z</time>
      </trkpt>
      <trkpt lat="44.39682" lon="4.87433">
        <ele>176.8</ele>
        <time>2015-03-08T09:11:38Z</time>
      </trkpt>
      <trkpt lat="44.39682" lon="4.87418">
        <ele>177.3</ele>
        <time>2015-03-08T09:11:41Z</time>
      </trkpt>
      <trkpt lat="44.39683" lon="4.87403">
        <ele>177.7</ele>
        <time>2015-03-08T09:11:44Z</time>
      </trkpt>
      <trkpt lat="44.39682" lon="4.87387">
        <ele>178.1</ele>
        <time>2015-03-08T09:11:47Z</time>
      </trkpt>
      <trkpt lat="44.39683" lon="4.87368">
        <ele>178.4</ele>
        <time>2015-03-08T09:11:50Z</time>
      </trkpt>
      <trkpt lat="44.39684" lon="4.87351">
        <ele>178.7</ele>
        <time>2015-03-08T09:11:53Z</time>
      </trkpt>
      <trkpt lat="44.39684" lon="4.87336">
        <ele>179.1</ele>
        <time>2015-03-08T09:11:56Z</time>
      </trkpt>
      <trkpt lat="44.39684" lon="4.87319">
        <ele>179.7</ele>
        <time>2015-03-08T09:11:59Z</time>
      </trkpt>
      <trkpt lat="44.39685" lon="4.87302">
        <ele>180.4</ele>
        <time>2015-03-08T09:12:02Z</time>
      </trkpt>
      <trkpt lat="44.39684" lon="4.87284">
        <ele>180.9</ele>
        <time>2015-03-08T09:12:05Z</time>
      </trkpt>
      <trkpt lat="44.39681" lon="4.87268">
        <ele>181.4</ele>
        <time>2015-03-08T09:12:08Z</time>
      </trkpt>
      <trkpt lat="44.39675" lon="4.87254">
        <ele>181.8</ele>
        <time>2015-03-08T09:12:11Z</time>
      </trkpt>
      <trkpt lat="44.39669" lon="4.87238">
        <ele>182.1</ele>
        <time>2015-03-08T09:12:14Z</time>
      </trkpt>
      <trkpt lat="44.39665" lon="4.87221">
        <ele>182.6</ele>
        <time>2015-03-08T09:12:17Z</time>
      </trkpt>
      <trkpt lat="44.3966" lon="4.87204">
        <ele>182.8</ele>
        <time>2015-03-08T09:12:20Z</time>
      </trkpt>
      <trkpt lat="44.39657" lon="4.87188">
        <ele>183.1</ele>
        <time>2015-03-08T09:12:23Z</time>
      </trkpt>
      <trkpt lat="44.39652" lon="4.87173">
        <ele>183.5</ele>
        <time>2015-03-08T09:12:26Z</time>
      </trkpt>
      <trkpt lat="44.39646" lon="4.87158">
        <ele>183.9</ele>
        <time>2015-03-08T09:12:29Z</time>
      </trkpt>
      <trkpt lat="44.39641" lon="4.87143">
        <ele>184.3</ele>
        <time>2015-03-08T09:12:32Z</time>
      </trkpt>
      <trkpt lat="44.39635" lon="4.8713">
        <ele>184.8</ele>
        <time>2015-03-08T09:12:35Z</time>
      </trkpt>
      <trkpt lat="44.39628" lon="4.87118">
        <ele>185.2</ele>
        <time>2015-03-08T09:12:38Z</time>
      </trkpt>
      <trkpt lat="44.39621" lon="4.87105">
        <ele>185.7</ele>
        <time>2015-03-08T09:12:41Z</time>
      </trkpt>
      <trkpt lat="44.39613" lon="4.87092">
        <ele>186</ele>
        <time>2015-03-08T09:12:44Z</time>
      </trkpt>
      <trkpt lat="44.39606" lon="4.87079">
        <ele>186.4</ele>
        <time>2015-03-08T09:12:47Z</time>
      </trkpt>
      <trkpt lat="44.396" lon="4.87065">
        <ele>186.7</ele>
        <time>2015-03-08T09:12:50Z</time>
      </trkpt>
      <trkpt lat="44.39597" lon="4.87051">
        <ele>187</ele>
        <time>2015-03-08T09:12:53Z</time>
      </trkpt>
      <trkpt lat="44.39599" lon="4.87038">
        <ele>187.4</ele>
        <time>2015-03-08T09:12:57Z</time>
      </trkpt>
      <trkpt lat="44.3959" lon="4.87032">
        <ele>189.8</ele>
        <time>2015-03-08T09:16:42Z</time>
      </trkpt>
      <trkpt lat="44.39586" lon="4.87019">
        <ele>189.9</ele>
        <time>2015-03-08T09:16:46Z</time>
      </trkpt>
      <trkpt lat="44.39581" lon="4.87004">
        <ele>190.2</ele>
        <time>2015-03-08T09:16:50Z</time>
      </trkpt>
      <trkpt lat="44.39577" lon="4.86992">
        <ele>190.3</ele>
        <time>2015-03-08T09:16:53Z</time>
      </trkpt>
      <trkpt lat="44.39573" lon="4.86979">
        <ele>190.5</ele>
        <time>2015-03-08T09:16:56Z</time>
      </trkpt>
      <trkpt lat="44.39568" lon="4.86966">
        <ele>190.7</ele>
        <time>2015-03-08T09:16:59Z</time>
      </trkpt>
      <trkpt lat="44.39564" lon="4.86951">
        <ele>190.9</ele>
        <time>2015-03-08T09:17:03Z</time>
      </trkpt>
      <trkpt lat="44.39566" lon="4.86937">
        <ele>191.3</ele>
        <time>2015-03-08T09:17:07Z</time>
      </trkpt>
      <trkpt lat="44.39569" lon="4.86924">
        <ele>191.5</ele>
        <time>2015-03-08T09:17:10Z</time>
      </trkpt>
      <trkpt lat="44.39574" lon="4.86907">
        <ele>191.6</ele>
        <time>2015-03-08T09:17:13Z</time>
      </trkpt>
      <trkpt lat="44.39581" lon="4.869">
        <ele>191.7</ele>
        <time>2015-03-08T09:17:15Z</time>
      </trkpt>
      <trkpt lat="44.39591" lon="4.86899">
        <ele>191.8</ele>
        <time>2015-03-08T09:17:18Z</time>
      </trkpt>
      <trkpt lat="44.39588" lon="4.86884">
        <ele>190.9</ele>
        <time>2015-03-08T09:17:24Z</time>
      </trkpt>
      <trkpt lat="44.39582" lon="4.86873">
        <ele>190</ele>
        <time>2015-03-08T09:17:27Z</time>
      </trkpt>
      <trkpt lat="44.3959" lon="4.86859">
        <ele>188.1</ele>
        <time>2015-03-08T09:17:31Z</time>
      </trkpt>
      <trkpt lat="44.39591" lon="4.86843">
        <ele>187.1</ele>
        <time>2015-03-08T09:17:34Z</time>
      </trkpt>
      <trkpt lat="44.39593" lon="4.86827">
        <ele>185.9</ele>
        <time>2015-03-08T09:17:37Z</time>
      </trkpt>
      <trkpt lat="44.39595" lon="4.8681">
        <ele>184.8</ele>
        <time>2015-03-08T09:17:40Z</time>
      </trkpt>
      <trkpt lat="44.39596" lon="4.86793">
        <ele>183.9</ele>
        <time>2015-03-08T09:17:43Z</time>
      </trkpt>
      <trkpt lat="44.39597" lon="4.86776">
        <ele>183.1</ele>
        <time>2015-03-08T09:17:46Z</time>
      </trkpt>
      <trkpt lat="44.39598" lon="4.86759">
        <ele>182.5</ele>
        <time>2015-03-08T09:17:49Z</time>
      </trkpt>
      <trkpt lat="44.39598" lon="4.86742">
        <ele>182</ele>
        <time>2015-03-08T09:17:52Z</time>
      </trkpt>
      <trkpt lat="44.39599" lon="4.86726">
        <ele>181.7</ele>
        <time>2015-03-08T09:17:55Z</time>
      </trkpt>
      <trkpt lat="44.39598" lon="4.86711">
        <ele>181.5</ele>
        <time>2015-03-08T09:17:58Z</time>
      </trkpt>
      <trkpt lat="44.39595" lon="4.86697">
        <ele>181.2</ele>
        <time>2015-03-08T09:18:01Z</time>
      </trkpt>
      <trkpt lat="44.39591" lon="4.86684">
        <ele>181</ele>
        <time>2015-03-08T09:18:04Z</time>
      </trkpt>
      <trkpt lat="44.39586" lon="4.86671">
        <ele>180.7</ele>
        <time>2015-03-08T09:18:07Z</time>
      </trkpt>
      <trkpt lat="44.39581" lon="4.86659">
        <ele>180.6</ele>
        <time>2015-03-08T09:18:10Z</time>
      </trkpt>
      <trkpt lat="44.39577" lon="4.86647">
        <ele>180.5</ele>
        <time>2015-03-08T09:18:13Z</time>
      </trkpt>
      <trkpt lat="44.39573" lon="4.86636">
        <ele>180.7</ele>
        <time>2015-03-08T09:18:16Z</time>
      </trkpt>
      <trkpt lat="44.39566" lon="4.86622">
        <ele>180.8</ele>
        <time>2015-03-08T09:18:20Z</time>
      </trkpt>
      <trkpt lat="44.39561" lon="4.86609">
        <ele>180.9</ele>
        <time>2015-03-08T09:18:24Z</time>
      </trkpt>
      <trkpt lat="44.39557" lon="4.86597">
        <ele>181.1</ele>
        <time>2015-03-08T09:18:28Z</time>
      </trkpt>
      <trkpt lat="44.39552" lon="4.86585">
        <ele>181.7</ele>
        <time>2015-03-08T09:18:33Z</time>
      </trkpt>
      <trkpt lat="44.39546" lon="4.86573">
        <ele>182.4</ele>
        <time>2015-03-08T09:18:38Z</time>
      </trkpt>
      <trkpt lat="44.3954" lon="4.86562">
        <ele>183.5</ele>
        <time>2015-03-08T09:18:43Z</time>
      </trkpt>
      <trkpt lat="44.39534" lon="4.8655">
        <ele>185.2</ele>
        <time>2015-03-08T09:18:49Z</time>
      </trkpt>
      <trkpt lat="44.39526" lon="4.86542">
        <ele>186.7</ele>
        <time>2015-03-08T09:18:55Z</time>
      </trkpt>
      <trkpt lat="44.39517" lon="4.86534">
        <ele>187.7</ele>
        <time>2015-03-08T09:19:01Z</time>
      </trkpt>
      <trkpt lat="44.3951" lon="4.86527">
        <ele>188.3</ele>
        <time>2015-03-08T09:19:06Z</time>
      </trkpt>
      <trkpt lat="44.39502" lon="4.86519">
        <ele>188.9</ele>
        <time>2015-03-08T09:19:11Z</time>
      </trkpt>
      <trkpt lat="44.39494" lon="4.86511">
        <ele>189.8</ele>
        <time>2015-03-08T09:19:16Z</time>
      </trkpt>
      <trkpt lat="44.39485" lon="4.86503">
        <ele>190.5</ele>
        <time>2015-03-08T09:19:22Z</time>
      </trkpt>
      <trkpt lat="44.39478" lon="4.86495">
        <ele>191</ele>
        <time>2015-03-08T09:19:27Z</time>
      </trkpt>
      <trkpt lat="44.39469" lon="4.86488">
        <ele>191.8</ele>
        <time>2015-03-08T09:19:32Z</time>
      </trkpt>
      <trkpt lat="44.39459" lon="4.8648">
        <ele>192.6</ele>
        <time>2015-03-08T09:19:37Z</time>
      </trkpt>
      <trkpt lat="44.39454" lon="4.86468">
        <ele>193.2</ele>
        <time>2015-03-08T09:19:42Z</time>
      </trkpt>
      <trkpt lat="44.39451" lon="4.86455">
        <ele>194.1</ele>
        <time>2015-03-08T09:19:47Z</time>
      </trkpt>
      <trkpt lat="44.3945" lon="4.86441">
        <ele>195.2</ele>
        <time>2015-03-08T09:19:53Z</time>
      </trkpt>
      <trkpt lat="44.39443" lon="4.86432">
        <ele>195.9</ele>
        <time>2015-03-08T09:19:59Z</time>
      </trkpt>
      <trkpt lat="44.39434" lon="4.86427">
        <ele>196.8</ele>
        <time>2015-03-08T09:20:05Z</time>
      </trkpt>
      <trkpt lat="44.39426" lon="4.8642">
        <ele>198.2</ele>
        <time>2015-03-08T09:20:11Z</time>
      </trkpt>
      <trkpt lat="44.39416" lon="4.86417">
        <ele>199.1</ele>
        <time>2015-03-08T09:20:17Z</time>
      </trkpt>
      <trkpt lat="44.39407" lon="4.86415">
        <ele>200.3</ele>
        <time>2015-03-08T09:20:22Z</time>
      </trkpt>
      <trkpt lat="44.39397" lon="4.86412">
        <ele>201</ele>
        <time>2015-03-08T09:20:27Z</time>
      </trkpt>
      <trkpt lat="44.39389" lon="4.86417">
        <ele>201.4</ele>
        <time>2015-03-08T09:20:31Z</time>
      </trkpt>
      <trkpt lat="44.39381" lon="4.86427">
        <ele>201.9</ele>
        <time>2015-03-08T09:20:36Z</time>
      </trkpt>
      <trkpt lat="44.39374" lon="4.86435">
        <ele>202.2</ele>
        <time>2015-03-08T09:20:40Z</time>
      </trkpt>
      <trkpt lat="44.39367" lon="4.86446">
        <ele>202.4</ele>
        <time>2015-03-08T09:20:44Z</time>
      </trkpt>
      <trkpt lat="44.39358" lon="4.86448">
        <ele>202.8</ele>
        <time>2015-03-08T09:20:49Z</time>
      </trkpt>
      <trkpt lat="44.39347" lon="4.86453">
        <ele>203.4</ele>
        <time>2015-03-08T09:20:54Z</time>
      </trkpt>
      <trkpt lat="44.39339" lon="4.86464">
        <ele>203.8</ele>
        <time>2015-03-08T09:20:58Z</time>
      </trkpt>
      <trkpt lat="44.39336" lon="4.86476">
        <ele>204.2</ele>
        <time>2015-03-08T09:21:03Z</time>
      </trkpt>
      <trkpt lat="44.39328" lon="4.86487">
        <ele>204.1</ele>
        <time>2015-03-08T09:21:07Z</time>
      </trkpt>
      <trkpt lat="44.3932" lon="4.86497">
        <ele>203.9</ele>
        <time>2015-03-08T09:21:10Z</time>
      </trkpt>
      <trkpt lat="44.39309" lon="4.86505">
        <ele>203.2</ele>
        <time>2015-03-08T09:21:14Z</time>
      </trkpt>
      <trkpt lat="44.39298" lon="4.86514">
        <ele>201.9</ele>
        <time>2015-03-08T09:21:17Z</time>
      </trkpt>
      <trkpt lat="44.39287" lon="4.86522">
        <ele>200.7</ele>
        <time>2015-03-08T09:21:20Z</time>
      </trkpt>
      <trkpt lat="44.3928" lon="4.86531">
        <ele>199.7</ele>
        <time>2015-03-08T09:21:22Z</time>
      </trkpt>
      <trkpt lat="44.39273" lon="4.86538">
        <ele>198.9</ele>
        <time>2015-03-08T09:21:24Z</time>
      </trkpt>
      <trkpt lat="44.39264" lon="4.86544">
        <ele>197.8</ele>
        <time>2015-03-08T09:21:26Z</time>
      </trkpt>
      <trkpt lat="44.39256" lon="4.86551">
        <ele>196.6</ele>
        <time>2015-03-08T09:21:28Z</time>
      </trkpt>
      <trkpt lat="44.39247" lon="4.86554">
        <ele>194.8</ele>
        <time>2015-03-08T09:21:31Z</time>
      </trkpt>
      <trkpt lat="44.39239" lon="4.86564">
        <ele>192.9</ele>
        <time>2015-03-08T09:21:34Z</time>
      </trkpt>
      <trkpt lat="44.39231" lon="4.86576">
        <ele>191.3</ele>
        <time>2015-03-08T09:21:37Z</time>
      </trkpt>
      <trkpt lat="44.39224" lon="4.86591">
        <ele>190</ele>
        <time>2015-03-08T09:21:40Z</time>
      </trkpt>
      <trkpt lat="44.39215" lon="4.86604">
        <ele>188.3</ele>
        <time>2015-03-08T09:21:43Z</time>
      </trkpt>
      <trkpt lat="44.39207" lon="4.86617">
        <ele>186.3</ele>
        <time>2015-03-08T09:21:46Z</time>
      </trkpt>
      <trkpt lat="44.39199" lon="4.86628">
        <ele>185.2</ele>
        <time>2015-03-08T09:21:48Z</time>
      </trkpt>
      <trkpt lat="44.39191" lon="4.8664">
        <ele>184.1</ele>
        <time>2015-03-08T09:21:50Z</time>
      </trkpt>
      <trkpt lat="44.39182" lon="4.86653">
        <ele>183.1</ele>
        <time>2015-03-08T09:21:52Z</time>
      </trkpt>
      <trkpt lat="44.39174" lon="4.86665">
        <ele>182</ele>
        <time>2015-03-08T09:21:54Z</time>
      </trkpt>
      <trkpt lat="44.39165" lon="4.86676">
        <ele>181</ele>
        <time>2015-03-08T09:21:56Z</time>
      </trkpt>
      <trkpt lat="44.39159" lon="4.86687">
        <ele>180</ele>
        <time>2015-03-08T09:21:58Z</time>
      </trkpt>
      <trkpt lat="44.39149" lon="4.8669">
        <ele>178.5</ele>
        <time>2015-03-08T09:22:01Z</time>
      </trkpt>
      <trkpt lat="44.39136" lon="4.86686">
        <ele>177</ele>
        <time>2015-03-08T09:22:04Z</time>
      </trkpt>
      <trkpt lat="44.39127" lon="4.86686">
        <ele>176.1</ele>
        <time>2015-03-08T09:22:06Z</time>
      </trkpt>
      <trkpt lat="44.39118" lon="4.86688">
        <ele>175.2</ele>
        <time>2015-03-08T09:22:08Z</time>
      </trkpt>
      <trkpt lat="44.39108" lon="4.86691">
        <ele>174.3</ele>
        <time>2015-03-08T09:22:10Z</time>
      </trkpt>
      <trkpt lat="44.39099" lon="4.86694">
        <ele>173.6</ele>
        <time>2015-03-08T09:22:12Z</time>
      </trkpt>
      <trkpt lat="44.3909" lon="4.86698">
        <ele>172.9</ele>
        <time>2015-03-08T09:22:14Z</time>
      </trkpt>
      <trkpt lat="44.3908" lon="4.86701">
        <ele>172.2</ele>
        <time>2015-03-08T09:22:16Z</time>
      </trkpt>
      <trkpt lat="44.3907" lon="4.86705">
        <ele>171.7</ele>
        <time>2015-03-08T09:22:18Z</time>
      </trkpt>
      <trkpt lat="44.3906" lon="4.86708">
        <ele>171.1</ele>
        <time>2015-03-08T09:22:20Z</time>
      </trkpt>
      <trkpt lat="44.3905" lon="4.8671">
        <ele>170.7</ele>
        <time>2015-03-08T09:22:22Z</time>
      </trkpt>
      <trkpt lat="44.3904" lon="4.86711">
        <ele>170.3</ele>
        <time>2015-03-08T09:22:24Z</time>
      </trkpt>
      <trkpt lat="44.3903" lon="4.86712">
        <ele>170.1</ele>
        <time>2015-03-08T09:22:26Z</time>
      </trkpt>
      <trkpt lat="44.39019" lon="4.86712">
        <ele>170</ele>
        <time>2015-03-08T09:22:28Z</time>
      </trkpt>
      <trkpt lat="44.39009" lon="4.86712">
        <ele>169.8</ele>
        <time>2015-03-08T09:22:30Z</time>
      </trkpt>
      <trkpt lat="44.38999" lon="4.86712">
        <ele>169.6</ele>
        <time>2015-03-08T09:22:32Z</time>
      </trkpt>
      <trkpt lat="44.38989" lon="4.86713">
        <ele>169.5</ele>
        <time>2015-03-08T09:22:34Z</time>
      </trkpt>
      <trkpt lat="44.3898" lon="4.86714">
        <ele>169.4</ele>
        <time>2015-03-08T09:22:36Z</time>
      </trkpt>
      <trkpt lat="44.3897" lon="4.86716">
        <ele>169.3</ele>
        <time>2015-03-08T09:22:38Z</time>
      </trkpt>
      <trkpt lat="44.38961" lon="4.86717">
        <ele>169.2</ele>
        <time>2015-03-08T09:22:40Z</time>
      </trkpt>
      <trkpt lat="44.38951" lon="4.86719">
        <ele>169.1</ele>
        <time>2015-03-08T09:22:42Z</time>
      </trkpt>
      <trkpt lat="44.38941" lon="4.8672">
        <ele>169.1</ele>
        <time>2015-03-08T09:22:44Z</time>
      </trkpt>
      <trkpt lat="44.38931" lon="4.8672">
        <ele>169</ele>
        <time>2015-03-08T09:22:46Z</time>
      </trkpt>
      <trkpt lat="44.3892" lon="4.86719">
        <ele>169</ele>
        <time>2015-03-08T09:22:48Z</time>
      </trkpt>
      <trkpt lat="44.3891" lon="4.86719">
        <ele>168.8</ele>
        <time>2015-03-08T09:22:50Z</time>
      </trkpt>
      <trkpt lat="44.38899" lon="4.86719">
        <ele>168.6</ele>
        <time>2015-03-08T09:22:52Z</time>
      </trkpt>
      <trkpt lat="44.38889" lon="4.8672">
        <ele>168.4</ele>
        <time>2015-03-08T09:22:54Z</time>
      </trkpt>
      <trkpt lat="44.38879" lon="4.8672">
        <ele>168.2</ele>
        <time>2015-03-08T09:22:56Z</time>
      </trkpt>
      <trkpt lat="44.38869" lon="4.86721">
        <ele>168</ele>
        <time>2015-03-08T09:22:58Z</time>
      </trkpt>
      <trkpt lat="44.38859" lon="4.86721">
        <ele>167.9</ele>
        <time>2015-03-08T09:23:00Z</time>
      </trkpt>
      <trkpt lat="44.38849" lon="4.8672">
        <ele>167.7</ele>
        <time>2015-03-08T09:23:02Z</time>
      </trkpt>
      <trkpt lat="44.38839" lon="4.86719">
        <ele>167.5</ele>
        <time>2015-03-08T09:23:04Z</time>
      </trkpt>
      <trkpt lat="44.38829" lon="4.86719">
        <ele>167.4</ele>
        <time>2015-03-08T09:23:06Z</time>
      </trkpt>
      <trkpt lat="44.38819" lon="4.86718">
        <ele>167.3</ele>
        <time>2015-03-08T09:23:08Z</time>
      </trkpt>
      <trkpt lat="44.38806" lon="4.86717">
        <ele>167</ele>
        <time>2015-03-08T09:23:10Z</time>
      </trkpt>
      <trkpt lat="44.38793" lon="4.86715">
        <ele>166.9</ele>
        <time>2015-03-08T09:23:13Z</time>
      </trkpt>
      <trkpt lat="44.38783" lon="4.86714">
        <ele>166.6</ele>
        <time>2015-03-08T09:23:15Z</time>
      </trkpt>
      <trkpt lat="44.38772" lon="4.86714">
        <ele>166.4</ele>
        <time>2015-03-08T09:23:17Z</time>
      </trkpt>
      <trkpt lat="44.38762" lon="4.86714">
        <ele>166.1</ele>
        <time>2015-03-08T09:23:19Z</time>
      </trkpt>
      <trkpt lat="44.38751" lon="4.86713">
        <ele>165.9</ele>
        <time>2015-03-08T09:23:21Z</time>
      </trkpt>
      <trkpt lat="44.38741" lon="4.86711">
        <ele>165.7</ele>
        <time>2015-03-08T09:23:23Z</time>
      </trkpt>
      <trkpt lat="44.3873" lon="4.86708">
        <ele>165.4</ele>
        <time>2015-03-08T09:23:25Z</time>
      </trkpt>
      <trkpt lat="44.38721" lon="4.86705">
        <ele>165.1</ele>
        <time>2015-03-08T09:23:27Z</time>
      </trkpt>
      <trkpt lat="44.38711" lon="4.86702">
        <ele>164.9</ele>
        <time>2015-03-08T09:23:29Z</time>
      </trkpt>
      <trkpt lat="44.38701" lon="4.86699">
        <ele>164.7</ele>
        <time>2015-03-08T09:23:31Z</time>
      </trkpt>
      <trkpt lat="44.38691" lon="4.86696">
        <ele>164.5</ele>
        <time>2015-03-08T09:23:33Z</time>
      </trkpt>
      <trkpt lat="44.38681" lon="4.86693">
        <ele>164.3</ele>
        <time>2015-03-08T09:23:35Z</time>
      </trkpt>
      <trkpt lat="44.38671" lon="4.8669">
        <ele>164</ele>
        <time>2015-03-08T09:23:37Z</time>
      </trkpt>
      <trkpt lat="44.38661" lon="4.86687">
        <ele>163.8</ele>
        <time>2015-03-08T09:23:39Z</time>
      </trkpt>
      <trkpt lat="44.38652" lon="4.86684">
        <ele>163.7</ele>
        <time>2015-03-08T09:23:41Z</time>
      </trkpt>
      <trkpt lat="44.38642" lon="4.86681">
        <ele>163.5</ele>
        <time>2015-03-08T09:23:43Z</time>
      </trkpt>
      <trkpt lat="44.38632" lon="4.86679">
        <ele>163.4</ele>
        <time>2015-03-08T09:23:45Z</time>
      </trkpt>
      <trkpt lat="44.38622" lon="4.86677">
        <ele>163.3</ele>
        <time>2015-03-08T09:23:47Z</time>
      </trkpt>
      <trkpt lat="44.38612" lon="4.86674">
        <ele>163.2</ele>
        <time>2015-03-08T09:23:49Z</time>
      </trkpt>
      <trkpt lat="44.38602" lon="4.86672">
        <ele>163.1</ele>
        <time>2015-03-08T09:23:51Z</time>
      </trkpt>
      <trkpt lat="44.38592" lon="4.86669">
        <ele>163</ele>
        <time>2015-03-08T09:23:53Z</time>
      </trkpt>
      <trkpt lat="44.38582" lon="4.86665">
        <ele>162.8</ele>
        <time>2015-03-08T09:23:55Z</time>
      </trkpt>
      <trkpt lat="44.38572" lon="4.86662">
        <ele>162.7</ele>
        <time>2015-03-08T09:23:57Z</time>
      </trkpt>
      <trkpt lat="44.38562" lon="4.86659">
        <ele>162.6</ele>
        <time>2015-03-08T09:23:59Z</time>
      </trkpt>
      <trkpt lat="44.38553" lon="4.86656">
        <ele>162.6</ele>
        <time>2015-03-08T09:24:01Z</time>
      </trkpt>
      <trkpt lat="44.38543" lon="4.86652">
        <ele>162.6</ele>
        <time>2015-03-08T09:24:03Z</time>
      </trkpt>
      <trkpt lat="44.38533" lon="4.86651">
        <ele>162.6</ele>
        <time>2015-03-08T09:24:05Z</time>
      </trkpt>
      <trkpt lat="44.38522" lon="4.8665">
        <ele>162.7</ele>
        <time>2015-03-08T09:24:07Z</time>
      </trkpt>
      <trkpt lat="44.38513" lon="4.8665">
        <ele>162.6</ele>
        <time>2015-03-08T09:24:09Z</time>
      </trkpt>
      <trkpt lat="44.38503" lon="4.86647">
        <ele>162.6</ele>
        <time>2015-03-08T09:24:11Z</time>
      </trkpt>
      <trkpt lat="44.38496" lon="4.86638">
        <ele>162.6</ele>
        <time>2015-03-08T09:24:14Z</time>
      </trkpt>
      <trkpt lat="44.38497" lon="4.86624">
        <ele>162.5</ele>
        <time>2015-03-08T09:24:18Z</time>
      </trkpt>
      <trkpt lat="44.38502" lon="4.86614">
        <ele>162.4</ele>
        <time>2015-03-08T09:24:22Z</time>
      </trkpt>
      <trkpt lat="44.38507" lon="4.86602">
        <ele>162.6</ele>
        <time>2015-03-08T09:24:27Z</time>
      </trkpt>
      <trkpt lat="44.38509" lon="4.8659">
        <ele>162.7</ele>
        <time>2015-03-08T09:24:32Z</time>
      </trkpt>
      <trkpt lat="44.38511" lon="4.86575">
        <ele>163.3</ele>
        <time>2015-03-08T09:24:38Z</time>
      </trkpt>
      <trkpt lat="44.38512" lon="4.86561">
        <ele>164.2</ele>
        <time>2015-03-08T09:24:44Z</time>
      </trkpt>
      <trkpt lat="44.38513" lon="4.86547">
        <ele>165.5</ele>
        <time>2015-03-08T09:24:51Z</time>
      </trkpt>
      <trkpt lat="44.38514" lon="4.86533">
        <ele>167</ele>
        <time>2015-03-08T09:24:58Z</time>
      </trkpt>
      <trkpt lat="44.38512" lon="4.86519">
        <ele>168.2</ele>
        <time>2015-03-08T09:25:05Z</time>
      </trkpt>
      <trkpt lat="44.3851" lon="4.86506">
        <ele>169.2</ele>
        <time>2015-03-08T09:25:12Z</time>
      </trkpt>
      <trkpt lat="44.38507" lon="4.86493">
        <ele>170.6</ele>
        <time>2015-03-08T09:25:20Z</time>
      </trkpt>
      <trkpt lat="44.38507" lon="4.8648">
        <ele>172.6</ele>
        <time>2015-03-08T09:25:28Z</time>
      </trkpt>
      <trkpt lat="44.38506" lon="4.86467">
        <ele>174.2</ele>
        <time>2015-03-08T09:25:36Z</time>
      </trkpt>
      <trkpt lat="44.38503" lon="4.86454">
        <ele>176</ele>
        <time>2015-03-08T09:25:43Z</time>
      </trkpt>
      <trkpt lat="44.385" lon="4.86441">
        <ele>177.7</ele>
        <time>2015-03-08T09:25:50Z</time>
      </trkpt>
      <trkpt lat="44.38498" lon="4.86428">
        <ele>178.9</ele>
        <time>2015-03-08T09:25:58Z</time>
      </trkpt>
      <trkpt lat="44.38495" lon="4.86416">
        <ele>180.7</ele>
        <time>2015-03-08T09:26:06Z</time>
      </trkpt>
      <trkpt lat="44.38492" lon="4.86404">
        <ele>182.5</ele>
        <time>2015-03-08T09:26:14Z</time>
      </trkpt>
      <trkpt lat="44.3849" lon="4.86391">
        <ele>184.6</ele>
        <time>2015-03-08T09:26:23Z</time>
      </trkpt>
      <trkpt lat="44.38488" lon="4.86378">
        <ele>186.6</ele>
        <time>2015-03-08T09:26:31Z</time>
      </trkpt>
      <trkpt lat="44.38481" lon="4.86369">
        <ele>187.6</ele>
        <time>2015-03-08T09:26:37Z</time>
      </trkpt>
      <trkpt lat="44.38474" lon="4.86358">
        <ele>189.1</ele>
        <time>2015-03-08T09:26:44Z</time>
      </trkpt>
      <trkpt lat="44.38469" lon="4.86346">
        <ele>190.4</ele>
        <time>2015-03-08T09:26:52Z</time>
      </trkpt>
      <trkpt lat="44.38463" lon="4.86335">
        <ele>192.1</ele>
        <time>2015-03-08T09:27:00Z</time>
      </trkpt>
      <trkpt lat="44.38457" lon="4.86325">
        <ele>193.3</ele>
        <time>2015-03-08T09:27:08Z</time>
      </trkpt>
      <trkpt lat="44.38451" lon="4.86316">
        <ele>194.8</ele>
        <time>2015-03-08T09:27:16Z</time>
      </trkpt>
      <trkpt lat="44.38444" lon="4.86306">
        <ele>195.8</ele>
        <time>2015-03-08T09:27:22Z</time>
      </trkpt>
      <trkpt lat="44.38437" lon="4.86296">
        <ele>196.5</ele>
        <time>2015-03-08T09:27:27Z</time>
      </trkpt>
      <trkpt lat="44.38429" lon="4.86288">
        <ele>197</ele>
        <time>2015-03-08T09:27:32Z</time>
      </trkpt>
      <trkpt lat="44.38421" lon="4.86281">
        <ele>197.4</ele>
        <time>2015-03-08T09:27:37Z</time>
      </trkpt>
      <trkpt lat="44.38412" lon="4.86274">
        <ele>198.1</ele>
        <time>2015-03-08T09:27:42Z</time>
      </trkpt>
      <trkpt lat="44.38405" lon="4.86265">
        <ele>198.8</ele>
        <time>2015-03-08T09:27:47Z</time>
      </trkpt>
      <trkpt lat="44.38397" lon="4.86258">
        <ele>199.2</ele>
        <time>2015-03-08T09:27:52Z</time>
      </trkpt>
      <trkpt lat="44.38388" lon="4.86255">
        <ele>199.7</ele>
        <time>2015-03-08T09:27:57Z</time>
      </trkpt>
      <trkpt lat="44.38379" lon="4.86249">
        <ele>200</ele>
        <time>2015-03-08T09:28:02Z</time>
      </trkpt>
      <trkpt lat="44.38371" lon="4.86241">
        <ele>200.6</ele>
        <time>2015-03-08T09:28:07Z</time>
      </trkpt>
      <trkpt lat="44.38363" lon="4.86231">
        <ele>201.4</ele>
        <time>2015-03-08T09:28:12Z</time>
      </trkpt>
      <trkpt lat="44.38354" lon="4.86224">
        <ele>201.9</ele>
        <time>2015-03-08T09:28:16Z</time>
      </trkpt>
      <trkpt lat="44.38345" lon="4.86218">
        <ele>202.1</ele>
        <time>2015-03-08T09:28:20Z</time>
      </trkpt>
      <trkpt lat="44.38335" lon="4.86213">
        <ele>202.3</ele>
        <time>2015-03-08T09:28:24Z</time>
      </trkpt>
      <trkpt lat="44.38325" lon="4.86207">
        <ele>202.6</ele>
        <time>2015-03-08T09:28:28Z</time>
      </trkpt>
      <trkpt lat="44.38317" lon="4.86199">
        <ele>202.9</ele>
        <time>2015-03-08T09:28:32Z</time>
      </trkpt>
      <trkpt lat="44.38311" lon="4.86189">
        <ele>203.4</ele>
        <time>2015-03-08T09:28:37Z</time>
      </trkpt>
      <trkpt lat="44.38305" lon="4.86179">
        <ele>203.7</ele>
        <time>2015-03-08T09:28:41Z</time>
      </trkpt>
      <trkpt lat="44.38298" lon="4.86169">
        <ele>203.9</ele>
        <time>2015-03-08T09:28:45Z</time>
      </trkpt>
      <trkpt lat="44.38292" lon="4.86159">
        <ele>204.2</ele>
        <time>2015-03-08T09:28:49Z</time>
      </trkpt>
      <trkpt lat="44.38285" lon="4.86149">
        <ele>204.3</ele>
        <time>2015-03-08T09:28:53Z</time>
      </trkpt>
      <trkpt lat="44.38277" lon="4.86141">
        <ele>204.5</ele>
        <time>2015-03-08T09:28:57Z</time>
      </trkpt>
      <trkpt lat="44.38269" lon="4.86135">
        <ele>204.6</ele>
        <time>2015-03-08T09:29:00Z</time>
      </trkpt>
      <trkpt lat="44.38259" lon="4.86131">
        <ele>204.6</ele>
        <time>2015-03-08T09:29:03Z</time>
      </trkpt>
      <trkpt lat="44.38248" lon="4.86126">
        <ele>204.7</ele>
        <time>2015-03-08T09:29:06Z</time>
      </trkpt>
      <trkpt lat="44.3824" lon="4.86119">
        <ele>204.7</ele>
        <time>2015-03-08T09:29:09Z</time>
      </trkpt>
      <trkpt lat="44.38247" lon="4.86126">
        <ele>204.3</ele>
        <time>2015-03-08T09:29:25Z</time>
      </trkpt>
      <trkpt lat="44.38258" lon="4.86129">
        <ele>204.3</ele>
        <time>2015-03-08T09:29:30Z</time>
      </trkpt>
      <trkpt lat="44.38267" lon="4.86133">
        <ele>204.2</ele>
        <time>2015-03-08T09:29:34Z</time>
      </trkpt>
      <trkpt lat="44.38275" lon="4.86139">
        <ele>203.8</ele>
        <time>2015-03-08T09:29:57Z</time>
      </trkpt>
      <trkpt lat="44.38265" lon="4.86134">
        <ele>204</ele>
        <time>2015-03-08T09:30:08Z</time>
      </trkpt>
      <trkpt lat="44.38257" lon="4.8613">
        <ele>204</ele>
        <time>2015-03-08T09:30:11Z</time>
      </trkpt>
      <trkpt lat="44.38248" lon="4.86126">
        <ele>204</ele>
        <time>2015-03-08T09:30:14Z</time>
      </trkpt>
      <trkpt lat="44.38238" lon="4.86118">
        <ele>203.8</ele>
        <time>2015-03-08T09:30:17Z</time>
      </trkpt>
      <trkpt lat="44.38228" lon="4.86109">
        <ele>203.7</ele>
        <time>2015-03-08T09:30:20Z</time>
      </trkpt>
      <trkpt lat="44.38219" lon="4.861">
        <ele>203.5</ele>
        <time>2015-03-08T09:30:23Z</time>
      </trkpt>
      <trkpt lat="44.38209" lon="4.86092">
        <ele>203.3</ele>
        <time>2015-03-08T09:30:26Z</time>
      </trkpt>
      <trkpt lat="44.38198" lon="4.86083">
        <ele>203.1</ele>
        <time>2015-03-08T09:30:29Z</time>
      </trkpt>
      <trkpt lat="44.38187" lon="4.86075">
        <ele>203</ele>
        <time>2015-03-08T09:30:32Z</time>
      </trkpt>
      <trkpt lat="44.38175" lon="4.86066">
        <ele>202.8</ele>
        <time>2015-03-08T09:30:35Z</time>
      </trkpt>
      <trkpt lat="44.38166" lon="4.86061">
        <ele>202.6</ele>
        <time>2015-03-08T09:30:37Z</time>
      </trkpt>
      <trkpt lat="44.38157" lon="4.86054">
        <ele>202.5</ele>
        <time>2015-03-08T09:30:39Z</time>
      </trkpt>
      <trkpt lat="44.3815" lon="4.86045">
        <ele>202.1</ele>
        <time>2015-03-08T09:30:41Z</time>
      </trkpt>
      <trkpt lat="44.38144" lon="4.86031">
        <ele>201.6</ele>
        <time>2015-03-08T09:30:44Z</time>
      </trkpt>
      <trkpt lat="44.3814" lon="4.86019">
        <ele>201.3</ele>
        <time>2015-03-08T09:30:47Z</time>
      </trkpt>
      <trkpt lat="44.38144" lon="4.86007">
        <ele>200.9</ele>
        <time>2015-03-08T09:30:51Z</time>
      </trkpt>
      <trkpt lat="44.38149" lon="4.85994">
        <ele>200.6</ele>
        <time>2015-03-08T09:30:56Z</time>
      </trkpt>
      <trkpt lat="44.38153" lon="4.85979">
        <ele>201.1</ele>
        <time>2015-03-08T09:31:01Z</time>
      </trkpt>
      <trkpt lat="44.38159" lon="4.85969">
        <ele>201.6</ele>
        <time>2015-03-08T09:31:06Z</time>
      </trkpt>
      <trkpt lat="44.38167" lon="4.85963">
        <ele>202.5</ele>
        <time>2015-03-08T09:31:12Z</time>
      </trkpt>
      <trkpt lat="44.38175" lon="4.85957">
        <ele>203.3</ele>
        <time>2015-03-08T09:31:19Z</time>
      </trkpt>
      <trkpt lat="44.38183" lon="4.85951">
        <ele>204.9</ele>
        <time>2015-03-08T09:31:26Z</time>
      </trkpt>
      <trkpt lat="44.3819" lon="4.85943">
        <ele>206.3</ele>
        <time>2015-03-08T09:31:33Z</time>
      </trkpt>
      <trkpt lat="44.38189" lon="4.85929">
        <ele>207.3</ele>
        <time>2015-03-08T09:31:39Z</time>
      </trkpt>
      <trkpt lat="44.38189" lon="4.85914">
        <ele>207.7</ele>
        <time>2015-03-08T09:31:44Z</time>
      </trkpt>
      <trkpt lat="44.38194" lon="4.859">
        <ele>207.4</ele>
        <time>2015-03-08T09:31:48Z</time>
      </trkpt>
      <trkpt lat="44.382" lon="4.85885">
        <ele>207</ele>
        <time>2015-03-08T09:31:52Z</time>
      </trkpt>
      <trkpt lat="44.38207" lon="4.85873">
        <ele>206.6</ele>
        <time>2015-03-08T09:31:56Z</time>
      </trkpt>
      <trkpt lat="44.38214" lon="4.85862">
        <ele>206</ele>
        <time>2015-03-08T09:31:59Z</time>
      </trkpt>
      <trkpt lat="44.38221" lon="4.85849">
        <ele>205.4</ele>
        <time>2015-03-08T09:32:02Z</time>
      </trkpt>
      <trkpt lat="44.3823" lon="4.85843">
        <ele>204.7</ele>
        <time>2015-03-08T09:32:05Z</time>
      </trkpt>
      <trkpt lat="44.3824" lon="4.85838">
        <ele>203.6</ele>
        <time>2015-03-08T09:32:10Z</time>
      </trkpt>
      <trkpt lat="44.38248" lon="4.85829">
        <ele>203</ele>
        <time>2015-03-08T09:32:14Z</time>
      </trkpt>
      <trkpt lat="44.38256" lon="4.85821">
        <ele>202.7</ele>
        <time>2015-03-08T09:32:18Z</time>
      </trkpt>
      <trkpt lat="44.38266" lon="4.85815">
        <ele>202.4</ele>
        <time>2015-03-08T09:32:23Z</time>
      </trkpt>
      <trkpt lat="44.38275" lon="4.85806">
        <ele>202.1</ele>
        <time>2015-03-08T09:32:28Z</time>
      </trkpt>
      <trkpt lat="44.38283" lon="4.85799">
        <ele>202.1</ele>
        <time>2015-03-08T09:32:32Z</time>
      </trkpt>
      <trkpt lat="44.38291" lon="4.85792">
        <ele>202.1</ele>
        <time>2015-03-08T09:32:36Z</time>
      </trkpt>
      <trkpt lat="44.38301" lon="4.85785">
        <ele>202.3</ele>
        <time>2015-03-08T09:32:41Z</time>
      </trkpt>
      <trkpt lat="44.3831" lon="4.85777">
        <ele>202.8</ele>
        <time>2015-03-08T09:32:46Z</time>
      </trkpt>
      <trkpt lat="44.38318" lon="4.85771">
        <ele>203.1</ele>
        <time>2015-03-08T09:32:50Z</time>
      </trkpt>
      <trkpt lat="44.38327" lon="4.85762">
        <ele>203.8</ele>
        <time>2015-03-08T09:32:54Z</time>
      </trkpt>
      <trkpt lat="44.38337" lon="4.85756">
        <ele>204.3</ele>
        <time>2015-03-08T09:32:58Z</time>
      </trkpt>
      <trkpt lat="44.38348" lon="4.85748">
        <ele>204.7</ele>
        <time>2015-03-08T09:33:02Z</time>
      </trkpt>
      <trkpt lat="44.38356" lon="4.85741">
        <ele>204.8</ele>
        <time>2015-03-08T09:33:05Z</time>
      </trkpt>
      <trkpt lat="44.38366" lon="4.85736">
        <ele>204.8</ele>
        <time>2015-03-08T09:33:08Z</time>
      </trkpt>
      <trkpt lat="44.38376" lon="4.8573">
        <ele>204.9</ele>
        <time>2015-03-08T09:33:11Z</time>
      </trkpt>
      <trkpt lat="44.38382" lon="4.8572">
        <ele>204.7</ele>
        <time>2015-03-08T09:33:15Z</time>
      </trkpt>
      <trkpt lat="44.38391" lon="4.85708">
        <ele>204.3</ele>
        <time>2015-03-08T09:33:18Z</time>
      </trkpt>
      <trkpt lat="44.38398" lon="4.85701">
        <ele>203.8</ele>
        <time>2015-03-08T09:33:21Z</time>
      </trkpt>
      <trkpt lat="44.38409" lon="4.85697">
        <ele>203.1</ele>
        <time>2015-03-08T09:33:26Z</time>
      </trkpt>
      <trkpt lat="44.38417" lon="4.85691">
        <ele>202.8</ele>
        <time>2015-03-08T09:33:30Z</time>
      </trkpt>
      <trkpt lat="44.38425" lon="4.85685">
        <ele>202.7</ele>
        <time>2015-03-08T09:33:33Z</time>
      </trkpt>
      <trkpt lat="44.38436" lon="4.85682">
        <ele>202.7</ele>
        <time>2015-03-08T09:33:37Z</time>
      </trkpt>
      <trkpt lat="44.38445" lon="4.85674">
        <ele>202.7</ele>
        <time>2015-03-08T09:33:41Z</time>
      </trkpt>
      <trkpt lat="44.38454" lon="4.85671">
        <ele>203.1</ele>
        <time>2015-03-08T09:33:45Z</time>
      </trkpt>
      <trkpt lat="44.38464" lon="4.85668">
        <ele>203.4</ele>
        <time>2015-03-08T09:33:53Z</time>
      </trkpt>
      <trkpt lat="44.38472" lon="4.85659">
        <ele>203.5</ele>
        <time>2015-03-08T09:33:57Z</time>
      </trkpt>
      <trkpt lat="44.38482" lon="4.85649">
        <ele>203.6</ele>
        <time>2015-03-08T09:34:01Z</time>
      </trkpt>
      <trkpt lat="44.38487" lon="4.85639">
        <ele>203.6</ele>
        <time>2015-03-08T09:34:04Z</time>
      </trkpt>
      <trkpt lat="44.38499" lon="4.85636">
        <ele>203.6</ele>
        <time>2015-03-08T09:34:07Z</time>
      </trkpt>
      <trkpt lat="44.38509" lon="4.85637">
        <ele>203.4</ele>
        <time>2015-03-08T09:34:10Z</time>
      </trkpt>
      <trkpt lat="44.38522" lon="4.85635">
        <ele>203</ele>
        <time>2015-03-08T09:34:13Z</time>
      </trkpt>
      <trkpt lat="44.38534" lon="4.85632">
        <ele>202.7</ele>
        <time>2015-03-08T09:34:16Z</time>
      </trkpt>
      <trkpt lat="44.38546" lon="4.85627">
        <ele>202.3</ele>
        <time>2015-03-08T09:34:19Z</time>
      </trkpt>
      <trkpt lat="44.38559" lon="4.85621">
        <ele>201.9</ele>
        <time>2015-03-08T09:34:22Z</time>
      </trkpt>
      <trkpt lat="44.38568" lon="4.85614">
        <ele>201.6</ele>
        <time>2015-03-08T09:34:25Z</time>
      </trkpt>
      <trkpt lat="44.3856" lon="4.85604">
        <ele>201.3</ele>
        <time>2015-03-08T09:34:29Z</time>
      </trkpt>
      <trkpt lat="44.38557" lon="4.85592">
        <ele>200.4</ele>
        <time>2015-03-08T09:34:34Z</time>
      </trkpt>
      <trkpt lat="44.38549" lon="4.85583">
        <ele>198.6</ele>
        <time>2015-03-08T09:34:42Z</time>
      </trkpt>
      <trkpt lat="44.3855" lon="4.8557">
        <ele>193.5</ele>
        <time>2015-03-08T09:35:42Z</time>
      </trkpt>
      <trkpt lat="44.38559" lon="4.85567">
        <ele>192.4</ele>
        <time>2015-03-08T09:35:54Z</time>
      </trkpt>
      <trkpt lat="44.38565" lon="4.85556">
        <ele>192.9</ele>
        <time>2015-03-08T09:36:04Z</time>
      </trkpt>
      <trkpt lat="44.38565" lon="4.85543">
        <ele>193.7</ele>
        <time>2015-03-08T09:36:13Z</time>
      </trkpt>
      <trkpt lat="44.38573" lon="4.85535">
        <ele>194.4</ele>
        <time>2015-03-08T09:36:21Z</time>
      </trkpt>
      <trkpt lat="44.38563" lon="4.85529">
        <ele>197.6</ele>
        <time>2015-03-08T09:36:47Z</time>
      </trkpt>
      <trkpt lat="44.38553" lon="4.85531">
        <ele>198.5</ele>
        <time>2015-03-08T09:36:53Z</time>
      </trkpt>
      <trkpt lat="44.38542" lon="4.85534">
        <ele>198.9</ele>
        <time>2015-03-08T09:36:58Z</time>
      </trkpt>
      <trkpt lat="44.3853" lon="4.85535">
        <ele>198.9</ele>
        <time>2015-03-08T09:37:02Z</time>
      </trkpt>
      <trkpt lat="44.38519" lon="4.85536">
        <ele>198.9</ele>
        <time>2015-03-08T09:37:05Z</time>
      </trkpt>
      <trkpt lat="44.38508" lon="4.85536">
        <ele>198.6</ele>
        <time>2015-03-08T09:37:08Z</time>
      </trkpt>
      <trkpt lat="44.38497" lon="4.85538">
        <ele>198.1</ele>
        <time>2015-03-08T09:37:11Z</time>
      </trkpt>
      <trkpt lat="44.38485" lon="4.85539">
        <ele>197.7</ele>
        <time>2015-03-08T09:37:14Z</time>
      </trkpt>
      <trkpt lat="44.38476" lon="4.85541">
        <ele>197.5</ele>
        <time>2015-03-08T09:37:16Z</time>
      </trkpt>
      <trkpt lat="44.38466" lon="4.85541">
        <ele>197.3</ele>
        <time>2015-03-08T09:37:18Z</time>
      </trkpt>
      <trkpt lat="44.38456" lon="4.85543">
        <ele>197.2</ele>
        <time>2015-03-08T09:37:20Z</time>
      </trkpt>
      <trkpt lat="44.38445" lon="4.85546">
        <ele>197.1</ele>
        <time>2015-03-08T09:37:22Z</time>
      </trkpt>
      <trkpt lat="44.38435" lon="4.85548">
        <ele>196.7</ele>
        <time>2015-03-08T09:37:24Z</time>
      </trkpt>
      <trkpt lat="44.38426" lon="4.85556">
        <ele>196.3</ele>
        <time>2015-03-08T09:37:26Z</time>
      </trkpt>
      <trkpt lat="44.38416" lon="4.85564">
        <ele>196</ele>
        <time>2015-03-08T09:37:28Z</time>
      </trkpt>
      <trkpt lat="44.38405" lon="4.85569">
        <ele>195.6</ele>
        <time>2015-03-08T09:37:30Z</time>
      </trkpt>
      <trkpt lat="44.38394" lon="4.85574">
        <ele>195</ele>
        <time>2015-03-08T09:37:32Z</time>
      </trkpt>
      <trkpt lat="44.38382" lon="4.85577">
        <ele>194.5</ele>
        <time>2015-03-08T09:37:34Z</time>
      </trkpt>
      <trkpt lat="44.3837" lon="4.85579">
        <ele>194</ele>
        <time>2015-03-08T09:37:36Z</time>
      </trkpt>
      <trkpt lat="44.38357" lon="4.8558">
        <ele>193.5</ele>
        <time>2015-03-08T09:37:38Z</time>
      </trkpt>
      <trkpt lat="44.38346" lon="4.8558">
        <ele>193.1</ele>
        <time>2015-03-08T09:37:40Z</time>
      </trkpt>
      <trkpt lat="44.38334" lon="4.85579">
        <ele>192.7</ele>
        <time>2015-03-08T09:37:42Z</time>
      </trkpt>
      <trkpt lat="44.38323" lon="4.85579">
        <ele>192.3</ele>
        <time>2015-03-08T09:37:44Z</time>
      </trkpt>
      <trkpt lat="44.38312" lon="4.8558">
        <ele>191.9</ele>
        <time>2015-03-08T09:37:46Z</time>
      </trkpt>
      <trkpt lat="44.383" lon="4.85581">
        <ele>191.5</ele>
        <time>2015-03-08T09:37:48Z</time>
      </trkpt>
      <trkpt lat="44.38289" lon="4.85582">
        <ele>191.2</ele>
        <time>2015-03-08T09:37:50Z</time>
      </trkpt>
      <trkpt lat="44.38277" lon="4.85581">
        <ele>190.7</ele>
        <time>2015-03-08T09:37:52Z</time>
      </trkpt>
      <trkpt lat="44.38267" lon="4.85581">
        <ele>190.2</ele>
        <time>2015-03-08T09:37:54Z</time>
      </trkpt>
      <trkpt lat="44.38257" lon="4.85581">
        <ele>189.8</ele>
        <time>2015-03-08T09:37:56Z</time>
      </trkpt>
      <trkpt lat="44.38246" lon="4.85583">
        <ele>189.5</ele>
        <time>2015-03-08T09:37:58Z</time>
      </trkpt>
      <trkpt lat="44.38235" lon="4.85585">
        <ele>189.2</ele>
        <time>2015-03-08T09:38:00Z</time>
      </trkpt>
      <trkpt lat="44.38224" lon="4.85588">
        <ele>188.9</ele>
        <time>2015-03-08T09:38:02Z</time>
      </trkpt>
      <trkpt lat="44.38212" lon="4.85591">
        <ele>188.6</ele>
        <time>2015-03-08T09:38:04Z</time>
      </trkpt>
      <trkpt lat="44.38201" lon="4.85593">
        <ele>188.2</ele>
        <time>2015-03-08T09:38:06Z</time>
      </trkpt>
      <trkpt lat="44.38189" lon="4.85595">
        <ele>187.9</ele>
        <time>2015-03-08T09:38:08Z</time>
      </trkpt>
      <trkpt lat="44.38177" lon="4.85598">
        <ele>187.6</ele>
        <time>2015-03-08T09:38:10Z</time>
      </trkpt>
      <trkpt lat="44.38164" lon="4.85601">
        <ele>187.2</ele>
        <time>2015-03-08T09:38:12Z</time>
      </trkpt>
      <trkpt lat="44.38153" lon="4.85606">
        <ele>186.8</ele>
        <time>2015-03-08T09:38:14Z</time>
      </trkpt>
      <trkpt lat="44.3814" lon="4.8561">
        <ele>186.4</ele>
        <time>2015-03-08T09:38:16Z</time>
      </trkpt>
      <trkpt lat="44.38128" lon="4.85615">
        <ele>186</ele>
        <time>2015-03-08T09:38:18Z</time>
      </trkpt>
      <trkpt lat="44.38117" lon="4.8562">
        <ele>185.5</ele>
        <time>2015-03-08T09:38:20Z</time>
      </trkpt>
      <trkpt lat="44.38104" lon="4.85627">
        <ele>184.9</ele>
        <time>2015-03-08T09:38:22Z</time>
      </trkpt>
      <trkpt lat="44.38092" lon="4.85631">
        <ele>184.3</ele>
        <time>2015-03-08T09:38:24Z</time>
      </trkpt>
      <trkpt lat="44.38079" lon="4.85631">
        <ele>183.8</ele>
        <time>2015-03-08T09:38:26Z</time>
      </trkpt>
      <trkpt lat="44.38066" lon="4.85633">
        <ele>183.1</ele>
        <time>2015-03-08T09:38:28Z</time>
      </trkpt>
      <trkpt lat="44.38053" lon="4.85634">
        <ele>182.5</ele>
        <time>2015-03-08T09:38:30Z</time>
      </trkpt>
      <trkpt lat="44.3804" lon="4.85636">
        <ele>182</ele>
        <time>2015-03-08T09:38:32Z</time>
      </trkpt>
      <trkpt lat="44.38027" lon="4.8564">
        <ele>181.5</ele>
        <time>2015-03-08T09:38:34Z</time>
      </trkpt>
      <trkpt lat="44.38014" lon="4.85642">
        <ele>181</ele>
        <time>2015-03-08T09:38:36Z</time>
      </trkpt>
      <trkpt lat="44.38001" lon="4.85644">
        <ele>180.5</ele>
        <time>2015-03-08T09:38:38Z</time>
      </trkpt>
      <trkpt lat="44.37988" lon="4.85647">
        <ele>180</ele>
        <time>2015-03-08T09:38:40Z</time>
      </trkpt>
      <trkpt lat="44.37975" lon="4.8565">
        <ele>179.6</ele>
        <time>2015-03-08T09:38:42Z</time>
      </trkpt>
      <trkpt lat="44.37962" lon="4.85652">
        <ele>179.2</ele>
        <time>2015-03-08T09:38:44Z</time>
      </trkpt>
      <trkpt lat="44.3795" lon="4.85654">
        <ele>178.9</ele>
        <time>2015-03-08T09:38:46Z</time>
      </trkpt>
      <trkpt lat="44.37938" lon="4.85657">
        <ele>178.6</ele>
        <time>2015-03-08T09:38:48Z</time>
      </trkpt>
      <trkpt lat="44.37925" lon="4.85658">
        <ele>178.3</ele>
        <time>2015-03-08T09:38:50Z</time>
      </trkpt>
      <trkpt lat="44.37911" lon="4.8566">
        <ele>177.9</ele>
        <time>2015-03-08T09:38:52Z</time>
      </trkpt>
      <trkpt lat="44.37898" lon="4.85663">
        <ele>177.3</ele>
        <time>2015-03-08T09:38:54Z</time>
      </trkpt>
      <trkpt lat="44.37885" lon="4.85666">
        <ele>176.8</ele>
        <time>2015-03-08T09:38:56Z</time>
      </trkpt>
      <trkpt lat="44.37872" lon="4.8567">
        <ele>176.3</ele>
        <time>2015-03-08T09:38:58Z</time>
      </trkpt>
      <trkpt lat="44.37859" lon="4.85675">
        <ele>175.7</ele>
        <time>2015-03-08T09:39:00Z</time>
      </trkpt>
      <trkpt lat="44.37846" lon="4.85679">
        <ele>175.2</ele>
        <time>2015-03-08T09:39:02Z</time>
      </trkpt>
      <trkpt lat="44.37832" lon="4.85684">
        <ele>174.8</ele>
        <time>2015-03-08T09:39:04Z</time>
      </trkpt>
      <trkpt lat="44.37819" lon="4.85688">
        <ele>174.3</ele>
        <time>2015-03-08T09:39:06Z</time>
      </trkpt>
      <trkpt lat="44.37806" lon="4.85693">
        <ele>173.8</ele>
        <time>2015-03-08T09:39:08Z</time>
      </trkpt>
      <trkpt lat="44.37793" lon="4.85697">
        <ele>173.4</ele>
        <time>2015-03-08T09:39:10Z</time>
      </trkpt>
      <trkpt lat="44.3778" lon="4.857">
        <ele>172.9</ele>
        <time>2015-03-08T09:39:12Z</time>
      </trkpt>
      <trkpt lat="44.37767" lon="4.85703">
        <ele>172.5</ele>
        <time>2015-03-08T09:39:14Z</time>
      </trkpt>
      <trkpt lat="44.37755" lon="4.85706">
        <ele>172.2</ele>
        <time>2015-03-08T09:39:16Z</time>
      </trkpt>
      <trkpt lat="44.37743" lon="4.85709">
        <ele>171.8</ele>
        <time>2015-03-08T09:39:18Z</time>
      </trkpt>
      <trkpt lat="44.37731" lon="4.85711">
        <ele>171.4</ele>
        <time>2015-03-08T09:39:20Z</time>
      </trkpt>
      <trkpt lat="44.37718" lon="4.85711">
        <ele>171</ele>
        <time>2015-03-08T09:39:22Z</time>
      </trkpt>
      <trkpt lat="44.37706" lon="4.85711">
        <ele>170.6</ele>
        <time>2015-03-08T09:39:24Z</time>
      </trkpt>
      <trkpt lat="44.37693" lon="4.85711">
        <ele>170.2</ele>
        <time>2015-03-08T09:39:26Z</time>
      </trkpt>
      <trkpt lat="44.3768" lon="4.85712">
        <ele>169.8</ele>
        <time>2015-03-08T09:39:28Z</time>
      </trkpt>
      <trkpt lat="44.37668" lon="4.85711">
        <ele>169.3</ele>
        <time>2015-03-08T09:39:30Z</time>
      </trkpt>
      <trkpt lat="44.37656" lon="4.85709">
        <ele>168.9</ele>
        <time>2015-03-08T09:39:32Z</time>
      </trkpt>
      <trkpt lat="44.37643" lon="4.85709">
        <ele>168.6</ele>
        <time>2015-03-08T09:39:34Z</time>
      </trkpt>
      <trkpt lat="44.37631" lon="4.8571">
        <ele>168.2</ele>
        <time>2015-03-08T09:39:36Z</time>
      </trkpt>
      <trkpt lat="44.37619" lon="4.85712">
        <ele>168</ele>
        <time>2015-03-08T09:39:38Z</time>
      </trkpt>
      <trkpt lat="44.37608" lon="4.85711">
        <ele>167.7</ele>
        <time>2015-03-08T09:39:40Z</time>
      </trkpt>
      <trkpt lat="44.37598" lon="4.8571">
        <ele>167.5</ele>
        <time>2015-03-08T09:39:42Z</time>
      </trkpt>
      <trkpt lat="44.37589" lon="4.85707">
        <ele>167.3</ele>
        <time>2015-03-08T09:39:44Z</time>
      </trkpt>
      <trkpt lat="44.37582" lon="4.85698">
        <ele>167.2</ele>
        <time>2015-03-08T09:39:46Z</time>
      </trkpt>
      <trkpt lat="44.37576" lon="4.85688">
        <ele>167</ele>
        <time>2015-03-08T09:39:48Z</time>
      </trkpt>
      <trkpt lat="44.3757" lon="4.85678">
        <ele>166.8</ele>
        <time>2015-03-08T09:39:50Z</time>
      </trkpt>
      <trkpt lat="44.37563" lon="4.85669">
        <ele>166.6</ele>
        <time>2015-03-08T09:39:52Z</time>
      </trkpt>
      <trkpt lat="44.37556" lon="4.8566">
        <ele>166.4</ele>
        <time>2015-03-08T09:39:54Z</time>
      </trkpt>
      <trkpt lat="44.37549" lon="4.85651">
        <ele>166.2</ele>
        <time>2015-03-08T09:39:56Z</time>
      </trkpt>
      <trkpt lat="44.3754" lon="4.85638">
        <ele>166</ele>
        <time>2015-03-08T09:39:59Z</time>
      </trkpt>
      <trkpt lat="44.37533" lon="4.85629">
        <ele>165.9</ele>
        <time>2015-03-08T09:40:01Z</time>
      </trkpt>
      <trkpt lat="44.37525" lon="4.8562">
        <ele>165.8</ele>
        <time>2015-03-08T09:40:03Z</time>
      </trkpt>
      <trkpt lat="44.37518" lon="4.85611">
        <ele>165.7</ele>
        <time>2015-03-08T09:40:05Z</time>
      </trkpt>
      <trkpt lat="44.3751" lon="4.85601">
        <ele>165.6</ele>
        <time>2015-03-08T09:40:07Z</time>
      </trkpt>
      <trkpt lat="44.37502" lon="4.85592">
        <ele>165.5</ele>
        <time>2015-03-08T09:40:09Z</time>
      </trkpt>
      <trkpt lat="44.37493" lon="4.85584">
        <ele>165.5</ele>
        <time>2015-03-08T09:40:11Z</time>
      </trkpt>
      <trkpt lat="44.37484" lon="4.85575">
        <ele>165.5</ele>
        <time>2015-03-08T09:40:13Z</time>
      </trkpt>
      <trkpt lat="44.37475" lon="4.85567">
        <ele>165.5</ele>
        <time>2015-03-08T09:40:15Z</time>
      </trkpt>
      <trkpt lat="44.37467" lon="4.85558">
        <ele>165.5</ele>
        <time>2015-03-08T09:40:17Z</time>
      </trkpt>
      <trkpt lat="44.37458" lon="4.85549">
        <ele>165.6</ele>
        <time>2015-03-08T09:40:19Z</time>
      </trkpt>
      <trkpt lat="44.3745" lon="4.8554">
        <ele>165.6</ele>
        <time>2015-03-08T09:40:21Z</time>
      </trkpt>
      <trkpt lat="44.37442" lon="4.8553">
        <ele>165.6</ele>
        <time>2015-03-08T09:40:23Z</time>
      </trkpt>
      <trkpt lat="44.37436" lon="4.85519">
        <ele>165.6</ele>
        <time>2015-03-08T09:40:25Z</time>
      </trkpt>
      <trkpt lat="44.37429" lon="4.85504">
        <ele>165.6</ele>
        <time>2015-03-08T09:40:28Z</time>
      </trkpt>
      <trkpt lat="44.37425" lon="4.85491">
        <ele>165.8</ele>
        <time>2015-03-08T09:40:31Z</time>
      </trkpt>
      <trkpt lat="44.37419" lon="4.85477">
        <ele>165.9</ele>
        <time>2015-03-08T09:40:34Z</time>
      </trkpt>
      <trkpt lat="44.37414" lon="4.85461">
        <ele>166.2</ele>
        <time>2015-03-08T09:40:37Z</time>
      </trkpt>
      <trkpt lat="44.37409" lon="4.85445">
        <ele>166.3</ele>
        <time>2015-03-08T09:40:40Z</time>
      </trkpt>
      <trkpt lat="44.37405" lon="4.85429">
        <ele>166.5</ele>
        <time>2015-03-08T09:40:43Z</time>
      </trkpt>
      <trkpt lat="44.37402" lon="4.85415">
        <ele>166.7</ele>
        <time>2015-03-08T09:40:46Z</time>
      </trkpt>
      <trkpt lat="44.374" lon="4.85402">
        <ele>166.9</ele>
        <time>2015-03-08T09:40:49Z</time>
      </trkpt>
      <trkpt lat="44.37396" lon="4.85386">
        <ele>167.1</ele>
        <time>2015-03-08T09:40:53Z</time>
      </trkpt>
      <trkpt lat="44.37393" lon="4.85372">
        <ele>167.3</ele>
        <time>2015-03-08T09:40:57Z</time>
      </trkpt>
      <trkpt lat="44.37391" lon="4.85357">
        <ele>167.6</ele>
        <time>2015-03-08T09:41:01Z</time>
      </trkpt>
      <trkpt lat="44.37387" lon="4.85343">
        <ele>167.8</ele>
        <time>2015-03-08T09:41:05Z</time>
      </trkpt>
      <trkpt lat="44.37384" lon="4.8533">
        <ele>168.6</ele>
        <time>2015-03-08T09:41:09Z</time>
      </trkpt>
      <trkpt lat="44.3738" lon="4.85316">
        <ele>169.3</ele>
        <time>2015-03-08T09:41:14Z</time>
      </trkpt>
      <trkpt lat="44.37377" lon="4.85302">
        <ele>170</ele>
        <time>2015-03-08T09:41:20Z</time>
      </trkpt>
      <trkpt lat="44.37377" lon="4.85288">
        <ele>171.1</ele>
        <time>2015-03-08T09:41:27Z</time>
      </trkpt>
      <trkpt lat="44.37385" lon="4.85281">
        <ele>171.9</ele>
        <time>2015-03-08T09:41:33Z</time>
      </trkpt>
      <trkpt lat="44.37395" lon="4.85275">
        <ele>173.1</ele>
        <time>2015-03-08T09:41:40Z</time>
      </trkpt>
      <trkpt lat="44.37404" lon="4.85269">
        <ele>174.2</ele>
        <time>2015-03-08T09:41:48Z</time>
      </trkpt>
      <trkpt lat="44.37413" lon="4.85264">
        <ele>175.3</ele>
        <time>2015-03-08T09:41:56Z</time>
      </trkpt>
      <trkpt lat="44.37422" lon="4.85258">
        <ele>176.4</ele>
        <time>2015-03-08T09:42:03Z</time>
      </trkpt>
      <trkpt lat="44.3743" lon="4.85252">
        <ele>177.5</ele>
        <time>2015-03-08T09:42:10Z</time>
      </trkpt>
      <trkpt lat="44.37437" lon="4.85244">
        <ele>178.8</ele>
        <time>2015-03-08T09:42:17Z</time>
      </trkpt>
      <trkpt lat="44.37444" lon="4.85233">
        <ele>179.9</ele>
        <time>2015-03-08T09:42:23Z</time>
      </trkpt>
      <trkpt lat="44.37451" lon="4.85223">
        <ele>180.9</ele>
        <time>2015-03-08T09:42:30Z</time>
      </trkpt>
      <trkpt lat="44.37459" lon="4.85215">
        <ele>181.7</ele>
        <time>2015-03-08T09:42:36Z</time>
      </trkpt>
      <trkpt lat="44.37468" lon="4.85207">
        <ele>182.5</ele>
        <time>2015-03-08T09:42:42Z</time>
      </trkpt>
      <trkpt lat="44.37477" lon="4.85201">
        <ele>182.9</ele>
        <time>2015-03-08T09:42:47Z</time>
      </trkpt>
      <trkpt lat="44.37485" lon="4.85195">
        <ele>183.8</ele>
        <time>2015-03-08T09:42:52Z</time>
      </trkpt>
      <trkpt lat="44.37494" lon="4.85189">
        <ele>184.5</ele>
        <time>2015-03-08T09:42:57Z</time>
      </trkpt>
      <trkpt lat="44.37503" lon="4.85182">
        <ele>185</ele>
        <time>2015-03-08T09:43:02Z</time>
      </trkpt>
      <trkpt lat="44.37513" lon="4.85176">
        <ele>185.4</ele>
        <time>2015-03-08T09:43:07Z</time>
      </trkpt>
      <trkpt lat="44.37522" lon="4.8517">
        <ele>185.7</ele>
        <time>2015-03-08T09:43:12Z</time>
      </trkpt>
      <trkpt lat="44.37532" lon="4.85164">
        <ele>186</ele>
        <time>2015-03-08T09:43:17Z</time>
      </trkpt>
      <trkpt lat="44.37543" lon="4.85158">
        <ele>186.3</ele>
        <time>2015-03-08T09:43:22Z</time>
      </trkpt>
      <trkpt lat="44.37552" lon="4.85154">
        <ele>186.7</ele>
        <time>2015-03-08T09:43:27Z</time>
      </trkpt>
      <trkpt lat="44.37561" lon="4.85149">
        <ele>187.1</ele>
        <time>2015-03-08T09:43:32Z</time>
      </trkpt>
      <trkpt lat="44.3757" lon="4.85143">
        <ele>187.5</ele>
        <time>2015-03-08T09:43:38Z</time>
      </trkpt>
      <trkpt lat="44.3758" lon="4.85139">
        <ele>187.8</ele>
        <time>2015-03-08T09:43:43Z</time>
      </trkpt>
      <trkpt lat="44.37588" lon="4.85133">
        <ele>188.4</ele>
        <time>2015-03-08T09:43:48Z</time>
      </trkpt>
      <trkpt lat="44.37596" lon="4.85126">
        <ele>189.1</ele>
        <time>2015-03-08T09:43:53Z</time>
      </trkpt>
      <trkpt lat="44.37604" lon="4.85119">
        <ele>189.9</ele>
        <time>2015-03-08T09:43:58Z</time>
      </trkpt>
      <trkpt lat="44.37613" lon="4.85112">
        <ele>190.6</ele>
        <time>2015-03-08T09:44:04Z</time>
      </trkpt>
      <trkpt lat="44.37619" lon="4.85099">
        <ele>191.2</ele>
        <time>2015-03-08T09:44:10Z</time>
      </trkpt>
      <trkpt lat="44.37627" lon="4.8509">
        <ele>191.8</ele>
        <time>2015-03-08T09:44:15Z</time>
      </trkpt>
      <trkpt lat="44.37635" lon="4.85082">
        <ele>192.5</ele>
        <time>2015-03-08T09:44:21Z</time>
      </trkpt>
      <trkpt lat="44.37642" lon="4.85073">
        <ele>193</ele>
        <time>2015-03-08T09:44:26Z</time>
      </trkpt>
      <trkpt lat="44.37649" lon="4.85065">
        <ele>193.5</ele>
        <time>2015-03-08T09:44:31Z</time>
      </trkpt>
      <trkpt lat="44.37655" lon="4.85053">
        <ele>194.2</ele>
        <time>2015-03-08T09:44:36Z</time>
      </trkpt>
      <trkpt lat="44.3766" lon="4.85043">
        <ele>195</ele>
        <time>2015-03-08T09:44:40Z</time>
      </trkpt>
      <trkpt lat="44.37664" lon="4.85031">
        <ele>195.8</ele>
        <time>2015-03-08T09:44:44Z</time>
      </trkpt>
      <trkpt lat="44.37667" lon="4.85018">
        <ele>196.1</ele>
        <time>2015-03-08T09:44:47Z</time>
      </trkpt>
      <trkpt lat="44.37675" lon="4.85009">
        <ele>196.2</ele>
        <time>2015-03-08T09:44:52Z</time>
      </trkpt>
      <trkpt lat="44.37682" lon="4.85">
        <ele>196.3</ele>
        <time>2015-03-08T09:44:57Z</time>
      </trkpt>
      <trkpt lat="44.37689" lon="4.84991">
        <ele>196.4</ele>
        <time>2015-03-08T09:45:02Z</time>
      </trkpt>
      <trkpt lat="44.37699" lon="4.84987">
        <ele>197.3</ele>
        <time>2015-03-08T09:45:10Z</time>
      </trkpt>
      <trkpt lat="44.37707" lon="4.84979">
        <ele>198.2</ele>
        <time>2015-03-08T09:45:16Z</time>
      </trkpt>
      <trkpt lat="44.37713" lon="4.84968">
        <ele>198.7</ele>
        <time>2015-03-08T09:45:21Z</time>
      </trkpt>
      <trkpt lat="44.37709" lon="4.84952">
        <ele>199</ele>
        <time>2015-03-08T09:45:25Z</time>
      </trkpt>
      <trkpt lat="44.37713" lon="4.84938">
        <ele>199.2</ele>
        <time>2015-03-08T09:45:28Z</time>
      </trkpt>
      <trkpt lat="44.37721" lon="4.84928">
        <ele>199.4</ele>
        <time>2015-03-08T09:45:32Z</time>
      </trkpt>
      <trkpt lat="44.37726" lon="4.84917">
        <ele>199.6</ele>
        <time>2015-03-08T09:45:36Z</time>
      </trkpt>
      <trkpt lat="44.37733" lon="4.84906">
        <ele>199.7</ele>
        <time>2015-03-08T09:45:40Z</time>
      </trkpt>
      <trkpt lat="44.37739" lon="4.84897">
        <ele>200</ele>
        <time>2015-03-08T09:45:44Z</time>
      </trkpt>
      <trkpt lat="44.37746" lon="4.84888">
        <ele>200.2</ele>
        <time>2015-03-08T09:45:48Z</time>
      </trkpt>
      <trkpt lat="44.37752" lon="4.84877">
        <ele>200.4</ele>
        <time>2015-03-08T09:45:53Z</time>
      </trkpt>
      <trkpt lat="44.3776" lon="4.8487">
        <ele>200.5</ele>
        <time>2015-03-08T09:45:59Z</time>
      </trkpt>
      <trkpt lat="44.37768" lon="4.84861">
        <ele>201</ele>
        <time>2015-03-08T09:46:04Z</time>
      </trkpt>
      <trkpt lat="44.37775" lon="4.84849">
        <ele>201.7</ele>
        <time>2015-03-08T09:46:09Z</time>
      </trkpt>
      <trkpt lat="44.37781" lon="4.84839">
        <ele>202.3</ele>
        <time>2015-03-08T09:46:13Z</time>
      </trkpt>
      <trkpt lat="44.37787" lon="4.8483">
        <ele>202.9</ele>
        <time>2015-03-08T09:46:17Z</time>
      </trkpt>
      <trkpt lat="44.37792" lon="4.84818">
        <ele>203.4</ele>
        <time>2015-03-08T09:46:21Z</time>
      </trkpt>
      <trkpt lat="44.37798" lon="4.84809">
        <ele>203.8</ele>
        <time>2015-03-08T09:46:25Z</time>
      </trkpt>
      <trkpt lat="44.37802" lon="4.84796">
        <ele>204.4</ele>
        <time>2015-03-08T09:46:34Z</time>
      </trkpt>
      <trkpt lat="44.37806" lon="4.84784">
        <ele>205.9</ele>
        <time>2015-03-08T09:46:45Z</time>
      </trkpt>
      <trkpt lat="44.37813" lon="4.84774">
        <ele>207.5</ele>
        <time>2015-03-08T09:47:00Z</time>
      </trkpt>
      <trkpt lat="44.3782" lon="4.84766">
        <ele>208.1</ele>
        <time>2015-03-08T09:47:05Z</time>
      </trkpt>
      <trkpt lat="44.37828" lon="4.84759">
        <ele>209</ele>
        <time>2015-03-08T09:47:11Z</time>
      </trkpt>
      <trkpt lat="44.37836" lon="4.84751">
        <ele>209.5</ele>
        <time>2015-03-08T09:47:16Z</time>
      </trkpt>
      <trkpt lat="44.37844" lon="4.84743">
        <ele>210</ele>
        <time>2015-03-08T09:47:22Z</time>
      </trkpt>
      <trkpt lat="44.37852" lon="4.84736">
        <ele>210.4</ele>
        <time>2015-03-08T09:47:27Z</time>
      </trkpt>
      <trkpt lat="44.37862" lon="4.8473">
        <ele>210.8</ele>
        <time>2015-03-08T09:47:33Z</time>
      </trkpt>
      <trkpt lat="44.37871" lon="4.84725">
        <ele>211.1</ele>
        <time>2015-03-08T09:47:38Z</time>
      </trkpt>
      <trkpt lat="44.37879" lon="4.84717">
        <ele>211.2</ele>
        <time>2015-03-08T09:47:41Z</time>
      </trkpt>
      <trkpt lat="44.37886" lon="4.84709">
        <ele>211.7</ele>
        <time>2015-03-08T09:47:46Z</time>
      </trkpt>
      <trkpt lat="44.37893" lon="4.84701">
        <ele>212</ele>
        <time>2015-03-08T09:47:51Z</time>
      </trkpt>
      <trkpt lat="44.37903" lon="4.84697">
        <ele>212.4</ele>
        <time>2015-03-08T09:47:56Z</time>
      </trkpt>
      <trkpt lat="44.37913" lon="4.84693">
        <ele>212.6</ele>
        <time>2015-03-08T09:48:01Z</time>
      </trkpt>
      <trkpt lat="44.37923" lon="4.84689">
        <ele>212.9</ele>
        <time>2015-03-08T09:48:06Z</time>
      </trkpt>
      <trkpt lat="44.37932" lon="4.84683">
        <ele>213.1</ele>
        <time>2015-03-08T09:48:10Z</time>
      </trkpt>
      <trkpt lat="44.37942" lon="4.84678">
        <ele>213.7</ele>
        <time>2015-03-08T09:48:15Z</time>
      </trkpt>
      <trkpt lat="44.37952" lon="4.84673">
        <ele>214.6</ele>
        <time>2015-03-08T09:48:20Z</time>
      </trkpt>
      <trkpt lat="44.3796" lon="4.84667">
        <ele>214.7</ele>
        <time>2015-03-08T09:48:24Z</time>
      </trkpt>
      <trkpt lat="44.37969" lon="4.84661">
        <ele>215</ele>
        <time>2015-03-08T09:48:28Z</time>
      </trkpt>
      <trkpt lat="44.37978" lon="4.84655">
        <ele>215.2</ele>
        <time>2015-03-08T09:48:32Z</time>
      </trkpt>
      <trkpt lat="44.37987" lon="4.84648">
        <ele>215.4</ele>
        <time>2015-03-08T09:48:36Z</time>
      </trkpt>
      <trkpt lat="44.37995" lon="4.8464">
        <ele>215.9</ele>
        <time>2015-03-08T09:48:40Z</time>
      </trkpt>
      <trkpt lat="44.38002" lon="4.84631">
        <ele>216.5</ele>
        <time>2015-03-08T09:48:46Z</time>
      </trkpt>
      <trkpt lat="44.38011" lon="4.84622">
        <ele>216.9</ele>
        <time>2015-03-08T09:48:51Z</time>
      </trkpt>
      <trkpt lat="44.3802" lon="4.84615">
        <ele>217.2</ele>
        <time>2015-03-08T09:48:56Z</time>
      </trkpt>
      <trkpt lat="44.38029" lon="4.84607">
        <ele>217.5</ele>
        <time>2015-03-08T09:49:01Z</time>
      </trkpt>
      <trkpt lat="44.38038" lon="4.84599">
        <ele>218.5</ele>
        <time>2015-03-08T09:49:06Z</time>
      </trkpt>
      <trkpt lat="44.38046" lon="4.84593">
        <ele>219.5</ele>
        <time>2015-03-08T09:49:10Z</time>
      </trkpt>
      <trkpt lat="44.38053" lon="4.84584">
        <ele>220.1</ele>
        <time>2015-03-08T09:49:15Z</time>
      </trkpt>
      <trkpt lat="44.38061" lon="4.84573">
        <ele>220.5</ele>
        <time>2015-03-08T09:49:20Z</time>
      </trkpt>
      <trkpt lat="44.38069" lon="4.84564">
        <ele>220.9</ele>
        <time>2015-03-08T09:49:24Z</time>
      </trkpt>
      <trkpt lat="44.38075" lon="4.84554">
        <ele>221.2</ele>
        <time>2015-03-08T09:49:28Z</time>
      </trkpt>
      <trkpt lat="44.3808" lon="4.84543">
        <ele>221.5</ele>
        <time>2015-03-08T09:49:33Z</time>
      </trkpt>
      <trkpt lat="44.38083" lon="4.84529">
        <ele>221.8</ele>
        <time>2015-03-08T09:49:38Z</time>
      </trkpt>
      <trkpt lat="44.38087" lon="4.84518">
        <ele>222.1</ele>
        <time>2015-03-08T09:49:43Z</time>
      </trkpt>
      <trkpt lat="44.3809" lon="4.84505">
        <ele>222.3</ele>
        <time>2015-03-08T09:49:48Z</time>
      </trkpt>
      <trkpt lat="44.38093" lon="4.84492">
        <ele>222.6</ele>
        <time>2015-03-08T09:49:53Z</time>
      </trkpt>
      <trkpt lat="44.38089" lon="4.84481">
        <ele>223.2</ele>
        <time>2015-03-08T09:50:00Z</time>
      </trkpt>
      <trkpt lat="44.38086" lon="4.84468">
        <ele>224</ele>
        <time>2015-03-08T09:50:08Z</time>
      </trkpt>
      <trkpt lat="44.38087" lon="4.84454">
        <ele>224.6</ele>
        <time>2015-03-08T09:50:14Z</time>
      </trkpt>
      <trkpt lat="44.38086" lon="4.8444">
        <ele>225.1</ele>
        <time>2015-03-08T09:50:20Z</time>
      </trkpt>
      <trkpt lat="44.38084" lon="4.84427">
        <ele>226</ele>
        <time>2015-03-08T09:50:26Z</time>
      </trkpt>
      <trkpt lat="44.38081" lon="4.84414">
        <ele>226.7</ele>
        <time>2015-03-08T09:50:32Z</time>
      </trkpt>
      <trkpt lat="44.38077" lon="4.84399">
        <ele>227.5</ele>
        <time>2015-03-08T09:50:37Z</time>
      </trkpt>
      <trkpt lat="44.38073" lon="4.84387">
        <ele>228.1</ele>
        <time>2015-03-08T09:50:41Z</time>
      </trkpt>
      <trkpt lat="44.38071" lon="4.84374">
        <ele>228.4</ele>
        <time>2015-03-08T09:50:46Z</time>
      </trkpt>
      <trkpt lat="44.38069" lon="4.84358">
        <ele>228.6</ele>
        <time>2015-03-08T09:50:50Z</time>
      </trkpt>
      <trkpt lat="44.38066" lon="4.84345">
        <ele>229.1</ele>
        <time>2015-03-08T09:50:56Z</time>
      </trkpt>
      <trkpt lat="44.38061" lon="4.84332">
        <ele>229.3</ele>
        <time>2015-03-08T09:51:02Z</time>
      </trkpt>
      <trkpt lat="44.3806" lon="4.84318">
        <ele>229.5</ele>
        <time>2015-03-08T09:51:08Z</time>
      </trkpt>
      <trkpt lat="44.38055" lon="4.84306">
        <ele>229.8</ele>
        <time>2015-03-08T09:51:14Z</time>
      </trkpt>
      <trkpt lat="44.38051" lon="4.84294">
        <ele>230</ele>
        <time>2015-03-08T09:51:19Z</time>
      </trkpt>
      <trkpt lat="44.38045" lon="4.84283">
        <ele>230.6</ele>
        <time>2015-03-08T09:51:25Z</time>
      </trkpt>
      <trkpt lat="44.38037" lon="4.84276">
        <ele>231.2</ele>
        <time>2015-03-08T09:51:30Z</time>
      </trkpt>
      <trkpt lat="44.38031" lon="4.84264">
        <ele>231.7</ele>
        <time>2015-03-08T09:51:35Z</time>
      </trkpt>
      <trkpt lat="44.38025" lon="4.84253">
        <ele>232.1</ele>
        <time>2015-03-08T09:51:40Z</time>
      </trkpt>
      <trkpt lat="44.38019" lon="4.84242">
        <ele>232.7</ele>
        <time>2015-03-08T09:51:45Z</time>
      </trkpt>
      <trkpt lat="44.3802" lon="4.84229">
        <ele>233.1</ele>
        <time>2015-03-08T09:51:51Z</time>
      </trkpt>
      <trkpt lat="44.38015" lon="4.84216">
        <ele>233.6</ele>
        <time>2015-03-08T09:51:57Z</time>
      </trkpt>
      <trkpt lat="44.38014" lon="4.84202">
        <ele>234.5</ele>
        <time>2015-03-08T09:52:03Z</time>
      </trkpt>
      <trkpt lat="44.38012" lon="4.84189">
        <ele>235.1</ele>
        <time>2015-03-08T09:52:09Z</time>
      </trkpt>
      <trkpt lat="44.3802" lon="4.84181">
        <ele>235.4</ele>
        <time>2015-03-08T09:52:13Z</time>
      </trkpt>
      <trkpt lat="44.38032" lon="4.84181">
        <ele>235.5</ele>
        <time>2015-03-08T09:52:16Z</time>
      </trkpt>
      <trkpt lat="44.38041" lon="4.84181">
        <ele>235.6</ele>
        <time>2015-03-08T09:52:19Z</time>
      </trkpt>
      <trkpt lat="44.3805" lon="4.84177">
        <ele>235.7</ele>
        <time>2015-03-08T09:52:24Z</time>
      </trkpt>
      <trkpt lat="44.38058" lon="4.84169">
        <ele>235.8</ele>
        <time>2015-03-08T09:52:52Z</time>
      </trkpt>
      <trkpt lat="44.38067" lon="4.84166">
        <ele>236</ele>
        <time>2015-03-08T09:53:12Z</time>
      </trkpt>
      <trkpt lat="44.38068" lon="4.84153">
        <ele>236.9</ele>
        <time>2015-03-08T09:53:22Z</time>
      </trkpt>
      <trkpt lat="44.38073" lon="4.8414">
        <ele>238.1</ele>
        <time>2015-03-08T09:53:31Z</time>
      </trkpt>
      <trkpt lat="44.38076" lon="4.84128">
        <ele>240.5</ele>
        <time>2015-03-08T09:53:46Z</time>
      </trkpt>
      <trkpt lat="44.38081" lon="4.84115">
        <ele>241.4</ele>
        <time>2015-03-08T09:53:52Z</time>
      </trkpt>
      <trkpt lat="44.3809" lon="4.84109">
        <ele>242</ele>
        <time>2015-03-08T09:53:58Z</time>
      </trkpt>
      <trkpt lat="44.38097" lon="4.84099">
        <ele>242.4</ele>
        <time>2015-03-08T09:54:04Z</time>
      </trkpt>
      <trkpt lat="44.38105" lon="4.8409">
        <ele>243</ele>
        <time>2015-03-08T09:54:10Z</time>
      </trkpt>
      <trkpt lat="44.38112" lon="4.8408">
        <ele>243.8</ele>
        <time>2015-03-08T09:54:16Z</time>
      </trkpt>
      <trkpt lat="44.38118" lon="4.84068">
        <ele>244.2</ele>
        <time>2015-03-08T09:54:20Z</time>
      </trkpt>
      <trkpt lat="44.38125" lon="4.84059">
        <ele>244.1</ele>
        <time>2015-03-08T09:54:24Z</time>
      </trkpt>
      <trkpt lat="44.38133" lon="4.84051">
        <ele>244.1</ele>
        <time>2015-03-08T09:54:28Z</time>
      </trkpt>
      <trkpt lat="44.38141" lon="4.84043">
        <ele>244.6</ele>
        <time>2015-03-08T09:54:33Z</time>
      </trkpt>
      <trkpt lat="44.38148" lon="4.84035">
        <ele>245.1</ele>
        <time>2015-03-08T09:54:37Z</time>
      </trkpt>
      <trkpt lat="44.38158" lon="4.84026">
        <ele>245.5</ele>
        <time>2015-03-08T09:54:42Z</time>
      </trkpt>
      <trkpt lat="44.38165" lon="4.84017">
        <ele>245.8</ele>
        <time>2015-03-08T09:54:46Z</time>
      </trkpt>
      <trkpt lat="44.38171" lon="4.84006">
        <ele>246</ele>
        <time>2015-03-08T09:54:52Z</time>
      </trkpt>
      <trkpt lat="44.38177" lon="4.83994">
        <ele>246.4</ele>
        <time>2015-03-08T09:54:57Z</time>
      </trkpt>
      <trkpt lat="44.38185" lon="4.83983">
        <ele>246.7</ele>
        <time>2015-03-08T09:55:02Z</time>
      </trkpt>
      <trkpt lat="44.38193" lon="4.83977">
        <ele>247.3</ele>
        <time>2015-03-08T09:55:06Z</time>
      </trkpt>
      <trkpt lat="44.38202" lon="4.83972">
        <ele>248</ele>
        <time>2015-03-08T09:55:12Z</time>
      </trkpt>
      <trkpt lat="44.38212" lon="4.83967">
        <ele>248.8</ele>
        <time>2015-03-08T09:55:18Z</time>
      </trkpt>
      <trkpt lat="44.3822" lon="4.83959">
        <ele>249.7</ele>
        <time>2015-03-08T09:55:24Z</time>
      </trkpt>
      <trkpt lat="44.38228" lon="4.83951">
        <ele>250.5</ele>
        <time>2015-03-08T09:55:30Z</time>
      </trkpt>
      <trkpt lat="44.38236" lon="4.83942">
        <ele>251.6</ele>
        <time>2015-03-08T09:55:37Z</time>
      </trkpt>
      <trkpt lat="44.38238" lon="4.83928">
        <ele>252.5</ele>
        <time>2015-03-08T09:55:44Z</time>
      </trkpt>
      <trkpt lat="44.38238" lon="4.83915">
        <ele>253.4</ele>
        <time>2015-03-08T09:55:49Z</time>
      </trkpt>
      <trkpt lat="44.38239" lon="4.83902">
        <ele>253.8</ele>
        <time>2015-03-08T09:55:54Z</time>
      </trkpt>
      <trkpt lat="44.38241" lon="4.83889">
        <ele>254.2</ele>
        <time>2015-03-08T09:55:59Z</time>
      </trkpt>
      <trkpt lat="44.38243" lon="4.83876">
        <ele>254.8</ele>
        <time>2015-03-08T09:56:05Z</time>
      </trkpt>
      <trkpt lat="44.38242" lon="4.83863">
        <ele>255.4</ele>
        <time>2015-03-08T09:56:11Z</time>
      </trkpt>
      <trkpt lat="44.38241" lon="4.8385">
        <ele>256.5</ele>
        <time>2015-03-08T09:56:17Z</time>
      </trkpt>
      <trkpt lat="44.38234" lon="4.8384">
        <ele>257.5</ele>
        <time>2015-03-08T09:56:24Z</time>
      </trkpt>
      <trkpt lat="44.38227" lon="4.83833">
        <ele>259</ele>
        <time>2015-03-08T09:56:31Z</time>
      </trkpt>
      <trkpt lat="44.38219" lon="4.83825">
        <ele>260.1</ele>
        <time>2015-03-08T09:56:39Z</time>
      </trkpt>
      <trkpt lat="44.38211" lon="4.83817">
        <ele>261.8</ele>
        <time>2015-03-08T09:56:48Z</time>
      </trkpt>
      <trkpt lat="44.38202" lon="4.83811">
        <ele>265.5</ele>
        <time>2015-03-08T09:58:26Z</time>
      </trkpt>
      <trkpt lat="44.38196" lon="4.83802">
        <ele>266.1</ele>
        <time>2015-03-08T09:58:40Z</time>
      </trkpt>
      <trkpt lat="44.3819" lon="4.83792">
        <ele>267.6</ele>
        <time>2015-03-08T09:58:53Z</time>
      </trkpt>
      <trkpt lat="44.38184" lon="4.83783">
        <ele>270.6</ele>
        <time>2015-03-08T09:59:05Z</time>
      </trkpt>
      <trkpt lat="44.38179" lon="4.83772">
        <ele>272.3</ele>
        <time>2015-03-08T09:59:18Z</time>
      </trkpt>
      <trkpt lat="44.38177" lon="4.83758">
        <ele>273.7</ele>
        <time>2015-03-08T09:59:32Z</time>
      </trkpt>
      <trkpt lat="44.38176" lon="4.83746">
        <ele>275.5</ele>
        <time>2015-03-08T09:59:46Z</time>
      </trkpt>
      <trkpt lat="44.38166" lon="4.83742">
        <ele>276.3</ele>
        <time>2015-03-08T09:59:57Z</time>
      </trkpt>
      <trkpt lat="44.38158" lon="4.83739">
        <ele>276.7</ele>
        <time>2015-03-08T10:00:02Z</time>
      </trkpt>
      <trkpt lat="44.38149" lon="4.83736">
        <ele>276.9</ele>
        <time>2015-03-08T10:00:07Z</time>
      </trkpt>
      <trkpt lat="44.38139" lon="4.83732">
        <ele>277.1</ele>
        <time>2015-03-08T10:00:12Z</time>
      </trkpt>
      <trkpt lat="44.3813" lon="4.83727">
        <ele>277.4</ele>
        <time>2015-03-08T10:00:17Z</time>
      </trkpt>
      <trkpt lat="44.38121" lon="4.83722">
        <ele>277.2</ele>
        <time>2015-03-08T10:00:21Z</time>
      </trkpt>
      <trkpt lat="44.38114" lon="4.83713">
        <ele>277.1</ele>
        <time>2015-03-08T10:00:25Z</time>
      </trkpt>
      <trkpt lat="44.38105" lon="4.83706">
        <ele>277.5</ele>
        <time>2015-03-08T10:00:29Z</time>
      </trkpt>
      <trkpt lat="44.38096" lon="4.83699">
        <ele>277.7</ele>
        <time>2015-03-08T10:00:33Z</time>
      </trkpt>
      <trkpt lat="44.38087" lon="4.83694">
        <ele>277.9</ele>
        <time>2015-03-08T10:00:37Z</time>
      </trkpt>
      <trkpt lat="44.38077" lon="4.83689">
        <ele>278.1</ele>
        <time>2015-03-08T10:00:41Z</time>
      </trkpt>
      <trkpt lat="44.38067" lon="4.83682">
        <ele>278.2</ele>
        <time>2015-03-08T10:00:45Z</time>
      </trkpt>
      <trkpt lat="44.38057" lon="4.83681">
        <ele>278.2</ele>
        <time>2015-03-08T10:00:48Z</time>
      </trkpt>
      <trkpt lat="44.38047" lon="4.83681">
        <ele>278.2</ele>
        <time>2015-03-08T10:00:51Z</time>
      </trkpt>
      <trkpt lat="44.38036" lon="4.8368">
        <ele>278.3</ele>
        <time>2015-03-08T10:00:54Z</time>
      </trkpt>
      <trkpt lat="44.38023" lon="4.83681">
        <ele>278.3</ele>
        <time>2015-03-08T10:00:57Z</time>
      </trkpt>
      <trkpt lat="44.38013" lon="4.83682">
        <ele>278</ele>
        <time>2015-03-08T10:00:59Z</time>
      </trkpt>
      <trkpt lat="44.38001" lon="4.83686">
        <ele>277.6</ele>
        <time>2015-03-08T10:01:02Z</time>
      </trkpt>
      <trkpt lat="44.37992" lon="4.83692">
        <ele>277.2</ele>
        <time>2015-03-08T10:01:05Z</time>
      </trkpt>
      <trkpt lat="44.37981" lon="4.83695">
        <ele>276.9</ele>
        <time>2015-03-08T10:01:09Z</time>
      </trkpt>
      <trkpt lat="44.37969" lon="4.83694">
        <ele>276.7</ele>
        <time>2015-03-08T10:01:13Z</time>
      </trkpt>
      <trkpt lat="44.3796" lon="4.83694">
        <ele>276.5</ele>
        <time>2015-03-08T10:01:16Z</time>
      </trkpt>
      <trkpt lat="44.37951" lon="4.83695">
        <ele>276.4</ele>
        <time>2015-03-08T10:01:19Z</time>
      </trkpt>
      <trkpt lat="44.37941" lon="4.83703">
        <ele>276.2</ele>
        <time>2015-03-08T10:01:23Z</time>
      </trkpt>
      <trkpt lat="44.37935" lon="4.83718">
        <ele>276.2</ele>
        <time>2015-03-08T10:01:27Z</time>
      </trkpt>
      <trkpt lat="44.3793" lon="4.83729">
        <ele>276.2</ele>
        <time>2015-03-08T10:01:30Z</time>
      </trkpt>
      <trkpt lat="44.37928" lon="4.83742">
        <ele>276.3</ele>
        <time>2015-03-08T10:01:33Z</time>
      </trkpt>
      <trkpt lat="44.37929" lon="4.83755">
        <ele>276.5</ele>
        <time>2015-03-08T10:01:36Z</time>
      </trkpt>
      <trkpt lat="44.37925" lon="4.83769">
        <ele>276.7</ele>
        <time>2015-03-08T10:01:39Z</time>
      </trkpt>
      <trkpt lat="44.37919" lon="4.83782">
        <ele>276.9</ele>
        <time>2015-03-08T10:01:42Z</time>
      </trkpt>
      <trkpt lat="44.37914" lon="4.83799">
        <ele>277</ele>
        <time>2015-03-08T10:01:45Z</time>
      </trkpt>
      <trkpt lat="44.37912" lon="4.83816">
        <ele>277</ele>
        <time>2015-03-08T10:01:48Z</time>
      </trkpt>
      <trkpt lat="44.37905" lon="4.83832">
        <ele>276.7</ele>
        <time>2015-03-08T10:01:51Z</time>
      </trkpt>
      <trkpt lat="44.37901" lon="4.83843">
        <ele>276.5</ele>
        <time>2015-03-08T10:01:53Z</time>
      </trkpt>
      <trkpt lat="44.37898" lon="4.83859">
        <ele>276.3</ele>
        <time>2015-03-08T10:01:56Z</time>
      </trkpt>
      <trkpt lat="44.37897" lon="4.83876">
        <ele>276</ele>
        <time>2015-03-08T10:01:59Z</time>
      </trkpt>
      <trkpt lat="44.37895" lon="4.83892">
        <ele>275.6</ele>
        <time>2015-03-08T10:02:02Z</time>
      </trkpt>
      <trkpt lat="44.37893" lon="4.83908">
        <ele>275.3</ele>
        <time>2015-03-08T10:02:05Z</time>
      </trkpt>
      <trkpt lat="44.37889" lon="4.83922">
        <ele>275</ele>
        <time>2015-03-08T10:02:08Z</time>
      </trkpt>
      <trkpt lat="44.37883" lon="4.83936">
        <ele>274.7</ele>
        <time>2015-03-08T10:02:11Z</time>
      </trkpt>
      <trkpt lat="44.37877" lon="4.83951">
        <ele>274.1</ele>
        <time>2015-03-08T10:02:14Z</time>
      </trkpt>
      <trkpt lat="44.37874" lon="4.83963">
        <ele>273.7</ele>
        <time>2015-03-08T10:02:16Z</time>
      </trkpt>
      <trkpt lat="44.37872" lon="4.83976">
        <ele>273.3</ele>
        <time>2015-03-08T10:02:18Z</time>
      </trkpt>
      <trkpt lat="44.37869" lon="4.83988">
        <ele>273</ele>
        <time>2015-03-08T10:02:20Z</time>
      </trkpt>
      <trkpt lat="44.37865" lon="4.84001">
        <ele>272.6</ele>
        <time>2015-03-08T10:02:22Z</time>
      </trkpt>
      <trkpt lat="44.37864" lon="4.84014">
        <ele>272.1</ele>
        <time>2015-03-08T10:02:24Z</time>
      </trkpt>
      <trkpt lat="44.37864" lon="4.8403">
        <ele>271.6</ele>
        <time>2015-03-08T10:02:26Z</time>
      </trkpt>
      <trkpt lat="44.37863" lon="4.84046">
        <ele>270.8</ele>
        <time>2015-03-08T10:02:28Z</time>
      </trkpt>
      <trkpt lat="44.37861" lon="4.84061">
        <ele>270</ele>
        <time>2015-03-08T10:02:30Z</time>
      </trkpt>
      <trkpt lat="44.37858" lon="4.84077">
        <ele>269.2</ele>
        <time>2015-03-08T10:02:32Z</time>
      </trkpt>
      <trkpt lat="44.37855" lon="4.84091">
        <ele>268.4</ele>
        <time>2015-03-08T10:02:34Z</time>
      </trkpt>
      <trkpt lat="44.3785" lon="4.84105">
        <ele>267.1</ele>
        <time>2015-03-08T10:02:37Z</time>
      </trkpt>
      <trkpt lat="44.37841" lon="4.84113">
        <ele>265.7</ele>
        <time>2015-03-08T10:02:40Z</time>
      </trkpt>
      <trkpt lat="44.37832" lon="4.84117">
        <ele>264.5</ele>
        <time>2015-03-08T10:02:43Z</time>
      </trkpt>
      <trkpt lat="44.37822" lon="4.84113">
        <ele>263.4</ele>
        <time>2015-03-08T10:02:46Z</time>
      </trkpt>
      <trkpt lat="44.37812" lon="4.84106">
        <ele>262.5</ele>
        <time>2015-03-08T10:02:49Z</time>
      </trkpt>
      <trkpt lat="44.378" lon="4.84101">
        <ele>261.7</ele>
        <time>2015-03-08T10:02:52Z</time>
      </trkpt>
      <trkpt lat="44.37789" lon="4.84094">
        <ele>261</ele>
        <time>2015-03-08T10:02:55Z</time>
      </trkpt>
      <trkpt lat="44.37779" lon="4.84085">
        <ele>260.5</ele>
        <time>2015-03-08T10:02:58Z</time>
      </trkpt>
      <trkpt lat="44.37771" lon="4.84072">
        <ele>260.1</ele>
        <time>2015-03-08T10:03:01Z</time>
      </trkpt>
      <trkpt lat="44.3776" lon="4.84059">
        <ele>259.8</ele>
        <time>2015-03-08T10:03:04Z</time>
      </trkpt>
      <trkpt lat="44.37752" lon="4.84051">
        <ele>259.5</ele>
        <time>2015-03-08T10:03:06Z</time>
      </trkpt>
      <trkpt lat="44.37743" lon="4.84042">
        <ele>259.2</ele>
        <time>2015-03-08T10:03:08Z</time>
      </trkpt>
      <trkpt lat="44.37735" lon="4.84032">
        <ele>258.9</ele>
        <time>2015-03-08T10:03:10Z</time>
      </trkpt>
      <trkpt lat="44.37727" lon="4.84023">
        <ele>258.7</ele>
        <time>2015-03-08T10:03:12Z</time>
      </trkpt>
      <trkpt lat="44.37719" lon="4.84015">
        <ele>258.5</ele>
        <time>2015-03-08T10:03:14Z</time>
      </trkpt>
      <trkpt lat="44.37711" lon="4.84006">
        <ele>258.2</ele>
        <time>2015-03-08T10:03:16Z</time>
      </trkpt>
      <trkpt lat="44.37703" lon="4.83998">
        <ele>258</ele>
        <time>2015-03-08T10:03:18Z</time>
      </trkpt>
      <trkpt lat="44.37694" lon="4.83991">
        <ele>257.8</ele>
        <time>2015-03-08T10:03:20Z</time>
      </trkpt>
      <trkpt lat="44.37686" lon="4.83986">
        <ele>257.6</ele>
        <time>2015-03-08T10:03:22Z</time>
      </trkpt>
      <trkpt lat="44.37674" lon="4.83978">
        <ele>257.4</ele>
        <time>2015-03-08T10:03:25Z</time>
      </trkpt>
      <trkpt lat="44.37664" lon="4.83978">
        <ele>257.2</ele>
        <time>2015-03-08T10:03:29Z</time>
      </trkpt>
      <trkpt lat="44.37656" lon="4.8397">
        <ele>257</ele>
        <time>2015-03-08T10:03:34Z</time>
      </trkpt>
      <trkpt lat="44.37647" lon="4.83965">
        <ele>257</ele>
        <time>2015-03-08T10:03:37Z</time>
      </trkpt>
      <trkpt lat="44.37636" lon="4.83959">
        <ele>257</ele>
        <time>2015-03-08T10:03:40Z</time>
      </trkpt>
      <trkpt lat="44.37626" lon="4.83952">
        <ele>257</ele>
        <time>2015-03-08T10:03:43Z</time>
      </trkpt>
      <trkpt lat="44.37617" lon="4.83943">
        <ele>257</ele>
        <time>2015-03-08T10:03:46Z</time>
      </trkpt>
      <trkpt lat="44.37605" lon="4.83935">
        <ele>257</ele>
        <time>2015-03-08T10:03:49Z</time>
      </trkpt>
      <trkpt lat="44.37592" lon="4.8393">
        <ele>257</ele>
        <time>2015-03-08T10:03:52Z</time>
      </trkpt>
      <trkpt lat="44.37582" lon="4.83927">
        <ele>257</ele>
        <time>2015-03-08T10:03:54Z</time>
      </trkpt>
      <trkpt lat="44.37572" lon="4.83923">
        <ele>256.9</ele>
        <time>2015-03-08T10:03:56Z</time>
      </trkpt>
      <trkpt lat="44.37562" lon="4.83918">
        <ele>256.7</ele>
        <time>2015-03-08T10:03:58Z</time>
      </trkpt>
      <trkpt lat="44.37553" lon="4.83917">
        <ele>256.4</ele>
        <time>2015-03-08T10:04:00Z</time>
      </trkpt>
      <trkpt lat="44.37544" lon="4.83916">
        <ele>256</ele>
        <time>2015-03-08T10:04:02Z</time>
      </trkpt>
      <trkpt lat="44.37531" lon="4.83911">
        <ele>255.5</ele>
        <time>2015-03-08T10:04:05Z</time>
      </trkpt>
      <trkpt lat="44.37518" lon="4.83908">
        <ele>255</ele>
        <time>2015-03-08T10:04:08Z</time>
      </trkpt>
      <trkpt lat="44.37508" lon="4.83902">
        <ele>254.8</ele>
        <time>2015-03-08T10:04:10Z</time>
      </trkpt>
      <trkpt lat="44.37498" lon="4.83897">
        <ele>254.5</ele>
        <time>2015-03-08T10:04:12Z</time>
      </trkpt>
      <trkpt lat="44.37488" lon="4.83892">
        <ele>254.3</ele>
        <time>2015-03-08T10:04:14Z</time>
      </trkpt>
      <trkpt lat="44.37479" lon="4.83888">
        <ele>254.1</ele>
        <time>2015-03-08T10:04:16Z</time>
      </trkpt>
      <trkpt lat="44.37469" lon="4.83885">
        <ele>253.9</ele>
        <time>2015-03-08T10:04:18Z</time>
      </trkpt>
      <trkpt lat="44.3746" lon="4.83881">
        <ele>253.7</ele>
        <time>2015-03-08T10:04:20Z</time>
      </trkpt>
      <trkpt lat="44.37451" lon="4.83877">
        <ele>253.5</ele>
        <time>2015-03-08T10:04:22Z</time>
      </trkpt>
      <trkpt lat="44.3744" lon="4.83885">
        <ele>253.1</ele>
        <time>2015-03-08T10:04:25Z</time>
      </trkpt>
      <trkpt lat="44.37434" lon="4.83896">
        <ele>252.8</ele>
        <time>2015-03-08T10:04:27Z</time>
      </trkpt>
      <trkpt lat="44.37427" lon="4.83908">
        <ele>252.4</ele>
        <time>2015-03-08T10:04:29Z</time>
      </trkpt>
      <trkpt lat="44.3742" lon="4.83921">
        <ele>252</ele>
        <time>2015-03-08T10:04:31Z</time>
      </trkpt>
      <trkpt lat="44.37412" lon="4.83934">
        <ele>251.7</ele>
        <time>2015-03-08T10:04:33Z</time>
      </trkpt>
      <trkpt lat="44.37401" lon="4.83944">
        <ele>251.4</ele>
        <time>2015-03-08T10:04:35Z</time>
      </trkpt>
      <trkpt lat="44.37389" lon="4.83954">
        <ele>251</ele>
        <time>2015-03-08T10:04:37Z</time>
      </trkpt>
      <trkpt lat="44.37375" lon="4.83963">
        <ele>250.6</ele>
        <time>2015-03-08T10:04:39Z</time>
      </trkpt>
      <trkpt lat="44.37361" lon="4.83976">
        <ele>249.9</ele>
        <time>2015-03-08T10:04:41Z</time>
      </trkpt>
      <trkpt lat="44.37346" lon="4.8399">
        <ele>249.1</ele>
        <time>2015-03-08T10:04:43Z</time>
      </trkpt>
      <trkpt lat="44.37333" lon="4.84004">
        <ele>248.2</ele>
        <time>2015-03-08T10:04:45Z</time>
      </trkpt>
      <trkpt lat="44.37321" lon="4.84012">
        <ele>247.5</ele>
        <time>2015-03-08T10:04:47Z</time>
      </trkpt>
      <trkpt lat="44.37309" lon="4.84012">
        <ele>246.6</ele>
        <time>2015-03-08T10:04:49Z</time>
      </trkpt>
      <trkpt lat="44.37297" lon="4.84009">
        <ele>245.7</ele>
        <time>2015-03-08T10:04:51Z</time>
      </trkpt>
      <trkpt lat="44.37285" lon="4.84004">
        <ele>244.9</ele>
        <time>2015-03-08T10:04:53Z</time>
      </trkpt>
      <trkpt lat="44.37273" lon="4.84001">
        <ele>244.1</ele>
        <time>2015-03-08T10:04:55Z</time>
      </trkpt>
      <trkpt lat="44.37262" lon="4.83993">
        <ele>243.1</ele>
        <time>2015-03-08T10:04:57Z</time>
      </trkpt>
      <trkpt lat="44.37251" lon="4.83988">
        <ele>241.9</ele>
        <time>2015-03-08T10:04:59Z</time>
      </trkpt>
      <trkpt lat="44.3724" lon="4.8399">
        <ele>240.9</ele>
        <time>2015-03-08T10:05:01Z</time>
      </trkpt>
      <trkpt lat="44.37229" lon="4.83995">
        <ele>240</ele>
        <time>2015-03-08T10:05:03Z</time>
      </trkpt>
      <trkpt lat="44.37217" lon="4.84002">
        <ele>239</ele>
        <time>2015-03-08T10:05:05Z</time>
      </trkpt>
      <trkpt lat="44.37206" lon="4.84013">
        <ele>238.1</ele>
        <time>2015-03-08T10:05:07Z</time>
      </trkpt>
      <trkpt lat="44.37195" lon="4.84022">
        <ele>237.3</ele>
        <time>2015-03-08T10:05:09Z</time>
      </trkpt>
      <trkpt lat="44.37182" lon="4.84032">
        <ele>236.4</ele>
        <time>2015-03-08T10:05:11Z</time>
      </trkpt>
      <trkpt lat="44.37171" lon="4.84044">
        <ele>235.6</ele>
        <time>2015-03-08T10:05:13Z</time>
      </trkpt>
      <trkpt lat="44.37159" lon="4.84058">
        <ele>234.8</ele>
        <time>2015-03-08T10:05:15Z</time>
      </trkpt>
      <trkpt lat="44.3715" lon="4.84072">
        <ele>233.7</ele>
        <time>2015-03-08T10:05:17Z</time>
      </trkpt>
      <trkpt lat="44.37141" lon="4.84087">
        <ele>232.7</ele>
        <time>2015-03-08T10:05:19Z</time>
      </trkpt>
      <trkpt lat="44.37134" lon="4.84103">
        <ele>231.6</ele>
        <time>2015-03-08T10:05:21Z</time>
      </trkpt>
      <trkpt lat="44.37126" lon="4.84119">
        <ele>230.5</ele>
        <time>2015-03-08T10:05:23Z</time>
      </trkpt>
      <trkpt lat="44.37114" lon="4.84132">
        <ele>229.6</ele>
        <time>2015-03-08T10:05:25Z</time>
      </trkpt>
      <trkpt lat="44.37103" lon="4.84142">
        <ele>228.4</ele>
        <time>2015-03-08T10:05:27Z</time>
      </trkpt>
      <trkpt lat="44.37092" lon="4.84155">
        <ele>227.3</ele>
        <time>2015-03-08T10:05:29Z</time>
      </trkpt>
      <trkpt lat="44.37085" lon="4.84169">
        <ele>226.1</ele>
        <time>2015-03-08T10:05:31Z</time>
      </trkpt>
      <trkpt lat="44.37078" lon="4.84182">
        <ele>224.8</ele>
        <time>2015-03-08T10:05:33Z</time>
      </trkpt>
      <trkpt lat="44.37068" lon="4.8419">
        <ele>223.5</ele>
        <time>2015-03-08T10:05:35Z</time>
      </trkpt>
      <trkpt lat="44.37056" lon="4.84196">
        <ele>222.3</ele>
        <time>2015-03-08T10:05:37Z</time>
      </trkpt>
      <trkpt lat="44.37044" lon="4.84199">
        <ele>221.3</ele>
        <time>2015-03-08T10:05:39Z</time>
      </trkpt>
      <trkpt lat="44.37032" lon="4.84197">
        <ele>220.2</ele>
        <time>2015-03-08T10:05:41Z</time>
      </trkpt>
      <trkpt lat="44.37019" lon="4.84194">
        <ele>219.3</ele>
        <time>2015-03-08T10:05:43Z</time>
      </trkpt>
      <trkpt lat="44.37007" lon="4.84194">
        <ele>218.2</ele>
        <time>2015-03-08T10:05:45Z</time>
      </trkpt>
      <trkpt lat="44.36996" lon="4.84196">
        <ele>217.2</ele>
        <time>2015-03-08T10:05:47Z</time>
      </trkpt>
      <trkpt lat="44.36985" lon="4.84199">
        <ele>216.3</ele>
        <time>2015-03-08T10:05:49Z</time>
      </trkpt>
      <trkpt lat="44.36974" lon="4.84201">
        <ele>215.5</ele>
        <time>2015-03-08T10:05:51Z</time>
      </trkpt>
      <trkpt lat="44.36965" lon="4.84204">
        <ele>214.8</ele>
        <time>2015-03-08T10:05:53Z</time>
      </trkpt>
      <trkpt lat="44.36955" lon="4.84206">
        <ele>214.2</ele>
        <time>2015-03-08T10:05:55Z</time>
      </trkpt>
      <trkpt lat="44.36944" lon="4.84211">
        <ele>213.7</ele>
        <time>2015-03-08T10:05:57Z</time>
      </trkpt>
      <trkpt lat="44.3693" lon="4.84216">
        <ele>212.8</ele>
        <time>2015-03-08T10:05:59Z</time>
      </trkpt>
      <trkpt lat="44.36915" lon="4.84215">
        <ele>212.1</ele>
        <time>2015-03-08T10:06:01Z</time>
      </trkpt>
      <trkpt lat="44.369" lon="4.84217">
        <ele>211.4</ele>
        <time>2015-03-08T10:06:03Z</time>
      </trkpt>
      <trkpt lat="44.36887" lon="4.84224">
        <ele>210.2</ele>
        <time>2015-03-08T10:06:05Z</time>
      </trkpt>
      <trkpt lat="44.36876" lon="4.84234">
        <ele>209.3</ele>
        <time>2015-03-08T10:06:07Z</time>
      </trkpt>
      <trkpt lat="44.36866" lon="4.84245">
        <ele>208.6</ele>
        <time>2015-03-08T10:06:09Z</time>
      </trkpt>
      <trkpt lat="44.36857" lon="4.84255">
        <ele>207.9</ele>
        <time>2015-03-08T10:06:11Z</time>
      </trkpt>
      <trkpt lat="44.36847" lon="4.84263">
        <ele>207.4</ele>
        <time>2015-03-08T10:06:13Z</time>
      </trkpt>
      <trkpt lat="44.36838" lon="4.84271">
        <ele>206.9</ele>
        <time>2015-03-08T10:06:15Z</time>
      </trkpt>
      <trkpt lat="44.36828" lon="4.84279">
        <ele>206.4</ele>
        <time>2015-03-08T10:06:17Z</time>
      </trkpt>
      <trkpt lat="44.3682" lon="4.84286">
        <ele>206</ele>
        <time>2015-03-08T10:06:19Z</time>
      </trkpt>
      <trkpt lat="44.3681" lon="4.84295">
        <ele>205.5</ele>
        <time>2015-03-08T10:06:22Z</time>
      </trkpt>
      <trkpt lat="44.36801" lon="4.84294">
        <ele>205.1</ele>
        <time>2015-03-08T10:06:25Z</time>
      </trkpt>
      <trkpt lat="44.3679" lon="4.84287">
        <ele>204.7</ele>
        <time>2015-03-08T10:06:28Z</time>
      </trkpt>
      <trkpt lat="44.36782" lon="4.84282">
        <ele>204.5</ele>
        <time>2015-03-08T10:06:30Z</time>
      </trkpt>
      <trkpt lat="44.36769" lon="4.84275">
        <ele>204.2</ele>
        <time>2015-03-08T10:06:33Z</time>
      </trkpt>
      <trkpt lat="44.36758" lon="4.84266">
        <ele>204</ele>
        <time>2015-03-08T10:06:36Z</time>
      </trkpt>
      <trkpt lat="44.36746" lon="4.84258">
        <ele>203.8</ele>
        <time>2015-03-08T10:06:39Z</time>
      </trkpt>
      <trkpt lat="44.36736" lon="4.84248">
        <ele>203.7</ele>
        <time>2015-03-08T10:06:42Z</time>
      </trkpt>
      <trkpt lat="44.36727" lon="4.84236">
        <ele>203.5</ele>
        <time>2015-03-08T10:06:45Z</time>
      </trkpt>
      <trkpt lat="44.36716" lon="4.84227">
        <ele>203.5</ele>
        <time>2015-03-08T10:06:48Z</time>
      </trkpt>
      <trkpt lat="44.36708" lon="4.84221">
        <ele>203.5</ele>
        <time>2015-03-08T10:06:50Z</time>
      </trkpt>
      <trkpt lat="44.367" lon="4.84213">
        <ele>203.5</ele>
        <time>2015-03-08T10:06:52Z</time>
      </trkpt>
      <trkpt lat="44.36692" lon="4.84206">
        <ele>203.5</ele>
        <time>2015-03-08T10:06:54Z</time>
      </trkpt>
      <trkpt lat="44.36683" lon="4.84198">
        <ele>203.4</ele>
        <time>2015-03-08T10:06:56Z</time>
      </trkpt>
      <trkpt lat="44.36674" lon="4.84191">
        <ele>203.4</ele>
        <time>2015-03-08T10:06:58Z</time>
      </trkpt>
      <trkpt lat="44.36665" lon="4.84185">
        <ele>203.4</ele>
        <time>2015-03-08T10:07:00Z</time>
      </trkpt>
      <trkpt lat="44.36656" lon="4.84178">
        <ele>203.4</ele>
        <time>2015-03-08T10:07:02Z</time>
      </trkpt>
      <trkpt lat="44.36647" lon="4.84172">
        <ele>203.4</ele>
        <time>2015-03-08T10:07:04Z</time>
      </trkpt>
      <trkpt lat="44.36639" lon="4.84164">
        <ele>203.3</ele>
        <time>2015-03-08T10:07:06Z</time>
      </trkpt>
      <trkpt lat="44.3663" lon="4.84156">
        <ele>203.2</ele>
        <time>2015-03-08T10:07:08Z</time>
      </trkpt>
      <trkpt lat="44.36622" lon="4.84147">
        <ele>202.9</ele>
        <time>2015-03-08T10:07:10Z</time>
      </trkpt>
      <trkpt lat="44.36613" lon="4.84139">
        <ele>202.7</ele>
        <time>2015-03-08T10:07:12Z</time>
      </trkpt>
      <trkpt lat="44.36605" lon="4.84133">
        <ele>202.5</ele>
        <time>2015-03-08T10:07:14Z</time>
      </trkpt>
      <trkpt lat="44.36596" lon="4.84128">
        <ele>202.3</ele>
        <time>2015-03-08T10:07:16Z</time>
      </trkpt>
      <trkpt lat="44.36585" lon="4.84121">
        <ele>202</ele>
        <time>2015-03-08T10:07:19Z</time>
      </trkpt>
      <trkpt lat="44.36576" lon="4.84115">
        <ele>201.9</ele>
        <time>2015-03-08T10:07:21Z</time>
      </trkpt>
      <trkpt lat="44.36567" lon="4.84111">
        <ele>201.8</ele>
        <time>2015-03-08T10:07:23Z</time>
      </trkpt>
      <trkpt lat="44.36557" lon="4.84111">
        <ele>201.7</ele>
        <time>2015-03-08T10:07:25Z</time>
      </trkpt>
      <trkpt lat="44.36547" lon="4.84113">
        <ele>201.6</ele>
        <time>2015-03-08T10:07:27Z</time>
      </trkpt>
      <trkpt lat="44.36536" lon="4.84116">
        <ele>201.4</ele>
        <time>2015-03-08T10:07:29Z</time>
      </trkpt>
      <trkpt lat="44.36529" lon="4.84123">
        <ele>201</ele>
        <time>2015-03-08T10:07:31Z</time>
      </trkpt>
      <trkpt lat="44.36521" lon="4.84134">
        <ele>200.7</ele>
        <time>2015-03-08T10:07:33Z</time>
      </trkpt>
      <trkpt lat="44.36513" lon="4.84142">
        <ele>200.4</ele>
        <time>2015-03-08T10:07:35Z</time>
      </trkpt>
      <trkpt lat="44.36504" lon="4.84151">
        <ele>200.1</ele>
        <time>2015-03-08T10:07:37Z</time>
      </trkpt>
      <trkpt lat="44.36497" lon="4.84158">
        <ele>199.9</ele>
        <time>2015-03-08T10:07:39Z</time>
      </trkpt>
      <trkpt lat="44.36489" lon="4.84165">
        <ele>199.7</ele>
        <time>2015-03-08T10:07:41Z</time>
      </trkpt>
      <trkpt lat="44.36479" lon="4.84169">
        <ele>199.5</ele>
        <time>2015-03-08T10:07:43Z</time>
      </trkpt>
      <trkpt lat="44.36469" lon="4.84168">
        <ele>199.1</ele>
        <time>2015-03-08T10:07:45Z</time>
      </trkpt>
      <trkpt lat="44.36458" lon="4.84162">
        <ele>198.6</ele>
        <time>2015-03-08T10:07:47Z</time>
      </trkpt>
      <trkpt lat="44.36447" lon="4.84157">
        <ele>198.2</ele>
        <time>2015-03-08T10:07:49Z</time>
      </trkpt>
      <trkpt lat="44.36435" lon="4.84154">
        <ele>197.9</ele>
        <time>2015-03-08T10:07:51Z</time>
      </trkpt>
      <trkpt lat="44.36423" lon="4.84149">
        <ele>197.3</ele>
        <time>2015-03-08T10:07:53Z</time>
      </trkpt>
      <trkpt lat="44.3641" lon="4.84146">
        <ele>196.7</ele>
        <time>2015-03-08T10:07:55Z</time>
      </trkpt>
      <trkpt lat="44.36398" lon="4.84141">
        <ele>196.1</ele>
        <time>2015-03-08T10:07:57Z</time>
      </trkpt>
      <trkpt lat="44.36385" lon="4.84144">
        <ele>195.4</ele>
        <time>2015-03-08T10:07:59Z</time>
      </trkpt>
      <trkpt lat="44.36372" lon="4.84152">
        <ele>194.7</ele>
        <time>2015-03-08T10:08:01Z</time>
      </trkpt>
      <trkpt lat="44.36359" lon="4.84156">
        <ele>193.7</ele>
        <time>2015-03-08T10:08:03Z</time>
      </trkpt>
      <trkpt lat="44.36345" lon="4.84158">
        <ele>192.8</ele>
        <time>2015-03-08T10:08:05Z</time>
      </trkpt>
      <trkpt lat="44.3633" lon="4.84161">
        <ele>191.8</ele>
        <time>2015-03-08T10:08:07Z</time>
      </trkpt>
      <trkpt lat="44.36316" lon="4.84163">
        <ele>190.7</ele>
        <time>2015-03-08T10:08:09Z</time>
      </trkpt>
      <trkpt lat="44.36303" lon="4.84167">
        <ele>189.6</ele>
        <time>2015-03-08T10:08:11Z</time>
      </trkpt>
      <trkpt lat="44.3629" lon="4.84171">
        <ele>188.3</ele>
        <time>2015-03-08T10:08:13Z</time>
      </trkpt>
      <trkpt lat="44.36279" lon="4.8418">
        <ele>187.1</ele>
        <time>2015-03-08T10:08:15Z</time>
      </trkpt>
      <trkpt lat="44.36271" lon="4.84195">
        <ele>186</ele>
        <time>2015-03-08T10:08:17Z</time>
      </trkpt>
      <trkpt lat="44.36266" lon="4.84213">
        <ele>184.9</ele>
        <time>2015-03-08T10:08:19Z</time>
      </trkpt>
      <trkpt lat="44.3626" lon="4.84232">
        <ele>184</ele>
        <time>2015-03-08T10:08:21Z</time>
      </trkpt>
      <trkpt lat="44.36256" lon="4.84253">
        <ele>182.9</ele>
        <time>2015-03-08T10:08:23Z</time>
      </trkpt>
      <trkpt lat="44.36252" lon="4.84275">
        <ele>182</ele>
        <time>2015-03-08T10:08:25Z</time>
      </trkpt>
      <trkpt lat="44.36249" lon="4.84293">
        <ele>181.1</ele>
        <time>2015-03-08T10:08:27Z</time>
      </trkpt>
      <trkpt lat="44.36248" lon="4.84309">
        <ele>179.8</ele>
        <time>2015-03-08T10:08:30Z</time>
      </trkpt>
      <trkpt lat="44.36239" lon="4.84317">
        <ele>177.7</ele>
        <time>2015-03-08T10:08:34Z</time>
      </trkpt>
      <trkpt lat="44.36232" lon="4.84324">
        <ele>176.4</ele>
        <time>2015-03-08T10:08:37Z</time>
      </trkpt>
      <trkpt lat="44.3622" lon="4.84326">
        <ele>175</ele>
        <time>2015-03-08T10:08:41Z</time>
      </trkpt>
      <trkpt lat="44.36207" lon="4.84332">
        <ele>173.9</ele>
        <time>2015-03-08T10:08:44Z</time>
      </trkpt>
      <trkpt lat="44.36196" lon="4.84336">
        <ele>173.2</ele>
        <time>2015-03-08T10:08:46Z</time>
      </trkpt>
      <trkpt lat="44.36186" lon="4.84339">
        <ele>172.2</ele>
        <time>2015-03-08T10:08:48Z</time>
      </trkpt>
      <trkpt lat="44.36177" lon="4.84344">
        <ele>171.3</ele>
        <time>2015-03-08T10:08:50Z</time>
      </trkpt>
      <trkpt lat="44.36166" lon="4.84344">
        <ele>170.5</ele>
        <time>2015-03-08T10:08:52Z</time>
      </trkpt>
      <trkpt lat="44.36156" lon="4.84343">
        <ele>169.8</ele>
        <time>2015-03-08T10:08:54Z</time>
      </trkpt>
      <trkpt lat="44.36153" lon="4.84355">
        <ele>168.6</ele>
        <time>2015-03-08T10:08:57Z</time>
      </trkpt>
      <trkpt lat="44.36152" lon="4.84368">
        <ele>167.8</ele>
        <time>2015-03-08T10:08:59Z</time>
      </trkpt>
      <trkpt lat="44.36152" lon="4.84383">
        <ele>166.9</ele>
        <time>2015-03-08T10:09:01Z</time>
      </trkpt>
      <trkpt lat="44.3615" lon="4.84398">
        <ele>166.1</ele>
        <time>2015-03-08T10:09:03Z</time>
      </trkpt>
      <trkpt lat="44.36145" lon="4.84413">
        <ele>165.4</ele>
        <time>2015-03-08T10:09:05Z</time>
      </trkpt>
      <trkpt lat="44.36142" lon="4.84429">
        <ele>164.4</ele>
        <time>2015-03-08T10:09:07Z</time>
      </trkpt>
      <trkpt lat="44.36136" lon="4.84442">
        <ele>163.4</ele>
        <time>2015-03-08T10:09:09Z</time>
      </trkpt>
      <trkpt lat="44.3613" lon="4.84456">
        <ele>162.6</ele>
        <time>2015-03-08T10:09:11Z</time>
      </trkpt>
      <trkpt lat="44.36123" lon="4.84469">
        <ele>161.8</ele>
        <time>2015-03-08T10:09:13Z</time>
      </trkpt>
      <trkpt lat="44.36114" lon="4.84477">
        <ele>160.9</ele>
        <time>2015-03-08T10:09:15Z</time>
      </trkpt>
      <trkpt lat="44.36105" lon="4.84487">
        <ele>160.1</ele>
        <time>2015-03-08T10:09:17Z</time>
      </trkpt>
      <trkpt lat="44.36098" lon="4.84495">
        <ele>159.2</ele>
        <time>2015-03-08T10:09:19Z</time>
      </trkpt>
      <trkpt lat="44.36088" lon="4.84486">
        <ele>156.9</ele>
        <time>2015-03-08T10:09:24Z</time>
      </trkpt>
      <trkpt lat="44.36081" lon="4.84478">
        <ele>155.8</ele>
        <time>2015-03-08T10:09:26Z</time>
      </trkpt>
      <trkpt lat="44.36073" lon="4.84469">
        <ele>154.9</ele>
        <time>2015-03-08T10:09:28Z</time>
      </trkpt>
      <trkpt lat="44.36065" lon="4.84459">
        <ele>154.1</ele>
        <time>2015-03-08T10:09:30Z</time>
      </trkpt>
      <trkpt lat="44.36058" lon="4.84449">
        <ele>153.4</ele>
        <time>2015-03-08T10:09:32Z</time>
      </trkpt>
      <trkpt lat="44.36049" lon="4.84438">
        <ele>152.8</ele>
        <time>2015-03-08T10:09:34Z</time>
      </trkpt>
      <trkpt lat="44.36041" lon="4.84427">
        <ele>152.2</ele>
        <time>2015-03-08T10:09:36Z</time>
      </trkpt>
      <trkpt lat="44.36032" lon="4.84418">
        <ele>151.6</ele>
        <time>2015-03-08T10:09:38Z</time>
      </trkpt>
      <trkpt lat="44.36023" lon="4.84411">
        <ele>150.9</ele>
        <time>2015-03-08T10:09:40Z</time>
      </trkpt>
      <trkpt lat="44.36015" lon="4.84402">
        <ele>150.4</ele>
        <time>2015-03-08T10:09:42Z</time>
      </trkpt>
      <trkpt lat="44.36008" lon="4.84394">
        <ele>150</ele>
        <time>2015-03-08T10:09:44Z</time>
      </trkpt>
      <trkpt lat="44.36" lon="4.84384">
        <ele>149.6</ele>
        <time>2015-03-08T10:09:46Z</time>
      </trkpt>
      <trkpt lat="44.35993" lon="4.84374">
        <ele>149.2</ele>
        <time>2015-03-08T10:09:48Z</time>
      </trkpt>
      <trkpt lat="44.35985" lon="4.84365">
        <ele>148.9</ele>
        <time>2015-03-08T10:09:50Z</time>
      </trkpt>
      <trkpt lat="44.35978" lon="4.84355">
        <ele>148.7</ele>
        <time>2015-03-08T10:09:52Z</time>
      </trkpt>
      <trkpt lat="44.35972" lon="4.84345">
        <ele>148.5</ele>
        <time>2015-03-08T10:09:54Z</time>
      </trkpt>
      <trkpt lat="44.35965" lon="4.84335">
        <ele>148.3</ele>
        <time>2015-03-08T10:09:56Z</time>
      </trkpt>
      <trkpt lat="44.35958" lon="4.84324">
        <ele>148</ele>
        <time>2015-03-08T10:09:58Z</time>
      </trkpt>
      <trkpt lat="44.35951" lon="4.84313">
        <ele>147.8</ele>
        <time>2015-03-08T10:10:00Z</time>
      </trkpt>
      <trkpt lat="44.35945" lon="4.84304">
        <ele>147.5</ele>
        <time>2015-03-08T10:10:02Z</time>
      </trkpt>
      <trkpt lat="44.3594" lon="4.84294">
        <ele>147.2</ele>
        <time>2015-03-08T10:10:04Z</time>
      </trkpt>
      <trkpt lat="44.35933" lon="4.84283">
        <ele>146.9</ele>
        <time>2015-03-08T10:10:06Z</time>
      </trkpt>
      <trkpt lat="44.35927" lon="4.84273">
        <ele>146.6</ele>
        <time>2015-03-08T10:10:08Z</time>
      </trkpt>
      <trkpt lat="44.35922" lon="4.84261">
        <ele>146.3</ele>
        <time>2015-03-08T10:10:10Z</time>
      </trkpt>
      <trkpt lat="44.35918" lon="4.84249">
        <ele>146.1</ele>
        <time>2015-03-08T10:10:12Z</time>
      </trkpt>
      <trkpt lat="44.35913" lon="4.84237">
        <ele>145.8</ele>
        <time>2015-03-08T10:10:14Z</time>
      </trkpt>
      <trkpt lat="44.35909" lon="4.84226">
        <ele>145.7</ele>
        <time>2015-03-08T10:10:16Z</time>
      </trkpt>
      <trkpt lat="44.35904" lon="4.84214">
        <ele>144.8</ele>
        <time>2015-03-08T10:10:30Z</time>
      </trkpt>
      <trkpt lat="44.359" lon="4.84203">
        <ele>144.7</ele>
        <time>2015-03-08T10:10:34Z</time>
      </trkpt>
      <trkpt lat="44.35895" lon="4.84191">
        <ele>144.8</ele>
        <time>2015-03-08T10:10:37Z</time>
      </trkpt>
      <trkpt lat="44.35889" lon="4.84177">
        <ele>144.8</ele>
        <time>2015-03-08T10:10:40Z</time>
      </trkpt>
      <trkpt lat="44.35885" lon="4.84163">
        <ele>144.8</ele>
        <time>2015-03-08T10:10:43Z</time>
      </trkpt>
      <trkpt lat="44.35882" lon="4.8415">
        <ele>144.8</ele>
        <time>2015-03-08T10:10:46Z</time>
      </trkpt>
      <trkpt lat="44.35877" lon="4.84136">
        <ele>144.8</ele>
        <time>2015-03-08T10:10:49Z</time>
      </trkpt>
      <trkpt lat="44.35875" lon="4.84123">
        <ele>144.6</ele>
        <time>2015-03-08T10:10:52Z</time>
      </trkpt>
      <trkpt lat="44.35864" lon="4.84114">
        <ele>144.1</ele>
        <time>2015-03-08T10:10:56Z</time>
      </trkpt>
      <trkpt lat="44.35852" lon="4.84111">
        <ele>143.8</ele>
        <time>2015-03-08T10:10:59Z</time>
      </trkpt>
      <trkpt lat="44.35842" lon="4.84107">
        <ele>143.7</ele>
        <time>2015-03-08T10:11:01Z</time>
      </trkpt>
      <trkpt lat="44.35833" lon="4.84101">
        <ele>143.5</ele>
        <time>2015-03-08T10:11:03Z</time>
      </trkpt>
      <trkpt lat="44.35824" lon="4.84095">
        <ele>143.3</ele>
        <time>2015-03-08T10:11:05Z</time>
      </trkpt>
      <trkpt lat="44.35814" lon="4.84088">
        <ele>143.2</ele>
        <time>2015-03-08T10:11:07Z</time>
      </trkpt>
      <trkpt lat="44.35806" lon="4.84081">
        <ele>143</ele>
        <time>2015-03-08T10:11:09Z</time>
      </trkpt>
      <trkpt lat="44.35797" lon="4.84074">
        <ele>142.9</ele>
        <time>2015-03-08T10:11:11Z</time>
      </trkpt>
      <trkpt lat="44.35789" lon="4.84065">
        <ele>142.9</ele>
        <time>2015-03-08T10:11:13Z</time>
      </trkpt>
      <trkpt lat="44.35784" lon="4.84054">
        <ele>142.9</ele>
        <time>2015-03-08T10:11:15Z</time>
      </trkpt>
      <trkpt lat="44.35785" lon="4.84041">
        <ele>142.8</ele>
        <time>2015-03-08T10:11:17Z</time>
      </trkpt>
      <trkpt lat="44.35789" lon="4.84024">
        <ele>142.8</ele>
        <time>2015-03-08T10:11:20Z</time>
      </trkpt>
      <trkpt lat="44.35793" lon="4.84007">
        <ele>142.8</ele>
        <time>2015-03-08T10:11:23Z</time>
      </trkpt>
      <trkpt lat="44.35793" lon="4.83991">
        <ele>142.7</ele>
        <time>2015-03-08T10:11:26Z</time>
      </trkpt>
      <trkpt lat="44.35791" lon="4.83976">
        <ele>142.5</ele>
        <time>2015-03-08T10:11:29Z</time>
      </trkpt>
      <trkpt lat="44.35784" lon="4.83966">
        <ele>142.5</ele>
        <time>2015-03-08T10:11:32Z</time>
      </trkpt>
      <trkpt lat="44.35769" lon="4.83967">
        <ele>142.6</ele>
        <time>2015-03-08T10:11:35Z</time>
      </trkpt>
      <trkpt lat="44.35756" lon="4.83969">
        <ele>142.2</ele>
        <time>2015-03-08T10:11:37Z</time>
      </trkpt>
      <trkpt lat="44.35741" lon="4.83971">
        <ele>141.9</ele>
        <time>2015-03-08T10:11:39Z</time>
      </trkpt>
      <trkpt lat="44.35726" lon="4.83973">
        <ele>141.4</ele>
        <time>2015-03-08T10:11:41Z</time>
      </trkpt>
      <trkpt lat="44.35712" lon="4.83969">
        <ele>141</ele>
        <time>2015-03-08T10:11:43Z</time>
      </trkpt>
      <trkpt lat="44.35698" lon="4.83963">
        <ele>140.5</ele>
        <time>2015-03-08T10:11:45Z</time>
      </trkpt>
      <trkpt lat="44.35686" lon="4.83953">
        <ele>140.1</ele>
        <time>2015-03-08T10:11:47Z</time>
      </trkpt>
      <trkpt lat="44.35677" lon="4.8394">
        <ele>139.7</ele>
        <time>2015-03-08T10:11:49Z</time>
      </trkpt>
      <trkpt lat="44.35667" lon="4.83926">
        <ele>139.4</ele>
        <time>2015-03-08T10:11:51Z</time>
      </trkpt>
      <trkpt lat="44.35658" lon="4.83913">
        <ele>139.1</ele>
        <time>2015-03-08T10:11:53Z</time>
      </trkpt>
      <trkpt lat="44.35649" lon="4.839">
        <ele>138.8</ele>
        <time>2015-03-08T10:11:55Z</time>
      </trkpt>
      <trkpt lat="44.3564" lon="4.83887">
        <ele>138.6</ele>
        <time>2015-03-08T10:11:57Z</time>
      </trkpt>
      <trkpt lat="44.35631" lon="4.83874">
        <ele>138.3</ele>
        <time>2015-03-08T10:11:59Z</time>
      </trkpt>
      <trkpt lat="44.35623" lon="4.83861">
        <ele>137.9</ele>
        <time>2015-03-08T10:12:01Z</time>
      </trkpt>
      <trkpt lat="44.35617" lon="4.83848">
        <ele>137.4</ele>
        <time>2015-03-08T10:12:03Z</time>
      </trkpt>
      <trkpt lat="44.3561" lon="4.83836">
        <ele>137</ele>
        <time>2015-03-08T10:12:05Z</time>
      </trkpt>
      <trkpt lat="44.35603" lon="4.83825">
        <ele>136.6</ele>
        <time>2015-03-08T10:12:07Z</time>
      </trkpt>
      <trkpt lat="44.35595" lon="4.83816">
        <ele>136.3</ele>
        <time>2015-03-08T10:12:09Z</time>
      </trkpt>
      <trkpt lat="44.35588" lon="4.83808">
        <ele>136</ele>
        <time>2015-03-08T10:12:11Z</time>
      </trkpt>
      <trkpt lat="44.35578" lon="4.83806">
        <ele>135.6</ele>
        <time>2015-03-08T10:12:14Z</time>
      </trkpt>
      <trkpt lat="44.35569" lon="4.83803">
        <ele>135.1</ele>
        <time>2015-03-08T10:12:18Z</time>
      </trkpt>
      <trkpt lat="44.35562" lon="4.83793">
        <ele>134.8</ele>
        <time>2015-03-08T10:12:21Z</time>
      </trkpt>
      <trkpt lat="44.35552" lon="4.8378">
        <ele>134.5</ele>
        <time>2015-03-08T10:12:24Z</time>
      </trkpt>
      <trkpt lat="44.35546" lon="4.8377">
        <ele>134.3</ele>
        <time>2015-03-08T10:12:26Z</time>
      </trkpt>
      <trkpt lat="44.35539" lon="4.8376">
        <ele>134.1</ele>
        <time>2015-03-08T10:12:28Z</time>
      </trkpt>
      <trkpt lat="44.35531" lon="4.83751">
        <ele>133.9</ele>
        <time>2015-03-08T10:12:30Z</time>
      </trkpt>
      <trkpt lat="44.35524" lon="4.8374">
        <ele>133.7</ele>
        <time>2015-03-08T10:12:32Z</time>
      </trkpt>
      <trkpt lat="44.35517" lon="4.8373">
        <ele>133.6</ele>
        <time>2015-03-08T10:12:34Z</time>
      </trkpt>
      <trkpt lat="44.3551" lon="4.83721">
        <ele>133.5</ele>
        <time>2015-03-08T10:12:36Z</time>
      </trkpt>
      <trkpt lat="44.35503" lon="4.8371">
        <ele>133.4</ele>
        <time>2015-03-08T10:12:38Z</time>
      </trkpt>
      <trkpt lat="44.35495" lon="4.837">
        <ele>133.3</ele>
        <time>2015-03-08T10:12:40Z</time>
      </trkpt>
      <trkpt lat="44.35488" lon="4.83689">
        <ele>133.2</ele>
        <time>2015-03-08T10:12:42Z</time>
      </trkpt>
      <trkpt lat="44.35481" lon="4.83679">
        <ele>133.1</ele>
        <time>2015-03-08T10:12:44Z</time>
      </trkpt>
      <trkpt lat="44.35474" lon="4.83668">
        <ele>133</ele>
        <time>2015-03-08T10:12:46Z</time>
      </trkpt>
      <trkpt lat="44.35467" lon="4.83658">
        <ele>132.9</ele>
        <time>2015-03-08T10:12:48Z</time>
      </trkpt>
      <trkpt lat="44.3546" lon="4.83648">
        <ele>132.8</ele>
        <time>2015-03-08T10:12:50Z</time>
      </trkpt>
      <trkpt lat="44.35456" lon="4.83635">
        <ele>132.5</ele>
        <time>2015-03-08T10:12:54Z</time>
      </trkpt>
      <trkpt lat="44.35463" lon="4.83628">
        <ele>132</ele>
        <time>2015-03-08T10:12:58Z</time>
      </trkpt>
      <trkpt lat="44.35463" lon="4.83616">
        <ele>131.6</ele>
        <time>2015-03-08T10:13:02Z</time>
      </trkpt>
      <trkpt lat="44.35459" lon="4.83601">
        <ele>131.4</ele>
        <time>2015-03-08T10:13:05Z</time>
      </trkpt>
      <trkpt lat="44.35455" lon="4.83586">
        <ele>131.1</ele>
        <time>2015-03-08T10:13:08Z</time>
      </trkpt>
      <trkpt lat="44.35451" lon="4.83572">
        <ele>130.9</ele>
        <time>2015-03-08T10:13:11Z</time>
      </trkpt>
      <trkpt lat="44.35447" lon="4.83556">
        <ele>130.5</ele>
        <time>2015-03-08T10:13:14Z</time>
      </trkpt>
      <trkpt lat="44.35442" lon="4.8354">
        <ele>130.2</ele>
        <time>2015-03-08T10:13:17Z</time>
      </trkpt>
      <trkpt lat="44.35437" lon="4.83524">
        <ele>129.9</ele>
        <time>2015-03-08T10:13:20Z</time>
      </trkpt>
      <trkpt lat="44.35432" lon="4.83514">
        <ele>129.8</ele>
        <time>2015-03-08T10:13:22Z</time>
      </trkpt>
      <trkpt lat="44.35427" lon="4.83503">
        <ele>129.7</ele>
        <time>2015-03-08T10:13:24Z</time>
      </trkpt>
      <trkpt lat="44.35422" lon="4.83492">
        <ele>129.6</ele>
        <time>2015-03-08T10:13:26Z</time>
      </trkpt>
      <trkpt lat="44.35417" lon="4.83481">
        <ele>129.5</ele>
        <time>2015-03-08T10:13:28Z</time>
      </trkpt>
      <trkpt lat="44.35411" lon="4.83465">
        <ele>129.4</ele>
        <time>2015-03-08T10:13:31Z</time>
      </trkpt>
      <trkpt lat="44.35406" lon="4.83455">
        <ele>129.4</ele>
        <time>2015-03-08T10:13:33Z</time>
      </trkpt>
      <trkpt lat="44.35399" lon="4.83438">
        <ele>129.4</ele>
        <time>2015-03-08T10:13:36Z</time>
      </trkpt>
      <trkpt lat="44.35393" lon="4.83423">
        <ele>129.4</ele>
        <time>2015-03-08T10:13:39Z</time>
      </trkpt>
      <trkpt lat="44.35389" lon="4.83411">
        <ele>129.4</ele>
        <time>2015-03-08T10:13:41Z</time>
      </trkpt>
      <trkpt lat="44.35385" lon="4.834">
        <ele>129.4</ele>
        <time>2015-03-08T10:13:43Z</time>
      </trkpt>
      <trkpt lat="44.35376" lon="4.83385">
        <ele>129.5</ele>
        <time>2015-03-08T10:13:46Z</time>
      </trkpt>
      <trkpt lat="44.35369" lon="4.83376">
        <ele>129.5</ele>
        <time>2015-03-08T10:13:48Z</time>
      </trkpt>
      <trkpt lat="44.35361" lon="4.83364">
        <ele>129.5</ele>
        <time>2015-03-08T10:13:51Z</time>
      </trkpt>
      <trkpt lat="44.35352" lon="4.83352">
        <ele>129.5</ele>
        <time>2015-03-08T10:13:54Z</time>
      </trkpt>
      <trkpt lat="44.35344" lon="4.83339">
        <ele>129.5</ele>
        <time>2015-03-08T10:13:57Z</time>
      </trkpt>
      <trkpt lat="44.35337" lon="4.83327">
        <ele>129.5</ele>
        <time>2015-03-08T10:14:00Z</time>
      </trkpt>
      <trkpt lat="44.35331" lon="4.83315">
        <ele>129.5</ele>
        <time>2015-03-08T10:14:03Z</time>
      </trkpt>
      <trkpt lat="44.35326" lon="4.83304">
        <ele>129.6</ele>
        <time>2015-03-08T10:14:06Z</time>
      </trkpt>
      <trkpt lat="44.35319" lon="4.83293">
        <ele>129.7</ele>
        <time>2015-03-08T10:14:09Z</time>
      </trkpt>
      <trkpt lat="44.35313" lon="4.83281">
        <ele>129.9</ele>
        <time>2015-03-08T10:14:12Z</time>
      </trkpt>
      <trkpt lat="44.35308" lon="4.83269">
        <ele>130</ele>
        <time>2015-03-08T10:14:15Z</time>
      </trkpt>
      <trkpt lat="44.35302" lon="4.83256">
        <ele>130.3</ele>
        <time>2015-03-08T10:14:18Z</time>
      </trkpt>
      <trkpt lat="44.35296" lon="4.83243">
        <ele>130.6</ele>
        <time>2015-03-08T10:14:21Z</time>
      </trkpt>
      <trkpt lat="44.35292" lon="4.8323">
        <ele>130.8</ele>
        <time>2015-03-08T10:14:24Z</time>
      </trkpt>
      <trkpt lat="44.35287" lon="4.83218">
        <ele>131</ele>
        <time>2015-03-08T10:14:27Z</time>
      </trkpt>
      <trkpt lat="44.35282" lon="4.83205">
        <ele>131.2</ele>
        <time>2015-03-08T10:14:30Z</time>
      </trkpt>
      <trkpt lat="44.35276" lon="4.83193">
        <ele>131.3</ele>
        <time>2015-03-08T10:14:33Z</time>
      </trkpt>
      <trkpt lat="44.35268" lon="4.83179">
        <ele>131.4</ele>
        <time>2015-03-08T10:14:36Z</time>
      </trkpt>
      <trkpt lat="44.35261" lon="4.83166">
        <ele>131.5</ele>
        <time>2015-03-08T10:14:39Z</time>
      </trkpt>
      <trkpt lat="44.35253" lon="4.83154">
        <ele>131.6</ele>
        <time>2015-03-08T10:14:42Z</time>
      </trkpt>
      <trkpt lat="44.35247" lon="4.8314">
        <ele>131.6</ele>
        <time>2015-03-08T10:14:45Z</time>
      </trkpt>
      <trkpt lat="44.35239" lon="4.83126">
        <ele>131.7</ele>
        <time>2015-03-08T10:14:48Z</time>
      </trkpt>
      <trkpt lat="44.35231" lon="4.83112">
        <ele>131.6</ele>
        <time>2015-03-08T10:14:51Z</time>
      </trkpt>
      <trkpt lat="44.35225" lon="4.83102">
        <ele>131.6</ele>
        <time>2015-03-08T10:14:53Z</time>
      </trkpt>
      <trkpt lat="44.3522" lon="4.8309">
        <ele>131.7</ele>
        <time>2015-03-08T10:14:55Z</time>
      </trkpt>
      <trkpt lat="44.35216" lon="4.83078">
        <ele>131.8</ele>
        <time>2015-03-08T10:14:57Z</time>
      </trkpt>
      <trkpt lat="44.35211" lon="4.83066">
        <ele>131.9</ele>
        <time>2015-03-08T10:14:59Z</time>
      </trkpt>
      <trkpt lat="44.35205" lon="4.83053">
        <ele>131.9</ele>
        <time>2015-03-08T10:15:01Z</time>
      </trkpt>
      <trkpt lat="44.35199" lon="4.83041">
        <ele>132</ele>
        <time>2015-03-08T10:15:03Z</time>
      </trkpt>
      <trkpt lat="44.35192" lon="4.8303">
        <ele>132</ele>
        <time>2015-03-08T10:15:05Z</time>
      </trkpt>
      <trkpt lat="44.35185" lon="4.83018">
        <ele>132</ele>
        <time>2015-03-08T10:15:07Z</time>
      </trkpt>
      <trkpt lat="44.35178" lon="4.83007">
        <ele>132</ele>
        <time>2015-03-08T10:15:09Z</time>
      </trkpt>
      <trkpt lat="44.35172" lon="4.82995">
        <ele>131.7</ele>
        <time>2015-03-08T10:15:11Z</time>
      </trkpt>
      <trkpt lat="44.35166" lon="4.82982">
        <ele>131.4</ele>
        <time>2015-03-08T10:15:13Z</time>
      </trkpt>
      <trkpt lat="44.35161" lon="4.82968">
        <ele>131.2</ele>
        <time>2015-03-08T10:15:15Z</time>
      </trkpt>
      <trkpt lat="44.35158" lon="4.82953">
        <ele>130.9</ele>
        <time>2015-03-08T10:15:17Z</time>
      </trkpt>
      <trkpt lat="44.35154" lon="4.8294">
        <ele>130.7</ele>
        <time>2015-03-08T10:15:19Z</time>
      </trkpt>
      <trkpt lat="44.35146" lon="4.82926">
        <ele>130.2</ele>
        <time>2015-03-08T10:15:22Z</time>
      </trkpt>
      <trkpt lat="44.35137" lon="4.82918">
        <ele>129.9</ele>
        <time>2015-03-08T10:15:25Z</time>
      </trkpt>
      <trkpt lat="44.35128" lon="4.82911">
        <ele>129.6</ele>
        <time>2015-03-08T10:15:28Z</time>
      </trkpt>
      <trkpt lat="44.35118" lon="4.82906">
        <ele>129</ele>
        <time>2015-03-08T10:15:32Z</time>
      </trkpt>
      <trkpt lat="44.35108" lon="4.82904">
        <ele>128.5</ele>
        <time>2015-03-08T10:15:36Z</time>
      </trkpt>
      <trkpt lat="44.35097" lon="4.82903">
        <ele>128.1</ele>
        <time>2015-03-08T10:15:40Z</time>
      </trkpt>
      <trkpt lat="44.35088" lon="4.82902">
        <ele>127.8</ele>
        <time>2015-03-08T10:15:43Z</time>
      </trkpt>
      <trkpt lat="44.35078" lon="4.82899">
        <ele>127.5</ele>
        <time>2015-03-08T10:15:46Z</time>
      </trkpt>
      <trkpt lat="44.35068" lon="4.82897">
        <ele>127.2</ele>
        <time>2015-03-08T10:15:49Z</time>
      </trkpt>
      <trkpt lat="44.35059" lon="4.82894">
        <ele>126.9</ele>
        <time>2015-03-08T10:15:52Z</time>
      </trkpt>
      <trkpt lat="44.3505" lon="4.82891">
        <ele>126.3</ele>
        <time>2015-03-08T10:15:55Z</time>
      </trkpt>
      <trkpt lat="44.35049" lon="4.82877">
        <ele>125.6</ele>
        <time>2015-03-08T10:16:01Z</time>
      </trkpt>
      <trkpt lat="44.35056" lon="4.82868">
        <ele>125.4</ele>
        <time>2015-03-08T10:16:05Z</time>
      </trkpt>
      <trkpt lat="44.35063" lon="4.82858">
        <ele>125.2</ele>
        <time>2015-03-08T10:16:09Z</time>
      </trkpt>
      <trkpt lat="44.35071" lon="4.82845">
        <ele>125</ele>
        <time>2015-03-08T10:16:13Z</time>
      </trkpt>
      <trkpt lat="44.35071" lon="4.82829">
        <ele>124.9</ele>
        <time>2015-03-08T10:16:16Z</time>
      </trkpt>
      <trkpt lat="44.35066" lon="4.82818">
        <ele>124.9</ele>
        <time>2015-03-08T10:16:18Z</time>
      </trkpt>
      <trkpt lat="44.35058" lon="4.82809">
        <ele>124.8</ele>
        <time>2015-03-08T10:16:20Z</time>
      </trkpt>
      <trkpt lat="44.35051" lon="4.82802">
        <ele>124.8</ele>
        <time>2015-03-08T10:16:22Z</time>
      </trkpt>
      <trkpt lat="44.35044" lon="4.82793">
        <ele>124.7</ele>
        <time>2015-03-08T10:16:24Z</time>
      </trkpt>
      <trkpt lat="44.35037" lon="4.82784">
        <ele>124.5</ele>
        <time>2015-03-08T10:16:26Z</time>
      </trkpt>
      <trkpt lat="44.35031" lon="4.82774">
        <ele>124.4</ele>
        <time>2015-03-08T10:16:28Z</time>
      </trkpt>
      <trkpt lat="44.35023" lon="4.82764">
        <ele>124.3</ele>
        <time>2015-03-08T10:16:30Z</time>
      </trkpt>
      <trkpt lat="44.35016" lon="4.82753">
        <ele>124.2</ele>
        <time>2015-03-08T10:16:32Z</time>
      </trkpt>
      <trkpt lat="44.3501" lon="4.82743">
        <ele>124.2</ele>
        <time>2015-03-08T10:16:34Z</time>
      </trkpt>
      <trkpt lat="44.35003" lon="4.82733">
        <ele>124</ele>
        <time>2015-03-08T10:16:36Z</time>
      </trkpt>
      <trkpt lat="44.34997" lon="4.82722">
        <ele>123.8</ele>
        <time>2015-03-08T10:16:38Z</time>
      </trkpt>
      <trkpt lat="44.34991" lon="4.82712">
        <ele>123.6</ele>
        <time>2015-03-08T10:16:40Z</time>
      </trkpt>
      <trkpt lat="44.34986" lon="4.82701">
        <ele>123.4</ele>
        <time>2015-03-08T10:16:42Z</time>
      </trkpt>
      <trkpt lat="44.34981" lon="4.8269">
        <ele>123.2</ele>
        <time>2015-03-08T10:16:44Z</time>
      </trkpt>
      <trkpt lat="44.34976" lon="4.82679">
        <ele>123</ele>
        <time>2015-03-08T10:16:46Z</time>
      </trkpt>
      <trkpt lat="44.34972" lon="4.82666">
        <ele>122.8</ele>
        <time>2015-03-08T10:16:48Z</time>
      </trkpt>
      <trkpt lat="44.34968" lon="4.82653">
        <ele>122.6</ele>
        <time>2015-03-08T10:16:50Z</time>
      </trkpt>
      <trkpt lat="44.34964" lon="4.82639">
        <ele>122.5</ele>
        <time>2015-03-08T10:16:52Z</time>
      </trkpt>
      <trkpt lat="44.34961" lon="4.82625">
        <ele>122.4</ele>
        <time>2015-03-08T10:16:54Z</time>
      </trkpt>
      <trkpt lat="44.34958" lon="4.82612">
        <ele>122.3</ele>
        <time>2015-03-08T10:16:56Z</time>
      </trkpt>
      <trkpt lat="44.34956" lon="4.82598">
        <ele>122.1</ele>
        <time>2015-03-08T10:16:58Z</time>
      </trkpt>
      <trkpt lat="44.34955" lon="4.82584">
        <ele>122</ele>
        <time>2015-03-08T10:17:00Z</time>
      </trkpt>
      <trkpt lat="44.34953" lon="4.8257">
        <ele>121.9</ele>
        <time>2015-03-08T10:17:02Z</time>
      </trkpt>
      <trkpt lat="44.34952" lon="4.82556">
        <ele>121.8</ele>
        <time>2015-03-08T10:17:04Z</time>
      </trkpt>
      <trkpt lat="44.34952" lon="4.82542">
        <ele>121.4</ele>
        <time>2015-03-08T10:17:06Z</time>
      </trkpt>
      <trkpt lat="44.34951" lon="4.82528">
        <ele>121.1</ele>
        <time>2015-03-08T10:17:08Z</time>
      </trkpt>
      <trkpt lat="44.34951" lon="4.82514">
        <ele>120.8</ele>
        <time>2015-03-08T10:17:10Z</time>
      </trkpt>
      <trkpt lat="44.3495" lon="4.82501">
        <ele>120.5</ele>
        <time>2015-03-08T10:17:12Z</time>
      </trkpt>
      <trkpt lat="44.3495" lon="4.82482">
        <ele>120.2</ele>
        <time>2015-03-08T10:17:15Z</time>
      </trkpt>
      <trkpt lat="44.3495" lon="4.82469">
        <ele>120</ele>
        <time>2015-03-08T10:17:17Z</time>
      </trkpt>
      <trkpt lat="44.3495" lon="4.82456">
        <ele>119.8</ele>
        <time>2015-03-08T10:17:19Z</time>
      </trkpt>
      <trkpt lat="44.3495" lon="4.82443">
        <ele>119.6</ele>
        <time>2015-03-08T10:17:21Z</time>
      </trkpt>
      <trkpt lat="44.34951" lon="4.8243">
        <ele>119.5</ele>
        <time>2015-03-08T10:17:23Z</time>
      </trkpt>
      <trkpt lat="44.34952" lon="4.82416">
        <ele>119.5</ele>
        <time>2015-03-08T10:17:25Z</time>
      </trkpt>
      <trkpt lat="44.34952" lon="4.82403">
        <ele>119.4</ele>
        <time>2015-03-08T10:17:27Z</time>
      </trkpt>
      <trkpt lat="44.34952" lon="4.82384">
        <ele>119.4</ele>
        <time>2015-03-08T10:17:30Z</time>
      </trkpt>
      <trkpt lat="44.34952" lon="4.82365">
        <ele>119.3</ele>
        <time>2015-03-08T10:17:33Z</time>
      </trkpt>
      <trkpt lat="44.34952" lon="4.82352">
        <ele>119.5</ele>
        <time>2015-03-08T10:17:35Z</time>
      </trkpt>
      <trkpt lat="44.34952" lon="4.82339">
        <ele>119.6</ele>
        <time>2015-03-08T10:17:37Z</time>
      </trkpt>
      <trkpt lat="44.34952" lon="4.82325">
        <ele>119.7</ele>
        <time>2015-03-08T10:17:39Z</time>
      </trkpt>
      <trkpt lat="44.34953" lon="4.82312">
        <ele>119.8</ele>
        <time>2015-03-08T10:17:41Z</time>
      </trkpt>
      <trkpt lat="44.34953" lon="4.82299">
        <ele>119.8</ele>
        <time>2015-03-08T10:17:43Z</time>
      </trkpt>
      <trkpt lat="44.34954" lon="4.82286">
        <ele>119.9</ele>
        <time>2015-03-08T10:17:45Z</time>
      </trkpt>
      <trkpt lat="44.34955" lon="4.82273">
        <ele>119.9</ele>
        <time>2015-03-08T10:17:47Z</time>
      </trkpt>
      <trkpt lat="44.34955" lon="4.82261">
        <ele>120</ele>
        <time>2015-03-08T10:17:49Z</time>
      </trkpt>
      <trkpt lat="44.34955" lon="4.82244">
        <ele>120</ele>
        <time>2015-03-08T10:17:52Z</time>
      </trkpt>
      <trkpt lat="44.34955" lon="4.82229">
        <ele>120.1</ele>
        <time>2015-03-08T10:17:55Z</time>
      </trkpt>
      <trkpt lat="44.34955" lon="4.82211">
        <ele>120.1</ele>
        <time>2015-03-08T10:17:58Z</time>
      </trkpt>
      <trkpt lat="44.34951" lon="4.82198">
        <ele>120.1</ele>
        <time>2015-03-08T10:18:00Z</time>
      </trkpt>
      <trkpt lat="44.34946" lon="4.82184">
        <ele>120</ele>
        <time>2015-03-08T10:18:02Z</time>
      </trkpt>
      <trkpt lat="44.34942" lon="4.8217">
        <ele>120</ele>
        <time>2015-03-08T10:18:04Z</time>
      </trkpt>
      <trkpt lat="44.34938" lon="4.82156">
        <ele>120</ele>
        <time>2015-03-08T10:18:06Z</time>
      </trkpt>
      <trkpt lat="44.34934" lon="4.82142">
        <ele>120</ele>
        <time>2015-03-08T10:18:08Z</time>
      </trkpt>
      <trkpt lat="44.3493" lon="4.82127">
        <ele>119.9</ele>
        <time>2015-03-08T10:18:10Z</time>
      </trkpt>
      <trkpt lat="44.34928" lon="4.82111">
        <ele>119.9</ele>
        <time>2015-03-08T10:18:12Z</time>
      </trkpt>
      <trkpt lat="44.34925" lon="4.82096">
        <ele>119.8</ele>
        <time>2015-03-08T10:18:14Z</time>
      </trkpt>
      <trkpt lat="44.34922" lon="4.82081">
        <ele>119.6</ele>
        <time>2015-03-08T10:18:16Z</time>
      </trkpt>
      <trkpt lat="44.34921" lon="4.82067">
        <ele>119.5</ele>
        <time>2015-03-08T10:18:18Z</time>
      </trkpt>
      <trkpt lat="44.34922" lon="4.82052">
        <ele>119.3</ele>
        <time>2015-03-08T10:18:20Z</time>
      </trkpt>
      <trkpt lat="44.34923" lon="4.82038">
        <ele>119.2</ele>
        <time>2015-03-08T10:18:22Z</time>
      </trkpt>
      <trkpt lat="44.34924" lon="4.82022">
        <ele>119</ele>
        <time>2015-03-08T10:18:26Z</time>
      </trkpt>
      <trkpt lat="44.34925" lon="4.82005">
        <ele>118.8</ele>
        <time>2015-03-08T10:18:29Z</time>
      </trkpt>
      <trkpt lat="44.34927" lon="4.81992">
        <ele>118.6</ele>
        <time>2015-03-08T10:18:31Z</time>
      </trkpt>
      <trkpt lat="44.34927" lon="4.81979">
        <ele>118.5</ele>
        <time>2015-03-08T10:18:33Z</time>
      </trkpt>
      <trkpt lat="44.34929" lon="4.81966">
        <ele>118.4</ele>
        <time>2015-03-08T10:18:35Z</time>
      </trkpt>
      <trkpt lat="44.3493" lon="4.81952">
        <ele>118.2</ele>
        <time>2015-03-08T10:18:37Z</time>
      </trkpt>
      <trkpt lat="44.34932" lon="4.81937">
        <ele>118.1</ele>
        <time>2015-03-08T10:18:39Z</time>
      </trkpt>
      <trkpt lat="44.34933" lon="4.81923">
        <ele>118</ele>
        <time>2015-03-08T10:18:41Z</time>
      </trkpt>
      <trkpt lat="44.34933" lon="4.81909">
        <ele>117.8</ele>
        <time>2015-03-08T10:18:43Z</time>
      </trkpt>
      <trkpt lat="44.34928" lon="4.81898">
        <ele>117.6</ele>
        <time>2015-03-08T10:18:45Z</time>
      </trkpt>
      <trkpt lat="44.34919" lon="4.81886">
        <ele>117.4</ele>
        <time>2015-03-08T10:18:48Z</time>
      </trkpt>
      <trkpt lat="44.34911" lon="4.81878">
        <ele>117.3</ele>
        <time>2015-03-08T10:18:50Z</time>
      </trkpt>
      <trkpt lat="44.34903" lon="4.81869">
        <ele>117.1</ele>
        <time>2015-03-08T10:18:52Z</time>
      </trkpt>
      <trkpt lat="44.34894" lon="4.81861">
        <ele>116.9</ele>
        <time>2015-03-08T10:18:54Z</time>
      </trkpt>
      <trkpt lat="44.34885" lon="4.81853">
        <ele>116.8</ele>
        <time>2015-03-08T10:18:56Z</time>
      </trkpt>
      <trkpt lat="44.34876" lon="4.81845">
        <ele>116.6</ele>
        <time>2015-03-08T10:18:58Z</time>
      </trkpt>
      <trkpt lat="44.34867" lon="4.81837">
        <ele>116.4</ele>
        <time>2015-03-08T10:19:00Z</time>
      </trkpt>
      <trkpt lat="44.34859" lon="4.8183">
        <ele>116.3</ele>
        <time>2015-03-08T10:19:02Z</time>
      </trkpt>
      <trkpt lat="44.3485" lon="4.81823">
        <ele>116.3</ele>
        <time>2015-03-08T10:19:04Z</time>
      </trkpt>
      <trkpt lat="44.34841" lon="4.81816">
        <ele>116.2</ele>
        <time>2015-03-08T10:19:06Z</time>
      </trkpt>
      <trkpt lat="44.34832" lon="4.81809">
        <ele>116.2</ele>
        <time>2015-03-08T10:19:08Z</time>
      </trkpt>
      <trkpt lat="44.34823" lon="4.81802">
        <ele>116.2</ele>
        <time>2015-03-08T10:19:10Z</time>
      </trkpt>
      <trkpt lat="44.34814" lon="4.81795">
        <ele>116.2</ele>
        <time>2015-03-08T10:19:12Z</time>
      </trkpt>
      <trkpt lat="44.34805" lon="4.81788">
        <ele>116.2</ele>
        <time>2015-03-08T10:19:14Z</time>
      </trkpt>
      <trkpt lat="44.34797" lon="4.81783">
        <ele>116.2</ele>
        <time>2015-03-08T10:19:16Z</time>
      </trkpt>
      <trkpt lat="44.34788" lon="4.81777">
        <ele>116.2</ele>
        <time>2015-03-08T10:19:18Z</time>
      </trkpt>
      <trkpt lat="44.34779" lon="4.81771">
        <ele>116.2</ele>
        <time>2015-03-08T10:19:20Z</time>
      </trkpt>
      <trkpt lat="44.34766" lon="4.81767">
        <ele>116.2</ele>
        <time>2015-03-08T10:19:23Z</time>
      </trkpt>
      <trkpt lat="44.34755" lon="4.81765">
        <ele>116.1</ele>
        <time>2015-03-08T10:19:26Z</time>
      </trkpt>
      <trkpt lat="44.34744" lon="4.81759">
        <ele>116.2</ele>
        <time>2015-03-08T10:19:29Z</time>
      </trkpt>
      <trkpt lat="44.34738" lon="4.81749">
        <ele>116.2</ele>
        <time>2015-03-08T10:19:32Z</time>
      </trkpt>
      <trkpt lat="44.3474" lon="4.81737">
        <ele>116.3</ele>
        <time>2015-03-08T10:19:35Z</time>
      </trkpt>
      <trkpt lat="44.34739" lon="4.81722">
        <ele>116.3</ele>
        <time>2015-03-08T10:19:38Z</time>
      </trkpt>
      <trkpt lat="44.34733" lon="4.81707">
        <ele>116.4</ele>
        <time>2015-03-08T10:19:41Z</time>
      </trkpt>
      <trkpt lat="44.34729" lon="4.81691">
        <ele>116.5</ele>
        <time>2015-03-08T10:19:44Z</time>
      </trkpt>
      <trkpt lat="44.34724" lon="4.81676">
        <ele>116.5</ele>
        <time>2015-03-08T10:19:47Z</time>
      </trkpt>
      <trkpt lat="44.34718" lon="4.81659">
        <ele>116.5</ele>
        <time>2015-03-08T10:19:50Z</time>
      </trkpt>
      <trkpt lat="44.34712" lon="4.81643">
        <ele>116.3</ele>
        <time>2015-03-08T10:19:53Z</time>
      </trkpt>
      <trkpt lat="44.34708" lon="4.81631">
        <ele>116.3</ele>
        <time>2015-03-08T10:19:55Z</time>
      </trkpt>
      <trkpt lat="44.34703" lon="4.81619">
        <ele>116.2</ele>
        <time>2015-03-08T10:19:57Z</time>
      </trkpt>
      <trkpt lat="44.34699" lon="4.81608">
        <ele>116.3</ele>
        <time>2015-03-08T10:19:59Z</time>
      </trkpt>
      <trkpt lat="44.34694" lon="4.81597">
        <ele>116.3</ele>
        <time>2015-03-08T10:20:01Z</time>
      </trkpt>
      <trkpt lat="44.3469" lon="4.81585">
        <ele>116.4</ele>
        <time>2015-03-08T10:20:03Z</time>
      </trkpt>
      <trkpt lat="44.34684" lon="4.81569">
        <ele>116.5</ele>
        <time>2015-03-08T10:20:06Z</time>
      </trkpt>
      <trkpt lat="44.34678" lon="4.81553">
        <ele>116.5</ele>
        <time>2015-03-08T10:20:09Z</time>
      </trkpt>
      <trkpt lat="44.34672" lon="4.81537">
        <ele>116.6</ele>
        <time>2015-03-08T10:20:12Z</time>
      </trkpt>
      <trkpt lat="44.34667" lon="4.81521">
        <ele>116.6</ele>
        <time>2015-03-08T10:20:15Z</time>
      </trkpt>
      <trkpt lat="44.3466" lon="4.81507">
        <ele>116.6</ele>
        <time>2015-03-08T10:20:18Z</time>
      </trkpt>
      <trkpt lat="44.34656" lon="4.81493">
        <ele>116.7</ele>
        <time>2015-03-08T10:20:21Z</time>
      </trkpt>
      <trkpt lat="44.34652" lon="4.81478">
        <ele>116.5</ele>
        <time>2015-03-08T10:20:24Z</time>
      </trkpt>
      <trkpt lat="44.34647" lon="4.81463">
        <ele>116.4</ele>
        <time>2015-03-08T10:20:27Z</time>
      </trkpt>
      <trkpt lat="44.34642" lon="4.81449">
        <ele>116.3</ele>
        <time>2015-03-08T10:20:30Z</time>
      </trkpt>
      <trkpt lat="44.34637" lon="4.81435">
        <ele>116.3</ele>
        <time>2015-03-08T10:20:33Z</time>
      </trkpt>
      <trkpt lat="44.34633" lon="4.8142">
        <ele>116.4</ele>
        <time>2015-03-08T10:20:36Z</time>
      </trkpt>
      <trkpt lat="44.34628" lon="4.81406">
        <ele>116.5</ele>
        <time>2015-03-08T10:20:39Z</time>
      </trkpt>
      <trkpt lat="44.34623" lon="4.81392">
        <ele>116.5</ele>
        <time>2015-03-08T10:20:42Z</time>
      </trkpt>
      <trkpt lat="44.34619" lon="4.81378">
        <ele>116.5</ele>
        <time>2015-03-08T10:20:45Z</time>
      </trkpt>
      <trkpt lat="44.34611" lon="4.81368">
        <ele>116.5</ele>
        <time>2015-03-08T10:20:49Z</time>
      </trkpt>
      <trkpt lat="44.34603" lon="4.81356">
        <ele>116.4</ele>
        <time>2015-03-08T10:20:52Z</time>
      </trkpt>
      <trkpt lat="44.34596" lon="4.81345">
        <ele>116.3</ele>
        <time>2015-03-08T10:20:55Z</time>
      </trkpt>
      <trkpt lat="44.34586" lon="4.8134">
        <ele>116.1</ele>
        <time>2015-03-08T10:20:58Z</time>
      </trkpt>
      <trkpt lat="44.34578" lon="4.81329">
        <ele>115.8</ele>
        <time>2015-03-08T10:21:01Z</time>
      </trkpt>
      <trkpt lat="44.34568" lon="4.81323">
        <ele>115.5</ele>
        <time>2015-03-08T10:21:04Z</time>
      </trkpt>
      <trkpt lat="44.3456" lon="4.81315">
        <ele>115.3</ele>
        <time>2015-03-08T10:21:06Z</time>
      </trkpt>
      <trkpt lat="44.34552" lon="4.81307">
        <ele>115</ele>
        <time>2015-03-08T10:21:08Z</time>
      </trkpt>
      <trkpt lat="44.34546" lon="4.81296">
        <ele>114.7</ele>
        <time>2015-03-08T10:21:10Z</time>
      </trkpt>
      <trkpt lat="44.34542" lon="4.81285">
        <ele>114.5</ele>
        <time>2015-03-08T10:21:12Z</time>
      </trkpt>
      <trkpt lat="44.34539" lon="4.81273">
        <ele>114.3</ele>
        <time>2015-03-08T10:21:14Z</time>
      </trkpt>
      <trkpt lat="44.34536" lon="4.81261">
        <ele>114.1</ele>
        <time>2015-03-08T10:21:16Z</time>
      </trkpt>
      <trkpt lat="44.34533" lon="4.81242">
        <ele>113.9</ele>
        <time>2015-03-08T10:21:19Z</time>
      </trkpt>
      <trkpt lat="44.3453" lon="4.81224">
        <ele>113.7</ele>
        <time>2015-03-08T10:21:22Z</time>
      </trkpt>
      <trkpt lat="44.34527" lon="4.81212">
        <ele>113.5</ele>
        <time>2015-03-08T10:21:24Z</time>
      </trkpt>
      <trkpt lat="44.34524" lon="4.812">
        <ele>113.5</ele>
        <time>2015-03-08T10:21:26Z</time>
      </trkpt>
      <trkpt lat="44.34521" lon="4.81187">
        <ele>113.4</ele>
        <time>2015-03-08T10:21:28Z</time>
      </trkpt>
      <trkpt lat="44.34517" lon="4.81173">
        <ele>113.3</ele>
        <time>2015-03-08T10:21:30Z</time>
      </trkpt>
      <trkpt lat="44.34514" lon="4.81159">
        <ele>113.2</ele>
        <time>2015-03-08T10:21:32Z</time>
      </trkpt>
      <trkpt lat="44.34511" lon="4.81145">
        <ele>113.2</ele>
        <time>2015-03-08T10:21:34Z</time>
      </trkpt>
      <trkpt lat="44.34508" lon="4.81131">
        <ele>113.1</ele>
        <time>2015-03-08T10:21:36Z</time>
      </trkpt>
      <trkpt lat="44.34505" lon="4.81117">
        <ele>113.1</ele>
        <time>2015-03-08T10:21:38Z</time>
      </trkpt>
      <trkpt lat="44.34502" lon="4.81104">
        <ele>113</ele>
        <time>2015-03-08T10:21:40Z</time>
      </trkpt>
      <trkpt lat="44.345" lon="4.81091">
        <ele>113</ele>
        <time>2015-03-08T10:21:42Z</time>
      </trkpt>
      <trkpt lat="44.34496" lon="4.81077">
        <ele>113</ele>
        <time>2015-03-08T10:21:44Z</time>
      </trkpt>
      <trkpt lat="44.34494" lon="4.81064">
        <ele>112.9</ele>
        <time>2015-03-08T10:21:46Z</time>
      </trkpt>
      <trkpt lat="44.34491" lon="4.81052">
        <ele>112.9</ele>
        <time>2015-03-08T10:21:48Z</time>
      </trkpt>
      <trkpt lat="44.34489" lon="4.81039">
        <ele>112.9</ele>
        <time>2015-03-08T10:21:50Z</time>
      </trkpt>
      <trkpt lat="44.34488" lon="4.81026">
        <ele>112.9</ele>
        <time>2015-03-08T10:21:52Z</time>
      </trkpt>
      <trkpt lat="44.34486" lon="4.81013">
        <ele>112.9</ele>
        <time>2015-03-08T10:21:54Z</time>
      </trkpt>
      <trkpt lat="44.34482" lon="4.81">
        <ele>112.9</ele>
        <time>2015-03-08T10:21:56Z</time>
      </trkpt>
      <trkpt lat="44.34478" lon="4.80988">
        <ele>112.9</ele>
        <time>2015-03-08T10:21:58Z</time>
      </trkpt>
      <trkpt lat="44.34473" lon="4.80975">
        <ele>113</ele>
        <time>2015-03-08T10:22:00Z</time>
      </trkpt>
      <trkpt lat="44.34468" lon="4.80963">
        <ele>112.9</ele>
        <time>2015-03-08T10:22:02Z</time>
      </trkpt>
      <trkpt lat="44.34463" lon="4.80951">
        <ele>112.8</ele>
        <time>2015-03-08T10:22:04Z</time>
      </trkpt>
      <trkpt lat="44.34458" lon="4.80938">
        <ele>112.8</ele>
        <time>2015-03-08T10:22:06Z</time>
      </trkpt>
      <trkpt lat="44.34453" lon="4.80926">
        <ele>112.8</ele>
        <time>2015-03-08T10:22:08Z</time>
      </trkpt>
      <trkpt lat="44.34449" lon="4.80915">
        <ele>112.8</ele>
        <time>2015-03-08T10:22:10Z</time>
      </trkpt>
      <trkpt lat="44.34444" lon="4.80903">
        <ele>112.8</ele>
        <time>2015-03-08T10:22:12Z</time>
      </trkpt>
      <trkpt lat="44.3444" lon="4.80891">
        <ele>112.8</ele>
        <time>2015-03-08T10:22:14Z</time>
      </trkpt>
      <trkpt lat="44.34435" lon="4.8088">
        <ele>112.8</ele>
        <time>2015-03-08T10:22:16Z</time>
      </trkpt>
      <trkpt lat="44.34431" lon="4.80868">
        <ele>112.8</ele>
        <time>2015-03-08T10:22:18Z</time>
      </trkpt>
      <trkpt lat="44.34426" lon="4.80852">
        <ele>112.8</ele>
        <time>2015-03-08T10:22:21Z</time>
      </trkpt>
      <trkpt lat="44.34421" lon="4.80841">
        <ele>113</ele>
        <time>2015-03-08T10:22:23Z</time>
      </trkpt>
      <trkpt lat="44.34417" lon="4.80829">
        <ele>113.1</ele>
        <time>2015-03-08T10:22:25Z</time>
      </trkpt>
      <trkpt lat="44.34412" lon="4.80817">
        <ele>113.2</ele>
        <time>2015-03-08T10:22:27Z</time>
      </trkpt>
      <trkpt lat="44.34407" lon="4.80805">
        <ele>113.1</ele>
        <time>2015-03-08T10:22:29Z</time>
      </trkpt>
      <trkpt lat="44.34402" lon="4.80793">
        <ele>113</ele>
        <time>2015-03-08T10:22:31Z</time>
      </trkpt>
      <trkpt lat="44.34398" lon="4.80781">
        <ele>112.9</ele>
        <time>2015-03-08T10:22:33Z</time>
      </trkpt>
      <trkpt lat="44.34393" lon="4.80769">
        <ele>112.8</ele>
        <time>2015-03-08T10:22:35Z</time>
      </trkpt>
      <trkpt lat="44.34388" lon="4.80756">
        <ele>112.7</ele>
        <time>2015-03-08T10:22:37Z</time>
      </trkpt>
      <trkpt lat="44.34384" lon="4.80744">
        <ele>112.6</ele>
        <time>2015-03-08T10:22:39Z</time>
      </trkpt>
      <trkpt lat="44.34379" lon="4.80731">
        <ele>112.5</ele>
        <time>2015-03-08T10:22:41Z</time>
      </trkpt>
      <trkpt lat="44.34375" lon="4.80718">
        <ele>112.5</ele>
        <time>2015-03-08T10:22:43Z</time>
      </trkpt>
      <trkpt lat="44.34371" lon="4.80705">
        <ele>112.4</ele>
        <time>2015-03-08T10:22:45Z</time>
      </trkpt>
      <trkpt lat="44.34368" lon="4.80692">
        <ele>112.4</ele>
        <time>2015-03-08T10:22:47Z</time>
      </trkpt>
      <trkpt lat="44.34364" lon="4.8068">
        <ele>112.4</ele>
        <time>2015-03-08T10:22:49Z</time>
      </trkpt>
      <trkpt lat="44.34359" lon="4.80663">
        <ele>112.4</ele>
        <time>2015-03-08T10:22:52Z</time>
      </trkpt>
      <trkpt lat="44.34347" lon="4.80655">
        <ele>112.3</ele>
        <time>2015-03-08T10:22:55Z</time>
      </trkpt>
      <trkpt lat="44.34337" lon="4.80654">
        <ele>112.3</ele>
        <time>2015-03-08T10:22:57Z</time>
      </trkpt>
      <trkpt lat="44.34326" lon="4.80652">
        <ele>112.3</ele>
        <time>2015-03-08T10:22:59Z</time>
      </trkpt>
      <trkpt lat="44.34314" lon="4.80649">
        <ele>112.2</ele>
        <time>2015-03-08T10:23:01Z</time>
      </trkpt>
      <trkpt lat="44.34303" lon="4.80648">
        <ele>112</ele>
        <time>2015-03-08T10:23:03Z</time>
      </trkpt>
      <trkpt lat="44.34291" lon="4.80645">
        <ele>111.7</ele>
        <time>2015-03-08T10:23:05Z</time>
      </trkpt>
      <trkpt lat="44.34279" lon="4.80643">
        <ele>111.4</ele>
        <time>2015-03-08T10:23:07Z</time>
      </trkpt>
      <trkpt lat="44.34268" lon="4.80641">
        <ele>111.2</ele>
        <time>2015-03-08T10:23:09Z</time>
      </trkpt>
      <trkpt lat="44.34256" lon="4.80639">
        <ele>111</ele>
        <time>2015-03-08T10:23:11Z</time>
      </trkpt>
      <trkpt lat="44.34245" lon="4.80637">
        <ele>110.8</ele>
        <time>2015-03-08T10:23:13Z</time>
      </trkpt>
      <trkpt lat="44.34234" lon="4.80636">
        <ele>110.6</ele>
        <time>2015-03-08T10:23:15Z</time>
      </trkpt>
      <trkpt lat="44.34223" lon="4.80635">
        <ele>110.5</ele>
        <time>2015-03-08T10:23:17Z</time>
      </trkpt>
      <trkpt lat="44.34212" lon="4.80634">
        <ele>110.3</ele>
        <time>2015-03-08T10:23:19Z</time>
      </trkpt>
      <trkpt lat="44.342" lon="4.80632">
        <ele>110.2</ele>
        <time>2015-03-08T10:23:21Z</time>
      </trkpt>
      <trkpt lat="44.34188" lon="4.8063">
        <ele>110</ele>
        <time>2015-03-08T10:23:23Z</time>
      </trkpt>
      <trkpt lat="44.34175" lon="4.80627">
        <ele>109.7</ele>
        <time>2015-03-08T10:23:25Z</time>
      </trkpt>
      <trkpt lat="44.34161" lon="4.80624">
        <ele>109.4</ele>
        <time>2015-03-08T10:23:27Z</time>
      </trkpt>
      <trkpt lat="44.34147" lon="4.80621">
        <ele>109.2</ele>
        <time>2015-03-08T10:23:29Z</time>
      </trkpt>
      <trkpt lat="44.34133" lon="4.80619">
        <ele>108.9</ele>
        <time>2015-03-08T10:23:31Z</time>
      </trkpt>
      <trkpt lat="44.34119" lon="4.80617">
        <ele>108.2</ele>
        <time>2015-03-08T10:23:33Z</time>
      </trkpt>
      <trkpt lat="44.34105" lon="4.80615">
        <ele>107.6</ele>
        <time>2015-03-08T10:23:35Z</time>
      </trkpt>
      <trkpt lat="44.34092" lon="4.80613">
        <ele>107.1</ele>
        <time>2015-03-08T10:23:37Z</time>
      </trkpt>
      <trkpt lat="44.34079" lon="4.80611">
        <ele>106.9</ele>
        <time>2015-03-08T10:23:39Z</time>
      </trkpt>
      <trkpt lat="44.34066" lon="4.80611">
        <ele>106.8</ele>
        <time>2015-03-08T10:23:41Z</time>
      </trkpt>
      <trkpt lat="44.34054" lon="4.8061">
        <ele>106.7</ele>
        <time>2015-03-08T10:23:43Z</time>
      </trkpt>
      <trkpt lat="44.34042" lon="4.80609">
        <ele>106.5</ele>
        <time>2015-03-08T10:23:45Z</time>
      </trkpt>
      <trkpt lat="44.3403" lon="4.80608">
        <ele>106.4</ele>
        <time>2015-03-08T10:23:47Z</time>
      </trkpt>
      <trkpt lat="44.3402" lon="4.80607">
        <ele>106.4</ele>
        <time>2015-03-08T10:23:49Z</time>
      </trkpt>
      <trkpt lat="44.34009" lon="4.80606">
        <ele>106.3</ele>
        <time>2015-03-08T10:23:51Z</time>
      </trkpt>
      <trkpt lat="44.33999" lon="4.80605">
        <ele>106.2</ele>
        <time>2015-03-08T10:23:53Z</time>
      </trkpt>
      <trkpt lat="44.33988" lon="4.80604">
        <ele>106.1</ele>
        <time>2015-03-08T10:23:55Z</time>
      </trkpt>
      <trkpt lat="44.33978" lon="4.80601">
        <ele>106</ele>
        <time>2015-03-08T10:23:57Z</time>
      </trkpt>
      <trkpt lat="44.33967" lon="4.80599">
        <ele>105.9</ele>
        <time>2015-03-08T10:23:59Z</time>
      </trkpt>
      <trkpt lat="44.33956" lon="4.80597">
        <ele>105.9</ele>
        <time>2015-03-08T10:24:01Z</time>
      </trkpt>
      <trkpt lat="44.33946" lon="4.80595">
        <ele>105.9</ele>
        <time>2015-03-08T10:24:03Z</time>
      </trkpt>
      <trkpt lat="44.33936" lon="4.80593">
        <ele>105.9</ele>
        <time>2015-03-08T10:24:05Z</time>
      </trkpt>
      <trkpt lat="44.33925" lon="4.80592">
        <ele>105.9</ele>
        <time>2015-03-08T10:24:07Z</time>
      </trkpt>
      <trkpt lat="44.33916" lon="4.80591">
        <ele>105.9</ele>
        <time>2015-03-08T10:24:09Z</time>
      </trkpt>
      <trkpt lat="44.33906" lon="4.80589">
        <ele>105.9</ele>
        <time>2015-03-08T10:24:11Z</time>
      </trkpt>
      <trkpt lat="44.33895" lon="4.80588">
        <ele>105.9</ele>
        <time>2015-03-08T10:24:13Z</time>
      </trkpt>
      <trkpt lat="44.33885" lon="4.80587">
        <ele>105.8</ele>
        <time>2015-03-08T10:24:15Z</time>
      </trkpt>
      <trkpt lat="44.33875" lon="4.80586">
        <ele>105.8</ele>
        <time>2015-03-08T10:24:17Z</time>
      </trkpt>
      <trkpt lat="44.33866" lon="4.80584">
        <ele>105.7</ele>
        <time>2015-03-08T10:24:19Z</time>
      </trkpt>
      <trkpt lat="44.33856" lon="4.80582">
        <ele>105.7</ele>
        <time>2015-03-08T10:24:21Z</time>
      </trkpt>
      <trkpt lat="44.33846" lon="4.80581">
        <ele>105.7</ele>
        <time>2015-03-08T10:24:23Z</time>
      </trkpt>
      <trkpt lat="44.33837" lon="4.80579">
        <ele>105.6</ele>
        <time>2015-03-08T10:24:25Z</time>
      </trkpt>
      <trkpt lat="44.33827" lon="4.80578">
        <ele>105.5</ele>
        <time>2015-03-08T10:24:27Z</time>
      </trkpt>
      <trkpt lat="44.33814" lon="4.80575">
        <ele>105.4</ele>
        <time>2015-03-08T10:24:30Z</time>
      </trkpt>
      <trkpt lat="44.33802" lon="4.80573">
        <ele>105.3</ele>
        <time>2015-03-08T10:24:33Z</time>
      </trkpt>
      <trkpt lat="44.33793" lon="4.80571">
        <ele>105.3</ele>
        <time>2015-03-08T10:24:36Z</time>
      </trkpt>
      <trkpt lat="44.33782" lon="4.80567">
        <ele>105.5</ele>
        <time>2015-03-08T10:24:41Z</time>
      </trkpt>
      <trkpt lat="44.33774" lon="4.8056">
        <ele>105.9</ele>
        <time>2015-03-08T10:24:46Z</time>
      </trkpt>
      <trkpt lat="44.33769" lon="4.80547">
        <ele>106.6</ele>
        <time>2015-03-08T10:24:51Z</time>
      </trkpt>
      <trkpt lat="44.33768" lon="4.80533">
        <ele>107</ele>
        <time>2015-03-08T10:24:55Z</time>
      </trkpt>
      <trkpt lat="44.33766" lon="4.80519">
        <ele>107.2</ele>
        <time>2015-03-08T10:25:00Z</time>
      </trkpt>
      <trkpt lat="44.33761" lon="4.80506">
        <ele>107.4</ele>
        <time>2015-03-08T10:25:05Z</time>
      </trkpt>
      <trkpt lat="44.33754" lon="4.80498">
        <ele>107.6</ele>
        <time>2015-03-08T10:25:09Z</time>
      </trkpt>
      <trkpt lat="44.33746" lon="4.80489">
        <ele>107.8</ele>
        <time>2015-03-08T10:25:13Z</time>
      </trkpt>
      <trkpt lat="44.33738" lon="4.80481">
        <ele>107.9</ele>
        <time>2015-03-08T10:25:17Z</time>
      </trkpt>
      <trkpt lat="44.33731" lon="4.8047">
        <ele>108.2</ele>
        <time>2015-03-08T10:25:22Z</time>
      </trkpt>
      <trkpt lat="44.33722" lon="4.80462">
        <ele>108.6</ele>
        <time>2015-03-08T10:25:28Z</time>
      </trkpt>
      <trkpt lat="44.33716" lon="4.80452">
        <ele>109</ele>
        <time>2015-03-08T10:25:34Z</time>
      </trkpt>
      <trkpt lat="44.33712" lon="4.80439">
        <ele>109.6</ele>
        <time>2015-03-08T10:25:40Z</time>
      </trkpt>
      <trkpt lat="44.33706" lon="4.80427">
        <ele>109.9</ele>
        <time>2015-03-08T10:25:45Z</time>
      </trkpt>
      <trkpt lat="44.337" lon="4.80417">
        <ele>110.1</ele>
        <time>2015-03-08T10:25:49Z</time>
      </trkpt>
      <trkpt lat="44.33693" lon="4.80407">
        <ele>110.3</ele>
        <time>2015-03-08T10:25:53Z</time>
      </trkpt>
      <trkpt lat="44.33686" lon="4.80399">
        <ele>110.6</ele>
        <time>2015-03-08T10:25:58Z</time>
      </trkpt>
      <trkpt lat="44.33679" lon="4.80391">
        <ele>111.4</ele>
        <time>2015-03-08T10:26:06Z</time>
      </trkpt>
      <trkpt lat="44.33671" lon="4.80384">
        <ele>112</ele>
        <time>2015-03-08T10:26:12Z</time>
      </trkpt>
      <trkpt lat="44.33664" lon="4.80375">
        <ele>112.2</ele>
        <time>2015-03-08T10:26:16Z</time>
      </trkpt>
      <trkpt lat="44.33656" lon="4.80366">
        <ele>112.5</ele>
        <time>2015-03-08T10:26:21Z</time>
      </trkpt>
      <trkpt lat="44.33647" lon="4.80358">
        <ele>112.8</ele>
        <time>2015-03-08T10:26:26Z</time>
      </trkpt>
      <trkpt lat="44.33638" lon="4.80352">
        <ele>113.2</ele>
        <time>2015-03-08T10:26:32Z</time>
      </trkpt>
      <trkpt lat="44.33628" lon="4.80346">
        <ele>113.8</ele>
        <time>2015-03-08T10:26:39Z</time>
      </trkpt>
      <trkpt lat="44.33619" lon="4.80341">
        <ele>114.3</ele>
        <time>2015-03-08T10:26:46Z</time>
      </trkpt>
      <trkpt lat="44.33611" lon="4.80337">
        <ele>114.7</ele>
        <time>2015-03-08T10:26:52Z</time>
      </trkpt>
      <trkpt lat="44.33602" lon="4.80332">
        <ele>115.4</ele>
        <time>2015-03-08T10:26:58Z</time>
      </trkpt>
      <trkpt lat="44.33593" lon="4.80328">
        <ele>116</ele>
        <time>2015-03-08T10:27:03Z</time>
      </trkpt>
      <trkpt lat="44.33584" lon="4.80322">
        <ele>116.6</ele>
        <time>2015-03-08T10:27:09Z</time>
      </trkpt>
      <trkpt lat="44.33576" lon="4.80317">
        <ele>117</ele>
        <time>2015-03-08T10:27:14Z</time>
      </trkpt>
      <trkpt lat="44.33571" lon="4.80306">
        <ele>117.6</ele>
        <time>2015-03-08T10:27:19Z</time>
      </trkpt>
      <trkpt lat="44.33577" lon="4.80295">
        <ele>118.1</ele>
        <time>2015-03-08T10:27:26Z</time>
      </trkpt>
      <trkpt lat="44.33575" lon="4.80282">
        <ele>118.5</ele>
        <time>2015-03-08T10:27:32Z</time>
      </trkpt>
      <trkpt lat="44.33575" lon="4.80269">
        <ele>119.4</ele>
        <time>2015-03-08T10:27:38Z</time>
      </trkpt>
      <trkpt lat="44.33576" lon="4.80255">
        <ele>120.3</ele>
        <time>2015-03-08T10:27:45Z</time>
      </trkpt>
      <trkpt lat="44.33568" lon="4.80246">
        <ele>123.4</ele>
        <time>2015-03-08T10:33:14Z</time>
      </trkpt>
      <trkpt lat="44.33559" lon="4.80248">
        <ele>123.2</ele>
        <time>2015-03-08T10:33:22Z</time>
      </trkpt>
      <trkpt lat="44.3355" lon="4.80254">
        <ele>123.3</ele>
        <time>2015-03-08T10:33:29Z</time>
      </trkpt>
      <trkpt lat="44.33541" lon="4.80259">
        <ele>123.6</ele>
        <time>2015-03-08T10:33:36Z</time>
      </trkpt>
      <trkpt lat="44.33533" lon="4.80266">
        <ele>124.3</ele>
        <time>2015-03-08T10:33:44Z</time>
      </trkpt>
      <trkpt lat="44.33524" lon="4.80262">
        <ele>125.3</ele>
        <time>2015-03-08T10:33:53Z</time>
      </trkpt>
      <trkpt lat="44.33515" lon="4.80266">
        <ele>127.7</ele>
        <time>2015-03-08T10:34:17Z</time>
      </trkpt>
      <trkpt lat="44.33506" lon="4.80268">
        <ele>127.8</ele>
        <time>2015-03-08T10:34:25Z</time>
      </trkpt>
      <trkpt lat="44.33499" lon="4.80259">
        <ele>128.7</ele>
        <time>2015-03-08T10:34:40Z</time>
      </trkpt>
      <trkpt lat="44.33497" lon="4.80247">
        <ele>131.1</ele>
        <time>2015-03-08T10:35:06Z</time>
      </trkpt>
      <trkpt lat="44.33494" lon="4.80234">
        <ele>131.5</ele>
        <time>2015-03-08T10:35:14Z</time>
      </trkpt>
      <trkpt lat="44.33495" lon="4.8022">
        <ele>132.3</ele>
        <time>2015-03-08T10:35:23Z</time>
      </trkpt>
      <trkpt lat="44.33499" lon="4.80208">
        <ele>132.9</ele>
        <time>2015-03-08T10:35:30Z</time>
      </trkpt>
      <trkpt lat="44.33503" lon="4.80195">
        <ele>133.5</ele>
        <time>2015-03-08T10:35:37Z</time>
      </trkpt>
      <trkpt lat="44.33507" lon="4.80183">
        <ele>134.4</ele>
        <time>2015-03-08T10:35:45Z</time>
      </trkpt>
      <trkpt lat="44.3351" lon="4.80169">
        <ele>135.3</ele>
        <time>2015-03-08T10:35:53Z</time>
      </trkpt>
      <trkpt lat="44.33511" lon="4.80155">
        <ele>136.6</ele>
        <time>2015-03-08T10:36:02Z</time>
      </trkpt>
      <trkpt lat="44.33514" lon="4.80142">
        <ele>138.4</ele>
        <time>2015-03-08T10:36:10Z</time>
      </trkpt>
      <trkpt lat="44.33514" lon="4.80129">
        <ele>140.6</ele>
        <time>2015-03-08T10:36:22Z</time>
      </trkpt>
      <trkpt lat="44.33517" lon="4.80115">
        <ele>144.1</ele>
        <time>2015-03-08T10:36:57Z</time>
      </trkpt>
      <trkpt lat="44.33521" lon="4.80102">
        <ele>144.3</ele>
        <time>2015-03-08T10:37:04Z</time>
      </trkpt>
      <trkpt lat="44.33524" lon="4.80088">
        <ele>144.6</ele>
        <time>2015-03-08T10:37:11Z</time>
      </trkpt>
      <trkpt lat="44.33527" lon="4.80075">
        <ele>144.9</ele>
        <time>2015-03-08T10:37:17Z</time>
      </trkpt>
      <trkpt lat="44.33527" lon="4.80061">
        <ele>145.4</ele>
        <time>2015-03-08T10:37:23Z</time>
      </trkpt>
      <trkpt lat="44.33527" lon="4.80048">
        <ele>146.1</ele>
        <time>2015-03-08T10:37:30Z</time>
      </trkpt>
      <trkpt lat="44.33522" lon="4.80036">
        <ele>147.1</ele>
        <time>2015-03-08T10:37:41Z</time>
      </trkpt>
      <trkpt lat="44.33515" lon="4.80028">
        <ele>147.7</ele>
        <time>2015-03-08T10:37:48Z</time>
      </trkpt>
      <trkpt lat="44.33512" lon="4.80015">
        <ele>148.4</ele>
        <time>2015-03-08T10:37:55Z</time>
      </trkpt>
      <trkpt lat="44.33506" lon="4.80005">
        <ele>149.6</ele>
        <time>2015-03-08T10:38:05Z</time>
      </trkpt>
      <trkpt lat="44.33499" lon="4.79995">
        <ele>150.6</ele>
        <time>2015-03-08T10:38:13Z</time>
      </trkpt>
      <trkpt lat="44.33491" lon="4.79987">
        <ele>151.2</ele>
        <time>2015-03-08T10:38:19Z</time>
      </trkpt>
      <trkpt lat="44.33483" lon="4.79979">
        <ele>151.7</ele>
        <time>2015-03-08T10:38:26Z</time>
      </trkpt>
      <trkpt lat="44.33475" lon="4.79972">
        <ele>152.3</ele>
        <time>2015-03-08T10:38:34Z</time>
      </trkpt>
      <trkpt lat="44.33467" lon="4.79966">
        <ele>153.6</ele>
        <time>2015-03-08T10:38:42Z</time>
      </trkpt>
      <trkpt lat="44.33458" lon="4.7996">
        <ele>154.6</ele>
        <time>2015-03-08T10:38:50Z</time>
      </trkpt>
      <trkpt lat="44.33451" lon="4.79952">
        <ele>155.6</ele>
        <time>2015-03-08T10:38:58Z</time>
      </trkpt>
      <trkpt lat="44.33444" lon="4.79943">
        <ele>158.5</ele>
        <time>2015-03-08T10:39:45Z</time>
      </trkpt>
      <trkpt lat="44.33436" lon="4.79937">
        <ele>158.4</ele>
        <time>2015-03-08T10:39:57Z</time>
      </trkpt>
      <trkpt lat="44.33429" lon="4.79929">
        <ele>158.7</ele>
        <time>2015-03-08T10:40:04Z</time>
      </trkpt>
      <trkpt lat="44.3342" lon="4.79922">
        <ele>159.8</ele>
        <time>2015-03-08T10:40:12Z</time>
      </trkpt>
      <trkpt lat="44.33413" lon="4.79914">
        <ele>161</ele>
        <time>2015-03-08T10:40:20Z</time>
      </trkpt>
      <trkpt lat="44.33405" lon="4.79904">
        <ele>161.9</ele>
        <time>2015-03-08T10:40:29Z</time>
      </trkpt>
      <trkpt lat="44.33399" lon="4.79895">
        <ele>163.6</ele>
        <time>2015-03-08T10:40:49Z</time>
      </trkpt>
      <trkpt lat="44.33393" lon="4.79885">
        <ele>164.5</ele>
        <time>2015-03-08T10:41:02Z</time>
      </trkpt>
      <trkpt lat="44.33386" lon="4.79876">
        <ele>165</ele>
        <time>2015-03-08T10:41:13Z</time>
      </trkpt>
      <trkpt lat="44.33378" lon="4.79868">
        <ele>165.6</ele>
        <time>2015-03-08T10:41:23Z</time>
      </trkpt>
      <trkpt lat="44.33371" lon="4.7986">
        <ele>166.3</ele>
        <time>2015-03-08T10:41:29Z</time>
      </trkpt>
      <trkpt lat="44.33362" lon="4.79852">
        <ele>166.8</ele>
        <time>2015-03-08T10:41:35Z</time>
      </trkpt>
      <trkpt lat="44.33355" lon="4.79844">
        <ele>167.2</ele>
        <time>2015-03-08T10:41:40Z</time>
      </trkpt>
      <trkpt lat="44.33348" lon="4.79835">
        <ele>167.6</ele>
        <time>2015-03-08T10:41:45Z</time>
      </trkpt>
      <trkpt lat="44.33341" lon="4.79826">
        <ele>168.2</ele>
        <time>2015-03-08T10:41:50Z</time>
      </trkpt>
      <trkpt lat="44.33333" lon="4.79818">
        <ele>168.7</ele>
        <time>2015-03-08T10:41:55Z</time>
      </trkpt>
      <trkpt lat="44.33326" lon="4.79809">
        <ele>169.3</ele>
        <time>2015-03-08T10:42:00Z</time>
      </trkpt>
      <trkpt lat="44.33319" lon="4.79799">
        <ele>169.9</ele>
        <time>2015-03-08T10:42:07Z</time>
      </trkpt>
      <trkpt lat="44.33315" lon="4.79788">
        <ele>170.2</ele>
        <time>2015-03-08T10:42:12Z</time>
      </trkpt>
      <trkpt lat="44.33308" lon="4.79776">
        <ele>170.5</ele>
        <time>2015-03-08T10:42:17Z</time>
      </trkpt>
      <trkpt lat="44.33301" lon="4.79766">
        <ele>170.8</ele>
        <time>2015-03-08T10:42:21Z</time>
      </trkpt>
      <trkpt lat="44.33294" lon="4.79755">
        <ele>171.2</ele>
        <time>2015-03-08T10:42:25Z</time>
      </trkpt>
      <trkpt lat="44.33286" lon="4.79746">
        <ele>171.6</ele>
        <time>2015-03-08T10:42:29Z</time>
      </trkpt>
      <trkpt lat="44.33279" lon="4.79737">
        <ele>171.9</ele>
        <time>2015-03-08T10:42:33Z</time>
      </trkpt>
      <trkpt lat="44.33271" lon="4.79728">
        <ele>172.2</ele>
        <time>2015-03-08T10:42:37Z</time>
      </trkpt>
      <trkpt lat="44.33262" lon="4.79719">
        <ele>172.5</ele>
        <time>2015-03-08T10:42:41Z</time>
      </trkpt>
      <trkpt lat="44.33257" lon="4.79708">
        <ele>172.6</ele>
        <time>2015-03-08T10:42:44Z</time>
      </trkpt>
      <trkpt lat="44.33253" lon="4.79695">
        <ele>172.8</ele>
        <time>2015-03-08T10:42:47Z</time>
      </trkpt>
      <trkpt lat="44.33249" lon="4.79681">
        <ele>172.9</ele>
        <time>2015-03-08T10:42:50Z</time>
      </trkpt>
      <trkpt lat="44.33245" lon="4.79667">
        <ele>172.9</ele>
        <time>2015-03-08T10:42:53Z</time>
      </trkpt>
      <trkpt lat="44.33241" lon="4.79654">
        <ele>173.1</ele>
        <time>2015-03-08T10:42:56Z</time>
      </trkpt>
      <trkpt lat="44.33237" lon="4.79641">
        <ele>173.3</ele>
        <time>2015-03-08T10:42:59Z</time>
      </trkpt>
      <trkpt lat="44.33232" lon="4.79627">
        <ele>173.4</ele>
        <time>2015-03-08T10:43:02Z</time>
      </trkpt>
      <trkpt lat="44.33226" lon="4.79616">
        <ele>173.5</ele>
        <time>2015-03-08T10:43:05Z</time>
      </trkpt>
      <trkpt lat="44.33219" lon="4.79606">
        <ele>173.7</ele>
        <time>2015-03-08T10:43:08Z</time>
      </trkpt>
      <trkpt lat="44.33211" lon="4.79596">
        <ele>173.9</ele>
        <time>2015-03-08T10:43:11Z</time>
      </trkpt>
      <trkpt lat="44.33204" lon="4.79587">
        <ele>174</ele>
        <time>2015-03-08T10:43:14Z</time>
      </trkpt>
      <trkpt lat="44.33197" lon="4.79574">
        <ele>174.2</ele>
        <time>2015-03-08T10:43:17Z</time>
      </trkpt>
      <trkpt lat="44.33189" lon="4.79564">
        <ele>174.3</ele>
        <time>2015-03-08T10:43:20Z</time>
      </trkpt>
      <trkpt lat="44.3318" lon="4.79555">
        <ele>174.4</ele>
        <time>2015-03-08T10:43:23Z</time>
      </trkpt>
      <trkpt lat="44.33171" lon="4.79546">
        <ele>174.5</ele>
        <time>2015-03-08T10:43:26Z</time>
      </trkpt>
      <trkpt lat="44.33162" lon="4.79536">
        <ele>174.5</ele>
        <time>2015-03-08T10:43:29Z</time>
      </trkpt>
      <trkpt lat="44.33156" lon="4.79525">
        <ele>174.6</ele>
        <time>2015-03-08T10:43:32Z</time>
      </trkpt>
      <trkpt lat="44.3315" lon="4.79513">
        <ele>174.6</ele>
        <time>2015-03-08T10:43:35Z</time>
      </trkpt>
      <trkpt lat="44.33145" lon="4.79499">
        <ele>174.7</ele>
        <time>2015-03-08T10:43:38Z</time>
      </trkpt>
      <trkpt lat="44.33139" lon="4.79486">
        <ele>174.7</ele>
        <time>2015-03-08T10:43:41Z</time>
      </trkpt>
      <trkpt lat="44.33131" lon="4.79476">
        <ele>174.8</ele>
        <time>2015-03-08T10:43:44Z</time>
      </trkpt>
      <trkpt lat="44.33121" lon="4.79468">
        <ele>174.8</ele>
        <time>2015-03-08T10:43:47Z</time>
      </trkpt>
      <trkpt lat="44.33112" lon="4.7946">
        <ele>174.8</ele>
        <time>2015-03-08T10:43:50Z</time>
      </trkpt>
      <trkpt lat="44.33103" lon="4.79453">
        <ele>174.9</ele>
        <time>2015-03-08T10:43:53Z</time>
      </trkpt>
      <trkpt lat="44.33094" lon="4.79445">
        <ele>175</ele>
        <time>2015-03-08T10:43:56Z</time>
      </trkpt>
      <trkpt lat="44.33085" lon="4.79436">
        <ele>175.1</ele>
        <time>2015-03-08T10:43:59Z</time>
      </trkpt>
      <trkpt lat="44.33077" lon="4.79428">
        <ele>175.2</ele>
        <time>2015-03-08T10:44:02Z</time>
      </trkpt>
      <trkpt lat="44.33069" lon="4.7942">
        <ele>175.4</ele>
        <time>2015-03-08T10:44:05Z</time>
      </trkpt>
      <trkpt lat="44.33061" lon="4.79412">
        <ele>175.7</ele>
        <time>2015-03-08T10:44:08Z</time>
      </trkpt>
      <trkpt lat="44.33053" lon="4.79404">
        <ele>176</ele>
        <time>2015-03-08T10:44:11Z</time>
      </trkpt>
      <trkpt lat="44.33045" lon="4.79394">
        <ele>176.3</ele>
        <time>2015-03-08T10:44:14Z</time>
      </trkpt>
      <trkpt lat="44.33039" lon="4.79385">
        <ele>176.6</ele>
        <time>2015-03-08T10:44:17Z</time>
      </trkpt>
      <trkpt lat="44.33034" lon="4.79372">
        <ele>176.7</ele>
        <time>2015-03-08T10:44:20Z</time>
      </trkpt>
      <trkpt lat="44.33029" lon="4.79358">
        <ele>176.7</ele>
        <time>2015-03-08T10:44:23Z</time>
      </trkpt>
      <trkpt lat="44.33024" lon="4.79344">
        <ele>176.7</ele>
        <time>2015-03-08T10:44:26Z</time>
      </trkpt>
      <trkpt lat="44.33021" lon="4.7933">
        <ele>176.7</ele>
        <time>2015-03-08T10:44:29Z</time>
      </trkpt>
      <trkpt lat="44.33017" lon="4.79316">
        <ele>176.7</ele>
        <time>2015-03-08T10:44:32Z</time>
      </trkpt>
      <trkpt lat="44.33016" lon="4.79301">
        <ele>176.8</ele>
        <time>2015-03-08T10:44:35Z</time>
      </trkpt>
      <trkpt lat="44.33011" lon="4.7929">
        <ele>176.8</ele>
        <time>2015-03-08T10:44:38Z</time>
      </trkpt>
      <trkpt lat="44.33003" lon="4.79297">
        <ele>176.9</ele>
        <time>2015-03-08T10:44:42Z</time>
      </trkpt>
      <trkpt lat="44.32996" lon="4.79308">
        <ele>177.1</ele>
        <time>2015-03-08T10:44:46Z</time>
      </trkpt>
      <trkpt lat="44.32989" lon="4.79321">
        <ele>177.5</ele>
        <time>2015-03-08T10:44:50Z</time>
      </trkpt>
      <trkpt lat="44.32983" lon="4.79334">
        <ele>177.9</ele>
        <time>2015-03-08T10:44:54Z</time>
      </trkpt>
      <trkpt lat="44.32977" lon="4.79347">
        <ele>178.1</ele>
        <time>2015-03-08T10:44:58Z</time>
      </trkpt>
      <trkpt lat="44.32971" lon="4.79357">
        <ele>178.3</ele>
        <time>2015-03-08T10:45:01Z</time>
      </trkpt>
      <trkpt lat="44.32965" lon="4.79367">
        <ele>178.4</ele>
        <time>2015-03-08T10:45:04Z</time>
      </trkpt>
      <trkpt lat="44.32959" lon="4.79376">
        <ele>178.5</ele>
        <time>2015-03-08T10:45:07Z</time>
      </trkpt>
      <trkpt lat="44.3295" lon="4.7938">
        <ele>178.6</ele>
        <time>2015-03-08T10:45:10Z</time>
      </trkpt>
      <trkpt lat="44.32942" lon="4.79373">
        <ele>178.7</ele>
        <time>2015-03-08T10:45:14Z</time>
      </trkpt>
      <trkpt lat="44.32936" lon="4.79362">
        <ele>179.1</ele>
        <time>2015-03-08T10:45:20Z</time>
      </trkpt>
      <trkpt lat="44.32931" lon="4.79351">
        <ele>179.7</ele>
        <time>2015-03-08T10:45:27Z</time>
      </trkpt>
      <trkpt lat="44.32924" lon="4.79341">
        <ele>180.4</ele>
        <time>2015-03-08T10:45:35Z</time>
      </trkpt>
      <trkpt lat="44.32916" lon="4.79332">
        <ele>181.2</ele>
        <time>2015-03-08T10:45:43Z</time>
      </trkpt>
      <trkpt lat="44.32914" lon="4.79318">
        <ele>181.9</ele>
        <time>2015-03-08T10:45:50Z</time>
      </trkpt>
      <trkpt lat="44.32916" lon="4.79306">
        <ele>182.2</ele>
        <time>2015-03-08T10:45:56Z</time>
      </trkpt>
      <trkpt lat="44.32912" lon="4.79294">
        <ele>182.7</ele>
        <time>2015-03-08T10:46:01Z</time>
      </trkpt>
      <trkpt lat="44.32914" lon="4.79279">
        <ele>183.1</ele>
        <time>2015-03-08T10:46:07Z</time>
      </trkpt>
      <trkpt lat="44.32916" lon="4.79266">
        <ele>183.5</ele>
        <time>2015-03-08T10:46:13Z</time>
      </trkpt>
      <trkpt lat="44.32918" lon="4.79253">
        <ele>183.8</ele>
        <time>2015-03-08T10:46:19Z</time>
      </trkpt>
      <trkpt lat="44.32918" lon="4.79239">
        <ele>184.3</ele>
        <time>2015-03-08T10:46:25Z</time>
      </trkpt>
      <trkpt lat="44.32919" lon="4.79226">
        <ele>184.6</ele>
        <time>2015-03-08T10:46:31Z</time>
      </trkpt>
      <trkpt lat="44.32923" lon="4.79213">
        <ele>185.5</ele>
        <time>2015-03-08T10:46:37Z</time>
      </trkpt>
      <trkpt lat="44.32926" lon="4.79199">
        <ele>186.3</ele>
        <time>2015-03-08T10:46:43Z</time>
      </trkpt>
      <trkpt lat="44.32931" lon="4.79187">
        <ele>186.8</ele>
        <time>2015-03-08T10:46:49Z</time>
      </trkpt>
      <trkpt lat="44.32938" lon="4.79177">
        <ele>187.3</ele>
        <time>2015-03-08T10:46:56Z</time>
      </trkpt>
      <trkpt lat="44.32943" lon="4.79166">
        <ele>187.9</ele>
        <time>2015-03-08T10:47:03Z</time>
      </trkpt>
      <trkpt lat="44.32946" lon="4.79153">
        <ele>188.5</ele>
        <time>2015-03-08T10:47:11Z</time>
      </trkpt>
      <trkpt lat="44.32949" lon="4.79141">
        <ele>189.2</ele>
        <time>2015-03-08T10:47:20Z</time>
      </trkpt>
      <trkpt lat="44.32951" lon="4.79127">
        <ele>189.8</ele>
        <time>2015-03-08T10:47:28Z</time>
      </trkpt>
      <trkpt lat="44.32949" lon="4.79113">
        <ele>191</ele>
        <time>2015-03-08T10:47:38Z</time>
      </trkpt>
      <trkpt lat="44.32942" lon="4.79105">
        <ele>192.1</ele>
        <time>2015-03-08T10:47:45Z</time>
      </trkpt>
      <trkpt lat="44.32936" lon="4.79094">
        <ele>193</ele>
        <time>2015-03-08T10:47:52Z</time>
      </trkpt>
      <trkpt lat="44.32932" lon="4.79081">
        <ele>193.3</ele>
        <time>2015-03-08T10:47:58Z</time>
      </trkpt>
      <trkpt lat="44.3293" lon="4.79068">
        <ele>193.6</ele>
        <time>2015-03-08T10:48:04Z</time>
      </trkpt>
      <trkpt lat="44.32929" lon="4.79054">
        <ele>194.4</ele>
        <time>2015-03-08T10:48:13Z</time>
      </trkpt>
      <trkpt lat="44.32925" lon="4.79043">
        <ele>195</ele>
        <time>2015-03-08T10:48:20Z</time>
      </trkpt>
      <trkpt lat="44.32922" lon="4.79031">
        <ele>196.4</ele>
        <time>2015-03-08T10:48:34Z</time>
      </trkpt>
      <trkpt lat="44.32917" lon="4.79019">
        <ele>197.3</ele>
        <time>2015-03-08T10:49:04Z</time>
      </trkpt>
      <trkpt lat="44.32909" lon="4.79012">
        <ele>197.4</ele>
        <time>2015-03-08T10:49:11Z</time>
      </trkpt>
      <trkpt lat="44.32902" lon="4.79003">
        <ele>197.7</ele>
        <time>2015-03-08T10:49:18Z</time>
      </trkpt>
      <trkpt lat="44.32895" lon="4.78995">
        <ele>198</ele>
        <time>2015-03-08T10:49:24Z</time>
      </trkpt>
      <trkpt lat="44.32888" lon="4.78984">
        <ele>198.2</ele>
        <time>2015-03-08T10:49:30Z</time>
      </trkpt>
      <trkpt lat="44.32882" lon="4.78976">
        <ele>198.4</ele>
        <time>2015-03-08T10:49:35Z</time>
      </trkpt>
      <trkpt lat="44.32876" lon="4.78966">
        <ele>198.5</ele>
        <time>2015-03-08T10:49:40Z</time>
      </trkpt>
      <trkpt lat="44.32869" lon="4.78956">
        <ele>198.5</ele>
        <time>2015-03-08T10:49:44Z</time>
      </trkpt>
      <trkpt lat="44.32862" lon="4.78948">
        <ele>198.7</ele>
        <time>2015-03-08T10:49:48Z</time>
      </trkpt>
      <trkpt lat="44.32855" lon="4.78936">
        <ele>198.9</ele>
        <time>2015-03-08T10:49:53Z</time>
      </trkpt>
      <trkpt lat="44.32849" lon="4.78926">
        <ele>199.1</ele>
        <time>2015-03-08T10:49:57Z</time>
      </trkpt>
      <trkpt lat="44.32841" lon="4.78916">
        <ele>199.5</ele>
        <time>2015-03-08T10:50:02Z</time>
      </trkpt>
      <trkpt lat="44.32834" lon="4.78907">
        <ele>199.8</ele>
        <time>2015-03-08T10:50:07Z</time>
      </trkpt>
      <trkpt lat="44.32827" lon="4.78898">
        <ele>200</ele>
        <time>2015-03-08T10:50:12Z</time>
      </trkpt>
      <trkpt lat="44.32822" lon="4.78887">
        <ele>200.2</ele>
        <time>2015-03-08T10:50:17Z</time>
      </trkpt>
      <trkpt lat="44.32817" lon="4.78876">
        <ele>200.7</ele>
        <time>2015-03-08T10:50:21Z</time>
      </trkpt>
      <trkpt lat="44.32811" lon="4.78866">
        <ele>201.1</ele>
        <time>2015-03-08T10:50:25Z</time>
      </trkpt>
      <trkpt lat="44.32803" lon="4.78857">
        <ele>201.6</ele>
        <time>2015-03-08T10:50:29Z</time>
      </trkpt>
      <trkpt lat="44.32797" lon="4.78846">
        <ele>202</ele>
        <time>2015-03-08T10:50:32Z</time>
      </trkpt>
      <trkpt lat="44.3279" lon="4.78836">
        <ele>202.4</ele>
        <time>2015-03-08T10:50:36Z</time>
      </trkpt>
      <trkpt lat="44.32783" lon="4.78826">
        <ele>202.7</ele>
        <time>2015-03-08T10:50:40Z</time>
      </trkpt>
      <trkpt lat="44.32775" lon="4.78817">
        <ele>203</ele>
        <time>2015-03-08T10:50:44Z</time>
      </trkpt>
      <trkpt lat="44.32767" lon="4.78807">
        <ele>203.2</ele>
        <time>2015-03-08T10:50:48Z</time>
      </trkpt>
      <trkpt lat="44.32759" lon="4.78798">
        <ele>203.3</ele>
        <time>2015-03-08T10:50:52Z</time>
      </trkpt>
      <trkpt lat="44.32751" lon="4.78789">
        <ele>203.4</ele>
        <time>2015-03-08T10:50:56Z</time>
      </trkpt>
      <trkpt lat="44.32744" lon="4.78781">
        <ele>203.5</ele>
        <time>2015-03-08T10:51:00Z</time>
      </trkpt>
      <trkpt lat="44.32737" lon="4.7877">
        <ele>203.6</ele>
        <time>2015-03-08T10:51:04Z</time>
      </trkpt>
      <trkpt lat="44.32728" lon="4.78762">
        <ele>203.6</ele>
        <time>2015-03-08T10:51:07Z</time>
      </trkpt>
      <trkpt lat="44.32718" lon="4.78755">
        <ele>203.6</ele>
        <time>2015-03-08T10:51:10Z</time>
      </trkpt>
      <trkpt lat="44.3271" lon="4.78749">
        <ele>203.5</ele>
        <time>2015-03-08T10:51:12Z</time>
      </trkpt>
      <trkpt lat="44.327" lon="4.78744">
        <ele>203.5</ele>
        <time>2015-03-08T10:51:14Z</time>
      </trkpt>
      <trkpt lat="44.3269" lon="4.78738">
        <ele>203.3</ele>
        <time>2015-03-08T10:51:16Z</time>
      </trkpt>
      <trkpt lat="44.32679" lon="4.78735">
        <ele>203.2</ele>
        <time>2015-03-08T10:51:18Z</time>
      </trkpt>
      <trkpt lat="44.3267" lon="4.78735">
        <ele>202.9</ele>
        <time>2015-03-08T10:51:20Z</time>
      </trkpt>
      <trkpt lat="44.32662" lon="4.78725">
        <ele>202.3</ele>
        <time>2015-03-08T10:51:23Z</time>
      </trkpt>
      <trkpt lat="44.32663" lon="4.7871">
        <ele>201.7</ele>
        <time>2015-03-08T10:51:26Z</time>
      </trkpt>
      <trkpt lat="44.32663" lon="4.78693">
        <ele>201.2</ele>
        <time>2015-03-08T10:51:29Z</time>
      </trkpt>
      <trkpt lat="44.32664" lon="4.7868">
        <ele>200.9</ele>
        <time>2015-03-08T10:51:31Z</time>
      </trkpt>
      <trkpt lat="44.32665" lon="4.78666">
        <ele>200.4</ele>
        <time>2015-03-08T10:51:33Z</time>
      </trkpt>
      <trkpt lat="44.32666" lon="4.78651">
        <ele>199.8</ele>
        <time>2015-03-08T10:51:36Z</time>
      </trkpt>
      <trkpt lat="44.32665" lon="4.78637">
        <ele>199.2</ele>
        <time>2015-03-08T10:51:40Z</time>
      </trkpt>
      <trkpt lat="44.32659" lon="4.78626">
        <ele>198.5</ele>
        <time>2015-03-08T10:51:43Z</time>
      </trkpt>
      <trkpt lat="44.32655" lon="4.78614">
        <ele>198</ele>
        <time>2015-03-08T10:51:46Z</time>
      </trkpt>
      <trkpt lat="44.32652" lon="4.78601">
        <ele>197.6</ele>
        <time>2015-03-08T10:51:49Z</time>
      </trkpt>
      <trkpt lat="44.3265" lon="4.78588">
        <ele>197.4</ele>
        <time>2015-03-08T10:51:52Z</time>
      </trkpt>
      <trkpt lat="44.3265" lon="4.78575">
        <ele>197.1</ele>
        <time>2015-03-08T10:51:55Z</time>
      </trkpt>
      <trkpt lat="44.32651" lon="4.78562">
        <ele>196.9</ele>
        <time>2015-03-08T10:51:58Z</time>
      </trkpt>
      <trkpt lat="44.32654" lon="4.7855">
        <ele>196.9</ele>
        <time>2015-03-08T10:52:01Z</time>
      </trkpt>
      <trkpt lat="44.3266" lon="4.7854">
        <ele>196.8</ele>
        <time>2015-03-08T10:52:04Z</time>
      </trkpt>
      <trkpt lat="44.32674" lon="4.7852">
        <ele>196</ele>
        <time>2015-03-08T10:52:10Z</time>
      </trkpt>
      <trkpt lat="44.32684" lon="4.78513">
        <ele>196</ele>
        <time>2015-03-08T10:52:14Z</time>
      </trkpt>
      <trkpt lat="44.32694" lon="4.78505">
        <ele>197</ele>
        <time>2015-03-08T10:52:18Z</time>
      </trkpt>
      <trkpt lat="44.32703" lon="4.78498">
        <ele>197</ele>
        <time>2015-03-08T10:52:22Z</time>
      </trkpt>
      <trkpt lat="44.32712" lon="4.78491">
        <ele>197.8</ele>
        <time>2015-03-08T10:52:26Z</time>
      </trkpt>
      <trkpt lat="44.32722" lon="4.78484">
        <ele>198.1</ele>
        <time>2015-03-08T10:52:30Z</time>
      </trkpt>
      <trkpt lat="44.32731" lon="4.78475">
        <ele>198.5</ele>
        <time>2015-03-08T10:52:34Z</time>
      </trkpt>
      <trkpt lat="44.3274" lon="4.78466">
        <ele>198.9</ele>
        <time>2015-03-08T10:52:38Z</time>
      </trkpt>
      <trkpt lat="44.32744" lon="4.78452">
        <ele>199.3</ele>
        <time>2015-03-08T10:52:42Z</time>
      </trkpt>
      <trkpt lat="44.32741" lon="4.78439">
        <ele>199.6</ele>
        <time>2015-03-08T10:52:45Z</time>
      </trkpt>
      <trkpt lat="44.32736" lon="4.78427">
        <ele>199.8</ele>
        <time>2015-03-08T10:52:48Z</time>
      </trkpt>
      <trkpt lat="44.32731" lon="4.78414">
        <ele>200</ele>
        <time>2015-03-08T10:52:51Z</time>
      </trkpt>
      <trkpt lat="44.32725" lon="4.784">
        <ele>200.1</ele>
        <time>2015-03-08T10:52:54Z</time>
      </trkpt>
      <trkpt lat="44.32719" lon="4.78386">
        <ele>200.2</ele>
        <time>2015-03-08T10:52:57Z</time>
      </trkpt>
      <trkpt lat="44.32713" lon="4.78371">
        <ele>200.3</ele>
        <time>2015-03-08T10:53:00Z</time>
      </trkpt>
      <trkpt lat="44.32708" lon="4.78354">
        <ele>200.4</ele>
        <time>2015-03-08T10:53:03Z</time>
      </trkpt>
      <trkpt lat="44.32704" lon="4.78342">
        <ele>200.4</ele>
        <time>2015-03-08T10:53:05Z</time>
      </trkpt>
      <trkpt lat="44.327" lon="4.78326">
        <ele>200.3</ele>
        <time>2015-03-08T10:53:08Z</time>
      </trkpt>
      <trkpt lat="44.32696" lon="4.78311">
        <ele>199.7</ele>
        <time>2015-03-08T10:53:13Z</time>
      </trkpt>
      <trkpt lat="44.3269" lon="4.78297">
        <ele>199.3</ele>
        <time>2015-03-08T10:53:16Z</time>
      </trkpt>
      <trkpt lat="44.32685" lon="4.78285">
        <ele>199</ele>
        <time>2015-03-08T10:53:18Z</time>
      </trkpt>
      <trkpt lat="44.32679" lon="4.78273">
        <ele>198.7</ele>
        <time>2015-03-08T10:53:20Z</time>
      </trkpt>
      <trkpt lat="44.32674" lon="4.78261">
        <ele>198.5</ele>
        <time>2015-03-08T10:53:22Z</time>
      </trkpt>
      <trkpt lat="44.32668" lon="4.78247">
        <ele>197.9</ele>
        <time>2015-03-08T10:53:24Z</time>
      </trkpt>
      <trkpt lat="44.32664" lon="4.78231">
        <ele>197.4</ele>
        <time>2015-03-08T10:53:26Z</time>
      </trkpt>
      <trkpt lat="44.32659" lon="4.78215">
        <ele>196.8</ele>
        <time>2015-03-08T10:53:28Z</time>
      </trkpt>
      <trkpt lat="44.32651" lon="4.78202">
        <ele>196.2</ele>
        <time>2015-03-08T10:53:30Z</time>
      </trkpt>
      <trkpt lat="44.32643" lon="4.78196">
        <ele>195.7</ele>
        <time>2015-03-08T10:53:32Z</time>
      </trkpt>
      <trkpt lat="44.32634" lon="4.78192">
        <ele>195</ele>
        <time>2015-03-08T10:53:35Z</time>
      </trkpt>
      <trkpt lat="44.32624" lon="4.7819">
        <ele>194.3</ele>
        <time>2015-03-08T10:53:39Z</time>
      </trkpt>
      <trkpt lat="44.32615" lon="4.78189">
        <ele>194.1</ele>
        <time>2015-03-08T10:53:43Z</time>
      </trkpt>
      <trkpt lat="44.32605" lon="4.78196">
        <ele>194.1</ele>
        <time>2015-03-08T10:53:48Z</time>
      </trkpt>
      <trkpt lat="44.32601" lon="4.78209">
        <ele>194.6</ele>
        <time>2015-03-08T10:53:53Z</time>
      </trkpt>
      <trkpt lat="44.32597" lon="4.78221">
        <ele>195.1</ele>
        <time>2015-03-08T10:53:58Z</time>
      </trkpt>
      <trkpt lat="44.32592" lon="4.78232">
        <ele>195.7</ele>
        <time>2015-03-08T10:54:03Z</time>
      </trkpt>
      <trkpt lat="44.32582" lon="4.78235">
        <ele>196.5</ele>
        <time>2015-03-08T10:54:08Z</time>
      </trkpt>
      <trkpt lat="44.32572" lon="4.78232">
        <ele>197.2</ele>
        <time>2015-03-08T10:54:14Z</time>
      </trkpt>
      <trkpt lat="44.32563" lon="4.78229">
        <ele>197.9</ele>
        <time>2015-03-08T10:54:19Z</time>
      </trkpt>
      <trkpt lat="44.32554" lon="4.78225">
        <ele>198.6</ele>
        <time>2015-03-08T10:54:24Z</time>
      </trkpt>
      <trkpt lat="44.32545" lon="4.7822">
        <ele>199.5</ele>
        <time>2015-03-08T10:54:29Z</time>
      </trkpt>
      <trkpt lat="44.32536" lon="4.78213">
        <ele>200.3</ele>
        <time>2015-03-08T10:54:34Z</time>
      </trkpt>
      <trkpt lat="44.32528" lon="4.78206">
        <ele>201</ele>
        <time>2015-03-08T10:54:39Z</time>
      </trkpt>
      <trkpt lat="44.3252" lon="4.78196">
        <ele>201.4</ele>
        <time>2015-03-08T10:54:44Z</time>
      </trkpt>
      <trkpt lat="44.32514" lon="4.78186">
        <ele>201.9</ele>
        <time>2015-03-08T10:54:49Z</time>
      </trkpt>
      <trkpt lat="44.3251" lon="4.78173">
        <ele>202.4</ele>
        <time>2015-03-08T10:54:54Z</time>
      </trkpt>
      <trkpt lat="44.32507" lon="4.7816">
        <ele>203.1</ele>
        <time>2015-03-08T10:54:59Z</time>
      </trkpt>
      <trkpt lat="44.32504" lon="4.78146">
        <ele>203.6</ele>
        <time>2015-03-08T10:55:04Z</time>
      </trkpt>
      <trkpt lat="44.32502" lon="4.78131">
        <ele>204.1</ele>
        <time>2015-03-08T10:55:09Z</time>
      </trkpt>
      <trkpt lat="44.32501" lon="4.78119">
        <ele>204.7</ele>
        <time>2015-03-08T10:55:14Z</time>
      </trkpt>
      <trkpt lat="44.325" lon="4.78106">
        <ele>205.1</ele>
        <time>2015-03-08T10:55:19Z</time>
      </trkpt>
      <trkpt lat="44.32496" lon="4.78093">
        <ele>205.7</ele>
        <time>2015-03-08T10:55:25Z</time>
      </trkpt>
      <trkpt lat="44.32489" lon="4.78085">
        <ele>206.6</ele>
        <time>2015-03-08T10:55:30Z</time>
      </trkpt>
      <trkpt lat="44.3248" lon="4.78075">
        <ele>207.5</ele>
        <time>2015-03-08T10:55:36Z</time>
      </trkpt>
      <trkpt lat="44.32473" lon="4.78066">
        <ele>208.4</ele>
        <time>2015-03-08T10:55:41Z</time>
      </trkpt>
      <trkpt lat="44.32466" lon="4.78057">
        <ele>209</ele>
        <time>2015-03-08T10:55:46Z</time>
      </trkpt>
      <trkpt lat="44.32457" lon="4.7805">
        <ele>209.5</ele>
        <time>2015-03-08T10:55:51Z</time>
      </trkpt>
      <trkpt lat="44.3245" lon="4.78042">
        <ele>209.8</ele>
        <time>2015-03-08T10:55:55Z</time>
      </trkpt>
      <trkpt lat="44.32442" lon="4.78035">
        <ele>210.3</ele>
        <time>2015-03-08T10:55:59Z</time>
      </trkpt>
      <trkpt lat="44.32432" lon="4.78028">
        <ele>210.8</ele>
        <time>2015-03-08T10:56:04Z</time>
      </trkpt>
      <trkpt lat="44.32424" lon="4.78022">
        <ele>211.1</ele>
        <time>2015-03-08T10:56:09Z</time>
      </trkpt>
      <trkpt lat="44.32415" lon="4.78021">
        <ele>211.3</ele>
        <time>2015-03-08T10:56:12Z</time>
      </trkpt>
      <trkpt lat="44.32401" lon="4.78023">
        <ele>211.5</ele>
        <time>2015-03-08T10:56:15Z</time>
      </trkpt>
      <trkpt lat="44.32392" lon="4.78025">
        <ele>211.5</ele>
        <time>2015-03-08T10:56:17Z</time>
      </trkpt>
      <trkpt lat="44.3238" lon="4.7803">
        <ele>211.5</ele>
        <time>2015-03-08T10:56:20Z</time>
      </trkpt>
      <trkpt lat="44.32373" lon="4.78038">
        <ele>211.2</ele>
        <time>2015-03-08T10:56:25Z</time>
      </trkpt>
      <trkpt lat="44.32366" lon="4.78047">
        <ele>211.1</ele>
        <time>2015-03-08T10:56:32Z</time>
      </trkpt>
      <trkpt lat="44.32357" lon="4.78051">
        <ele>211.5</ele>
        <time>2015-03-08T10:56:40Z</time>
      </trkpt>
      <trkpt lat="44.32347" lon="4.78055">
        <ele>212.3</ele>
        <time>2015-03-08T10:56:47Z</time>
      </trkpt>
      <trkpt lat="44.32338" lon="4.78057">
        <ele>212.7</ele>
        <time>2015-03-08T10:56:54Z</time>
      </trkpt>
      <trkpt lat="44.32328" lon="4.7806">
        <ele>213.7</ele>
        <time>2015-03-08T10:57:01Z</time>
      </trkpt>
      <trkpt lat="44.32318" lon="4.78063">
        <ele>214.4</ele>
        <time>2015-03-08T10:57:07Z</time>
      </trkpt>
      <trkpt lat="44.32308" lon="4.78066">
        <ele>215</ele>
        <time>2015-03-08T10:57:14Z</time>
      </trkpt>
      <trkpt lat="44.32298" lon="4.78067">
        <ele>215.6</ele>
        <time>2015-03-08T10:57:20Z</time>
      </trkpt>
      <trkpt lat="44.32289" lon="4.78069">
        <ele>216</ele>
        <time>2015-03-08T10:57:25Z</time>
      </trkpt>
      <trkpt lat="44.32279" lon="4.7807">
        <ele>216.3</ele>
        <time>2015-03-08T10:57:30Z</time>
      </trkpt>
      <trkpt lat="44.32268" lon="4.78068">
        <ele>216.7</ele>
        <time>2015-03-08T10:57:35Z</time>
      </trkpt>
      <trkpt lat="44.32257" lon="4.78068">
        <ele>217.1</ele>
        <time>2015-03-08T10:57:40Z</time>
      </trkpt>
      <trkpt lat="44.32246" lon="4.78069">
        <ele>217.4</ele>
        <time>2015-03-08T10:57:45Z</time>
      </trkpt>
      <trkpt lat="44.32236" lon="4.78068">
        <ele>217.5</ele>
        <time>2015-03-08T10:57:49Z</time>
      </trkpt>
      <trkpt lat="44.32226" lon="4.78067">
        <ele>217.6</ele>
        <time>2015-03-08T10:57:53Z</time>
      </trkpt>
      <trkpt lat="44.32216" lon="4.78064">
        <ele>217.9</ele>
        <time>2015-03-08T10:57:57Z</time>
      </trkpt>
      <trkpt lat="44.32206" lon="4.7806">
        <ele>218.3</ele>
        <time>2015-03-08T10:58:01Z</time>
      </trkpt>
      <trkpt lat="44.32197" lon="4.78056">
        <ele>218.6</ele>
        <time>2015-03-08T10:58:05Z</time>
      </trkpt>
      <trkpt lat="44.32188" lon="4.78052">
        <ele>219</ele>
        <time>2015-03-08T10:58:09Z</time>
      </trkpt>
      <trkpt lat="44.32178" lon="4.78047">
        <ele>219.3</ele>
        <time>2015-03-08T10:58:13Z</time>
      </trkpt>
      <trkpt lat="44.32169" lon="4.78045">
        <ele>219.6</ele>
        <time>2015-03-08T10:58:17Z</time>
      </trkpt>
      <trkpt lat="44.32159" lon="4.78044">
        <ele>219.7</ele>
        <time>2015-03-08T10:58:21Z</time>
      </trkpt>
      <trkpt lat="44.3215" lon="4.78044">
        <ele>219.9</ele>
        <time>2015-03-08T10:58:24Z</time>
      </trkpt>
      <trkpt lat="44.3214" lon="4.78043">
        <ele>220</ele>
        <time>2015-03-08T10:58:28Z</time>
      </trkpt>
      <trkpt lat="44.32131" lon="4.78043">
        <ele>220.5</ele>
        <time>2015-03-08T10:58:33Z</time>
      </trkpt>
      <trkpt lat="44.32122" lon="4.78043">
        <ele>221.1</ele>
        <time>2015-03-08T10:58:39Z</time>
      </trkpt>
      <trkpt lat="44.32112" lon="4.78043">
        <ele>221.4</ele>
        <time>2015-03-08T10:58:46Z</time>
      </trkpt>
      <trkpt lat="44.32103" lon="4.7804">
        <ele>221.9</ele>
        <time>2015-03-08T10:58:53Z</time>
      </trkpt>
      <trkpt lat="44.32098" lon="4.78029">
        <ele>222.6</ele>
        <time>2015-03-08T10:59:03Z</time>
      </trkpt>
      <trkpt lat="44.32092" lon="4.78019">
        <ele>224.2</ele>
        <time>2015-03-08T10:59:20Z</time>
      </trkpt>
      <trkpt lat="44.32085" lon="4.78009">
        <ele>225.2</ele>
        <time>2015-03-08T10:59:30Z</time>
      </trkpt>
      <trkpt lat="44.32076" lon="4.78007">
        <ele>226.4</ele>
        <time>2015-03-08T10:59:40Z</time>
      </trkpt>
      <trkpt lat="44.32066" lon="4.78008">
        <ele>227.6</ele>
        <time>2015-03-08T10:59:50Z</time>
      </trkpt>
      <trkpt lat="44.32057" lon="4.78005">
        <ele>228.1</ele>
        <time>2015-03-08T10:59:58Z</time>
      </trkpt>
      <trkpt lat="44.32048" lon="4.78002">
        <ele>228.5</ele>
        <time>2015-03-08T11:00:06Z</time>
      </trkpt>
      <trkpt lat="44.32038" lon="4.77999">
        <ele>229.3</ele>
        <time>2015-03-08T11:00:18Z</time>
      </trkpt>
      <trkpt lat="44.32028" lon="4.77997">
        <ele>229.7</ele>
        <time>2015-03-08T11:00:24Z</time>
      </trkpt>
      <trkpt lat="44.32018" lon="4.77994">
        <ele>229.9</ele>
        <time>2015-03-08T11:00:30Z</time>
      </trkpt>
      <trkpt lat="44.32007" lon="4.7799">
        <ele>230.1</ele>
        <time>2015-03-08T11:00:36Z</time>
      </trkpt>
      <trkpt lat="44.31997" lon="4.77987">
        <ele>230.2</ele>
        <time>2015-03-08T11:00:41Z</time>
      </trkpt>
      <trkpt lat="44.31987" lon="4.77983">
        <ele>230.5</ele>
        <time>2015-03-08T11:00:46Z</time>
      </trkpt>
      <trkpt lat="44.31978" lon="4.77977">
        <ele>231</ele>
        <time>2015-03-08T11:00:51Z</time>
      </trkpt>
      <trkpt lat="44.31969" lon="4.77971">
        <ele>231.5</ele>
        <time>2015-03-08T11:00:56Z</time>
      </trkpt>
      <trkpt lat="44.31959" lon="4.77966">
        <ele>231.8</ele>
        <time>2015-03-08T11:01:01Z</time>
      </trkpt>
      <trkpt lat="44.31949" lon="4.77964">
        <ele>232.1</ele>
        <time>2015-03-08T11:01:05Z</time>
      </trkpt>
      <trkpt lat="44.3194" lon="4.77963">
        <ele>232.3</ele>
        <time>2015-03-08T11:01:11Z</time>
      </trkpt>
      <trkpt lat="44.31931" lon="4.77967">
        <ele>232.3</ele>
        <time>2015-03-08T11:02:53Z</time>
      </trkpt>
      <trkpt lat="44.31919" lon="4.77966">
        <ele>232.3</ele>
        <time>2015-03-08T11:02:58Z</time>
      </trkpt>
      <trkpt lat="44.3191" lon="4.77965">
        <ele>232</ele>
        <time>2015-03-08T11:03:01Z</time>
      </trkpt>
      <trkpt lat="44.31902" lon="4.77954">
        <ele>231.6</ele>
        <time>2015-03-08T11:03:05Z</time>
      </trkpt>
      <trkpt lat="44.31896" lon="4.77943">
        <ele>231.3</ele>
        <time>2015-03-08T11:03:09Z</time>
      </trkpt>
      <trkpt lat="44.31889" lon="4.77934">
        <ele>231</ele>
        <time>2015-03-08T11:03:13Z</time>
      </trkpt>
      <trkpt lat="44.31882" lon="4.77922">
        <ele>231</ele>
        <time>2015-03-08T11:03:17Z</time>
      </trkpt>
      <trkpt lat="44.31875" lon="4.77912">
        <ele>231.1</ele>
        <time>2015-03-08T11:03:21Z</time>
      </trkpt>
      <trkpt lat="44.31869" lon="4.77901">
        <ele>231.2</ele>
        <time>2015-03-08T11:03:26Z</time>
      </trkpt>
      <trkpt lat="44.31863" lon="4.7789">
        <ele>232</ele>
        <time>2015-03-08T11:03:31Z</time>
      </trkpt>
      <trkpt lat="44.31857" lon="4.77877">
        <ele>232.9</ele>
        <time>2015-03-08T11:03:36Z</time>
      </trkpt>
      <trkpt lat="44.31852" lon="4.77866">
        <ele>233.6</ele>
        <time>2015-03-08T11:03:40Z</time>
      </trkpt>
      <trkpt lat="44.31848" lon="4.77853">
        <ele>234.1</ele>
        <time>2015-03-08T11:03:45Z</time>
      </trkpt>
      <trkpt lat="44.31847" lon="4.77839">
        <ele>234.7</ele>
        <time>2015-03-08T11:03:51Z</time>
      </trkpt>
      <trkpt lat="44.31845" lon="4.77826">
        <ele>235.2</ele>
        <time>2015-03-08T11:03:56Z</time>
      </trkpt>
      <trkpt lat="44.31844" lon="4.77813">
        <ele>235.8</ele>
        <time>2015-03-08T11:04:01Z</time>
      </trkpt>
      <trkpt lat="44.31841" lon="4.778">
        <ele>236.4</ele>
        <time>2015-03-08T11:04:06Z</time>
      </trkpt>
      <trkpt lat="44.31842" lon="4.77786">
        <ele>237.3</ele>
        <time>2015-03-08T11:04:12Z</time>
      </trkpt>
      <trkpt lat="44.31848" lon="4.77775">
        <ele>238.5</ele>
        <time>2015-03-08T11:04:20Z</time>
      </trkpt>
      <trkpt lat="44.31849" lon="4.77762">
        <ele>240.9</ele>
        <time>2015-03-08T11:05:08Z</time>
      </trkpt>
      <trkpt lat="44.3184" lon="4.7776">
        <ele>241</ele>
        <time>2015-03-08T11:06:05Z</time>
      </trkpt>
      <trkpt lat="44.3183" lon="4.77757">
        <ele>241.1</ele>
        <time>2015-03-08T11:06:10Z</time>
      </trkpt>
      <trkpt lat="44.3182" lon="4.77753">
        <ele>241.1</ele>
        <time>2015-03-08T11:06:14Z</time>
      </trkpt>
      <trkpt lat="44.3181" lon="4.77746">
        <ele>241.1</ele>
        <time>2015-03-08T11:06:18Z</time>
      </trkpt>
      <trkpt lat="44.31801" lon="4.77737">
        <ele>241.3</ele>
        <time>2015-03-08T11:06:22Z</time>
      </trkpt>
      <trkpt lat="44.31795" lon="4.77727">
        <ele>241.4</ele>
        <time>2015-03-08T11:06:25Z</time>
      </trkpt>
      <trkpt lat="44.31784" lon="4.7772">
        <ele>241.8</ele>
        <time>2015-03-08T11:06:29Z</time>
      </trkpt>
      <trkpt lat="44.31775" lon="4.77716">
        <ele>242.2</ele>
        <time>2015-03-08T11:06:32Z</time>
      </trkpt>
      <trkpt lat="44.31767" lon="4.77711">
        <ele>242.7</ele>
        <time>2015-03-08T11:06:35Z</time>
      </trkpt>
      <trkpt lat="44.31758" lon="4.77708">
        <ele>243.2</ele>
        <time>2015-03-08T11:06:38Z</time>
      </trkpt>
      <trkpt lat="44.31749" lon="4.77703">
        <ele>243.6</ele>
        <time>2015-03-08T11:06:41Z</time>
      </trkpt>
      <trkpt lat="44.31739" lon="4.77694">
        <ele>244</ele>
        <time>2015-03-08T11:06:45Z</time>
      </trkpt>
      <trkpt lat="44.31732" lon="4.77684">
        <ele>244.4</ele>
        <time>2015-03-08T11:06:49Z</time>
      </trkpt>
      <trkpt lat="44.31725" lon="4.77672">
        <ele>244.7</ele>
        <time>2015-03-08T11:06:53Z</time>
      </trkpt>
      <trkpt lat="44.31716" lon="4.77665">
        <ele>245</ele>
        <time>2015-03-08T11:06:57Z</time>
      </trkpt>
      <trkpt lat="44.31706" lon="4.77656">
        <ele>245.2</ele>
        <time>2015-03-08T11:07:01Z</time>
      </trkpt>
      <trkpt lat="44.31698" lon="4.7765">
        <ele>245.4</ele>
        <time>2015-03-08T11:07:04Z</time>
      </trkpt>
      <trkpt lat="44.31692" lon="4.77637">
        <ele>245.7</ele>
        <time>2015-03-08T11:07:08Z</time>
      </trkpt>
      <trkpt lat="44.31684" lon="4.77627">
        <ele>246.2</ele>
        <time>2015-03-08T11:07:12Z</time>
      </trkpt>
      <trkpt lat="44.31675" lon="4.77617">
        <ele>246.8</ele>
        <time>2015-03-08T11:07:16Z</time>
      </trkpt>
      <trkpt lat="44.31666" lon="4.77608">
        <ele>247.2</ele>
        <time>2015-03-08T11:07:20Z</time>
      </trkpt>
      <trkpt lat="44.31657" lon="4.77602">
        <ele>247.4</ele>
        <time>2015-03-08T11:07:23Z</time>
      </trkpt>
      <trkpt lat="44.31651" lon="4.77593">
        <ele>247.7</ele>
        <time>2015-03-08T11:07:26Z</time>
      </trkpt>
      <trkpt lat="44.31643" lon="4.77577">
        <ele>248</ele>
        <time>2015-03-08T11:07:30Z</time>
      </trkpt>
      <trkpt lat="44.31639" lon="4.77562">
        <ele>248.5</ele>
        <time>2015-03-08T11:07:34Z</time>
      </trkpt>
      <trkpt lat="44.31639" lon="4.7755">
        <ele>248.9</ele>
        <time>2015-03-08T11:07:38Z</time>
      </trkpt>
      <trkpt lat="44.31638" lon="4.77535">
        <ele>249.3</ele>
        <time>2015-03-08T11:07:43Z</time>
      </trkpt>
      <trkpt lat="44.31634" lon="4.7752">
        <ele>249.8</ele>
        <time>2015-03-08T11:07:48Z</time>
      </trkpt>
      <trkpt lat="44.31633" lon="4.77505">
        <ele>250.1</ele>
        <time>2015-03-08T11:07:52Z</time>
      </trkpt>
      <trkpt lat="44.31635" lon="4.77492">
        <ele>250.4</ele>
        <time>2015-03-08T11:07:56Z</time>
      </trkpt>
      <trkpt lat="44.31641" lon="4.77479">
        <ele>251.1</ele>
        <time>2015-03-08T11:08:01Z</time>
      </trkpt>
      <trkpt lat="44.31648" lon="4.77466">
        <ele>251.6</ele>
        <time>2015-03-08T11:08:06Z</time>
      </trkpt>
      <trkpt lat="44.31653" lon="4.77454">
        <ele>251.9</ele>
        <time>2015-03-08T11:08:10Z</time>
      </trkpt>
      <trkpt lat="44.3166" lon="4.77442">
        <ele>252.6</ele>
        <time>2015-03-08T11:08:14Z</time>
      </trkpt>
      <trkpt lat="44.31669" lon="4.77432">
        <ele>253.2</ele>
        <time>2015-03-08T11:08:18Z</time>
      </trkpt>
      <trkpt lat="44.31676" lon="4.77422">
        <ele>253.6</ele>
        <time>2015-03-08T11:08:22Z</time>
      </trkpt>
      <trkpt lat="44.31686" lon="4.77418">
        <ele>253.9</ele>
        <time>2015-03-08T11:08:26Z</time>
      </trkpt>
      <trkpt lat="44.31695" lon="4.77415">
        <ele>254.2</ele>
        <time>2015-03-08T11:08:30Z</time>
      </trkpt>
      <trkpt lat="44.31702" lon="4.77404">
        <ele>254.6</ele>
        <time>2015-03-08T11:08:34Z</time>
      </trkpt>
      <trkpt lat="44.31705" lon="4.77391">
        <ele>254.9</ele>
        <time>2015-03-08T11:08:38Z</time>
      </trkpt>
      <trkpt lat="44.31708" lon="4.77376">
        <ele>255.3</ele>
        <time>2015-03-08T11:08:42Z</time>
      </trkpt>
      <trkpt lat="44.31708" lon="4.77361">
        <ele>255.7</ele>
        <time>2015-03-08T11:08:46Z</time>
      </trkpt>
      <trkpt lat="44.31704" lon="4.77345">
        <ele>256</ele>
        <time>2015-03-08T11:08:50Z</time>
      </trkpt>
      <trkpt lat="44.31704" lon="4.77329">
        <ele>256.5</ele>
        <time>2015-03-08T11:08:54Z</time>
      </trkpt>
      <trkpt lat="44.317" lon="4.77316">
        <ele>256.9</ele>
        <time>2015-03-08T11:08:58Z</time>
      </trkpt>
      <trkpt lat="44.31697" lon="4.77301">
        <ele>257.3</ele>
        <time>2015-03-08T11:09:02Z</time>
      </trkpt>
      <trkpt lat="44.31696" lon="4.77288">
        <ele>257.5</ele>
        <time>2015-03-08T11:09:05Z</time>
      </trkpt>
      <trkpt lat="44.31695" lon="4.77273">
        <ele>257.7</ele>
        <time>2015-03-08T11:09:09Z</time>
      </trkpt>
      <trkpt lat="44.31693" lon="4.7726">
        <ele>258</ele>
        <time>2015-03-08T11:09:13Z</time>
      </trkpt>
      <trkpt lat="44.31689" lon="4.77246">
        <ele>258.3</ele>
        <time>2015-03-08T11:09:17Z</time>
      </trkpt>
      <trkpt lat="44.31681" lon="4.77236">
        <ele>258.5</ele>
        <time>2015-03-08T11:09:20Z</time>
      </trkpt>
      <trkpt lat="44.31673" lon="4.77226">
        <ele>258.7</ele>
        <time>2015-03-08T11:09:23Z</time>
      </trkpt>
      <trkpt lat="44.31665" lon="4.77215">
        <ele>258.8</ele>
        <time>2015-03-08T11:09:26Z</time>
      </trkpt>
      <trkpt lat="44.31661" lon="4.77202">
        <ele>258.9</ele>
        <time>2015-03-08T11:09:29Z</time>
      </trkpt>
      <trkpt lat="44.31656" lon="4.77189">
        <ele>259.2</ele>
        <time>2015-03-08T11:09:32Z</time>
      </trkpt>
      <trkpt lat="44.3165" lon="4.77179">
        <ele>259.4</ele>
        <time>2015-03-08T11:09:34Z</time>
      </trkpt>
      <trkpt lat="44.31644" lon="4.77166">
        <ele>259.5</ele>
        <time>2015-03-08T11:09:37Z</time>
      </trkpt>
      <trkpt lat="44.3164" lon="4.77154">
        <ele>259.6</ele>
        <time>2015-03-08T11:09:40Z</time>
      </trkpt>
      <trkpt lat="44.31631" lon="4.77141">
        <ele>259.6</ele>
        <time>2015-03-08T11:09:43Z</time>
      </trkpt>
      <trkpt lat="44.31626" lon="4.7713">
        <ele>259.6</ele>
        <time>2015-03-08T11:09:45Z</time>
      </trkpt>
      <trkpt lat="44.31618" lon="4.77116">
        <ele>259.7</ele>
        <time>2015-03-08T11:09:48Z</time>
      </trkpt>
      <trkpt lat="44.31614" lon="4.77104">
        <ele>259.5</ele>
        <time>2015-03-08T11:09:51Z</time>
      </trkpt>
      <trkpt lat="44.31615" lon="4.77091">
        <ele>258.7</ele>
        <time>2015-03-08T11:09:58Z</time>
      </trkpt>
      <trkpt lat="44.31625" lon="4.77085">
        <ele>258.1</ele>
        <time>2015-03-08T11:10:04Z</time>
      </trkpt>
      <trkpt lat="44.31635" lon="4.77087">
        <ele>258</ele>
        <time>2015-03-08T11:10:09Z</time>
      </trkpt>
      <trkpt lat="44.31643" lon="4.77081">
        <ele>258.8</ele>
        <time>2015-03-08T11:10:31Z</time>
      </trkpt>
      <trkpt lat="44.31652" lon="4.77073">
        <ele>258.8</ele>
        <time>2015-03-08T11:10:35Z</time>
      </trkpt>
      <trkpt lat="44.31663" lon="4.77073">
        <ele>258.7</ele>
        <time>2015-03-08T11:10:39Z</time>
      </trkpt>
      <trkpt lat="44.31672" lon="4.77069">
        <ele>258.3</ele>
        <time>2015-03-08T11:10:43Z</time>
      </trkpt>
      <trkpt lat="44.31683" lon="4.77074">
        <ele>257.9</ele>
        <time>2015-03-08T11:10:46Z</time>
      </trkpt>
      <trkpt lat="44.31696" lon="4.77072">
        <ele>257.5</ele>
        <time>2015-03-08T11:10:49Z</time>
      </trkpt>
      <trkpt lat="44.31708" lon="4.77065">
        <ele>257.1</ele>
        <time>2015-03-08T11:10:52Z</time>
      </trkpt>
      <trkpt lat="44.31718" lon="4.7707">
        <ele>256.5</ele>
        <time>2015-03-08T11:10:55Z</time>
      </trkpt>
      <trkpt lat="44.31731" lon="4.7707">
        <ele>255.8</ele>
        <time>2015-03-08T11:10:58Z</time>
      </trkpt>
      <trkpt lat="44.3174" lon="4.77067">
        <ele>255.4</ele>
        <time>2015-03-08T11:11:00Z</time>
      </trkpt>
      <trkpt lat="44.3175" lon="4.77066">
        <ele>255.1</ele>
        <time>2015-03-08T11:11:02Z</time>
      </trkpt>
      <trkpt lat="44.31758" lon="4.7707">
        <ele>254.8</ele>
        <time>2015-03-08T11:11:04Z</time>
      </trkpt>
      <trkpt lat="44.31769" lon="4.7707">
        <ele>254.5</ele>
        <time>2015-03-08T11:11:07Z</time>
      </trkpt>
      <trkpt lat="44.31774" lon="4.77059">
        <ele>254.1</ele>
        <time>2015-03-08T11:11:10Z</time>
      </trkpt>
      <trkpt lat="44.31783" lon="4.77057">
        <ele>253.7</ele>
        <time>2015-03-08T11:11:12Z</time>
      </trkpt>
      <trkpt lat="44.31793" lon="4.77062">
        <ele>253.4</ele>
        <time>2015-03-08T11:11:14Z</time>
      </trkpt>
      <trkpt lat="44.31802" lon="4.7706">
        <ele>253.1</ele>
        <time>2015-03-08T11:11:16Z</time>
      </trkpt>
      <trkpt lat="44.31811" lon="4.77052">
        <ele>252.9</ele>
        <time>2015-03-08T11:11:18Z</time>
      </trkpt>
      <trkpt lat="44.3182" lon="4.77045">
        <ele>252.4</ele>
        <time>2015-03-08T11:11:20Z</time>
      </trkpt>
      <trkpt lat="44.31827" lon="4.77036">
        <ele>251.8</ele>
        <time>2015-03-08T11:11:22Z</time>
      </trkpt>
      <trkpt lat="44.31832" lon="4.77026">
        <ele>251.1</ele>
        <time>2015-03-08T11:11:24Z</time>
      </trkpt>
      <trkpt lat="44.31838" lon="4.77013">
        <ele>250.3</ele>
        <time>2015-03-08T11:11:26Z</time>
      </trkpt>
      <trkpt lat="44.31845" lon="4.77">
        <ele>249.5</ele>
        <time>2015-03-08T11:11:28Z</time>
      </trkpt>
      <trkpt lat="44.31851" lon="4.76989">
        <ele>248.8</ele>
        <time>2015-03-08T11:11:30Z</time>
      </trkpt>
      <trkpt lat="44.31857" lon="4.76974">
        <ele>247.5</ele>
        <time>2015-03-08T11:11:33Z</time>
      </trkpt>
      <trkpt lat="44.31867" lon="4.76961">
        <ele>246.2</ele>
        <time>2015-03-08T11:11:36Z</time>
      </trkpt>
      <trkpt lat="44.31873" lon="4.76951">
        <ele>245.5</ele>
        <time>2015-03-08T11:11:38Z</time>
      </trkpt>
      <trkpt lat="44.3188" lon="4.76941">
        <ele>244.7</ele>
        <time>2015-03-08T11:11:40Z</time>
      </trkpt>
      <trkpt lat="44.31887" lon="4.76931">
        <ele>243.8</ele>
        <time>2015-03-08T11:11:42Z</time>
      </trkpt>
      <trkpt lat="44.31892" lon="4.7692">
        <ele>243</ele>
        <time>2015-03-08T11:11:44Z</time>
      </trkpt>
      <trkpt lat="44.31898" lon="4.76909">
        <ele>242.2</ele>
        <time>2015-03-08T11:11:46Z</time>
      </trkpt>
      <trkpt lat="44.31909" lon="4.76898">
        <ele>240.8</ele>
        <time>2015-03-08T11:11:49Z</time>
      </trkpt>
      <trkpt lat="44.31918" lon="4.76894">
        <ele>239.8</ele>
        <time>2015-03-08T11:11:51Z</time>
      </trkpt>
      <trkpt lat="44.3193" lon="4.76889">
        <ele>239</ele>
        <time>2015-03-08T11:11:53Z</time>
      </trkpt>
      <trkpt lat="44.3194" lon="4.76889">
        <ele>238.2</ele>
        <time>2015-03-08T11:11:55Z</time>
      </trkpt>
      <trkpt lat="44.31951" lon="4.7689">
        <ele>237.2</ele>
        <time>2015-03-08T11:11:58Z</time>
      </trkpt>
      <trkpt lat="44.3196" lon="4.76894">
        <ele>236</ele>
        <time>2015-03-08T11:12:02Z</time>
      </trkpt>
      <trkpt lat="44.31969" lon="4.76894">
        <ele>235.1</ele>
        <time>2015-03-08T11:12:07Z</time>
      </trkpt>
      <trkpt lat="44.31978" lon="4.76889">
        <ele>234.8</ele>
        <time>2015-03-08T11:12:10Z</time>
      </trkpt>
      <trkpt lat="44.3199" lon="4.76885">
        <ele>234.6</ele>
        <time>2015-03-08T11:12:13Z</time>
      </trkpt>
      <trkpt lat="44.32" lon="4.76878">
        <ele>234.5</ele>
        <time>2015-03-08T11:12:16Z</time>
      </trkpt>
      <trkpt lat="44.32008" lon="4.76867">
        <ele>234.4</ele>
        <time>2015-03-08T11:12:20Z</time>
      </trkpt>
      <trkpt lat="44.32017" lon="4.76862">
        <ele>234.3</ele>
        <time>2015-03-08T11:12:24Z</time>
      </trkpt>
      <trkpt lat="44.32019" lon="4.7685">
        <ele>234.2</ele>
        <time>2015-03-08T11:12:29Z</time>
      </trkpt>
      <trkpt lat="44.32016" lon="4.76837">
        <ele>234.4</ele>
        <time>2015-03-08T11:12:33Z</time>
      </trkpt>
      <trkpt lat="44.32013" lon="4.76824">
        <ele>234.5</ele>
        <time>2015-03-08T11:12:36Z</time>
      </trkpt>
      <trkpt lat="44.32009" lon="4.76812">
        <ele>234.6</ele>
        <time>2015-03-08T11:12:39Z</time>
      </trkpt>
      <trkpt lat="44.32004" lon="4.768">
        <ele>234.6</ele>
        <time>2015-03-08T11:12:42Z</time>
      </trkpt>
      <trkpt lat="44.32" lon="4.76788">
        <ele>234.9</ele>
        <time>2015-03-08T11:12:45Z</time>
      </trkpt>
      <trkpt lat="44.31997" lon="4.76776">
        <ele>235</ele>
        <time>2015-03-08T11:12:48Z</time>
      </trkpt>
      <trkpt lat="44.31997" lon="4.7676">
        <ele>235.2</ele>
        <time>2015-03-08T11:12:52Z</time>
      </trkpt>
      <trkpt lat="44.31998" lon="4.76745">
        <ele>235.4</ele>
        <time>2015-03-08T11:12:56Z</time>
      </trkpt>
      <trkpt lat="44.31996" lon="4.76732">
        <ele>235.6</ele>
        <time>2015-03-08T11:12:59Z</time>
      </trkpt>
      <trkpt lat="44.31994" lon="4.76718">
        <ele>235.8</ele>
        <time>2015-03-08T11:13:02Z</time>
      </trkpt>
      <trkpt lat="44.31998" lon="4.76705">
        <ele>236.2</ele>
        <time>2015-03-08T11:13:07Z</time>
      </trkpt>
      <trkpt lat="44.32" lon="4.76691">
        <ele>236.4</ele>
        <time>2015-03-08T11:13:12Z</time>
      </trkpt>
      <trkpt lat="44.32002" lon="4.76677">
        <ele>236.5</ele>
        <time>2015-03-08T11:13:16Z</time>
      </trkpt>
      <trkpt lat="44.32006" lon="4.76664">
        <ele>236.6</ele>
        <time>2015-03-08T11:13:20Z</time>
      </trkpt>
      <trkpt lat="44.32013" lon="4.7665">
        <ele>236.7</ele>
        <time>2015-03-08T11:13:24Z</time>
      </trkpt>
      <trkpt lat="44.3202" lon="4.76642">
        <ele>237</ele>
        <time>2015-03-08T11:13:27Z</time>
      </trkpt>
      <trkpt lat="44.32027" lon="4.76633">
        <ele>237.6</ele>
        <time>2015-03-08T11:13:30Z</time>
      </trkpt>
      <trkpt lat="44.32034" lon="4.76621">
        <ele>238</ele>
        <time>2015-03-08T11:13:33Z</time>
      </trkpt>
      <trkpt lat="44.3204" lon="4.76608">
        <ele>238.1</ele>
        <time>2015-03-08T11:13:36Z</time>
      </trkpt>
      <trkpt lat="44.32047" lon="4.76594">
        <ele>238.1</ele>
        <time>2015-03-08T11:13:39Z</time>
      </trkpt>
      <trkpt lat="44.32056" lon="4.76588">
        <ele>238</ele>
        <time>2015-03-08T11:13:43Z</time>
      </trkpt>
      <trkpt lat="44.32065" lon="4.76583">
        <ele>238</ele>
        <time>2015-03-08T11:13:47Z</time>
      </trkpt>
      <trkpt lat="44.32074" lon="4.76579">
        <ele>238</ele>
        <time>2015-03-08T11:13:53Z</time>
      </trkpt>
      <trkpt lat="44.32083" lon="4.7657">
        <ele>238.1</ele>
        <time>2015-03-08T11:13:59Z</time>
      </trkpt>
      <trkpt lat="44.3209" lon="4.76559">
        <ele>238.1</ele>
        <time>2015-03-08T11:14:03Z</time>
      </trkpt>
      <trkpt lat="44.32095" lon="4.76549">
        <ele>238.1</ele>
        <time>2015-03-08T11:14:07Z</time>
      </trkpt>
      <trkpt lat="44.32094" lon="4.76536">
        <ele>238.6</ele>
        <time>2015-03-08T11:14:15Z</time>
      </trkpt>
      <trkpt lat="44.32096" lon="4.76524">
        <ele>239.1</ele>
        <time>2015-03-08T11:14:25Z</time>
      </trkpt>
      <trkpt lat="44.32104" lon="4.76517">
        <ele>240.9</ele>
        <time>2015-03-08T11:14:38Z</time>
      </trkpt>
      <trkpt lat="44.32112" lon="4.76525">
        <ele>242.4</ele>
        <time>2015-03-08T11:14:51Z</time>
      </trkpt>
      <trkpt lat="44.32118" lon="4.76537">
        <ele>242.8</ele>
        <time>2015-03-08T11:14:56Z</time>
      </trkpt>
      <trkpt lat="44.32126" lon="4.76546">
        <ele>243.3</ele>
        <time>2015-03-08T11:15:01Z</time>
      </trkpt>
      <trkpt lat="44.3213" lon="4.76558">
        <ele>244.1</ele>
        <time>2015-03-08T11:15:06Z</time>
      </trkpt>
      <trkpt lat="44.3213" lon="4.76573">
        <ele>244.7</ele>
        <time>2015-03-08T11:15:11Z</time>
      </trkpt>
      <trkpt lat="44.32134" lon="4.76585">
        <ele>245.2</ele>
        <time>2015-03-08T11:15:17Z</time>
      </trkpt>
      <trkpt lat="44.32131" lon="4.76597">
        <ele>246</ele>
        <time>2015-03-08T11:15:26Z</time>
      </trkpt>
      <trkpt lat="44.32127" lon="4.76608">
        <ele>248.7</ele>
        <time>2015-03-08T11:15:53Z</time>
      </trkpt>
      <trkpt lat="44.32119" lon="4.76616">
        <ele>249.3</ele>
        <time>2015-03-08T11:16:03Z</time>
      </trkpt>
      <trkpt lat="44.32112" lon="4.76623">
        <ele>250.9</ele>
        <time>2015-03-08T11:16:13Z</time>
      </trkpt>
      <trkpt lat="44.32107" lon="4.76635">
        <ele>252.1</ele>
        <time>2015-03-08T11:16:24Z</time>
      </trkpt>
      <trkpt lat="44.321" lon="4.76644">
        <ele>253.5</ele>
        <time>2015-03-08T11:16:35Z</time>
      </trkpt>
      <trkpt lat="44.32095" lon="4.76654">
        <ele>256.9</ele>
        <time>2015-03-08T11:17:01Z</time>
      </trkpt>
      <trkpt lat="44.3209" lon="4.76665">
        <ele>258.3</ele>
        <time>2015-03-08T11:17:16Z</time>
      </trkpt>
      <trkpt lat="44.32085" lon="4.76676">
        <ele>260.1</ele>
        <time>2015-03-08T11:17:29Z</time>
      </trkpt>
      <trkpt lat="44.32081" lon="4.76688">
        <ele>261.9</ele>
        <time>2015-03-08T11:17:39Z</time>
      </trkpt>
      <trkpt lat="44.32075" lon="4.76699">
        <ele>263.2</ele>
        <time>2015-03-08T11:17:49Z</time>
      </trkpt>
      <trkpt lat="44.32073" lon="4.76713">
        <ele>264.1</ele>
        <time>2015-03-08T11:17:59Z</time>
      </trkpt>
      <trkpt lat="44.32076" lon="4.76725">
        <ele>265</ele>
        <time>2015-03-08T11:18:08Z</time>
      </trkpt>
      <trkpt lat="44.32082" lon="4.76736">
        <ele>265.7</ele>
        <time>2015-03-08T11:18:17Z</time>
      </trkpt>
      <trkpt lat="44.32088" lon="4.76747">
        <ele>266.9</ele>
        <time>2015-03-08T11:18:34Z</time>
      </trkpt>
      <trkpt lat="44.32095" lon="4.76756">
        <ele>266.9</ele>
        <time>2015-03-08T11:18:44Z</time>
      </trkpt>
      <trkpt lat="44.32102" lon="4.76765">
        <ele>267</ele>
        <time>2015-03-08T11:18:49Z</time>
      </trkpt>
      <trkpt lat="44.32109" lon="4.76757">
        <ele>267.4</ele>
        <time>2015-03-08T11:18:58Z</time>
      </trkpt>
      <trkpt lat="44.32107" lon="4.76744">
        <ele>267.8</ele>
        <time>2015-03-08T11:19:04Z</time>
      </trkpt>
      <trkpt lat="44.32112" lon="4.76734">
        <ele>268.1</ele>
        <time>2015-03-08T11:19:09Z</time>
      </trkpt>
      <trkpt lat="44.3212" lon="4.76726">
        <ele>268.3</ele>
        <time>2015-03-08T11:19:14Z</time>
      </trkpt>
      <trkpt lat="44.32128" lon="4.76719">
        <ele>268.4</ele>
        <time>2015-03-08T11:19:19Z</time>
      </trkpt>
      <trkpt lat="44.32131" lon="4.76706">
        <ele>268.2</ele>
        <time>2015-03-08T11:19:23Z</time>
      </trkpt>
      <trkpt lat="44.32132" lon="4.76692">
        <ele>268.5</ele>
        <time>2015-03-08T11:19:29Z</time>
      </trkpt>
      <trkpt lat="44.32137" lon="4.76681">
        <ele>268.8</ele>
        <time>2015-03-08T11:19:34Z</time>
      </trkpt>
      <trkpt lat="44.32141" lon="4.7667">
        <ele>268.8</ele>
        <time>2015-03-08T11:19:39Z</time>
      </trkpt>
      <trkpt lat="44.32151" lon="4.76673">
        <ele>268.8</ele>
        <time>2015-03-08T11:19:47Z</time>
      </trkpt>
      <trkpt lat="44.32161" lon="4.76677">
        <ele>269.3</ele>
        <time>2015-03-08T11:19:55Z</time>
      </trkpt>
      <trkpt lat="44.32169" lon="4.76669">
        <ele>269.6</ele>
        <time>2015-03-08T11:20:03Z</time>
      </trkpt>
      <trkpt lat="44.32173" lon="4.76657">
        <ele>269.8</ele>
        <time>2015-03-08T11:20:11Z</time>
      </trkpt>
      <trkpt lat="44.32183" lon="4.76653">
        <ele>270.5</ele>
        <time>2015-03-08T11:20:19Z</time>
      </trkpt>
      <trkpt lat="44.32193" lon="4.76654">
        <ele>271</ele>
        <time>2015-03-08T11:20:26Z</time>
      </trkpt>
      <trkpt lat="44.32202" lon="4.76658">
        <ele>271.9</ele>
        <time>2015-03-08T11:20:32Z</time>
      </trkpt>
      <trkpt lat="44.3221" lon="4.76664">
        <ele>272.5</ele>
        <time>2015-03-08T11:20:37Z</time>
      </trkpt>
      <trkpt lat="44.3222" lon="4.76665">
        <ele>272.9</ele>
        <time>2015-03-08T11:20:42Z</time>
      </trkpt>
      <trkpt lat="44.32229" lon="4.76665">
        <ele>273.1</ele>
        <time>2015-03-08T11:20:47Z</time>
      </trkpt>
      <trkpt lat="44.32239" lon="4.76658">
        <ele>273.3</ele>
        <time>2015-03-08T11:20:52Z</time>
      </trkpt>
      <trkpt lat="44.32249" lon="4.76658">
        <ele>273.4</ele>
        <time>2015-03-08T11:20:57Z</time>
      </trkpt>
      <trkpt lat="44.32259" lon="4.76652">
        <ele>273.5</ele>
        <time>2015-03-08T11:21:02Z</time>
      </trkpt>
      <trkpt lat="44.32267" lon="4.76647">
        <ele>273.8</ele>
        <time>2015-03-08T11:21:12Z</time>
      </trkpt>
      <trkpt lat="44.32277" lon="4.76653">
        <ele>275.4</ele>
        <time>2015-03-08T11:21:29Z</time>
      </trkpt>
      <trkpt lat="44.32286" lon="4.76654">
        <ele>276</ele>
        <time>2015-03-08T11:21:37Z</time>
      </trkpt>
      <trkpt lat="44.32296" lon="4.76654">
        <ele>276.3</ele>
        <time>2015-03-08T11:21:42Z</time>
      </trkpt>
      <trkpt lat="44.32304" lon="4.76661">
        <ele>276.4</ele>
        <time>2015-03-08T11:21:49Z</time>
      </trkpt>
      <trkpt lat="44.32313" lon="4.76657">
        <ele>276.5</ele>
        <time>2015-03-08T11:21:55Z</time>
      </trkpt>
      <trkpt lat="44.32321" lon="4.76649">
        <ele>277.2</ele>
        <time>2015-03-08T11:22:03Z</time>
      </trkpt>
      <trkpt lat="44.3233" lon="4.76647">
        <ele>278.1</ele>
        <time>2015-03-08T11:22:11Z</time>
      </trkpt>
      <trkpt lat="44.32334" lon="4.76635">
        <ele>279.3</ele>
        <time>2015-03-08T11:22:21Z</time>
      </trkpt>
      <trkpt lat="44.32342" lon="4.7663">
        <ele>279.7</ele>
        <time>2015-03-08T11:24:21Z</time>
      </trkpt>
      <trkpt lat="44.32336" lon="4.7664">
        <ele>281.2</ele>
        <time>2015-03-08T11:28:46Z</time>
      </trkpt>
      <trkpt lat="44.32342" lon="4.7665">
        <ele>281</ele>
        <time>2015-03-08T11:28:52Z</time>
      </trkpt>
      <trkpt lat="44.32348" lon="4.76664">
        <ele>280.9</ele>
        <time>2015-03-08T11:28:57Z</time>
      </trkpt>
      <trkpt lat="44.32355" lon="4.76678">
        <ele>280.7</ele>
        <time>2015-03-08T11:29:01Z</time>
      </trkpt>
      <trkpt lat="44.3236" lon="4.76692">
        <ele>280.6</ele>
        <time>2015-03-08T11:29:05Z</time>
      </trkpt>
      <trkpt lat="44.32364" lon="4.76706">
        <ele>280.5</ele>
        <time>2015-03-08T11:29:08Z</time>
      </trkpt>
      <trkpt lat="44.32369" lon="4.76718">
        <ele>280.4</ele>
        <time>2015-03-08T11:29:11Z</time>
      </trkpt>
      <trkpt lat="44.32375" lon="4.76731">
        <ele>280.4</ele>
        <time>2015-03-08T11:29:14Z</time>
      </trkpt>
      <trkpt lat="44.32382" lon="4.76742">
        <ele>280.4</ele>
        <time>2015-03-08T11:29:17Z</time>
      </trkpt>
      <trkpt lat="44.32386" lon="4.76755">
        <ele>280.5</ele>
        <time>2015-03-08T11:29:20Z</time>
      </trkpt>
      <trkpt lat="44.32387" lon="4.76769">
        <ele>280.5</ele>
        <time>2015-03-08T11:29:23Z</time>
      </trkpt>
      <trkpt lat="44.32389" lon="4.76782">
        <ele>280.4</ele>
        <time>2015-03-08T11:29:26Z</time>
      </trkpt>
      <trkpt lat="44.3239" lon="4.76795">
        <ele>280.3</ele>
        <time>2015-03-08T11:29:29Z</time>
      </trkpt>
      <trkpt lat="44.32391" lon="4.76808">
        <ele>280.4</ele>
        <time>2015-03-08T11:29:32Z</time>
      </trkpt>
      <trkpt lat="44.32393" lon="4.7682">
        <ele>280.5</ele>
        <time>2015-03-08T11:29:35Z</time>
      </trkpt>
      <trkpt lat="44.32398" lon="4.76833">
        <ele>280.7</ele>
        <time>2015-03-08T11:29:38Z</time>
      </trkpt>
      <trkpt lat="44.32404" lon="4.76847">
        <ele>280.8</ele>
        <time>2015-03-08T11:29:41Z</time>
      </trkpt>
      <trkpt lat="44.32411" lon="4.7686">
        <ele>280.8</ele>
        <time>2015-03-08T11:29:44Z</time>
      </trkpt>
      <trkpt lat="44.32416" lon="4.76874">
        <ele>281.3</ele>
        <time>2015-03-08T11:29:48Z</time>
      </trkpt>
      <trkpt lat="44.32413" lon="4.76886">
        <ele>282.1</ele>
        <time>2015-03-08T11:29:53Z</time>
      </trkpt>
      <trkpt lat="44.32407" lon="4.76897">
        <ele>283</ele>
        <time>2015-03-08T11:29:59Z</time>
      </trkpt>
      <trkpt lat="44.32399" lon="4.76905">
        <ele>284.3</ele>
        <time>2015-03-08T11:30:05Z</time>
      </trkpt>
      <trkpt lat="44.32391" lon="4.76912">
        <ele>285.2</ele>
        <time>2015-03-08T11:30:10Z</time>
      </trkpt>
      <trkpt lat="44.32385" lon="4.76922">
        <ele>286.3</ele>
        <time>2015-03-08T11:30:16Z</time>
      </trkpt>
      <trkpt lat="44.32383" lon="4.76935">
        <ele>287.2</ele>
        <time>2015-03-08T11:30:23Z</time>
      </trkpt>
      <trkpt lat="44.32385" lon="4.7695">
        <ele>287.9</ele>
        <time>2015-03-08T11:30:29Z</time>
      </trkpt>
      <trkpt lat="44.32389" lon="4.76961">
        <ele>288.6</ele>
        <time>2015-03-08T11:30:35Z</time>
      </trkpt>
      <trkpt lat="44.32392" lon="4.76974">
        <ele>289.5</ele>
        <time>2015-03-08T11:30:41Z</time>
      </trkpt>
      <trkpt lat="44.32395" lon="4.76987">
        <ele>290.3</ele>
        <time>2015-03-08T11:30:47Z</time>
      </trkpt>
      <trkpt lat="44.32399" lon="4.77001">
        <ele>290.9</ele>
        <time>2015-03-08T11:30:52Z</time>
      </trkpt>
      <trkpt lat="44.32403" lon="4.77013">
        <ele>291.4</ele>
        <time>2015-03-08T11:30:56Z</time>
      </trkpt>
      <trkpt lat="44.32408" lon="4.77027">
        <ele>291.8</ele>
        <time>2015-03-08T11:31:01Z</time>
      </trkpt>
      <trkpt lat="44.32412" lon="4.77039">
        <ele>292.1</ele>
        <time>2015-03-08T11:31:04Z</time>
      </trkpt>
      <trkpt lat="44.32419" lon="4.77054">
        <ele>292.2</ele>
        <time>2015-03-08T11:31:07Z</time>
      </trkpt>
      <trkpt lat="44.32424" lon="4.77065">
        <ele>292.3</ele>
        <time>2015-03-08T11:31:09Z</time>
      </trkpt>
      <trkpt lat="44.32429" lon="4.77076">
        <ele>292.3</ele>
        <time>2015-03-08T11:31:11Z</time>
      </trkpt>
      <trkpt lat="44.32434" lon="4.77086">
        <ele>292.3</ele>
        <time>2015-03-08T11:31:13Z</time>
      </trkpt>
      <trkpt lat="44.32438" lon="4.77097">
        <ele>292.3</ele>
        <time>2015-03-08T11:31:15Z</time>
      </trkpt>
      <trkpt lat="44.32443" lon="4.77107">
        <ele>292.2</ele>
        <time>2015-03-08T11:31:17Z</time>
      </trkpt>
      <trkpt lat="44.32449" lon="4.77119">
        <ele>292.1</ele>
        <time>2015-03-08T11:31:19Z</time>
      </trkpt>
      <trkpt lat="44.32454" lon="4.77132">
        <ele>292</ele>
        <time>2015-03-08T11:31:21Z</time>
      </trkpt>
      <trkpt lat="44.32458" lon="4.77144">
        <ele>291.9</ele>
        <time>2015-03-08T11:31:23Z</time>
      </trkpt>
      <trkpt lat="44.32463" lon="4.77157">
        <ele>291.7</ele>
        <time>2015-03-08T11:31:25Z</time>
      </trkpt>
      <trkpt lat="44.32468" lon="4.77171">
        <ele>291.3</ele>
        <time>2015-03-08T11:31:27Z</time>
      </trkpt>
      <trkpt lat="44.32473" lon="4.77185">
        <ele>290.9</ele>
        <time>2015-03-08T11:31:29Z</time>
      </trkpt>
      <trkpt lat="44.32479" lon="4.772">
        <ele>290.5</ele>
        <time>2015-03-08T11:31:31Z</time>
      </trkpt>
      <trkpt lat="44.32484" lon="4.77215">
        <ele>290.1</ele>
        <time>2015-03-08T11:31:33Z</time>
      </trkpt>
      <trkpt lat="44.32489" lon="4.7723">
        <ele>289.6</ele>
        <time>2015-03-08T11:31:35Z</time>
      </trkpt>
      <trkpt lat="44.32495" lon="4.77245">
        <ele>289.2</ele>
        <time>2015-03-08T11:31:37Z</time>
      </trkpt>
      <trkpt lat="44.32502" lon="4.77259">
        <ele>288.8</ele>
        <time>2015-03-08T11:31:39Z</time>
      </trkpt>
      <trkpt lat="44.32507" lon="4.77272">
        <ele>288.3</ele>
        <time>2015-03-08T11:31:41Z</time>
      </trkpt>
      <trkpt lat="44.32511" lon="4.77286">
        <ele>287.8</ele>
        <time>2015-03-08T11:31:43Z</time>
      </trkpt>
      <trkpt lat="44.32519" lon="4.773">
        <ele>287.4</ele>
        <time>2015-03-08T11:31:45Z</time>
      </trkpt>
      <trkpt lat="44.32527" lon="4.77312">
        <ele>286.7</ele>
        <time>2015-03-08T11:31:47Z</time>
      </trkpt>
      <trkpt lat="44.32535" lon="4.77323">
        <ele>286</ele>
        <time>2015-03-08T11:31:49Z</time>
      </trkpt>
      <trkpt lat="44.32545" lon="4.77328">
        <ele>285.3</ele>
        <time>2015-03-08T11:31:51Z</time>
      </trkpt>
      <trkpt lat="44.32553" lon="4.77337">
        <ele>284.8</ele>
        <time>2015-03-08T11:31:53Z</time>
      </trkpt>
      <trkpt lat="44.3256" lon="4.77348">
        <ele>284.3</ele>
        <time>2015-03-08T11:31:55Z</time>
      </trkpt>
      <trkpt lat="44.32566" lon="4.7736">
        <ele>283.7</ele>
        <time>2015-03-08T11:31:57Z</time>
      </trkpt>
      <trkpt lat="44.32573" lon="4.77373">
        <ele>283.1</ele>
        <time>2015-03-08T11:31:59Z</time>
      </trkpt>
      <trkpt lat="44.3258" lon="4.77385">
        <ele>282.6</ele>
        <time>2015-03-08T11:32:01Z</time>
      </trkpt>
      <trkpt lat="44.32588" lon="4.77396">
        <ele>282.1</ele>
        <time>2015-03-08T11:32:03Z</time>
      </trkpt>
      <trkpt lat="44.32595" lon="4.77404">
        <ele>281.6</ele>
        <time>2015-03-08T11:32:05Z</time>
      </trkpt>
      <trkpt lat="44.32603" lon="4.77413">
        <ele>280.9</ele>
        <time>2015-03-08T11:32:08Z</time>
      </trkpt>
      <trkpt lat="44.32612" lon="4.77422">
        <ele>280.3</ele>
        <time>2015-03-08T11:32:11Z</time>
      </trkpt>
      <trkpt lat="44.32619" lon="4.7743">
        <ele>279.6</ele>
        <time>2015-03-08T11:32:13Z</time>
      </trkpt>
      <trkpt lat="44.32627" lon="4.77437">
        <ele>279</ele>
        <time>2015-03-08T11:32:15Z</time>
      </trkpt>
      <trkpt lat="44.32638" lon="4.77447">
        <ele>277.8</ele>
        <time>2015-03-08T11:32:18Z</time>
      </trkpt>
      <trkpt lat="44.32646" lon="4.7746">
        <ele>276.1</ele>
        <time>2015-03-08T11:32:21Z</time>
      </trkpt>
      <trkpt lat="44.32654" lon="4.77475">
        <ele>274.3</ele>
        <time>2015-03-08T11:32:24Z</time>
      </trkpt>
      <trkpt lat="44.3266" lon="4.77488">
        <ele>272.6</ele>
        <time>2015-03-08T11:32:27Z</time>
      </trkpt>
      <trkpt lat="44.32664" lon="4.775">
        <ele>271.1</ele>
        <time>2015-03-08T11:32:29Z</time>
      </trkpt>
      <trkpt lat="44.32669" lon="4.77511">
        <ele>269.7</ele>
        <time>2015-03-08T11:32:31Z</time>
      </trkpt>
      <trkpt lat="44.32674" lon="4.77524">
        <ele>268.5</ele>
        <time>2015-03-08T11:32:33Z</time>
      </trkpt>
      <trkpt lat="44.32675" lon="4.77539">
        <ele>266.2</ele>
        <time>2015-03-08T11:32:36Z</time>
      </trkpt>
      <trkpt lat="44.32668" lon="4.77547">
        <ele>264.3</ele>
        <time>2015-03-08T11:32:39Z</time>
      </trkpt>
      <trkpt lat="44.32658" lon="4.77552">
        <ele>262.7</ele>
        <time>2015-03-08T11:32:42Z</time>
      </trkpt>
      <trkpt lat="44.32648" lon="4.7756">
        <ele>261.3</ele>
        <time>2015-03-08T11:32:45Z</time>
      </trkpt>
      <trkpt lat="44.32637" lon="4.77569">
        <ele>260.2</ele>
        <time>2015-03-08T11:32:48Z</time>
      </trkpt>
      <trkpt lat="44.32626" lon="4.77577">
        <ele>259.3</ele>
        <time>2015-03-08T11:32:51Z</time>
      </trkpt>
      <trkpt lat="44.32623" lon="4.7759">
        <ele>254.4</ele>
        <time>2015-03-08T11:34:54Z</time>
      </trkpt>
      <trkpt lat="44.32612" lon="4.77595">
        <ele>254.4</ele>
        <time>2015-03-08T11:34:57Z</time>
      </trkpt>
      <trkpt lat="44.32602" lon="4.77596">
        <ele>254.3</ele>
        <time>2015-03-08T11:34:59Z</time>
      </trkpt>
      <trkpt lat="44.32591" lon="4.77599">
        <ele>254.3</ele>
        <time>2015-03-08T11:35:01Z</time>
      </trkpt>
      <trkpt lat="44.32581" lon="4.77603">
        <ele>254.2</ele>
        <time>2015-03-08T11:35:03Z</time>
      </trkpt>
      <trkpt lat="44.3257" lon="4.77608">
        <ele>254.2</ele>
        <time>2015-03-08T11:35:05Z</time>
      </trkpt>
      <trkpt lat="44.32559" lon="4.77611">
        <ele>254.2</ele>
        <time>2015-03-08T11:35:07Z</time>
      </trkpt>
      <trkpt lat="44.32549" lon="4.77613">
        <ele>254.1</ele>
        <time>2015-03-08T11:35:09Z</time>
      </trkpt>
      <trkpt lat="44.32539" lon="4.77619">
        <ele>253.8</ele>
        <time>2015-03-08T11:35:11Z</time>
      </trkpt>
      <trkpt lat="44.32536" lon="4.77632">
        <ele>253.6</ele>
        <time>2015-03-08T11:35:13Z</time>
      </trkpt>
      <trkpt lat="44.32537" lon="4.77645">
        <ele>253.4</ele>
        <time>2015-03-08T11:35:15Z</time>
      </trkpt>
      <trkpt lat="44.32538" lon="4.77659">
        <ele>253.1</ele>
        <time>2015-03-08T11:35:17Z</time>
      </trkpt>
      <trkpt lat="44.32537" lon="4.77673">
        <ele>252.9</ele>
        <time>2015-03-08T11:35:19Z</time>
      </trkpt>
      <trkpt lat="44.32535" lon="4.77687">
        <ele>252.5</ele>
        <time>2015-03-08T11:35:21Z</time>
      </trkpt>
      <trkpt lat="44.32539" lon="4.77699">
        <ele>251.5</ele>
        <time>2015-03-08T11:35:26Z</time>
      </trkpt>
      <trkpt lat="44.32546" lon="4.77708">
        <ele>250.8</ele>
        <time>2015-03-08T11:35:30Z</time>
      </trkpt>
      <trkpt lat="44.32557" lon="4.77712">
        <ele>250.4</ele>
        <time>2015-03-08T11:35:33Z</time>
      </trkpt>
      <trkpt lat="44.32568" lon="4.77718">
        <ele>249.8</ele>
        <time>2015-03-08T11:35:36Z</time>
      </trkpt>
      <trkpt lat="44.32576" lon="4.77725">
        <ele>249</ele>
        <time>2015-03-08T11:35:39Z</time>
      </trkpt>
      <trkpt lat="44.32584" lon="4.77738">
        <ele>248.4</ele>
        <time>2015-03-08T11:35:42Z</time>
      </trkpt>
      <trkpt lat="44.32596" lon="4.77747">
        <ele>247.8</ele>
        <time>2015-03-08T11:35:45Z</time>
      </trkpt>
      <trkpt lat="44.32608" lon="4.77755">
        <ele>247.3</ele>
        <time>2015-03-08T11:35:48Z</time>
      </trkpt>
      <trkpt lat="44.32619" lon="4.7776">
        <ele>246.5</ele>
        <time>2015-03-08T11:35:51Z</time>
      </trkpt>
      <trkpt lat="44.3263" lon="4.77761">
        <ele>245.8</ele>
        <time>2015-03-08T11:35:54Z</time>
      </trkpt>
      <trkpt lat="44.32639" lon="4.77759">
        <ele>245.2</ele>
        <time>2015-03-08T11:35:57Z</time>
      </trkpt>
      <trkpt lat="44.32649" lon="4.77758">
        <ele>244.8</ele>
        <time>2015-03-08T11:36:00Z</time>
      </trkpt>
      <trkpt lat="44.32661" lon="4.77756">
        <ele>244.5</ele>
        <time>2015-03-08T11:36:03Z</time>
      </trkpt>
      <trkpt lat="44.32673" lon="4.7775">
        <ele>244.2</ele>
        <time>2015-03-08T11:36:06Z</time>
      </trkpt>
      <trkpt lat="44.32683" lon="4.77748">
        <ele>244.1</ele>
        <time>2015-03-08T11:36:08Z</time>
      </trkpt>
      <trkpt lat="44.32696" lon="4.77745">
        <ele>243.9</ele>
        <time>2015-03-08T11:36:11Z</time>
      </trkpt>
      <trkpt lat="44.32708" lon="4.77743">
        <ele>243.7</ele>
        <time>2015-03-08T11:36:14Z</time>
      </trkpt>
      <trkpt lat="44.32718" lon="4.7774">
        <ele>243.6</ele>
        <time>2015-03-08T11:36:17Z</time>
      </trkpt>
      <trkpt lat="44.3273" lon="4.77738">
        <ele>243.5</ele>
        <time>2015-03-08T11:36:20Z</time>
      </trkpt>
      <trkpt lat="44.32743" lon="4.77736">
        <ele>243.5</ele>
        <time>2015-03-08T11:36:23Z</time>
      </trkpt>
      <trkpt lat="44.32753" lon="4.77741">
        <ele>243.5</ele>
        <time>2015-03-08T11:36:26Z</time>
      </trkpt>
      <trkpt lat="44.32762" lon="4.7775">
        <ele>243.6</ele>
        <time>2015-03-08T11:36:29Z</time>
      </trkpt>
      <trkpt lat="44.32772" lon="4.77763">
        <ele>243.7</ele>
        <time>2015-03-08T11:36:32Z</time>
      </trkpt>
      <trkpt lat="44.32778" lon="4.77772">
        <ele>243.9</ele>
        <time>2015-03-08T11:36:34Z</time>
      </trkpt>
      <trkpt lat="44.32786" lon="4.77782">
        <ele>244.1</ele>
        <time>2015-03-08T11:36:36Z</time>
      </trkpt>
      <trkpt lat="44.32793" lon="4.77791">
        <ele>244.2</ele>
        <time>2015-03-08T11:36:38Z</time>
      </trkpt>
      <trkpt lat="44.328" lon="4.77801">
        <ele>244.2</ele>
        <time>2015-03-08T11:36:40Z</time>
      </trkpt>
      <trkpt lat="44.32807" lon="4.7781">
        <ele>244.1</ele>
        <time>2015-03-08T11:36:42Z</time>
      </trkpt>
      <trkpt lat="44.32813" lon="4.7782">
        <ele>243.9</ele>
        <time>2015-03-08T11:36:44Z</time>
      </trkpt>
      <trkpt lat="44.32819" lon="4.7783">
        <ele>243.8</ele>
        <time>2015-03-08T11:36:46Z</time>
      </trkpt>
      <trkpt lat="44.32826" lon="4.77839">
        <ele>243.7</ele>
        <time>2015-03-08T11:36:48Z</time>
      </trkpt>
      <trkpt lat="44.32833" lon="4.77848">
        <ele>243.6</ele>
        <time>2015-03-08T11:36:50Z</time>
      </trkpt>
      <trkpt lat="44.32841" lon="4.77856">
        <ele>243.5</ele>
        <time>2015-03-08T11:36:52Z</time>
      </trkpt>
      <trkpt lat="44.32849" lon="4.77862">
        <ele>243.4</ele>
        <time>2015-03-08T11:36:54Z</time>
      </trkpt>
      <trkpt lat="44.32859" lon="4.77865">
        <ele>243.3</ele>
        <time>2015-03-08T11:36:56Z</time>
      </trkpt>
      <trkpt lat="44.32872" lon="4.77867">
        <ele>243</ele>
        <time>2015-03-08T11:36:59Z</time>
      </trkpt>
      <trkpt lat="44.32884" lon="4.77871">
        <ele>242.8</ele>
        <time>2015-03-08T11:37:02Z</time>
      </trkpt>
      <trkpt lat="44.32894" lon="4.77873">
        <ele>242.5</ele>
        <time>2015-03-08T11:37:04Z</time>
      </trkpt>
      <trkpt lat="44.32906" lon="4.77875">
        <ele>241.9</ele>
        <time>2015-03-08T11:37:07Z</time>
      </trkpt>
      <trkpt lat="44.32917" lon="4.77885">
        <ele>241.4</ele>
        <time>2015-03-08T11:37:10Z</time>
      </trkpt>
      <trkpt lat="44.32926" lon="4.77894">
        <ele>241.1</ele>
        <time>2015-03-08T11:37:12Z</time>
      </trkpt>
      <trkpt lat="44.32935" lon="4.77903">
        <ele>240.7</ele>
        <time>2015-03-08T11:37:14Z</time>
      </trkpt>
      <trkpt lat="44.32944" lon="4.77913">
        <ele>240.2</ele>
        <time>2015-03-08T11:37:16Z</time>
      </trkpt>
      <trkpt lat="44.32952" lon="4.77925">
        <ele>239.6</ele>
        <time>2015-03-08T11:37:18Z</time>
      </trkpt>
      <trkpt lat="44.32959" lon="4.77936">
        <ele>238.9</ele>
        <time>2015-03-08T11:37:20Z</time>
      </trkpt>
      <trkpt lat="44.32962" lon="4.7795">
        <ele>238.2</ele>
        <time>2015-03-08T11:37:22Z</time>
      </trkpt>
      <trkpt lat="44.3296" lon="4.77965">
        <ele>237.4</ele>
        <time>2015-03-08T11:37:24Z</time>
      </trkpt>
      <trkpt lat="44.32959" lon="4.77982">
        <ele>236.6</ele>
        <time>2015-03-08T11:37:26Z</time>
      </trkpt>
      <trkpt lat="44.32958" lon="4.78003">
        <ele>235.8</ele>
        <time>2015-03-08T11:37:28Z</time>
      </trkpt>
      <trkpt lat="44.32956" lon="4.78024">
        <ele>235.2</ele>
        <time>2015-03-08T11:37:30Z</time>
      </trkpt>
      <trkpt lat="44.32951" lon="4.78044">
        <ele>234.6</ele>
        <time>2015-03-08T11:37:32Z</time>
      </trkpt>
      <trkpt lat="44.32945" lon="4.78061">
        <ele>233.9</ele>
        <time>2015-03-08T11:37:34Z</time>
      </trkpt>
      <trkpt lat="44.32937" lon="4.78073">
        <ele>233.1</ele>
        <time>2015-03-08T11:37:36Z</time>
      </trkpt>
      <trkpt lat="44.32934" lon="4.78088">
        <ele>232.1</ele>
        <time>2015-03-08T11:37:39Z</time>
      </trkpt>
      <trkpt lat="44.32944" lon="4.78093">
        <ele>231.3</ele>
        <time>2015-03-08T11:37:42Z</time>
      </trkpt>
      <trkpt lat="44.32956" lon="4.78095">
        <ele>230.5</ele>
        <time>2015-03-08T11:37:45Z</time>
      </trkpt>
      <trkpt lat="44.32968" lon="4.78097">
        <ele>229.9</ele>
        <time>2015-03-08T11:37:48Z</time>
      </trkpt>
      <trkpt lat="44.3298" lon="4.78099">
        <ele>229.4</ele>
        <time>2015-03-08T11:37:51Z</time>
      </trkpt>
      <trkpt lat="44.32993" lon="4.78099">
        <ele>229</ele>
        <time>2015-03-08T11:37:54Z</time>
      </trkpt>
      <trkpt lat="44.33005" lon="4.781">
        <ele>228.7</ele>
        <time>2015-03-08T11:37:57Z</time>
      </trkpt>
      <trkpt lat="44.33018" lon="4.78102">
        <ele>228.4</ele>
        <time>2015-03-08T11:38:00Z</time>
      </trkpt>
      <trkpt lat="44.33027" lon="4.78106">
        <ele>228.2</ele>
        <time>2015-03-08T11:38:02Z</time>
      </trkpt>
      <trkpt lat="44.33038" lon="4.78115">
        <ele>228.1</ele>
        <time>2015-03-08T11:38:05Z</time>
      </trkpt>
      <trkpt lat="44.33047" lon="4.78122">
        <ele>227.9</ele>
        <time>2015-03-08T11:38:09Z</time>
      </trkpt>
      <trkpt lat="44.33055" lon="4.78131">
        <ele>227.6</ele>
        <time>2015-03-08T11:38:22Z</time>
      </trkpt>
      <trkpt lat="44.33065" lon="4.78135">
        <ele>227.5</ele>
        <time>2015-03-08T11:38:26Z</time>
      </trkpt>
      <trkpt lat="44.33074" lon="4.78139">
        <ele>227.5</ele>
        <time>2015-03-08T11:38:29Z</time>
      </trkpt>
      <trkpt lat="44.33086" lon="4.78142">
        <ele>227.4</ele>
        <time>2015-03-08T11:38:32Z</time>
      </trkpt>
      <trkpt lat="44.33098" lon="4.78144">
        <ele>227.4</ele>
        <time>2015-03-08T11:38:35Z</time>
      </trkpt>
      <trkpt lat="44.3311" lon="4.78146">
        <ele>227.4</ele>
        <time>2015-03-08T11:38:38Z</time>
      </trkpt>
      <trkpt lat="44.33121" lon="4.78148">
        <ele>227.4</ele>
        <time>2015-03-08T11:38:41Z</time>
      </trkpt>
      <trkpt lat="44.33134" lon="4.7815">
        <ele>227.5</ele>
        <time>2015-03-08T11:38:44Z</time>
      </trkpt>
      <trkpt lat="44.33146" lon="4.78149">
        <ele>228</ele>
        <time>2015-03-08T11:38:47Z</time>
      </trkpt>
      <trkpt lat="44.33159" lon="4.78145">
        <ele>228.3</ele>
        <time>2015-03-08T11:38:50Z</time>
      </trkpt>
      <trkpt lat="44.33168" lon="4.78138">
        <ele>228.5</ele>
        <time>2015-03-08T11:38:53Z</time>
      </trkpt>
      <trkpt lat="44.33178" lon="4.78146">
        <ele>228.6</ele>
        <time>2015-03-08T11:38:57Z</time>
      </trkpt>
      <trkpt lat="44.33181" lon="4.78165">
        <ele>228.5</ele>
        <time>2015-03-08T11:39:00Z</time>
      </trkpt>
      <trkpt lat="44.33183" lon="4.7818">
        <ele>228.2</ele>
        <time>2015-03-08T11:39:02Z</time>
      </trkpt>
      <trkpt lat="44.33186" lon="4.78196">
        <ele>228</ele>
        <time>2015-03-08T11:39:04Z</time>
      </trkpt>
      <trkpt lat="44.3319" lon="4.78214">
        <ele>227.8</ele>
        <time>2015-03-08T11:39:06Z</time>
      </trkpt>
      <trkpt lat="44.33194" lon="4.78231">
        <ele>227.5</ele>
        <time>2015-03-08T11:39:08Z</time>
      </trkpt>
      <trkpt lat="44.33197" lon="4.78247">
        <ele>227.2</ele>
        <time>2015-03-08T11:39:10Z</time>
      </trkpt>
      <trkpt lat="44.33199" lon="4.78265">
        <ele>226.9</ele>
        <time>2015-03-08T11:39:12Z</time>
      </trkpt>
      <trkpt lat="44.33197" lon="4.78282">
        <ele>226.4</ele>
        <time>2015-03-08T11:39:14Z</time>
      </trkpt>
      <trkpt lat="44.33196" lon="4.783">
        <ele>225.9</ele>
        <time>2015-03-08T11:39:16Z</time>
      </trkpt>
      <trkpt lat="44.33194" lon="4.78316">
        <ele>225.4</ele>
        <time>2015-03-08T11:39:18Z</time>
      </trkpt>
      <trkpt lat="44.33192" lon="4.78333">
        <ele>224.8</ele>
        <time>2015-03-08T11:39:20Z</time>
      </trkpt>
      <trkpt lat="44.33191" lon="4.78349">
        <ele>224.4</ele>
        <time>2015-03-08T11:39:22Z</time>
      </trkpt>
      <trkpt lat="44.33189" lon="4.78366">
        <ele>223.9</ele>
        <time>2015-03-08T11:39:24Z</time>
      </trkpt>
      <trkpt lat="44.33188" lon="4.78383">
        <ele>223.6</ele>
        <time>2015-03-08T11:39:26Z</time>
      </trkpt>
      <trkpt lat="44.33189" lon="4.78399">
        <ele>223.2</ele>
        <time>2015-03-08T11:39:28Z</time>
      </trkpt>
      <trkpt lat="44.33192" lon="4.78415">
        <ele>222.9</ele>
        <time>2015-03-08T11:39:30Z</time>
      </trkpt>
      <trkpt lat="44.33196" lon="4.78431">
        <ele>222.6</ele>
        <time>2015-03-08T11:39:32Z</time>
      </trkpt>
      <trkpt lat="44.33199" lon="4.78446">
        <ele>222.4</ele>
        <time>2015-03-08T11:39:34Z</time>
      </trkpt>
      <trkpt lat="44.33201" lon="4.78461">
        <ele>222.1</ele>
        <time>2015-03-08T11:39:36Z</time>
      </trkpt>
      <trkpt lat="44.33205" lon="4.78474">
        <ele>221.8</ele>
        <time>2015-03-08T11:39:38Z</time>
      </trkpt>
      <trkpt lat="44.33209" lon="4.78487">
        <ele>221.6</ele>
        <time>2015-03-08T11:39:40Z</time>
      </trkpt>
      <trkpt lat="44.33213" lon="4.78502">
        <ele>221.1</ele>
        <time>2015-03-08T11:39:43Z</time>
      </trkpt>
      <trkpt lat="44.33217" lon="4.78516">
        <ele>220.5</ele>
        <time>2015-03-08T11:39:46Z</time>
      </trkpt>
      <trkpt lat="44.3322" lon="4.78531">
        <ele>219.6</ele>
        <time>2015-03-08T11:39:50Z</time>
      </trkpt>
      <trkpt lat="44.33221" lon="4.78544">
        <ele>219</ele>
        <time>2015-03-08T11:39:53Z</time>
      </trkpt>
      <trkpt lat="44.33222" lon="4.78557">
        <ele>217.9</ele>
        <time>2015-03-08T11:39:57Z</time>
      </trkpt>
      <trkpt lat="44.33222" lon="4.78571">
        <ele>216.6</ele>
        <time>2015-03-08T11:40:02Z</time>
      </trkpt>
      <trkpt lat="44.33222" lon="4.78587">
        <ele>215.4</ele>
        <time>2015-03-08T11:40:06Z</time>
      </trkpt>
      <trkpt lat="44.33221" lon="4.78601">
        <ele>214.4</ele>
        <time>2015-03-08T11:40:10Z</time>
      </trkpt>
      <trkpt lat="44.3322" lon="4.78616">
        <ele>213.2</ele>
        <time>2015-03-08T11:40:14Z</time>
      </trkpt>
      <trkpt lat="44.33217" lon="4.78628">
        <ele>212.2</ele>
        <time>2015-03-08T11:40:17Z</time>
      </trkpt>
      <trkpt lat="44.33216" lon="4.78642">
        <ele>211</ele>
        <time>2015-03-08T11:40:20Z</time>
      </trkpt>
      <trkpt lat="44.33213" lon="4.78654">
        <ele>209.9</ele>
        <time>2015-03-08T11:40:23Z</time>
      </trkpt>
      <trkpt lat="44.33212" lon="4.78668">
        <ele>208.8</ele>
        <time>2015-03-08T11:40:26Z</time>
      </trkpt>
      <trkpt lat="44.33208" lon="4.78682">
        <ele>207.6</ele>
        <time>2015-03-08T11:40:29Z</time>
      </trkpt>
      <trkpt lat="44.33207" lon="4.78694">
        <ele>206.4</ele>
        <time>2015-03-08T11:40:32Z</time>
      </trkpt>
      <trkpt lat="44.33203" lon="4.78708">
        <ele>204.7</ele>
        <time>2015-03-08T11:40:36Z</time>
      </trkpt>
      <trkpt lat="44.33199" lon="4.7872">
        <ele>203.3</ele>
        <time>2015-03-08T11:40:39Z</time>
      </trkpt>
      <trkpt lat="44.33193" lon="4.78734">
        <ele>202.1</ele>
        <time>2015-03-08T11:40:42Z</time>
      </trkpt>
      <trkpt lat="44.33183" lon="4.78746">
        <ele>201.2</ele>
        <time>2015-03-08T11:40:45Z</time>
      </trkpt>
      <trkpt lat="44.33173" lon="4.78756">
        <ele>200.4</ele>
        <time>2015-03-08T11:40:48Z</time>
      </trkpt>
      <trkpt lat="44.33164" lon="4.78761">
        <ele>199.6</ele>
        <time>2015-03-08T11:40:50Z</time>
      </trkpt>
      <trkpt lat="44.33154" lon="4.78769">
        <ele>198.5</ele>
        <time>2015-03-08T11:40:53Z</time>
      </trkpt>
      <trkpt lat="44.33147" lon="4.78778">
        <ele>197</ele>
        <time>2015-03-08T11:40:57Z</time>
      </trkpt>
      <trkpt lat="44.33142" lon="4.78789">
        <ele>196.1</ele>
        <time>2015-03-08T11:41:00Z</time>
      </trkpt>
      <trkpt lat="44.33142" lon="4.78801">
        <ele>195.1</ele>
        <time>2015-03-08T11:41:03Z</time>
      </trkpt>
      <trkpt lat="44.3315" lon="4.78809">
        <ele>194.4</ele>
        <time>2015-03-08T11:41:05Z</time>
      </trkpt>
      <trkpt lat="44.3316" lon="4.7882">
        <ele>193.8</ele>
        <time>2015-03-08T11:41:07Z</time>
      </trkpt>
      <trkpt lat="44.33173" lon="4.78833">
        <ele>192.6</ele>
        <time>2015-03-08T11:41:09Z</time>
      </trkpt>
      <trkpt lat="44.33182" lon="4.78845">
        <ele>191.4</ele>
        <time>2015-03-08T11:41:11Z</time>
      </trkpt>
      <trkpt lat="44.33191" lon="4.78855">
        <ele>190.3</ele>
        <time>2015-03-08T11:41:13Z</time>
      </trkpt>
      <trkpt lat="44.33198" lon="4.78864">
        <ele>189</ele>
        <time>2015-03-08T11:41:15Z</time>
      </trkpt>
      <trkpt lat="44.33205" lon="4.78872">
        <ele>187.9</ele>
        <time>2015-03-08T11:41:17Z</time>
      </trkpt>
      <trkpt lat="44.33212" lon="4.78882">
        <ele>186.8</ele>
        <time>2015-03-08T11:41:19Z</time>
      </trkpt>
      <trkpt lat="44.33218" lon="4.78892">
        <ele>185.7</ele>
        <time>2015-03-08T11:41:21Z</time>
      </trkpt>
      <trkpt lat="44.33227" lon="4.78905">
        <ele>183.7</ele>
        <time>2015-03-08T11:41:24Z</time>
      </trkpt>
      <trkpt lat="44.33235" lon="4.78912">
        <ele>182.2</ele>
        <time>2015-03-08T11:41:26Z</time>
      </trkpt>
      <trkpt lat="44.33248" lon="4.7891">
        <ele>180.2</ele>
        <time>2015-03-08T11:41:29Z</time>
      </trkpt>
      <trkpt lat="44.3326" lon="4.78907">
        <ele>178.4</ele>
        <time>2015-03-08T11:41:32Z</time>
      </trkpt>
      <trkpt lat="44.33274" lon="4.78907">
        <ele>177</ele>
        <time>2015-03-08T11:41:35Z</time>
      </trkpt>
      <trkpt lat="44.33284" lon="4.7891">
        <ele>176.1</ele>
        <time>2015-03-08T11:41:37Z</time>
      </trkpt>
      <trkpt lat="44.33295" lon="4.78915">
        <ele>175.4</ele>
        <time>2015-03-08T11:41:39Z</time>
      </trkpt>
      <trkpt lat="44.33306" lon="4.78919">
        <ele>174.6</ele>
        <time>2015-03-08T11:41:41Z</time>
      </trkpt>
      <trkpt lat="44.33318" lon="4.78923">
        <ele>173.9</ele>
        <time>2015-03-08T11:41:43Z</time>
      </trkpt>
      <trkpt lat="44.33331" lon="4.78928">
        <ele>173.2</ele>
        <time>2015-03-08T11:41:45Z</time>
      </trkpt>
      <trkpt lat="44.33345" lon="4.78934">
        <ele>172.5</ele>
        <time>2015-03-08T11:41:47Z</time>
      </trkpt>
      <trkpt lat="44.3336" lon="4.78938">
        <ele>171.8</ele>
        <time>2015-03-08T11:41:49Z</time>
      </trkpt>
      <trkpt lat="44.33377" lon="4.78943">
        <ele>171.2</ele>
        <time>2015-03-08T11:41:51Z</time>
      </trkpt>
      <trkpt lat="44.33393" lon="4.78947">
        <ele>170.6</ele>
        <time>2015-03-08T11:41:53Z</time>
      </trkpt>
      <trkpt lat="44.33409" lon="4.78952">
        <ele>169.9</ele>
        <time>2015-03-08T11:41:55Z</time>
      </trkpt>
      <trkpt lat="44.33423" lon="4.78952">
        <ele>169.1</ele>
        <time>2015-03-08T11:41:57Z</time>
      </trkpt>
      <trkpt lat="44.33436" lon="4.78951">
        <ele>168.3</ele>
        <time>2015-03-08T11:41:59Z</time>
      </trkpt>
      <trkpt lat="44.33447" lon="4.78948">
        <ele>167.7</ele>
        <time>2015-03-08T11:42:01Z</time>
      </trkpt>
      <trkpt lat="44.33457" lon="4.78946">
        <ele>167</ele>
        <time>2015-03-08T11:42:03Z</time>
      </trkpt>
      <trkpt lat="44.33467" lon="4.78944">
        <ele>166.4</ele>
        <time>2015-03-08T11:42:05Z</time>
      </trkpt>
      <trkpt lat="44.33476" lon="4.7894">
        <ele>165.8</ele>
        <time>2015-03-08T11:42:07Z</time>
      </trkpt>
      <trkpt lat="44.33489" lon="4.78938">
        <ele>165.1</ele>
        <time>2015-03-08T11:42:10Z</time>
      </trkpt>
      <trkpt lat="44.335" lon="4.78932">
        <ele>164.5</ele>
        <time>2015-03-08T11:42:13Z</time>
      </trkpt>
      <trkpt lat="44.33506" lon="4.7892">
        <ele>163.8</ele>
        <time>2015-03-08T11:42:17Z</time>
      </trkpt>
      <trkpt lat="44.33508" lon="4.78906">
        <ele>163</ele>
        <time>2015-03-08T11:42:23Z</time>
      </trkpt>
      <trkpt lat="44.33511" lon="4.78893">
        <ele>162.4</ele>
        <time>2015-03-08T11:42:29Z</time>
      </trkpt>
      <trkpt lat="44.33511" lon="4.78879">
        <ele>162.4</ele>
        <time>2015-03-08T11:42:35Z</time>
      </trkpt>
      <trkpt lat="44.33518" lon="4.78869">
        <ele>162.8</ele>
        <time>2015-03-08T11:42:40Z</time>
      </trkpt>
      <trkpt lat="44.33518" lon="4.78856">
        <ele>164.6</ele>
        <time>2015-03-08T11:43:09Z</time>
      </trkpt>
      <trkpt lat="44.3351" lon="4.78848">
        <ele>167.8</ele>
        <time>2015-03-08T11:43:36Z</time>
      </trkpt>
      <trkpt lat="44.33501" lon="4.78847">
        <ele>169.6</ele>
        <time>2015-03-08T11:43:48Z</time>
      </trkpt>
      <trkpt lat="44.335" lon="4.78835">
        <ele>173.1</ele>
        <time>2015-03-08T11:44:08Z</time>
      </trkpt>
      <trkpt lat="44.33507" lon="4.78825">
        <ele>175.1</ele>
        <time>2015-03-08T11:44:19Z</time>
      </trkpt>
      <trkpt lat="44.33512" lon="4.78814">
        <ele>176.2</ele>
        <time>2015-03-08T11:44:28Z</time>
      </trkpt>
      <trkpt lat="44.33517" lon="4.78803">
        <ele>176.9</ele>
        <time>2015-03-08T11:44:37Z</time>
      </trkpt>
      <trkpt lat="44.33522" lon="4.78791">
        <ele>178.4</ele>
        <time>2015-03-08T11:44:47Z</time>
      </trkpt>
      <trkpt lat="44.33526" lon="4.7878">
        <ele>180.1</ele>
        <time>2015-03-08T11:44:57Z</time>
      </trkpt>
      <trkpt lat="44.33529" lon="4.78768">
        <ele>181.5</ele>
        <time>2015-03-08T11:45:07Z</time>
      </trkpt>
      <trkpt lat="44.33532" lon="4.78755">
        <ele>182.7</ele>
        <time>2015-03-08T11:45:17Z</time>
      </trkpt>
      <trkpt lat="44.33535" lon="4.78742">
        <ele>183.7</ele>
        <time>2015-03-08T11:45:26Z</time>
      </trkpt>
      <trkpt lat="44.33539" lon="4.7873">
        <ele>184.9</ele>
        <time>2015-03-08T11:45:36Z</time>
      </trkpt>
      <trkpt lat="44.33545" lon="4.7872">
        <ele>187.2</ele>
        <time>2015-03-08T11:45:56Z</time>
      </trkpt>
      <trkpt lat="44.33548" lon="4.78708">
        <ele>188.3</ele>
        <time>2015-03-08T11:46:07Z</time>
      </trkpt>
      <trkpt lat="44.33552" lon="4.78696">
        <ele>189</ele>
        <time>2015-03-08T11:46:21Z</time>
      </trkpt>
      <trkpt lat="44.33556" lon="4.78683">
        <ele>189.1</ele>
        <time>2015-03-08T11:46:28Z</time>
      </trkpt>
      <trkpt lat="44.33561" lon="4.78673">
        <ele>189.2</ele>
        <time>2015-03-08T11:46:33Z</time>
      </trkpt>
      <trkpt lat="44.33565" lon="4.7866">
        <ele>189.4</ele>
        <time>2015-03-08T11:46:38Z</time>
      </trkpt>
      <trkpt lat="44.33569" lon="4.78647">
        <ele>189.7</ele>
        <time>2015-03-08T11:46:43Z</time>
      </trkpt>
      <trkpt lat="44.33573" lon="4.78634">
        <ele>190</ele>
        <time>2015-03-08T11:46:48Z</time>
      </trkpt>
      <trkpt lat="44.33578" lon="4.78623">
        <ele>190.1</ele>
        <time>2015-03-08T11:46:52Z</time>
      </trkpt>
      <trkpt lat="44.33582" lon="4.78611">
        <ele>190.2</ele>
        <time>2015-03-08T11:46:58Z</time>
      </trkpt>
      <trkpt lat="44.33584" lon="4.78598">
        <ele>190.5</ele>
        <time>2015-03-08T11:47:05Z</time>
      </trkpt>
      <trkpt lat="44.33588" lon="4.78585">
        <ele>191.3</ele>
        <time>2015-03-08T11:47:12Z</time>
      </trkpt>
      <trkpt lat="44.33592" lon="4.78573">
        <ele>192.3</ele>
        <time>2015-03-08T11:47:19Z</time>
      </trkpt>
      <trkpt lat="44.33594" lon="4.78561">
        <ele>193.2</ele>
        <time>2015-03-08T11:47:29Z</time>
      </trkpt>
      <trkpt lat="44.33595" lon="4.78548">
        <ele>194.7</ele>
        <time>2015-03-08T11:47:42Z</time>
      </trkpt>
      <trkpt lat="44.33597" lon="4.78535">
        <ele>195.4</ele>
        <time>2015-03-08T11:47:50Z</time>
      </trkpt>
      <trkpt lat="44.336" lon="4.78523">
        <ele>195.6</ele>
        <time>2015-03-08T11:47:54Z</time>
      </trkpt>
      <trkpt lat="44.33601" lon="4.78511">
        <ele>195.8</ele>
        <time>2015-03-08T11:47:58Z</time>
      </trkpt>
      <trkpt lat="44.33597" lon="4.78497">
        <ele>196</ele>
        <time>2015-03-08T11:48:05Z</time>
      </trkpt>
      <trkpt lat="44.33593" lon="4.78486">
        <ele>196.2</ele>
        <time>2015-03-08T11:48:10Z</time>
      </trkpt>
      <trkpt lat="44.33589" lon="4.78471">
        <ele>196.3</ele>
        <time>2015-03-08T11:48:14Z</time>
      </trkpt>
      <trkpt lat="44.33584" lon="4.78461">
        <ele>195.9</ele>
        <time>2015-03-08T11:48:24Z</time>
      </trkpt>
      <trkpt lat="44.33578" lon="4.7845">
        <ele>195.7</ele>
        <time>2015-03-08T11:48:30Z</time>
      </trkpt>
      <trkpt lat="44.33572" lon="4.78439">
        <ele>195.6</ele>
        <time>2015-03-08T11:48:37Z</time>
      </trkpt>
      <trkpt lat="44.33565" lon="4.78431">
        <ele>195.8</ele>
        <time>2015-03-08T11:48:43Z</time>
      </trkpt>
      <trkpt lat="44.33557" lon="4.78422">
        <ele>196.4</ele>
        <time>2015-03-08T11:48:50Z</time>
      </trkpt>
      <trkpt lat="44.33552" lon="4.78412">
        <ele>196.7</ele>
        <time>2015-03-08T11:48:58Z</time>
      </trkpt>
      <trkpt lat="44.33545" lon="4.78403">
        <ele>197.1</ele>
        <time>2015-03-08T11:49:07Z</time>
      </trkpt>
      <trkpt lat="44.33539" lon="4.78394">
        <ele>197.6</ele>
        <time>2015-03-08T11:49:13Z</time>
      </trkpt>
      <trkpt lat="44.33535" lon="4.78382">
        <ele>198</ele>
        <time>2015-03-08T11:49:18Z</time>
      </trkpt>
      <trkpt lat="44.33529" lon="4.7837">
        <ele>198.3</ele>
        <time>2015-03-08T11:49:26Z</time>
      </trkpt>
      <trkpt lat="44.33525" lon="4.78357">
        <ele>198.5</ele>
        <time>2015-03-08T11:49:32Z</time>
      </trkpt>
      <trkpt lat="44.3352" lon="4.78347">
        <ele>198.7</ele>
        <time>2015-03-08T11:49:37Z</time>
      </trkpt>
      <trkpt lat="44.33515" lon="4.78336">
        <ele>198.8</ele>
        <time>2015-03-08T11:49:41Z</time>
      </trkpt>
      <trkpt lat="44.3351" lon="4.78323">
        <ele>199.5</ele>
        <time>2015-03-08T11:49:46Z</time>
      </trkpt>
      <trkpt lat="44.33506" lon="4.78311">
        <ele>200.1</ele>
        <time>2015-03-08T11:49:51Z</time>
      </trkpt>
      <trkpt lat="44.33503" lon="4.78298">
        <ele>200.3</ele>
        <time>2015-03-08T11:49:57Z</time>
      </trkpt>
      <trkpt lat="44.335" lon="4.78287">
        <ele>200.8</ele>
        <time>2015-03-08T11:50:09Z</time>
      </trkpt>
      <trkpt lat="44.33497" lon="4.78273">
        <ele>200.9</ele>
        <time>2015-03-08T11:50:16Z</time>
      </trkpt>
      <trkpt lat="44.33493" lon="4.7826">
        <ele>201.2</ele>
        <time>2015-03-08T11:50:21Z</time>
      </trkpt>
      <trkpt lat="44.3349" lon="4.78248">
        <ele>201.5</ele>
        <time>2015-03-08T11:50:26Z</time>
      </trkpt>
      <trkpt lat="44.33486" lon="4.78233">
        <ele>201.9</ele>
        <time>2015-03-08T11:50:31Z</time>
      </trkpt>
      <trkpt lat="44.33478" lon="4.78225">
        <ele>202.2</ele>
        <time>2015-03-08T11:50:36Z</time>
      </trkpt>
      <trkpt lat="44.33473" lon="4.78215">
        <ele>202.5</ele>
        <time>2015-03-08T11:50:41Z</time>
      </trkpt>
      <trkpt lat="44.33466" lon="4.78204">
        <ele>203</ele>
        <time>2015-03-08T11:50:46Z</time>
      </trkpt>
      <trkpt lat="44.33462" lon="4.78192">
        <ele>203.7</ele>
        <time>2015-03-08T11:50:51Z</time>
      </trkpt>
      <trkpt lat="44.33457" lon="4.78181">
        <ele>204.1</ele>
        <time>2015-03-08T11:50:56Z</time>
      </trkpt>
      <trkpt lat="44.3345" lon="4.78172">
        <ele>204.4</ele>
        <time>2015-03-08T11:51:00Z</time>
      </trkpt>
      <trkpt lat="44.33444" lon="4.7816">
        <ele>204.6</ele>
        <time>2015-03-08T11:51:04Z</time>
      </trkpt>
      <trkpt lat="44.33437" lon="4.7815">
        <ele>204.6</ele>
        <time>2015-03-08T11:51:10Z</time>
      </trkpt>
      <trkpt lat="44.33429" lon="4.7814">
        <ele>204.5</ele>
        <time>2015-03-08T11:51:16Z</time>
      </trkpt>
      <trkpt lat="44.33423" lon="4.78128">
        <ele>205</ele>
        <time>2015-03-08T11:51:22Z</time>
      </trkpt>
      <trkpt lat="44.33415" lon="4.78117">
        <ele>205.5</ele>
        <time>2015-03-08T11:51:27Z</time>
      </trkpt>
      <trkpt lat="44.33409" lon="4.78108">
        <ele>206.1</ele>
        <time>2015-03-08T11:51:32Z</time>
      </trkpt>
      <trkpt lat="44.33401" lon="4.78101">
        <ele>206.7</ele>
        <time>2015-03-08T11:51:38Z</time>
      </trkpt>
      <trkpt lat="44.33394" lon="4.78091">
        <ele>207.2</ele>
        <time>2015-03-08T11:51:42Z</time>
      </trkpt>
      <trkpt lat="44.33384" lon="4.78084">
        <ele>207.7</ele>
        <time>2015-03-08T11:51:47Z</time>
      </trkpt>
      <trkpt lat="44.33375" lon="4.78084">
        <ele>209.2</ele>
        <time>2015-03-08T11:51:58Z</time>
      </trkpt>
      <trkpt lat="44.33366" lon="4.78081">
        <ele>210.6</ele>
        <time>2015-03-08T11:52:06Z</time>
      </trkpt>
      <trkpt lat="44.33357" lon="4.78079">
        <ele>211.9</ele>
        <time>2015-03-08T11:52:15Z</time>
      </trkpt>
      <trkpt lat="44.33347" lon="4.78079">
        <ele>213.9</ele>
        <time>2015-03-08T11:52:28Z</time>
      </trkpt>
      <trkpt lat="44.33338" lon="4.78076">
        <ele>215.5</ele>
        <time>2015-03-08T11:52:43Z</time>
      </trkpt>
      <trkpt lat="44.3333" lon="4.78069">
        <ele>216.2</ele>
        <time>2015-03-08T11:52:50Z</time>
      </trkpt>
      <trkpt lat="44.33322" lon="4.78063">
        <ele>216.8</ele>
        <time>2015-03-08T11:52:56Z</time>
      </trkpt>
      <trkpt lat="44.33321" lon="4.7805">
        <ele>217.7</ele>
        <time>2015-03-08T11:53:12Z</time>
      </trkpt>
      <trkpt lat="44.33325" lon="4.78037">
        <ele>218.4</ele>
        <time>2015-03-08T11:53:25Z</time>
      </trkpt>
      <trkpt lat="44.33335" lon="4.78027">
        <ele>218.6</ele>
        <time>2015-03-08T11:53:29Z</time>
      </trkpt>
      <trkpt lat="44.33343" lon="4.78019">
        <ele>218.6</ele>
        <time>2015-03-08T11:53:31Z</time>
      </trkpt>
      <trkpt lat="44.33352" lon="4.78006">
        <ele>218.6</ele>
        <time>2015-03-08T11:53:34Z</time>
      </trkpt>
      <trkpt lat="44.33358" lon="4.77988">
        <ele>218.6</ele>
        <time>2015-03-08T11:53:37Z</time>
      </trkpt>
      <trkpt lat="44.33362" lon="4.77976">
        <ele>218.3</ele>
        <time>2015-03-08T11:53:39Z</time>
      </trkpt>
      <trkpt lat="44.33366" lon="4.77965">
        <ele>215.2</ele>
        <time>2015-03-08T11:54:00Z</time>
      </trkpt>
      <trkpt lat="44.3337" lon="4.77953">
        <ele>214.2</ele>
        <time>2015-03-08T11:54:17Z</time>
      </trkpt>
      <trkpt lat="44.33372" lon="4.77938">
        <ele>214.1</ele>
        <time>2015-03-08T11:54:20Z</time>
      </trkpt>
      <trkpt lat="44.33376" lon="4.77921">
        <ele>213.9</ele>
        <time>2015-03-08T11:54:23Z</time>
      </trkpt>
      <trkpt lat="44.33386" lon="4.77912">
        <ele>213.4</ele>
        <time>2015-03-08T11:54:26Z</time>
      </trkpt>
      <trkpt lat="44.33397" lon="4.7791">
        <ele>212.8</ele>
        <time>2015-03-08T11:54:32Z</time>
      </trkpt>
      <trkpt lat="44.33406" lon="4.77918">
        <ele>212.6</ele>
        <time>2015-03-08T11:54:36Z</time>
      </trkpt>
      <trkpt lat="44.33415" lon="4.77926">
        <ele>212.5</ele>
        <time>2015-03-08T11:54:39Z</time>
      </trkpt>
      <trkpt lat="44.33422" lon="4.77933">
        <ele>212.4</ele>
        <time>2015-03-08T11:54:42Z</time>
      </trkpt>
      <trkpt lat="44.3343" lon="4.77941">
        <ele>212.3</ele>
        <time>2015-03-08T11:54:45Z</time>
      </trkpt>
      <trkpt lat="44.33437" lon="4.77948">
        <ele>212.3</ele>
        <time>2015-03-08T11:54:48Z</time>
      </trkpt>
      <trkpt lat="44.33449" lon="4.7795">
        <ele>212.3</ele>
        <time>2015-03-08T11:54:52Z</time>
      </trkpt>
      <trkpt lat="44.3346" lon="4.77949">
        <ele>212.3</ele>
        <time>2015-03-08T11:54:56Z</time>
      </trkpt>
      <trkpt lat="44.33469" lon="4.77946">
        <ele>212.4</ele>
        <time>2015-03-08T11:54:59Z</time>
      </trkpt>
      <trkpt lat="44.33478" lon="4.77941">
        <ele>212.5</ele>
        <time>2015-03-08T11:55:02Z</time>
      </trkpt>
      <trkpt lat="44.33486" lon="4.77933">
        <ele>212.6</ele>
        <time>2015-03-08T11:55:05Z</time>
      </trkpt>
      <trkpt lat="44.33492" lon="4.77922">
        <ele>212.9</ele>
        <time>2015-03-08T11:55:08Z</time>
      </trkpt>
      <trkpt lat="44.33501" lon="4.77913">
        <ele>213.2</ele>
        <time>2015-03-08T11:55:12Z</time>
      </trkpt>
      <trkpt lat="44.33512" lon="4.77915">
        <ele>213.6</ele>
        <time>2015-03-08T11:55:16Z</time>
      </trkpt>
      <trkpt lat="44.33521" lon="4.77921">
        <ele>213.8</ele>
        <time>2015-03-08T11:55:19Z</time>
      </trkpt>
      <trkpt lat="44.3353" lon="4.77927">
        <ele>213.9</ele>
        <time>2015-03-08T11:55:22Z</time>
      </trkpt>
      <trkpt lat="44.33538" lon="4.77933">
        <ele>214</ele>
        <time>2015-03-08T11:55:25Z</time>
      </trkpt>
      <trkpt lat="44.3355" lon="4.77938">
        <ele>214.1</ele>
        <time>2015-03-08T11:55:29Z</time>
      </trkpt>
      <trkpt lat="44.33561" lon="4.77939">
        <ele>214.1</ele>
        <time>2015-03-08T11:55:32Z</time>
      </trkpt>
      <trkpt lat="44.33572" lon="4.77936">
        <ele>214.1</ele>
        <time>2015-03-08T11:55:35Z</time>
      </trkpt>
      <trkpt lat="44.33582" lon="4.77931">
        <ele>214.2</ele>
        <time>2015-03-08T11:55:38Z</time>
      </trkpt>
      <trkpt lat="44.33593" lon="4.77927">
        <ele>214.4</ele>
        <time>2015-03-08T11:55:42Z</time>
      </trkpt>
      <trkpt lat="44.33603" lon="4.77924">
        <ele>214.6</ele>
        <time>2015-03-08T11:55:45Z</time>
      </trkpt>
      <trkpt lat="44.33612" lon="4.77918">
        <ele>214.5</ele>
        <time>2015-03-08T11:55:48Z</time>
      </trkpt>
      <trkpt lat="44.33621" lon="4.77911">
        <ele>214.5</ele>
        <time>2015-03-08T11:55:51Z</time>
      </trkpt>
      <trkpt lat="44.33629" lon="4.779">
        <ele>214.5</ele>
        <time>2015-03-08T11:55:54Z</time>
      </trkpt>
      <trkpt lat="44.33635" lon="4.77886">
        <ele>214.5</ele>
        <time>2015-03-08T11:55:57Z</time>
      </trkpt>
      <trkpt lat="44.33641" lon="4.77873">
        <ele>214.7</ele>
        <time>2015-03-08T11:56:00Z</time>
      </trkpt>
      <trkpt lat="44.33646" lon="4.77861">
        <ele>215.2</ele>
        <time>2015-03-08T11:56:05Z</time>
      </trkpt>
      <trkpt lat="44.33654" lon="4.77852">
        <ele>215.5</ele>
        <time>2015-03-08T11:56:10Z</time>
      </trkpt>
      <trkpt lat="44.33664" lon="4.77849">
        <ele>215.8</ele>
        <time>2015-03-08T11:56:14Z</time>
      </trkpt>
      <trkpt lat="44.33674" lon="4.77846">
        <ele>216</ele>
        <time>2015-03-08T11:56:18Z</time>
      </trkpt>
      <trkpt lat="44.33683" lon="4.77841">
        <ele>216.3</ele>
        <time>2015-03-08T11:56:21Z</time>
      </trkpt>
      <trkpt lat="44.33691" lon="4.77835">
        <ele>216.4</ele>
        <time>2015-03-08T11:56:24Z</time>
      </trkpt>
      <trkpt lat="44.337" lon="4.77829">
        <ele>216.5</ele>
        <time>2015-03-08T11:56:27Z</time>
      </trkpt>
      <trkpt lat="44.33709" lon="4.77823">
        <ele>216.7</ele>
        <time>2015-03-08T11:56:30Z</time>
      </trkpt>
      <trkpt lat="44.33719" lon="4.77822">
        <ele>216.9</ele>
        <time>2015-03-08T11:56:33Z</time>
      </trkpt>
      <trkpt lat="44.3373" lon="4.77819">
        <ele>217</ele>
        <time>2015-03-08T11:56:36Z</time>
      </trkpt>
      <trkpt lat="44.33739" lon="4.77818">
        <ele>217.2</ele>
        <time>2015-03-08T11:56:39Z</time>
      </trkpt>
      <trkpt lat="44.33749" lon="4.77815">
        <ele>217.2</ele>
        <time>2015-03-08T11:56:47Z</time>
      </trkpt>
      <trkpt lat="44.33759" lon="4.77813">
        <ele>217.6</ele>
        <time>2015-03-08T11:56:56Z</time>
      </trkpt>
      <trkpt lat="44.33768" lon="4.77804">
        <ele>217.8</ele>
        <time>2015-03-08T11:57:01Z</time>
      </trkpt>
      <trkpt lat="44.33777" lon="4.77802">
        <ele>218</ele>
        <time>2015-03-08T11:57:04Z</time>
      </trkpt>
      <trkpt lat="44.33786" lon="4.77797">
        <ele>217.8</ele>
        <time>2015-03-08T11:57:13Z</time>
      </trkpt>
      <trkpt lat="44.33794" lon="4.77789">
        <ele>218.1</ele>
        <time>2015-03-08T11:57:24Z</time>
      </trkpt>
      <trkpt lat="44.33802" lon="4.77783">
        <ele>219.2</ele>
        <time>2015-03-08T11:57:35Z</time>
      </trkpt>
      <trkpt lat="44.33813" lon="4.77776">
        <ele>220</ele>
        <time>2015-03-08T11:57:43Z</time>
      </trkpt>
      <trkpt lat="44.33821" lon="4.77767">
        <ele>219.8</ele>
        <time>2015-03-08T11:57:47Z</time>
      </trkpt>
      <trkpt lat="44.3383" lon="4.77757">
        <ele>219.7</ele>
        <time>2015-03-08T11:57:51Z</time>
      </trkpt>
      <trkpt lat="44.33839" lon="4.77743">
        <ele>219.5</ele>
        <time>2015-03-08T11:57:54Z</time>
      </trkpt>
      <trkpt lat="44.33845" lon="4.77731">
        <ele>218.8</ele>
        <time>2015-03-08T11:58:00Z</time>
      </trkpt>
      <trkpt lat="44.33852" lon="4.77724">
        <ele>218.2</ele>
        <time>2015-03-08T11:58:06Z</time>
      </trkpt>
      <trkpt lat="44.33861" lon="4.77714">
        <ele>217.7</ele>
        <time>2015-03-08T11:58:11Z</time>
      </trkpt>
      <trkpt lat="44.3387" lon="4.77711">
        <ele>217.6</ele>
        <time>2015-03-08T11:58:15Z</time>
      </trkpt>
      <trkpt lat="44.33879" lon="4.77709">
        <ele>217.7</ele>
        <time>2015-03-08T11:58:19Z</time>
      </trkpt>
      <trkpt lat="44.33889" lon="4.77708">
        <ele>217.8</ele>
        <time>2015-03-08T11:58:22Z</time>
      </trkpt>
      <trkpt lat="44.33899" lon="4.77704">
        <ele>217.7</ele>
        <time>2015-03-08T11:58:25Z</time>
      </trkpt>
      <trkpt lat="44.33908" lon="4.77704">
        <ele>217.7</ele>
        <time>2015-03-08T11:58:28Z</time>
      </trkpt>
      <trkpt lat="44.33917" lon="4.77703">
        <ele>217.6</ele>
        <time>2015-03-08T11:58:31Z</time>
      </trkpt>
      <trkpt lat="44.33928" lon="4.777">
        <ele>217.3</ele>
        <time>2015-03-08T11:58:35Z</time>
      </trkpt>
      <trkpt lat="44.33937" lon="4.77694">
        <ele>217</ele>
        <time>2015-03-08T11:58:39Z</time>
      </trkpt>
      <trkpt lat="44.33944" lon="4.77684">
        <ele>216.7</ele>
        <time>2015-03-08T11:58:44Z</time>
      </trkpt>
      <trkpt lat="44.33952" lon="4.77677">
        <ele>216.1</ele>
        <time>2015-03-08T11:58:48Z</time>
      </trkpt>
      <trkpt lat="44.3396" lon="4.77671">
        <ele>215.1</ele>
        <time>2015-03-08T11:58:58Z</time>
      </trkpt>
      <trkpt lat="44.33967" lon="4.77662">
        <ele>215.1</ele>
        <time>2015-03-08T11:59:06Z</time>
      </trkpt>
      <trkpt lat="44.33974" lon="4.77653">
        <ele>215.2</ele>
        <time>2015-03-08T11:59:13Z</time>
      </trkpt>
      <trkpt lat="44.33979" lon="4.77642">
        <ele>216.5</ele>
        <time>2015-03-08T11:59:23Z</time>
      </trkpt>
      <trkpt lat="44.33985" lon="4.77631">
        <ele>217.1</ele>
        <time>2015-03-08T11:59:30Z</time>
      </trkpt>
      <trkpt lat="44.3399" lon="4.77617">
        <ele>218.3</ele>
        <time>2015-03-08T11:59:42Z</time>
      </trkpt>
      <trkpt lat="44.33991" lon="4.77603">
        <ele>218.7</ele>
        <time>2015-03-08T11:59:47Z</time>
      </trkpt>
      <trkpt lat="44.3399" lon="4.77589">
        <ele>218.9</ele>
        <time>2015-03-08T11:59:52Z</time>
      </trkpt>
      <trkpt lat="44.33987" lon="4.77575">
        <ele>219.1</ele>
        <time>2015-03-08T11:59:57Z</time>
      </trkpt>
      <trkpt lat="44.33984" lon="4.77563">
        <ele>219.4</ele>
        <time>2015-03-08T12:00:02Z</time>
      </trkpt>
      <trkpt lat="44.33981" lon="4.77549">
        <ele>219.7</ele>
        <time>2015-03-08T12:00:07Z</time>
      </trkpt>
      <trkpt lat="44.33977" lon="4.77536">
        <ele>220.2</ele>
        <time>2015-03-08T12:00:13Z</time>
      </trkpt>
      <trkpt lat="44.33974" lon="4.77522">
        <ele>220.5</ele>
        <time>2015-03-08T12:00:18Z</time>
      </trkpt>
      <trkpt lat="44.33972" lon="4.77507">
        <ele>220.9</ele>
        <time>2015-03-08T12:00:23Z</time>
      </trkpt>
      <trkpt lat="44.3397" lon="4.77493">
        <ele>221.5</ele>
        <time>2015-03-08T12:00:28Z</time>
      </trkpt>
      <trkpt lat="44.33968" lon="4.7748">
        <ele>221.9</ele>
        <time>2015-03-08T12:00:33Z</time>
      </trkpt>
      <trkpt lat="44.33964" lon="4.77468">
        <ele>222.7</ele>
        <time>2015-03-08T12:00:49Z</time>
      </trkpt>
      <trkpt lat="44.33955" lon="4.77464">
        <ele>225</ele>
        <time>2015-03-08T12:01:10Z</time>
      </trkpt>
      <trkpt lat="44.33946" lon="4.77461">
        <ele>228.8</ele>
        <time>2015-03-08T12:01:37Z</time>
      </trkpt>
      <trkpt lat="44.33946" lon="4.77448">
        <ele>230.6</ele>
        <time>2015-03-08T12:01:59Z</time>
      </trkpt>
      <trkpt lat="44.33947" lon="4.77435">
        <ele>231</ele>
        <time>2015-03-08T12:02:06Z</time>
      </trkpt>
      <trkpt lat="44.33947" lon="4.77421">
        <ele>231.3</ele>
        <time>2015-03-08T12:02:12Z</time>
      </trkpt>
      <trkpt lat="44.33947" lon="4.77407">
        <ele>231.3</ele>
        <time>2015-03-08T12:02:18Z</time>
      </trkpt>
      <trkpt lat="44.33948" lon="4.77392">
        <ele>231.4</ele>
        <time>2015-03-08T12:02:24Z</time>
      </trkpt>
      <trkpt lat="44.33948" lon="4.77378">
        <ele>231.6</ele>
        <time>2015-03-08T12:02:30Z</time>
      </trkpt>
      <trkpt lat="44.33947" lon="4.77366">
        <ele>232.1</ele>
        <time>2015-03-08T12:02:34Z</time>
      </trkpt>
      <trkpt lat="44.33945" lon="4.77352">
        <ele>232.5</ele>
        <time>2015-03-08T12:02:38Z</time>
      </trkpt>
      <trkpt lat="44.33945" lon="4.77336">
        <ele>233</ele>
        <time>2015-03-08T12:02:43Z</time>
      </trkpt>
      <trkpt lat="44.33944" lon="4.77322">
        <ele>233.2</ele>
        <time>2015-03-08T12:02:47Z</time>
      </trkpt>
      <trkpt lat="44.33942" lon="4.77307">
        <ele>233.4</ele>
        <time>2015-03-08T12:02:51Z</time>
      </trkpt>
      <trkpt lat="44.33939" lon="4.77291">
        <ele>233.5</ele>
        <time>2015-03-08T12:02:55Z</time>
      </trkpt>
      <trkpt lat="44.33936" lon="4.77275">
        <ele>233.6</ele>
        <time>2015-03-08T12:02:59Z</time>
      </trkpt>
      <trkpt lat="44.33933" lon="4.77259">
        <ele>233.6</ele>
        <time>2015-03-08T12:03:03Z</time>
      </trkpt>
      <trkpt lat="44.33932" lon="4.77245">
        <ele>233.6</ele>
        <time>2015-03-08T12:03:06Z</time>
      </trkpt>
      <trkpt lat="44.33931" lon="4.7723">
        <ele>233.7</ele>
        <time>2015-03-08T12:03:09Z</time>
      </trkpt>
      <trkpt lat="44.33929" lon="4.77211">
        <ele>233.4</ele>
        <time>2015-03-08T12:03:12Z</time>
      </trkpt>
      <trkpt lat="44.33938" lon="4.772">
        <ele>233.2</ele>
        <time>2015-03-08T12:03:16Z</time>
      </trkpt>
      <trkpt lat="44.33947" lon="4.77194">
        <ele>232.9</ele>
        <time>2015-03-08T12:03:20Z</time>
      </trkpt>
      <trkpt lat="44.33955" lon="4.77185">
        <ele>232.5</ele>
        <time>2015-03-08T12:03:24Z</time>
      </trkpt>
      <trkpt lat="44.33966" lon="4.77181">
        <ele>232.1</ele>
        <time>2015-03-08T12:03:28Z</time>
      </trkpt>
      <trkpt lat="44.33976" lon="4.77178">
        <ele>231.8</ele>
        <time>2015-03-08T12:03:32Z</time>
      </trkpt>
      <trkpt lat="44.33984" lon="4.77171">
        <ele>231.7</ele>
        <time>2015-03-08T12:03:35Z</time>
      </trkpt>
      <trkpt lat="44.33991" lon="4.77162">
        <ele>231.6</ele>
        <time>2015-03-08T12:03:38Z</time>
      </trkpt>
      <trkpt lat="44.33997" lon="4.77152">
        <ele>231.6</ele>
        <time>2015-03-08T12:03:42Z</time>
      </trkpt>
      <trkpt lat="44.34003" lon="4.77142">
        <ele>231.7</ele>
        <time>2015-03-08T12:03:49Z</time>
      </trkpt>
      <trkpt lat="44.33994" lon="4.77135">
        <ele>232.1</ele>
        <time>2015-03-08T12:03:56Z</time>
      </trkpt>
      <trkpt lat="44.33986" lon="4.7713">
        <ele>233.7</ele>
        <time>2015-03-08T12:04:08Z</time>
      </trkpt>
      <trkpt lat="44.33977" lon="4.77125">
        <ele>235.1</ele>
        <time>2015-03-08T12:04:21Z</time>
      </trkpt>
      <trkpt lat="44.33969" lon="4.7712">
        <ele>237.1</ele>
        <time>2015-03-08T12:04:32Z</time>
      </trkpt>
      <trkpt lat="44.3396" lon="4.77116">
        <ele>238.5</ele>
        <time>2015-03-08T12:04:42Z</time>
      </trkpt>
      <trkpt lat="44.3395" lon="4.77113">
        <ele>239.7</ele>
        <time>2015-03-08T12:04:51Z</time>
      </trkpt>
      <trkpt lat="44.33941" lon="4.7711">
        <ele>240.8</ele>
        <time>2015-03-08T12:05:00Z</time>
      </trkpt>
      <trkpt lat="44.33932" lon="4.77106">
        <ele>241.9</ele>
        <time>2015-03-08T12:05:09Z</time>
      </trkpt>
      <trkpt lat="44.33923" lon="4.77101">
        <ele>242.8</ele>
        <time>2015-03-08T12:05:18Z</time>
      </trkpt>
      <trkpt lat="44.33914" lon="4.77098">
        <ele>244</ele>
        <time>2015-03-08T12:05:26Z</time>
      </trkpt>
      <trkpt lat="44.33905" lon="4.77094">
        <ele>245.5</ele>
        <time>2015-03-08T12:05:35Z</time>
      </trkpt>
      <trkpt lat="44.33895" lon="4.77091">
        <ele>246.6</ele>
        <time>2015-03-08T12:05:43Z</time>
      </trkpt>
      <trkpt lat="44.33886" lon="4.77089">
        <ele>247.2</ele>
        <time>2015-03-08T12:05:51Z</time>
      </trkpt>
      <trkpt lat="44.33877" lon="4.77086">
        <ele>248.1</ele>
        <time>2015-03-08T12:05:59Z</time>
      </trkpt>
      <trkpt lat="44.33869" lon="4.7708">
        <ele>248.9</ele>
        <time>2015-03-08T12:06:08Z</time>
      </trkpt>
      <trkpt lat="44.33859" lon="4.77078">
        <ele>249.7</ele>
        <time>2015-03-08T12:06:18Z</time>
      </trkpt>
      <trkpt lat="44.3385" lon="4.77074">
        <ele>250.9</ele>
        <time>2015-03-08T12:06:27Z</time>
      </trkpt>
      <trkpt lat="44.33842" lon="4.77069">
        <ele>251.8</ele>
        <time>2015-03-08T12:06:36Z</time>
      </trkpt>
      <trkpt lat="44.33833" lon="4.77064">
        <ele>252.9</ele>
        <time>2015-03-08T12:06:46Z</time>
      </trkpt>
      <trkpt lat="44.33826" lon="4.77056">
        <ele>254.2</ele>
        <time>2015-03-08T12:06:55Z</time>
      </trkpt>
      <trkpt lat="44.33817" lon="4.77049">
        <ele>255.8</ele>
        <time>2015-03-08T12:07:06Z</time>
      </trkpt>
      <trkpt lat="44.33809" lon="4.77041">
        <ele>257.3</ele>
        <time>2015-03-08T12:07:17Z</time>
      </trkpt>
      <trkpt lat="44.33801" lon="4.77036">
        <ele>258.7</ele>
        <time>2015-03-08T12:07:26Z</time>
      </trkpt>
      <trkpt lat="44.33793" lon="4.7703">
        <ele>259.8</ele>
        <time>2015-03-08T12:07:35Z</time>
      </trkpt>
      <trkpt lat="44.33784" lon="4.77025">
        <ele>261.2</ele>
        <time>2015-03-08T12:07:49Z</time>
      </trkpt>
      <trkpt lat="44.33775" lon="4.77021">
        <ele>261.7</ele>
        <time>2015-03-08T12:07:56Z</time>
      </trkpt>
      <trkpt lat="44.33766" lon="4.77016">
        <ele>262.5</ele>
        <time>2015-03-08T12:08:02Z</time>
      </trkpt>
      <trkpt lat="44.33757" lon="4.77009">
        <ele>263.2</ele>
        <time>2015-03-08T12:08:09Z</time>
      </trkpt>
      <trkpt lat="44.33748" lon="4.77005">
        <ele>263.7</ele>
        <time>2015-03-08T12:08:16Z</time>
      </trkpt>
      <trkpt lat="44.33739" lon="4.77001">
        <ele>264.4</ele>
        <time>2015-03-08T12:08:22Z</time>
      </trkpt>
      <trkpt lat="44.33731" lon="4.76996">
        <ele>264.8</ele>
        <time>2015-03-08T12:08:29Z</time>
      </trkpt>
      <trkpt lat="44.33722" lon="4.76992">
        <ele>265.2</ele>
        <time>2015-03-08T12:08:36Z</time>
      </trkpt>
      <trkpt lat="44.33712" lon="4.76993">
        <ele>265.9</ele>
        <time>2015-03-08T12:08:43Z</time>
      </trkpt>
      <trkpt lat="44.33702" lon="4.76995">
        <ele>267.2</ele>
        <time>2015-03-08T12:08:49Z</time>
      </trkpt>
      <trkpt lat="44.33693" lon="4.76995">
        <ele>268</ele>
        <time>2015-03-08T12:08:54Z</time>
      </trkpt>
      <trkpt lat="44.33684" lon="4.76991">
        <ele>268.7</ele>
        <time>2015-03-08T12:09:00Z</time>
      </trkpt>
      <trkpt lat="44.33675" lon="4.76987">
        <ele>269.3</ele>
        <time>2015-03-08T12:09:07Z</time>
      </trkpt>
      <trkpt lat="44.33664" lon="4.76979">
        <ele>269.7</ele>
        <time>2015-03-08T12:09:14Z</time>
      </trkpt>
      <trkpt lat="44.33656" lon="4.76967">
        <ele>270</ele>
        <time>2015-03-08T12:09:18Z</time>
      </trkpt>
      <trkpt lat="44.33647" lon="4.76956">
        <ele>270</ele>
        <time>2015-03-08T12:09:21Z</time>
      </trkpt>
      <trkpt lat="44.33637" lon="4.76951">
        <ele>269.9</ele>
        <time>2015-03-08T12:09:26Z</time>
      </trkpt>
      <trkpt lat="44.33628" lon="4.76952">
        <ele>269.7</ele>
        <time>2015-03-08T12:09:36Z</time>
      </trkpt>
      <trkpt lat="44.33619" lon="4.76945">
        <ele>270.3</ele>
        <time>2015-03-08T12:09:46Z</time>
      </trkpt>
      <trkpt lat="44.33611" lon="4.76937">
        <ele>271.3</ele>
        <time>2015-03-08T12:09:57Z</time>
      </trkpt>
      <trkpt lat="44.33602" lon="4.76931">
        <ele>272.5</ele>
        <time>2015-03-08T12:10:07Z</time>
      </trkpt>
      <trkpt lat="44.33595" lon="4.76923">
        <ele>274.7</ele>
        <time>2015-03-08T12:10:19Z</time>
      </trkpt>
      <trkpt lat="44.33587" lon="4.76916">
        <ele>275.4</ele>
        <time>2015-03-08T12:10:28Z</time>
      </trkpt>
      <trkpt lat="44.33584" lon="4.76903">
        <ele>275.4</ele>
        <time>2015-03-08T12:10:36Z</time>
      </trkpt>
      <trkpt lat="44.33578" lon="4.76892">
        <ele>275.7</ele>
        <time>2015-03-08T12:10:43Z</time>
      </trkpt>
      <trkpt lat="44.33575" lon="4.76878">
        <ele>276.1</ele>
        <time>2015-03-08T12:10:53Z</time>
      </trkpt>
      <trkpt lat="44.33573" lon="4.76862">
        <ele>276.3</ele>
        <time>2015-03-08T12:10:58Z</time>
      </trkpt>
      <trkpt lat="44.33568" lon="4.76851">
        <ele>276.5</ele>
        <time>2015-03-08T12:11:02Z</time>
      </trkpt>
      <trkpt lat="44.33563" lon="4.7684">
        <ele>276.5</ele>
        <time>2015-03-08T12:11:09Z</time>
      </trkpt>
      <trkpt lat="44.33555" lon="4.7683">
        <ele>276.2</ele>
        <time>2015-03-08T12:11:13Z</time>
      </trkpt>
      <trkpt lat="44.33548" lon="4.76817">
        <ele>275.7</ele>
        <time>2015-03-08T12:11:16Z</time>
      </trkpt>
      <trkpt lat="44.33541" lon="4.76808">
        <ele>275.2</ele>
        <time>2015-03-08T12:11:20Z</time>
      </trkpt>
      <trkpt lat="44.33534" lon="4.76797">
        <ele>274.7</ele>
        <time>2015-03-08T12:11:24Z</time>
      </trkpt>
      <trkpt lat="44.33527" lon="4.76786">
        <ele>274.2</ele>
        <time>2015-03-08T12:11:28Z</time>
      </trkpt>
      <trkpt lat="44.33519" lon="4.76775">
        <ele>273.7</ele>
        <time>2015-03-08T12:11:32Z</time>
      </trkpt>
      <trkpt lat="44.33512" lon="4.76764">
        <ele>273.4</ele>
        <time>2015-03-08T12:11:35Z</time>
      </trkpt>
      <trkpt lat="44.33505" lon="4.76753">
        <ele>273.2</ele>
        <time>2015-03-08T12:11:39Z</time>
      </trkpt>
      <trkpt lat="44.33495" lon="4.76742">
        <ele>273</ele>
        <time>2015-03-08T12:11:43Z</time>
      </trkpt>
      <trkpt lat="44.33485" lon="4.76734">
        <ele>272.8</ele>
        <time>2015-03-08T12:11:46Z</time>
      </trkpt>
      <trkpt lat="44.33477" lon="4.76725">
        <ele>272.4</ele>
        <time>2015-03-08T12:11:49Z</time>
      </trkpt>
      <trkpt lat="44.33467" lon="4.7672">
        <ele>272.2</ele>
        <time>2015-03-08T12:11:52Z</time>
      </trkpt>
      <trkpt lat="44.33457" lon="4.76722">
        <ele>271.9</ele>
        <time>2015-03-08T12:11:55Z</time>
      </trkpt>
      <trkpt lat="44.33448" lon="4.76725">
        <ele>271.6</ele>
        <time>2015-03-08T12:12:00Z</time>
      </trkpt>
      <trkpt lat="44.33438" lon="4.76728">
        <ele>271.2</ele>
        <time>2015-03-08T12:12:06Z</time>
      </trkpt>
      <trkpt lat="44.33431" lon="4.76737">
        <ele>271.4</ele>
        <time>2015-03-08T12:12:13Z</time>
      </trkpt>
      <trkpt lat="44.3342" lon="4.76738">
        <ele>271.6</ele>
        <time>2015-03-08T12:12:18Z</time>
      </trkpt>
      <trkpt lat="44.33412" lon="4.76741">
        <ele>271.4</ele>
        <time>2015-03-08T12:12:23Z</time>
      </trkpt>
      <trkpt lat="44.33402" lon="4.76742">
        <ele>271.1</ele>
        <time>2015-03-08T12:12:28Z</time>
      </trkpt>
      <trkpt lat="44.33393" lon="4.76745">
        <ele>270.6</ele>
        <time>2015-03-08T12:12:35Z</time>
      </trkpt>
      <trkpt lat="44.33384" lon="4.76751">
        <ele>270.5</ele>
        <time>2015-03-08T12:12:41Z</time>
      </trkpt>
      <trkpt lat="44.33374" lon="4.76755">
        <ele>270.8</ele>
        <time>2015-03-08T12:12:45Z</time>
      </trkpt>
      <trkpt lat="44.33365" lon="4.76761">
        <ele>270.8</ele>
        <time>2015-03-08T12:12:49Z</time>
      </trkpt>
      <trkpt lat="44.33356" lon="4.76766">
        <ele>270.6</ele>
        <time>2015-03-08T12:12:53Z</time>
      </trkpt>
      <trkpt lat="44.33347" lon="4.76777">
        <ele>270.2</ele>
        <time>2015-03-08T12:12:58Z</time>
      </trkpt>
      <trkpt lat="44.33338" lon="4.7678">
        <ele>269.9</ele>
        <time>2015-03-08T12:13:01Z</time>
      </trkpt>
      <trkpt lat="44.33331" lon="4.76773">
        <ele>269.4</ele>
        <time>2015-03-08T12:13:05Z</time>
      </trkpt>
      <trkpt lat="44.33322" lon="4.76766">
        <ele>269.3</ele>
        <time>2015-03-08T12:13:09Z</time>
      </trkpt>
      <trkpt lat="44.33313" lon="4.76762">
        <ele>269.3</ele>
        <time>2015-03-08T12:13:13Z</time>
      </trkpt>
      <trkpt lat="44.33305" lon="4.76753">
        <ele>269.5</ele>
        <time>2015-03-08T12:13:18Z</time>
      </trkpt>
      <trkpt lat="44.33295" lon="4.7675">
        <ele>269.6</ele>
        <time>2015-03-08T12:13:23Z</time>
      </trkpt>
      <trkpt lat="44.33285" lon="4.76749">
        <ele>269.7</ele>
        <time>2015-03-08T12:13:29Z</time>
      </trkpt>
      <trkpt lat="44.33275" lon="4.76741">
        <ele>270.2</ele>
        <time>2015-03-08T12:13:35Z</time>
      </trkpt>
      <trkpt lat="44.33269" lon="4.76731">
        <ele>270.4</ele>
        <time>2015-03-08T12:13:39Z</time>
      </trkpt>
      <trkpt lat="44.33262" lon="4.76717">
        <ele>270.6</ele>
        <time>2015-03-08T12:13:43Z</time>
      </trkpt>
      <trkpt lat="44.33254" lon="4.76709">
        <ele>270.7</ele>
        <time>2015-03-08T12:13:46Z</time>
      </trkpt>
      <trkpt lat="44.33244" lon="4.76706">
        <ele>270.7</ele>
        <time>2015-03-08T12:13:49Z</time>
      </trkpt>
      <trkpt lat="44.33235" lon="4.76702">
        <ele>270.7</ele>
        <time>2015-03-08T12:13:52Z</time>
      </trkpt>
      <trkpt lat="44.33226" lon="4.76696">
        <ele>270.8</ele>
        <time>2015-03-08T12:13:55Z</time>
      </trkpt>
      <trkpt lat="44.33215" lon="4.76696">
        <ele>271</ele>
        <time>2015-03-08T12:13:59Z</time>
      </trkpt>
      <trkpt lat="44.33204" lon="4.76692">
        <ele>271</ele>
        <time>2015-03-08T12:14:02Z</time>
      </trkpt>
      <trkpt lat="44.33192" lon="4.76689">
        <ele>271.1</ele>
        <time>2015-03-08T12:14:05Z</time>
      </trkpt>
      <trkpt lat="44.33186" lon="4.76678">
        <ele>271</ele>
        <time>2015-03-08T12:14:08Z</time>
      </trkpt>
      <trkpt lat="44.33186" lon="4.76664">
        <ele>270.6</ele>
        <time>2015-03-08T12:14:11Z</time>
      </trkpt>
      <trkpt lat="44.33186" lon="4.7665">
        <ele>269.9</ele>
        <time>2015-03-08T12:14:16Z</time>
      </trkpt>
      <trkpt lat="44.33175" lon="4.76645">
        <ele>269.5</ele>
        <time>2015-03-08T12:14:20Z</time>
      </trkpt>
      <trkpt lat="44.33166" lon="4.76644">
        <ele>269.3</ele>
        <time>2015-03-08T12:14:23Z</time>
      </trkpt>
      <trkpt lat="44.33156" lon="4.76641">
        <ele>269.1</ele>
        <time>2015-03-08T12:14:26Z</time>
      </trkpt>
      <trkpt lat="44.33147" lon="4.76632">
        <ele>268.9</ele>
        <time>2015-03-08T12:14:30Z</time>
      </trkpt>
      <trkpt lat="44.33141" lon="4.76622">
        <ele>268.8</ele>
        <time>2015-03-08T12:14:33Z</time>
      </trkpt>
      <trkpt lat="44.33136" lon="4.76608">
        <ele>268.6</ele>
        <time>2015-03-08T12:14:38Z</time>
      </trkpt>
      <trkpt lat="44.33131" lon="4.76596">
        <ele>268.6</ele>
        <time>2015-03-08T12:14:42Z</time>
      </trkpt>
      <trkpt lat="44.33123" lon="4.76589">
        <ele>269</ele>
        <time>2015-03-08T12:15:00Z</time>
      </trkpt>
      <trkpt lat="44.33131" lon="4.76582">
        <ele>269.8</ele>
        <time>2015-03-08T12:15:16Z</time>
      </trkpt>
      <trkpt lat="44.33139" lon="4.76577">
        <ele>270.1</ele>
        <time>2015-03-08T12:15:26Z</time>
      </trkpt>
      <trkpt lat="44.33087" lon="4.76537">
        <ele>270</ele>
        <time>2015-03-08T12:15:45Z</time>
      </trkpt>
      <trkpt lat="44.33006" lon="4.76466">
        <ele>270.5</ele>
        <time>2015-03-08T12:16:03Z</time>
      </trkpt>
      <trkpt lat="44.32996" lon="4.7647">
        <ele>270.7</ele>
        <time>2015-03-08T12:16:08Z</time>
      </trkpt>
      <trkpt lat="44.32996" lon="4.76483">
        <ele>271.4</ele>
        <time>2015-03-08T12:16:20Z</time>
      </trkpt>
      <trkpt lat="44.33005" lon="4.76485">
        <ele>272.6</ele>
        <time>2015-03-08T12:16:38Z</time>
      </trkpt>
      <trkpt lat="44.32996" lon="4.76479">
        <ele>270</ele>
        <time>2015-03-08T12:17:07Z</time>
      </trkpt>
      <trkpt lat="44.33016" lon="4.76466">
        <ele>270</ele>
        <time>2015-03-08T12:17:14Z</time>
      </trkpt>
      <trkpt lat="44.33054" lon="4.7645">
        <ele>271.4</ele>
        <time>2015-03-08T12:17:22Z</time>
      </trkpt>
      <trkpt lat="44.33135" lon="4.76489">
        <ele>271</ele>
        <time>2015-03-08T12:17:52Z</time>
      </trkpt>
      <trkpt lat="44.332" lon="4.76517">
        <ele>270.6</ele>
        <time>2015-03-08T12:18:22Z</time>
      </trkpt>
      <trkpt lat="44.33208" lon="4.76526">
        <ele>270.2</ele>
        <time>2015-03-08T12:18:26Z</time>
      </trkpt>
      <trkpt lat="44.33217" lon="4.76533">
        <ele>270</ele>
        <time>2015-03-08T12:18:29Z</time>
      </trkpt>
      <trkpt lat="44.33226" lon="4.76539">
        <ele>269.8</ele>
        <time>2015-03-08T12:18:33Z</time>
      </trkpt>
      <trkpt lat="44.33234" lon="4.76551">
        <ele>269.6</ele>
        <time>2015-03-08T12:18:37Z</time>
      </trkpt>
      <trkpt lat="44.33239" lon="4.76561">
        <ele>269.2</ele>
        <time>2015-03-08T12:18:40Z</time>
      </trkpt>
      <trkpt lat="44.33245" lon="4.76572">
        <ele>268.7</ele>
        <time>2015-03-08T12:18:43Z</time>
      </trkpt>
      <trkpt lat="44.3325" lon="4.76583">
        <ele>268.4</ele>
        <time>2015-03-08T12:18:46Z</time>
      </trkpt>
      <trkpt lat="44.33249" lon="4.76596">
        <ele>268.1</ele>
        <time>2015-03-08T12:18:57Z</time>
      </trkpt>
      <trkpt lat="44.33249" lon="4.76609">
        <ele>268.4</ele>
        <time>2015-03-08T12:19:07Z</time>
      </trkpt>
      <trkpt lat="44.33254" lon="4.7662">
        <ele>269.8</ele>
        <time>2015-03-08T12:19:16Z</time>
      </trkpt>
      <trkpt lat="44.33261" lon="4.76629">
        <ele>270.6</ele>
        <time>2015-03-08T12:19:26Z</time>
      </trkpt>
      <trkpt lat="44.3327" lon="4.76633">
        <ele>272.6</ele>
        <time>2015-03-08T12:19:37Z</time>
      </trkpt>
      <trkpt lat="44.33278" lon="4.76625">
        <ele>274.2</ele>
        <time>2015-03-08T12:19:50Z</time>
      </trkpt>
      <trkpt lat="44.33287" lon="4.7662">
        <ele>275.9</ele>
        <time>2015-03-08T12:20:03Z</time>
      </trkpt>
      <trkpt lat="44.33298" lon="4.76621">
        <ele>276.6</ele>
        <time>2015-03-08T12:20:10Z</time>
      </trkpt>
      <trkpt lat="44.33308" lon="4.76622">
        <ele>277</ele>
        <time>2015-03-08T12:20:17Z</time>
      </trkpt>
      <trkpt lat="44.33316" lon="4.76632">
        <ele>276.9</ele>
        <time>2015-03-08T12:20:23Z</time>
      </trkpt>
      <trkpt lat="44.33324" lon="4.76638">
        <ele>276.2</ele>
        <time>2015-03-08T12:20:26Z</time>
      </trkpt>
      <trkpt lat="44.33334" lon="4.76643">
        <ele>275.1</ele>
        <time>2015-03-08T12:20:30Z</time>
      </trkpt>
      <trkpt lat="44.33343" lon="4.76649">
        <ele>274.4</ele>
        <time>2015-03-08T12:20:33Z</time>
      </trkpt>
      <trkpt lat="44.33352" lon="4.76655">
        <ele>273.6</ele>
        <time>2015-03-08T12:20:37Z</time>
      </trkpt>
      <trkpt lat="44.3336" lon="4.7666">
        <ele>272.8</ele>
        <time>2015-03-08T12:20:40Z</time>
      </trkpt>
      <trkpt lat="44.3337" lon="4.76667">
        <ele>271.7</ele>
        <time>2015-03-08T12:20:44Z</time>
      </trkpt>
      <trkpt lat="44.33379" lon="4.76668">
        <ele>270</ele>
        <time>2015-03-08T12:20:51Z</time>
      </trkpt>
      <trkpt lat="44.33388" lon="4.76668">
        <ele>268.7</ele>
        <time>2015-03-08T12:21:00Z</time>
      </trkpt>
      <trkpt lat="44.33398" lon="4.76669">
        <ele>267.8</ele>
        <time>2015-03-08T12:21:14Z</time>
      </trkpt>
      <trkpt lat="44.33404" lon="4.76659">
        <ele>267.1</ele>
        <time>2015-03-08T12:21:35Z</time>
      </trkpt>
      <trkpt lat="44.33401" lon="4.76645">
        <ele>266.2</ele>
        <time>2015-03-08T12:21:40Z</time>
      </trkpt>
      <trkpt lat="44.33393" lon="4.76633">
        <ele>264.1</ele>
        <time>2015-03-08T12:21:44Z</time>
      </trkpt>
      <trkpt lat="44.33393" lon="4.76619">
        <ele>261.8</ele>
        <time>2015-03-08T12:21:48Z</time>
      </trkpt>
      <trkpt lat="44.33386" lon="4.76608">
        <ele>259.8</ele>
        <time>2015-03-08T12:21:51Z</time>
      </trkpt>
      <trkpt lat="44.33378" lon="4.76593">
        <ele>257.4</ele>
        <time>2015-03-08T12:21:54Z</time>
      </trkpt>
      <trkpt lat="44.33372" lon="4.76581">
        <ele>255.7</ele>
        <time>2015-03-08T12:21:56Z</time>
      </trkpt>
      <trkpt lat="44.33366" lon="4.76567">
        <ele>252.8</ele>
        <time>2015-03-08T12:21:59Z</time>
      </trkpt>
      <trkpt lat="44.33361" lon="4.76552">
        <ele>249.5</ele>
        <time>2015-03-08T12:22:03Z</time>
      </trkpt>
      <trkpt lat="44.33352" lon="4.76538">
        <ele>247</ele>
        <time>2015-03-08T12:22:06Z</time>
      </trkpt>
      <trkpt lat="44.33346" lon="4.76527">
        <ele>245.1</ele>
        <time>2015-03-08T12:22:08Z</time>
      </trkpt>
      <trkpt lat="44.3334" lon="4.76511">
        <ele>243.1</ele>
        <time>2015-03-08T12:22:10Z</time>
      </trkpt>
      <trkpt lat="44.33336" lon="4.765">
        <ele>239.3</ele>
        <time>2015-03-08T12:22:14Z</time>
      </trkpt>
      <trkpt lat="44.33331" lon="4.7649">
        <ele>236.7</ele>
        <time>2015-03-08T12:22:17Z</time>
      </trkpt>
      <trkpt lat="44.33337" lon="4.76482">
        <ele>230.4</ele>
        <time>2015-03-08T12:22:25Z</time>
      </trkpt>
      <trkpt lat="44.33346" lon="4.76483">
        <ele>227.5</ele>
        <time>2015-03-08T12:22:29Z</time>
      </trkpt>
      <trkpt lat="44.33356" lon="4.76482">
        <ele>224.2</ele>
        <time>2015-03-08T12:22:33Z</time>
      </trkpt>
      <trkpt lat="44.33367" lon="4.7648">
        <ele>221.4</ele>
        <time>2015-03-08T12:22:37Z</time>
      </trkpt>
      <trkpt lat="44.33376" lon="4.76481">
        <ele>218.6</ele>
        <time>2015-03-08T12:22:41Z</time>
      </trkpt>
      <trkpt lat="44.33386" lon="4.76481">
        <ele>215.9</ele>
        <time>2015-03-08T12:22:45Z</time>
      </trkpt>
      <trkpt lat="44.33396" lon="4.76481">
        <ele>213.2</ele>
        <time>2015-03-08T12:22:49Z</time>
      </trkpt>
      <trkpt lat="44.33406" lon="4.76484">
        <ele>210.8</ele>
        <time>2015-03-08T12:22:53Z</time>
      </trkpt>
      <trkpt lat="44.33417" lon="4.7649">
        <ele>208.3</ele>
        <time>2015-03-08T12:22:57Z</time>
      </trkpt>
      <trkpt lat="44.33426" lon="4.7649">
        <ele>207.2</ele>
        <time>2015-03-08T12:22:59Z</time>
      </trkpt>
      <trkpt lat="44.33436" lon="4.76491">
        <ele>205.9</ele>
        <time>2015-03-08T12:23:01Z</time>
      </trkpt>
      <trkpt lat="44.33445" lon="4.76492">
        <ele>203.8</ele>
        <time>2015-03-08T12:23:04Z</time>
      </trkpt>
      <trkpt lat="44.33457" lon="4.7649">
        <ele>201.7</ele>
        <time>2015-03-08T12:23:07Z</time>
      </trkpt>
      <trkpt lat="44.33468" lon="4.76492">
        <ele>199.7</ele>
        <time>2015-03-08T12:23:10Z</time>
      </trkpt>
      <trkpt lat="44.33479" lon="4.76497">
        <ele>197.8</ele>
        <time>2015-03-08T12:23:13Z</time>
      </trkpt>
      <trkpt lat="44.33491" lon="4.76499">
        <ele>195.4</ele>
        <time>2015-03-08T12:23:16Z</time>
      </trkpt>
      <trkpt lat="44.335" lon="4.76494">
        <ele>193.3</ele>
        <time>2015-03-08T12:23:19Z</time>
      </trkpt>
      <trkpt lat="44.33508" lon="4.76487">
        <ele>191.2</ele>
        <time>2015-03-08T12:23:22Z</time>
      </trkpt>
      <trkpt lat="44.33516" lon="4.7648">
        <ele>188.6</ele>
        <time>2015-03-08T12:23:26Z</time>
      </trkpt>
      <trkpt lat="44.33524" lon="4.76469">
        <ele>185.9</ele>
        <time>2015-03-08T12:23:30Z</time>
      </trkpt>
      <trkpt lat="44.33531" lon="4.76458">
        <ele>182.5</ele>
        <time>2015-03-08T12:23:35Z</time>
      </trkpt>
      <trkpt lat="44.33539" lon="4.76448">
        <ele>179.3</ele>
        <time>2015-03-08T12:23:39Z</time>
      </trkpt>
      <trkpt lat="44.3355" lon="4.76447">
        <ele>176.1</ele>
        <time>2015-03-08T12:23:43Z</time>
      </trkpt>
      <trkpt lat="44.33562" lon="4.76453">
        <ele>174</ele>
        <time>2015-03-08T12:23:46Z</time>
      </trkpt>
      <trkpt lat="44.33573" lon="4.76459">
        <ele>172.1</ele>
        <time>2015-03-08T12:23:49Z</time>
      </trkpt>
      <trkpt lat="44.33585" lon="4.76463">
        <ele>170.3</ele>
        <time>2015-03-08T12:23:52Z</time>
      </trkpt>
      <trkpt lat="44.33592" lon="4.76471">
        <ele>167.9</ele>
        <time>2015-03-08T12:23:56Z</time>
      </trkpt>
      <trkpt lat="44.33601" lon="4.76481">
        <ele>165.8</ele>
        <time>2015-03-08T12:24:00Z</time>
      </trkpt>
      <trkpt lat="44.33608" lon="4.76493">
        <ele>163.8</ele>
        <time>2015-03-08T12:24:04Z</time>
      </trkpt>
      <trkpt lat="44.33616" lon="4.765">
        <ele>161.6</ele>
        <time>2015-03-08T12:24:09Z</time>
      </trkpt>
      <trkpt lat="44.33625" lon="4.76507">
        <ele>160.1</ele>
        <time>2015-03-08T12:24:13Z</time>
      </trkpt>
      <trkpt lat="44.33636" lon="4.76506">
        <ele>158.7</ele>
        <time>2015-03-08T12:24:17Z</time>
      </trkpt>
      <trkpt lat="44.33645" lon="4.7651">
        <ele>157.3</ele>
        <time>2015-03-08T12:24:22Z</time>
      </trkpt>
      <trkpt lat="44.33655" lon="4.76509">
        <ele>155.3</ele>
        <time>2015-03-08T12:24:31Z</time>
      </trkpt>
      <trkpt lat="44.33662" lon="4.76498">
        <ele>154.5</ele>
        <time>2015-03-08T12:24:34Z</time>
      </trkpt>
      <trkpt lat="44.3367" lon="4.76486">
        <ele>153.7</ele>
        <time>2015-03-08T12:24:37Z</time>
      </trkpt>
      <trkpt lat="44.33675" lon="4.76473">
        <ele>152.2</ele>
        <time>2015-03-08T12:24:43Z</time>
      </trkpt>
      <trkpt lat="44.33683" lon="4.76467">
        <ele>149.7</ele>
        <time>2015-03-08T12:24:53Z</time>
      </trkpt>
      <trkpt lat="44.33679" lon="4.7648">
        <ele>147.6</ele>
        <time>2015-03-08T12:25:11Z</time>
      </trkpt>
      <trkpt lat="44.33672" lon="4.7649">
        <ele>147.5</ele>
        <time>2015-03-08T12:25:19Z</time>
      </trkpt>
      <trkpt lat="44.33679" lon="4.765">
        <ele>148.8</ele>
        <time>2015-03-08T12:25:28Z</time>
      </trkpt>
      <trkpt lat="44.33688" lon="4.76505">
        <ele>149.7</ele>
        <time>2015-03-08T12:25:36Z</time>
      </trkpt>
      <trkpt lat="44.33696" lon="4.76514">
        <ele>150.4</ele>
        <time>2015-03-08T12:25:43Z</time>
      </trkpt>
      <trkpt lat="44.33703" lon="4.76521">
        <ele>152</ele>
        <time>2015-03-08T12:25:54Z</time>
      </trkpt>
      <trkpt lat="44.33705" lon="4.76534">
        <ele>154.6</ele>
        <time>2015-03-08T12:26:08Z</time>
      </trkpt>
      <trkpt lat="44.33709" lon="4.76547">
        <ele>155.1</ele>
        <time>2015-03-08T12:26:14Z</time>
      </trkpt>
      <trkpt lat="44.33717" lon="4.76558">
        <ele>155.4</ele>
        <time>2015-03-08T12:26:19Z</time>
      </trkpt>
      <trkpt lat="44.33724" lon="4.76568">
        <ele>155.4</ele>
        <time>2015-03-08T12:26:22Z</time>
      </trkpt>
      <trkpt lat="44.33735" lon="4.76581">
        <ele>155.3</ele>
        <time>2015-03-08T12:26:25Z</time>
      </trkpt>
      <trkpt lat="44.33742" lon="4.76588">
        <ele>154.8</ele>
        <time>2015-03-08T12:26:27Z</time>
      </trkpt>
      <trkpt lat="44.33753" lon="4.76599">
        <ele>154.2</ele>
        <time>2015-03-08T12:26:30Z</time>
      </trkpt>
      <trkpt lat="44.33763" lon="4.76608">
        <ele>153.5</ele>
        <time>2015-03-08T12:26:33Z</time>
      </trkpt>
      <trkpt lat="44.33771" lon="4.76617">
        <ele>152.7</ele>
        <time>2015-03-08T12:26:37Z</time>
      </trkpt>
      <trkpt lat="44.33777" lon="4.76627">
        <ele>152.4</ele>
        <time>2015-03-08T12:26:41Z</time>
      </trkpt>
      <trkpt lat="44.33785" lon="4.76639">
        <ele>152.2</ele>
        <time>2015-03-08T12:26:46Z</time>
      </trkpt>
      <trkpt lat="44.33792" lon="4.76648">
        <ele>152.1</ele>
        <time>2015-03-08T12:26:49Z</time>
      </trkpt>
      <trkpt lat="44.33802" lon="4.7665">
        <ele>151.5</ele>
        <time>2015-03-08T12:26:53Z</time>
      </trkpt>
      <trkpt lat="44.33813" lon="4.7665">
        <ele>151.1</ele>
        <time>2015-03-08T12:26:58Z</time>
      </trkpt>
      <trkpt lat="44.33825" lon="4.76652">
        <ele>151.4</ele>
        <time>2015-03-08T12:27:02Z</time>
      </trkpt>
      <trkpt lat="44.33833" lon="4.76657">
        <ele>151.2</ele>
        <time>2015-03-08T12:27:04Z</time>
      </trkpt>
      <trkpt lat="44.33843" lon="4.76661">
        <ele>151</ele>
        <time>2015-03-08T12:27:06Z</time>
      </trkpt>
      <trkpt lat="44.33855" lon="4.76667">
        <ele>150.6</ele>
        <time>2015-03-08T12:27:09Z</time>
      </trkpt>
      <trkpt lat="44.33863" lon="4.76677">
        <ele>149.9</ele>
        <time>2015-03-08T12:27:12Z</time>
      </trkpt>
      <trkpt lat="44.33873" lon="4.76684">
        <ele>149.3</ele>
        <time>2015-03-08T12:27:14Z</time>
      </trkpt>
      <trkpt lat="44.33883" lon="4.76691">
        <ele>148.7</ele>
        <time>2015-03-08T12:27:16Z</time>
      </trkpt>
      <trkpt lat="44.33893" lon="4.76696">
        <ele>146.8</ele>
        <time>2015-03-08T12:27:20Z</time>
      </trkpt>
      <trkpt lat="44.33898" lon="4.7671">
        <ele>144.1</ele>
        <time>2015-03-08T12:27:26Z</time>
      </trkpt>
      <trkpt lat="44.33905" lon="4.76722">
        <ele>142.7</ele>
        <time>2015-03-08T12:27:29Z</time>
      </trkpt>
      <trkpt lat="44.3391" lon="4.76733">
        <ele>141.3</ele>
        <time>2015-03-08T12:27:32Z</time>
      </trkpt>
      <trkpt lat="44.33913" lon="4.76745">
        <ele>140.2</ele>
        <time>2015-03-08T12:27:34Z</time>
      </trkpt>
      <trkpt lat="44.33919" lon="4.7676">
        <ele>138.4</ele>
        <time>2015-03-08T12:27:37Z</time>
      </trkpt>
      <trkpt lat="44.33929" lon="4.76765">
        <ele>136.6</ele>
        <time>2015-03-08T12:27:40Z</time>
      </trkpt>
      <trkpt lat="44.33937" lon="4.76757">
        <ele>134.6</ele>
        <time>2015-03-08T12:27:44Z</time>
      </trkpt>
      <trkpt lat="44.33947" lon="4.76752">
        <ele>133.1</ele>
        <time>2015-03-08T12:27:48Z</time>
      </trkpt>
      <trkpt lat="44.33955" lon="4.76744">
        <ele>132.2</ele>
        <time>2015-03-08T12:27:51Z</time>
      </trkpt>
      <trkpt lat="44.33963" lon="4.76734">
        <ele>130.8</ele>
        <time>2015-03-08T12:27:54Z</time>
      </trkpt>
      <trkpt lat="44.33971" lon="4.76726">
        <ele>129.7</ele>
        <time>2015-03-08T12:27:57Z</time>
      </trkpt>
      <trkpt lat="44.33982" lon="4.76722">
        <ele>128.4</ele>
        <time>2015-03-08T12:28:01Z</time>
      </trkpt>
      <trkpt lat="44.33992" lon="4.76728">
        <ele>127.6</ele>
        <time>2015-03-08T12:28:04Z</time>
      </trkpt>
      <trkpt lat="44.34002" lon="4.76732">
        <ele>126.9</ele>
        <time>2015-03-08T12:28:06Z</time>
      </trkpt>
      <trkpt lat="44.3401" lon="4.76737">
        <ele>126.3</ele>
        <time>2015-03-08T12:28:08Z</time>
      </trkpt>
      <trkpt lat="44.34019" lon="4.76737">
        <ele>125.7</ele>
        <time>2015-03-08T12:28:10Z</time>
      </trkpt>
      <trkpt lat="44.3403" lon="4.76728">
        <ele>124.9</ele>
        <time>2015-03-08T12:28:13Z</time>
      </trkpt>
      <trkpt lat="44.34039" lon="4.76717">
        <ele>124</ele>
        <time>2015-03-08T12:28:16Z</time>
      </trkpt>
      <trkpt lat="44.34047" lon="4.76709">
        <ele>123.1</ele>
        <time>2015-03-08T12:28:18Z</time>
      </trkpt>
      <trkpt lat="44.34054" lon="4.76701">
        <ele>122.3</ele>
        <time>2015-03-08T12:28:20Z</time>
      </trkpt>
      <trkpt lat="44.34061" lon="4.76693">
        <ele>121.6</ele>
        <time>2015-03-08T12:28:22Z</time>
      </trkpt>
      <trkpt lat="44.34068" lon="4.76683">
        <ele>121</ele>
        <time>2015-03-08T12:28:24Z</time>
      </trkpt>
      <trkpt lat="44.34077" lon="4.76674">
        <ele>120.1</ele>
        <time>2015-03-08T12:28:27Z</time>
      </trkpt>
      <trkpt lat="44.34086" lon="4.76662">
        <ele>119.2</ele>
        <time>2015-03-08T12:28:31Z</time>
      </trkpt>
      <trkpt lat="44.34092" lon="4.76652">
        <ele>118.6</ele>
        <time>2015-03-08T12:28:34Z</time>
      </trkpt>
      <trkpt lat="44.34099" lon="4.76642">
        <ele>118.1</ele>
        <time>2015-03-08T12:28:37Z</time>
      </trkpt>
      <trkpt lat="44.34108" lon="4.76631">
        <ele>117.6</ele>
        <time>2015-03-08T12:28:40Z</time>
      </trkpt>
      <trkpt lat="44.34116" lon="4.76618">
        <ele>117.2</ele>
        <time>2015-03-08T12:28:43Z</time>
      </trkpt>
      <trkpt lat="44.34121" lon="4.76606">
        <ele>116.7</ele>
        <time>2015-03-08T12:28:47Z</time>
      </trkpt>
      <trkpt lat="44.34133" lon="4.76603">
        <ele>116.3</ele>
        <time>2015-03-08T12:28:51Z</time>
      </trkpt>
      <trkpt lat="44.34143" lon="4.76604">
        <ele>116.1</ele>
        <time>2015-03-08T12:28:53Z</time>
      </trkpt>
      <trkpt lat="44.34153" lon="4.76604">
        <ele>115.9</ele>
        <time>2015-03-08T12:28:55Z</time>
      </trkpt>
      <trkpt lat="44.34163" lon="4.76606">
        <ele>115.7</ele>
        <time>2015-03-08T12:28:57Z</time>
      </trkpt>
      <trkpt lat="44.34175" lon="4.76608">
        <ele>115.5</ele>
        <time>2015-03-08T12:28:59Z</time>
      </trkpt>
      <trkpt lat="44.34187" lon="4.7661">
        <ele>115.3</ele>
        <time>2015-03-08T12:29:01Z</time>
      </trkpt>
      <trkpt lat="44.342" lon="4.76613">
        <ele>115</ele>
        <time>2015-03-08T12:29:03Z</time>
      </trkpt>
      <trkpt lat="44.34213" lon="4.76616">
        <ele>114.6</ele>
        <time>2015-03-08T12:29:05Z</time>
      </trkpt>
      <trkpt lat="44.34226" lon="4.76621">
        <ele>114.3</ele>
        <time>2015-03-08T12:29:07Z</time>
      </trkpt>
      <trkpt lat="44.3424" lon="4.76627">
        <ele>113.9</ele>
        <time>2015-03-08T12:29:09Z</time>
      </trkpt>
      <trkpt lat="44.34253" lon="4.76633">
        <ele>113.5</ele>
        <time>2015-03-08T12:29:11Z</time>
      </trkpt>
      <trkpt lat="44.34266" lon="4.76641">
        <ele>113.1</ele>
        <time>2015-03-08T12:29:13Z</time>
      </trkpt>
      <trkpt lat="44.3428" lon="4.76648">
        <ele>112.8</ele>
        <time>2015-03-08T12:29:15Z</time>
      </trkpt>
      <trkpt lat="44.34293" lon="4.76654">
        <ele>112.4</ele>
        <time>2015-03-08T12:29:17Z</time>
      </trkpt>
      <trkpt lat="44.34307" lon="4.76661">
        <ele>112</ele>
        <time>2015-03-08T12:29:19Z</time>
      </trkpt>
      <trkpt lat="44.3432" lon="4.76667">
        <ele>111.4</ele>
        <time>2015-03-08T12:29:21Z</time>
      </trkpt>
      <trkpt lat="44.34333" lon="4.76674">
        <ele>110.8</ele>
        <time>2015-03-08T12:29:23Z</time>
      </trkpt>
      <trkpt lat="44.34346" lon="4.76679">
        <ele>110.3</ele>
        <time>2015-03-08T12:29:25Z</time>
      </trkpt>
      <trkpt lat="44.34358" lon="4.76683">
        <ele>109.8</ele>
        <time>2015-03-08T12:29:27Z</time>
      </trkpt>
      <trkpt lat="44.34371" lon="4.76685">
        <ele>109.3</ele>
        <time>2015-03-08T12:29:29Z</time>
      </trkpt>
      <trkpt lat="44.34384" lon="4.76685">
        <ele>108.8</ele>
        <time>2015-03-08T12:29:31Z</time>
      </trkpt>
      <trkpt lat="44.34396" lon="4.76685">
        <ele>108.4</ele>
        <time>2015-03-08T12:29:33Z</time>
      </trkpt>
      <trkpt lat="44.34409" lon="4.76684">
        <ele>108</ele>
        <time>2015-03-08T12:29:35Z</time>
      </trkpt>
      <trkpt lat="44.34422" lon="4.76684">
        <ele>107.6</ele>
        <time>2015-03-08T12:29:37Z</time>
      </trkpt>
      <trkpt lat="44.34436" lon="4.76683">
        <ele>107.3</ele>
        <time>2015-03-08T12:29:39Z</time>
      </trkpt>
      <trkpt lat="44.34449" lon="4.76682">
        <ele>106.9</ele>
        <time>2015-03-08T12:29:41Z</time>
      </trkpt>
      <trkpt lat="44.34463" lon="4.76682">
        <ele>106.5</ele>
        <time>2015-03-08T12:29:43Z</time>
      </trkpt>
      <trkpt lat="44.34476" lon="4.76681">
        <ele>106.2</ele>
        <time>2015-03-08T12:29:45Z</time>
      </trkpt>
      <trkpt lat="44.34489" lon="4.7668">
        <ele>105.8</ele>
        <time>2015-03-08T12:29:47Z</time>
      </trkpt>
      <trkpt lat="44.34503" lon="4.7668">
        <ele>105.4</ele>
        <time>2015-03-08T12:29:49Z</time>
      </trkpt>
      <trkpt lat="44.34516" lon="4.76679">
        <ele>105</ele>
        <time>2015-03-08T12:29:51Z</time>
      </trkpt>
      <trkpt lat="44.34529" lon="4.76678">
        <ele>104.6</ele>
        <time>2015-03-08T12:29:53Z</time>
      </trkpt>
      <trkpt lat="44.34541" lon="4.76677">
        <ele>104.2</ele>
        <time>2015-03-08T12:29:55Z</time>
      </trkpt>
      <trkpt lat="44.34552" lon="4.76677">
        <ele>103.9</ele>
        <time>2015-03-08T12:29:57Z</time>
      </trkpt>
      <trkpt lat="44.34562" lon="4.76676">
        <ele>103.6</ele>
        <time>2015-03-08T12:29:59Z</time>
      </trkpt>
      <trkpt lat="44.34572" lon="4.76675">
        <ele>103.3</ele>
        <time>2015-03-08T12:30:01Z</time>
      </trkpt>
      <trkpt lat="44.34582" lon="4.76675">
        <ele>103.1</ele>
        <time>2015-03-08T12:30:03Z</time>
      </trkpt>
      <trkpt lat="44.34591" lon="4.7668">
        <ele>102.9</ele>
        <time>2015-03-08T12:30:05Z</time>
      </trkpt>
      <trkpt lat="44.34594" lon="4.76697">
        <ele>102.6</ele>
        <time>2015-03-08T12:30:08Z</time>
      </trkpt>
      <trkpt lat="44.34595" lon="4.76709">
        <ele>102.5</ele>
        <time>2015-03-08T12:30:10Z</time>
      </trkpt>
      <trkpt lat="44.34595" lon="4.76722">
        <ele>102.4</ele>
        <time>2015-03-08T12:30:12Z</time>
      </trkpt>
      <trkpt lat="44.34597" lon="4.76741">
        <ele>102.1</ele>
        <time>2015-03-08T12:30:15Z</time>
      </trkpt>
      <trkpt lat="44.34598" lon="4.76759">
        <ele>101.9</ele>
        <time>2015-03-08T12:30:18Z</time>
      </trkpt>
      <trkpt lat="44.34599" lon="4.76777">
        <ele>101.8</ele>
        <time>2015-03-08T12:30:21Z</time>
      </trkpt>
      <trkpt lat="44.34598" lon="4.76794">
        <ele>101.7</ele>
        <time>2015-03-08T12:30:24Z</time>
      </trkpt>
      <trkpt lat="44.346" lon="4.76811">
        <ele>101.6</ele>
        <time>2015-03-08T12:30:27Z</time>
      </trkpt>
      <trkpt lat="44.34601" lon="4.7683">
        <ele>101.5</ele>
        <time>2015-03-08T12:30:30Z</time>
      </trkpt>
      <trkpt lat="44.34601" lon="4.76843">
        <ele>101.4</ele>
        <time>2015-03-08T12:30:32Z</time>
      </trkpt>
      <trkpt lat="44.34601" lon="4.76856">
        <ele>101.3</ele>
        <time>2015-03-08T12:30:34Z</time>
      </trkpt>
      <trkpt lat="44.34602" lon="4.76869">
        <ele>101.4</ele>
        <time>2015-03-08T12:30:36Z</time>
      </trkpt>
      <trkpt lat="44.34602" lon="4.76882">
        <ele>101.6</ele>
        <time>2015-03-08T12:30:38Z</time>
      </trkpt>
      <trkpt lat="44.34602" lon="4.76895">
        <ele>101.7</ele>
        <time>2015-03-08T12:30:40Z</time>
      </trkpt>
      <trkpt lat="44.34602" lon="4.76908">
        <ele>102.1</ele>
        <time>2015-03-08T12:30:42Z</time>
      </trkpt>
      <trkpt lat="44.34603" lon="4.76921">
        <ele>102.3</ele>
        <time>2015-03-08T12:30:44Z</time>
      </trkpt>
      <trkpt lat="44.34603" lon="4.76939">
        <ele>102.6</ele>
        <time>2015-03-08T12:30:47Z</time>
      </trkpt>
      <trkpt lat="44.34604" lon="4.76958">
        <ele>102.8</ele>
        <time>2015-03-08T12:30:50Z</time>
      </trkpt>
      <trkpt lat="44.34604" lon="4.76976">
        <ele>103</ele>
        <time>2015-03-08T12:30:53Z</time>
      </trkpt>
      <trkpt lat="44.34605" lon="4.76994">
        <ele>103.1</ele>
        <time>2015-03-08T12:30:56Z</time>
      </trkpt>
      <trkpt lat="44.34605" lon="4.77011">
        <ele>103.2</ele>
        <time>2015-03-08T12:30:59Z</time>
      </trkpt>
      <trkpt lat="44.34603" lon="4.77028">
        <ele>103.3</ele>
        <time>2015-03-08T12:31:02Z</time>
      </trkpt>
      <trkpt lat="44.346" lon="4.77044">
        <ele>103.5</ele>
        <time>2015-03-08T12:31:05Z</time>
      </trkpt>
      <trkpt lat="44.34601" lon="4.7706">
        <ele>103.6</ele>
        <time>2015-03-08T12:31:08Z</time>
      </trkpt>
      <trkpt lat="44.34601" lon="4.77072">
        <ele>103.8</ele>
        <time>2015-03-08T12:31:11Z</time>
      </trkpt>
      <trkpt lat="44.34602" lon="4.77087">
        <ele>104.3</ele>
        <time>2015-03-08T12:31:15Z</time>
      </trkpt>
      <trkpt lat="44.34602" lon="4.77101">
        <ele>105.1</ele>
        <time>2015-03-08T12:31:21Z</time>
      </trkpt>
      <trkpt lat="44.34595" lon="4.77112">
        <ele>105.4</ele>
        <time>2015-03-08T12:31:25Z</time>
      </trkpt>
      <trkpt lat="44.34598" lon="4.77126">
        <ele>105.7</ele>
        <time>2015-03-08T12:31:28Z</time>
      </trkpt>
      <trkpt lat="44.34599" lon="4.77139">
        <ele>105.8</ele>
        <time>2015-03-08T12:31:31Z</time>
      </trkpt>
      <trkpt lat="44.34596" lon="4.77155">
        <ele>106</ele>
        <time>2015-03-08T12:31:34Z</time>
      </trkpt>
      <trkpt lat="44.34593" lon="4.77172">
        <ele>106.1</ele>
        <time>2015-03-08T12:31:37Z</time>
      </trkpt>
      <trkpt lat="44.3459" lon="4.7719">
        <ele>106.2</ele>
        <time>2015-03-08T12:31:40Z</time>
      </trkpt>
      <trkpt lat="44.34586" lon="4.77207">
        <ele>106.3</ele>
        <time>2015-03-08T12:31:43Z</time>
      </trkpt>
      <trkpt lat="44.34582" lon="4.77224">
        <ele>106.2</ele>
        <time>2015-03-08T12:31:46Z</time>
      </trkpt>
      <trkpt lat="44.34579" lon="4.77241">
        <ele>106.1</ele>
        <time>2015-03-08T12:31:49Z</time>
      </trkpt>
      <trkpt lat="44.34575" lon="4.77258">
        <ele>106.1</ele>
        <time>2015-03-08T12:31:52Z</time>
      </trkpt>
      <trkpt lat="44.34571" lon="4.77276">
        <ele>106.2</ele>
        <time>2015-03-08T12:31:55Z</time>
      </trkpt>
      <trkpt lat="44.3457" lon="4.77292">
        <ele>106.3</ele>
        <time>2015-03-08T12:31:58Z</time>
      </trkpt>
      <trkpt lat="44.34577" lon="4.77304">
        <ele>106.4</ele>
        <time>2015-03-08T12:32:01Z</time>
      </trkpt>
      <trkpt lat="44.34587" lon="4.77311">
        <ele>106.6</ele>
        <time>2015-03-08T12:32:04Z</time>
      </trkpt>
      <trkpt lat="44.34596" lon="4.77315">
        <ele>106.7</ele>
        <time>2015-03-08T12:32:06Z</time>
      </trkpt>
      <trkpt lat="44.34606" lon="4.77321">
        <ele>106.8</ele>
        <time>2015-03-08T12:32:08Z</time>
      </trkpt>
      <trkpt lat="44.34617" lon="4.77326">
        <ele>106.9</ele>
        <time>2015-03-08T12:32:10Z</time>
      </trkpt>
      <trkpt lat="44.34629" lon="4.77331">
        <ele>107</ele>
        <time>2015-03-08T12:32:12Z</time>
      </trkpt>
      <trkpt lat="44.34641" lon="4.77337">
        <ele>106.9</ele>
        <time>2015-03-08T12:32:14Z</time>
      </trkpt>
      <trkpt lat="44.34654" lon="4.77343">
        <ele>106.8</ele>
        <time>2015-03-08T12:32:16Z</time>
      </trkpt>
      <trkpt lat="44.34668" lon="4.77349">
        <ele>106.6</ele>
        <time>2015-03-08T12:32:18Z</time>
      </trkpt>
      <trkpt lat="44.34681" lon="4.77355">
        <ele>106.4</ele>
        <time>2015-03-08T12:32:20Z</time>
      </trkpt>
      <trkpt lat="44.34695" lon="4.77362">
        <ele>106.2</ele>
        <time>2015-03-08T12:32:22Z</time>
      </trkpt>
      <trkpt lat="44.34708" lon="4.77368">
        <ele>106</ele>
        <time>2015-03-08T12:32:24Z</time>
      </trkpt>
      <trkpt lat="44.3472" lon="4.77373">
        <ele>105.7</ele>
        <time>2015-03-08T12:32:26Z</time>
      </trkpt>
      <trkpt lat="44.34732" lon="4.77379">
        <ele>105.3</ele>
        <time>2015-03-08T12:32:29Z</time>
      </trkpt>
      <trkpt lat="44.34739" lon="4.77387">
        <ele>104.9</ele>
        <time>2015-03-08T12:32:32Z</time>
      </trkpt>
      <trkpt lat="44.3475" lon="4.77398">
        <ele>104.5</ele>
        <time>2015-03-08T12:32:35Z</time>
      </trkpt>
      <trkpt lat="44.34759" lon="4.77404">
        <ele>104.3</ele>
        <time>2015-03-08T12:32:37Z</time>
      </trkpt>
      <trkpt lat="44.3477" lon="4.77409">
        <ele>104.1</ele>
        <time>2015-03-08T12:32:39Z</time>
      </trkpt>
      <trkpt lat="44.34782" lon="4.77416">
        <ele>103.9</ele>
        <time>2015-03-08T12:32:41Z</time>
      </trkpt>
      <trkpt lat="44.34794" lon="4.77422">
        <ele>103.7</ele>
        <time>2015-03-08T12:32:43Z</time>
      </trkpt>
      <trkpt lat="44.34807" lon="4.77429">
        <ele>103.5</ele>
        <time>2015-03-08T12:32:45Z</time>
      </trkpt>
      <trkpt lat="44.34821" lon="4.77436">
        <ele>103.3</ele>
        <time>2015-03-08T12:32:47Z</time>
      </trkpt>
      <trkpt lat="44.34834" lon="4.77443">
        <ele>103</ele>
        <time>2015-03-08T12:32:49Z</time>
      </trkpt>
      <trkpt lat="44.34847" lon="4.7745">
        <ele>102.8</ele>
        <time>2015-03-08T12:32:51Z</time>
      </trkpt>
      <trkpt lat="44.34861" lon="4.77456">
        <ele>102.5</ele>
        <time>2015-03-08T12:32:53Z</time>
      </trkpt>
      <trkpt lat="44.34874" lon="4.77463">
        <ele>102.3</ele>
        <time>2015-03-08T12:32:55Z</time>
      </trkpt>
      <trkpt lat="44.34887" lon="4.7747">
        <ele>102.2</ele>
        <time>2015-03-08T12:32:57Z</time>
      </trkpt>
      <trkpt lat="44.349" lon="4.77478">
        <ele>102</ele>
        <time>2015-03-08T12:32:59Z</time>
      </trkpt>
      <trkpt lat="44.34913" lon="4.77485">
        <ele>101.9</ele>
        <time>2015-03-08T12:33:01Z</time>
      </trkpt>
      <trkpt lat="44.34926" lon="4.77491">
        <ele>101.8</ele>
        <time>2015-03-08T12:33:03Z</time>
      </trkpt>
      <trkpt lat="44.34939" lon="4.77497">
        <ele>101.7</ele>
        <time>2015-03-08T12:33:05Z</time>
      </trkpt>
      <trkpt lat="44.34952" lon="4.77504">
        <ele>101.6</ele>
        <time>2015-03-08T12:33:07Z</time>
      </trkpt>
      <trkpt lat="44.34964" lon="4.7751">
        <ele>101.5</ele>
        <time>2015-03-08T12:33:09Z</time>
      </trkpt>
      <trkpt lat="44.34976" lon="4.77517">
        <ele>101.4</ele>
        <time>2015-03-08T12:33:11Z</time>
      </trkpt>
      <trkpt lat="44.34988" lon="4.77523">
        <ele>101.3</ele>
        <time>2015-03-08T12:33:13Z</time>
      </trkpt>
      <trkpt lat="44.35" lon="4.77527">
        <ele>101.3</ele>
        <time>2015-03-08T12:33:15Z</time>
      </trkpt>
      <trkpt lat="44.35012" lon="4.77529">
        <ele>101.2</ele>
        <time>2015-03-08T12:33:17Z</time>
      </trkpt>
      <trkpt lat="44.35022" lon="4.77536">
        <ele>101.1</ele>
        <time>2015-03-08T12:33:19Z</time>
      </trkpt>
      <trkpt lat="44.35026" lon="4.77549">
        <ele>101</ele>
        <time>2015-03-08T12:33:21Z</time>
      </trkpt>
      <trkpt lat="44.35025" lon="4.77562">
        <ele>101</ele>
        <time>2015-03-08T12:33:23Z</time>
      </trkpt>
      <trkpt lat="44.35023" lon="4.77576">
        <ele>100.9</ele>
        <time>2015-03-08T12:33:25Z</time>
      </trkpt>
      <trkpt lat="44.35022" lon="4.7759">
        <ele>100.9</ele>
        <time>2015-03-08T12:33:27Z</time>
      </trkpt>
      <trkpt lat="44.35021" lon="4.77604">
        <ele>100.8</ele>
        <time>2015-03-08T12:33:29Z</time>
      </trkpt>
      <trkpt lat="44.3502" lon="4.77617">
        <ele>100.8</ele>
        <time>2015-03-08T12:33:31Z</time>
      </trkpt>
      <trkpt lat="44.3502" lon="4.7763">
        <ele>100.8</ele>
        <time>2015-03-08T12:33:33Z</time>
      </trkpt>
      <trkpt lat="44.3502" lon="4.77644">
        <ele>100.8</ele>
        <time>2015-03-08T12:33:35Z</time>
      </trkpt>
      <trkpt lat="44.3502" lon="4.77657">
        <ele>100.8</ele>
        <time>2015-03-08T12:33:37Z</time>
      </trkpt>
      <trkpt lat="44.3502" lon="4.7767">
        <ele>101</ele>
        <time>2015-03-08T12:33:39Z</time>
      </trkpt>
      <trkpt lat="44.35019" lon="4.77688">
        <ele>101.1</ele>
        <time>2015-03-08T12:33:42Z</time>
      </trkpt>
      <trkpt lat="44.35019" lon="4.77706">
        <ele>101.3</ele>
        <time>2015-03-08T12:33:45Z</time>
      </trkpt>
      <trkpt lat="44.35018" lon="4.77724">
        <ele>101.6</ele>
        <time>2015-03-08T12:33:48Z</time>
      </trkpt>
      <trkpt lat="44.35017" lon="4.77741">
        <ele>101.8</ele>
        <time>2015-03-08T12:33:51Z</time>
      </trkpt>
      <trkpt lat="44.35016" lon="4.77758">
        <ele>101.9</ele>
        <time>2015-03-08T12:33:54Z</time>
      </trkpt>
      <trkpt lat="44.35015" lon="4.77777">
        <ele>102.1</ele>
        <time>2015-03-08T12:33:57Z</time>
      </trkpt>
      <trkpt lat="44.35014" lon="4.77789">
        <ele>102.2</ele>
        <time>2015-03-08T12:33:59Z</time>
      </trkpt>
      <trkpt lat="44.35014" lon="4.77802">
        <ele>102.2</ele>
        <time>2015-03-08T12:34:01Z</time>
      </trkpt>
      <trkpt lat="44.35013" lon="4.77816">
        <ele>102.3</ele>
        <time>2015-03-08T12:34:03Z</time>
      </trkpt>
      <trkpt lat="44.35013" lon="4.7783">
        <ele>102.4</ele>
        <time>2015-03-08T12:34:05Z</time>
      </trkpt>
      <trkpt lat="44.35014" lon="4.77843">
        <ele>102.5</ele>
        <time>2015-03-08T12:34:07Z</time>
      </trkpt>
      <trkpt lat="44.35015" lon="4.77856">
        <ele>102.6</ele>
        <time>2015-03-08T12:34:09Z</time>
      </trkpt>
      <trkpt lat="44.35015" lon="4.77869">
        <ele>102.8</ele>
        <time>2015-03-08T12:34:11Z</time>
      </trkpt>
      <trkpt lat="44.35015" lon="4.77882">
        <ele>102.9</ele>
        <time>2015-03-08T12:34:13Z</time>
      </trkpt>
      <trkpt lat="44.35014" lon="4.77899">
        <ele>103</ele>
        <time>2015-03-08T12:34:16Z</time>
      </trkpt>
      <trkpt lat="44.35015" lon="4.77914">
        <ele>103.1</ele>
        <time>2015-03-08T12:34:19Z</time>
      </trkpt>
      <trkpt lat="44.35022" lon="4.77924">
        <ele>103.2</ele>
        <time>2015-03-08T12:34:23Z</time>
      </trkpt>
      <trkpt lat="44.3503" lon="4.77929">
        <ele>103.3</ele>
        <time>2015-03-08T12:34:28Z</time>
      </trkpt>
      <trkpt lat="44.35041" lon="4.77935">
        <ele>103.3</ele>
        <time>2015-03-08T12:34:32Z</time>
      </trkpt>
      <trkpt lat="44.35047" lon="4.77933">
        <ele>105.8</ele>
        <time>2015-03-08T12:39:32Z</time>
      </trkpt>
    </trkseg>
  </trk>
</gpx>